<?xml version="1.0" encoding="UTF-8" standalone="no" ?>
<gpx xmlns="http://www.topografix.com/GPX/1/1" xmlns:xsi="http://www.w3.org/2001/XMLSchema-instance" xsi:schemaLocation="http://www.topografix.com/GPX/1/1 http://www.topografix.com/GPX/1/1/gpx.xsd" version="1.1" creator="VisuGPX - https://www.visugpx.com">
  <metadata>
    <name>Toulouse VTT</name>
  </metadata>
  <trk>
    <name><![CDATA[Toulouse VTT_1]]></name>
    <trkseg>
      <trkpt lat="43.55585" lon="1.48127">
        <ele>121.6</ele>
        <time>2022-07-03T09:37:21Z</time>
      </trkpt>
      <trkpt lat="43.55582" lon="1.48125">
        <ele>154</ele>
        <time>2022-07-03T09:37:22Z</time>
      </trkpt>
      <trkpt lat="43.55584" lon="1.48128">
        <ele>159.4</ele>
        <time>2022-07-03T09:37:51Z</time>
      </trkpt>
      <trkpt lat="43.5558" lon="1.48128">
        <ele>159.6</ele>
        <time>2022-07-03T09:37:52Z</time>
      </trkpt>
      <trkpt lat="43.55577" lon="1.48128">
        <ele>159.6</ele>
        <time>2022-07-03T09:37:53Z</time>
      </trkpt>
      <trkpt lat="43.55574" lon="1.48128">
        <ele>159.8</ele>
        <time>2022-07-03T09:37:54Z</time>
      </trkpt>
      <trkpt lat="43.55571" lon="1.48127">
        <ele>159.8</ele>
        <time>2022-07-03T09:37:55Z</time>
      </trkpt>
      <trkpt lat="43.55567" lon="1.48126">
        <ele>159.8</ele>
        <time>2022-07-03T09:37:56Z</time>
      </trkpt>
      <trkpt lat="43.55564" lon="1.48125">
        <ele>159.8</ele>
        <time>2022-07-03T09:37:57Z</time>
      </trkpt>
      <trkpt lat="43.5556" lon="1.48124">
        <ele>159.8</ele>
        <time>2022-07-03T09:37:58Z</time>
      </trkpt>
      <trkpt lat="43.55557" lon="1.48122">
        <ele>159.8</ele>
        <time>2022-07-03T09:37:59Z</time>
      </trkpt>
      <trkpt lat="43.55553" lon="1.48121">
        <ele>159.8</ele>
        <time>2022-07-03T09:38:00Z</time>
      </trkpt>
      <trkpt lat="43.5555" lon="1.48121">
        <ele>159.8</ele>
        <time>2022-07-03T09:38:01Z</time>
      </trkpt>
      <trkpt lat="43.55546" lon="1.48121">
        <ele>159.8</ele>
        <time>2022-07-03T09:38:02Z</time>
      </trkpt>
      <trkpt lat="43.55542" lon="1.48121">
        <ele>159.6</ele>
        <time>2022-07-03T09:38:03Z</time>
      </trkpt>
      <trkpt lat="43.55538" lon="1.48121">
        <ele>159.4</ele>
        <time>2022-07-03T09:38:04Z</time>
      </trkpt>
      <trkpt lat="43.55535" lon="1.4812">
        <ele>159.4</ele>
        <time>2022-07-03T09:38:05Z</time>
      </trkpt>
      <trkpt lat="43.55531" lon="1.4812">
        <ele>159.2</ele>
        <time>2022-07-03T09:38:06Z</time>
      </trkpt>
      <trkpt lat="43.55527" lon="1.48121">
        <ele>159.2</ele>
        <time>2022-07-03T09:38:07Z</time>
      </trkpt>
      <trkpt lat="43.55524" lon="1.48121">
        <ele>159.2</ele>
        <time>2022-07-03T09:38:08Z</time>
      </trkpt>
      <trkpt lat="43.55518" lon="1.48122">
        <ele>159.2</ele>
        <time>2022-07-03T09:38:10Z</time>
      </trkpt>
      <trkpt lat="43.55514" lon="1.48121">
        <ele>159.4</ele>
        <time>2022-07-03T09:38:11Z</time>
      </trkpt>
      <trkpt lat="43.55509" lon="1.48122">
        <ele>159.4</ele>
        <time>2022-07-03T09:38:12Z</time>
      </trkpt>
      <trkpt lat="43.55497" lon="1.48121">
        <ele>159.6</ele>
        <time>2022-07-03T09:38:14Z</time>
      </trkpt>
      <trkpt lat="43.55493" lon="1.48121">
        <ele>159.6</ele>
        <time>2022-07-03T09:38:15Z</time>
      </trkpt>
      <trkpt lat="43.55461" lon="1.48131">
        <ele>160.4</ele>
        <time>2022-07-03T09:38:23Z</time>
      </trkpt>
      <trkpt lat="43.55455" lon="1.48132">
        <ele>160.4</ele>
        <time>2022-07-03T09:38:25Z</time>
      </trkpt>
      <trkpt lat="43.55449" lon="1.48131">
        <ele>160.4</ele>
        <time>2022-07-03T09:38:27Z</time>
      </trkpt>
      <trkpt lat="43.55446" lon="1.48131">
        <ele>160.6</ele>
        <time>2022-07-03T09:38:28Z</time>
      </trkpt>
      <trkpt lat="43.55443" lon="1.4813">
        <ele>161</ele>
        <time>2022-07-03T09:38:29Z</time>
      </trkpt>
      <trkpt lat="43.5544" lon="1.4813">
        <ele>161.2</ele>
        <time>2022-07-03T09:38:30Z</time>
      </trkpt>
      <trkpt lat="43.55434" lon="1.48129">
        <ele>161.6</ele>
        <time>2022-07-03T09:38:32Z</time>
      </trkpt>
      <trkpt lat="43.55431" lon="1.48128">
        <ele>161.8</ele>
        <time>2022-07-03T09:38:33Z</time>
      </trkpt>
      <trkpt lat="43.55429" lon="1.48127">
        <ele>162</ele>
        <time>2022-07-03T09:38:34Z</time>
      </trkpt>
      <trkpt lat="43.55426" lon="1.48126">
        <ele>162.2</ele>
        <time>2022-07-03T09:38:35Z</time>
      </trkpt>
      <trkpt lat="43.55423" lon="1.48126">
        <ele>162.4</ele>
        <time>2022-07-03T09:38:36Z</time>
      </trkpt>
      <trkpt lat="43.55421" lon="1.48126">
        <ele>162.6</ele>
        <time>2022-07-03T09:38:37Z</time>
      </trkpt>
      <trkpt lat="43.55418" lon="1.48127">
        <ele>162.6</ele>
        <time>2022-07-03T09:38:38Z</time>
      </trkpt>
      <trkpt lat="43.55417" lon="1.48127">
        <ele>162.8</ele>
        <time>2022-07-03T09:38:39Z</time>
      </trkpt>
      <trkpt lat="43.55415" lon="1.48127">
        <ele>163</ele>
        <time>2022-07-03T09:38:40Z</time>
      </trkpt>
      <trkpt lat="43.55414" lon="1.48127">
        <ele>163.2</ele>
        <time>2022-07-03T09:38:41Z</time>
      </trkpt>
      <trkpt lat="43.55414" lon="1.48128">
        <ele>163.6</ele>
        <time>2022-07-03T09:38:42Z</time>
      </trkpt>
      <trkpt lat="43.55414" lon="1.48129">
        <ele>163.6</ele>
        <time>2022-07-03T09:38:43Z</time>
      </trkpt>
      <trkpt lat="43.55415" lon="1.48129">
        <ele>163.8</ele>
        <time>2022-07-03T09:38:44Z</time>
      </trkpt>
      <trkpt lat="43.55416" lon="1.48129">
        <ele>164</ele>
        <time>2022-07-03T09:38:45Z</time>
      </trkpt>
      <trkpt lat="43.55417" lon="1.48129">
        <ele>164.2</ele>
        <time>2022-07-03T09:38:46Z</time>
      </trkpt>
      <trkpt lat="43.55419" lon="1.48128">
        <ele>164.2</ele>
        <time>2022-07-03T09:38:47Z</time>
      </trkpt>
      <trkpt lat="43.55421" lon="1.48128">
        <ele>164.6</ele>
        <time>2022-07-03T09:38:48Z</time>
      </trkpt>
      <trkpt lat="43.55423" lon="1.48127">
        <ele>164.8</ele>
        <time>2022-07-03T09:38:49Z</time>
      </trkpt>
      <trkpt lat="43.55425" lon="1.48128">
        <ele>165</ele>
        <time>2022-07-03T09:38:50Z</time>
      </trkpt>
      <trkpt lat="43.55428" lon="1.48128">
        <ele>165.2</ele>
        <time>2022-07-03T09:38:51Z</time>
      </trkpt>
      <trkpt lat="43.5543" lon="1.48128">
        <ele>165.4</ele>
        <time>2022-07-03T09:38:52Z</time>
      </trkpt>
      <trkpt lat="43.55433" lon="1.48128">
        <ele>165.6</ele>
        <time>2022-07-03T09:38:53Z</time>
      </trkpt>
      <trkpt lat="43.55436" lon="1.48129">
        <ele>165.6</ele>
        <time>2022-07-03T09:38:54Z</time>
      </trkpt>
      <trkpt lat="43.55438" lon="1.48129">
        <ele>165.8</ele>
        <time>2022-07-03T09:38:55Z</time>
      </trkpt>
      <trkpt lat="43.5544" lon="1.4813">
        <ele>166</ele>
        <time>2022-07-03T09:38:56Z</time>
      </trkpt>
      <trkpt lat="43.55441" lon="1.48131">
        <ele>166.2</ele>
        <time>2022-07-03T09:38:57Z</time>
      </trkpt>
      <trkpt lat="43.55441" lon="1.48131">
        <ele>166.6</ele>
        <time>2022-07-03T09:38:58Z</time>
      </trkpt>
      <trkpt lat="43.55442" lon="1.48131">
        <ele>166.6</ele>
        <time>2022-07-03T09:38:59Z</time>
      </trkpt>
      <trkpt lat="43.55442" lon="1.48131">
        <ele>166.8</ele>
        <time>2022-07-03T09:39:00Z</time>
      </trkpt>
      <trkpt lat="43.55438" lon="1.48129">
        <ele>167.8</ele>
        <time>2022-07-03T09:39:07Z</time>
      </trkpt>
      <trkpt lat="43.55436" lon="1.48129">
        <ele>168</ele>
        <time>2022-07-03T09:39:08Z</time>
      </trkpt>
      <trkpt lat="43.55433" lon="1.48129">
        <ele>168.2</ele>
        <time>2022-07-03T09:39:09Z</time>
      </trkpt>
      <trkpt lat="43.5543" lon="1.4813">
        <ele>168.2</ele>
        <time>2022-07-03T09:39:10Z</time>
      </trkpt>
      <trkpt lat="43.55427" lon="1.4813">
        <ele>168.2</ele>
        <time>2022-07-03T09:39:11Z</time>
      </trkpt>
      <trkpt lat="43.55423" lon="1.48129">
        <ele>168.4</ele>
        <time>2022-07-03T09:39:12Z</time>
      </trkpt>
      <trkpt lat="43.55419" lon="1.48128">
        <ele>168.4</ele>
        <time>2022-07-03T09:39:13Z</time>
      </trkpt>
      <trkpt lat="43.55415" lon="1.48127">
        <ele>168.6</ele>
        <time>2022-07-03T09:39:14Z</time>
      </trkpt>
      <trkpt lat="43.55411" lon="1.48127">
        <ele>168.6</ele>
        <time>2022-07-03T09:39:15Z</time>
      </trkpt>
      <trkpt lat="43.55407" lon="1.48127">
        <ele>168.8</ele>
        <time>2022-07-03T09:39:16Z</time>
      </trkpt>
      <trkpt lat="43.55402" lon="1.48127">
        <ele>168.8</ele>
        <time>2022-07-03T09:39:17Z</time>
      </trkpt>
      <trkpt lat="43.55398" lon="1.48128">
        <ele>168.8</ele>
        <time>2022-07-03T09:39:18Z</time>
      </trkpt>
      <trkpt lat="43.55394" lon="1.48128">
        <ele>168.8</ele>
        <time>2022-07-03T09:39:19Z</time>
      </trkpt>
      <trkpt lat="43.5539" lon="1.48129">
        <ele>168.8</ele>
        <time>2022-07-03T09:39:20Z</time>
      </trkpt>
      <trkpt lat="43.55386" lon="1.48129">
        <ele>168.8</ele>
        <time>2022-07-03T09:39:21Z</time>
      </trkpt>
      <trkpt lat="43.55382" lon="1.48129">
        <ele>169</ele>
        <time>2022-07-03T09:39:22Z</time>
      </trkpt>
      <trkpt lat="43.55378" lon="1.4813">
        <ele>169</ele>
        <time>2022-07-03T09:39:23Z</time>
      </trkpt>
      <trkpt lat="43.55374" lon="1.4813">
        <ele>169</ele>
        <time>2022-07-03T09:39:24Z</time>
      </trkpt>
      <trkpt lat="43.55372" lon="1.4813">
        <ele>168.8</ele>
        <time>2022-07-03T09:39:25Z</time>
      </trkpt>
      <trkpt lat="43.55369" lon="1.4813">
        <ele>169</ele>
        <time>2022-07-03T09:39:26Z</time>
      </trkpt>
      <trkpt lat="43.55366" lon="1.48131">
        <ele>169.4</ele>
        <time>2022-07-03T09:39:27Z</time>
      </trkpt>
      <trkpt lat="43.55363" lon="1.48131">
        <ele>169.4</ele>
        <time>2022-07-03T09:39:28Z</time>
      </trkpt>
      <trkpt lat="43.5536" lon="1.48132">
        <ele>169.4</ele>
        <time>2022-07-03T09:39:29Z</time>
      </trkpt>
      <trkpt lat="43.55354" lon="1.48133">
        <ele>169.6</ele>
        <time>2022-07-03T09:39:31Z</time>
      </trkpt>
      <trkpt lat="43.55348" lon="1.48135">
        <ele>169.8</ele>
        <time>2022-07-03T09:39:33Z</time>
      </trkpt>
      <trkpt lat="43.55345" lon="1.48136">
        <ele>169.8</ele>
        <time>2022-07-03T09:39:34Z</time>
      </trkpt>
      <trkpt lat="43.55341" lon="1.48136">
        <ele>169.8</ele>
        <time>2022-07-03T09:39:35Z</time>
      </trkpt>
      <trkpt lat="43.55334" lon="1.48138">
        <ele>170</ele>
        <time>2022-07-03T09:39:37Z</time>
      </trkpt>
      <trkpt lat="43.55332" lon="1.48138">
        <ele>170</ele>
        <time>2022-07-03T09:39:38Z</time>
      </trkpt>
      <trkpt lat="43.55329" lon="1.48138">
        <ele>170.2</ele>
        <time>2022-07-03T09:39:39Z</time>
      </trkpt>
      <trkpt lat="43.55326" lon="1.48139">
        <ele>170.2</ele>
        <time>2022-07-03T09:39:40Z</time>
      </trkpt>
      <trkpt lat="43.55321" lon="1.4814">
        <ele>170.4</ele>
        <time>2022-07-03T09:39:42Z</time>
      </trkpt>
      <trkpt lat="43.55318" lon="1.4814">
        <ele>170.4</ele>
        <time>2022-07-03T09:39:43Z</time>
      </trkpt>
      <trkpt lat="43.55315" lon="1.48141">
        <ele>170.4</ele>
        <time>2022-07-03T09:39:44Z</time>
      </trkpt>
      <trkpt lat="43.55311" lon="1.48141">
        <ele>170.4</ele>
        <time>2022-07-03T09:39:45Z</time>
      </trkpt>
      <trkpt lat="43.55309" lon="1.48142">
        <ele>170.4</ele>
        <time>2022-07-03T09:39:46Z</time>
      </trkpt>
      <trkpt lat="43.55306" lon="1.48142">
        <ele>170.4</ele>
        <time>2022-07-03T09:39:47Z</time>
      </trkpt>
      <trkpt lat="43.55304" lon="1.48142">
        <ele>170.4</ele>
        <time>2022-07-03T09:39:48Z</time>
      </trkpt>
      <trkpt lat="43.55301" lon="1.48143">
        <ele>170.4</ele>
        <time>2022-07-03T09:39:49Z</time>
      </trkpt>
      <trkpt lat="43.55298" lon="1.48143">
        <ele>170.4</ele>
        <time>2022-07-03T09:39:50Z</time>
      </trkpt>
      <trkpt lat="43.55296" lon="1.48144">
        <ele>170.4</ele>
        <time>2022-07-03T09:39:51Z</time>
      </trkpt>
      <trkpt lat="43.55293" lon="1.48144">
        <ele>170.4</ele>
        <time>2022-07-03T09:39:52Z</time>
      </trkpt>
      <trkpt lat="43.5529" lon="1.48145">
        <ele>170.4</ele>
        <time>2022-07-03T09:39:53Z</time>
      </trkpt>
      <trkpt lat="43.55287" lon="1.48146">
        <ele>170.4</ele>
        <time>2022-07-03T09:39:54Z</time>
      </trkpt>
      <trkpt lat="43.55284" lon="1.48147">
        <ele>170.6</ele>
        <time>2022-07-03T09:39:55Z</time>
      </trkpt>
      <trkpt lat="43.55273" lon="1.48149">
        <ele>170.8</ele>
        <time>2022-07-03T09:39:59Z</time>
      </trkpt>
      <trkpt lat="43.55262" lon="1.48152">
        <ele>170.8</ele>
        <time>2022-07-03T09:40:02Z</time>
      </trkpt>
      <trkpt lat="43.55256" lon="1.48154">
        <ele>171</ele>
        <time>2022-07-03T09:40:04Z</time>
      </trkpt>
      <trkpt lat="43.5525" lon="1.48156">
        <ele>171</ele>
        <time>2022-07-03T09:40:06Z</time>
      </trkpt>
      <trkpt lat="43.55246" lon="1.48157">
        <ele>171</ele>
        <time>2022-07-03T09:40:07Z</time>
      </trkpt>
      <trkpt lat="43.55243" lon="1.48158">
        <ele>171.2</ele>
        <time>2022-07-03T09:40:08Z</time>
      </trkpt>
      <trkpt lat="43.5524" lon="1.4816">
        <ele>171.4</ele>
        <time>2022-07-03T09:40:09Z</time>
      </trkpt>
      <trkpt lat="43.55235" lon="1.48162">
        <ele>171.4</ele>
        <time>2022-07-03T09:40:10Z</time>
      </trkpt>
      <trkpt lat="43.55231" lon="1.48164">
        <ele>171.6</ele>
        <time>2022-07-03T09:40:11Z</time>
      </trkpt>
      <trkpt lat="43.55228" lon="1.48167">
        <ele>171.6</ele>
        <time>2022-07-03T09:40:12Z</time>
      </trkpt>
      <trkpt lat="43.55224" lon="1.48168">
        <ele>171.6</ele>
        <time>2022-07-03T09:40:13Z</time>
      </trkpt>
      <trkpt lat="43.55222" lon="1.48167">
        <ele>171.6</ele>
        <time>2022-07-03T09:40:14Z</time>
      </trkpt>
      <trkpt lat="43.5521" lon="1.48171">
        <ele>171.8</ele>
        <time>2022-07-03T09:40:18Z</time>
      </trkpt>
      <trkpt lat="43.55205" lon="1.48173">
        <ele>171.8</ele>
        <time>2022-07-03T09:40:19Z</time>
      </trkpt>
      <trkpt lat="43.55195" lon="1.48178">
        <ele>172.2</ele>
        <time>2022-07-03T09:40:22Z</time>
      </trkpt>
      <trkpt lat="43.5519" lon="1.4818">
        <ele>172.2</ele>
        <time>2022-07-03T09:40:23Z</time>
      </trkpt>
      <trkpt lat="43.55181" lon="1.48185">
        <ele>172.2</ele>
        <time>2022-07-03T09:40:26Z</time>
      </trkpt>
      <trkpt lat="43.55178" lon="1.48187">
        <ele>172.2</ele>
        <time>2022-07-03T09:40:27Z</time>
      </trkpt>
      <trkpt lat="43.55153" lon="1.48197">
        <ele>172</ele>
        <time>2022-07-03T09:40:34Z</time>
      </trkpt>
      <trkpt lat="43.55129" lon="1.48204">
        <ele>171.8</ele>
        <time>2022-07-03T09:40:41Z</time>
      </trkpt>
      <trkpt lat="43.55124" lon="1.48206">
        <ele>171.8</ele>
        <time>2022-07-03T09:40:43Z</time>
      </trkpt>
      <trkpt lat="43.55123" lon="1.48208">
        <ele>171.8</ele>
        <time>2022-07-03T09:40:44Z</time>
      </trkpt>
      <trkpt lat="43.5512" lon="1.48209">
        <ele>172</ele>
        <time>2022-07-03T09:40:45Z</time>
      </trkpt>
      <trkpt lat="43.55117" lon="1.4821">
        <ele>172</ele>
        <time>2022-07-03T09:40:46Z</time>
      </trkpt>
      <trkpt lat="43.55108" lon="1.48213">
        <ele>172</ele>
        <time>2022-07-03T09:40:49Z</time>
      </trkpt>
      <trkpt lat="43.55106" lon="1.48213">
        <ele>172</ele>
        <time>2022-07-03T09:40:50Z</time>
      </trkpt>
      <trkpt lat="43.55104" lon="1.48215">
        <ele>172</ele>
        <time>2022-07-03T09:40:51Z</time>
      </trkpt>
      <trkpt lat="43.55101" lon="1.48216">
        <ele>172.2</ele>
        <time>2022-07-03T09:40:52Z</time>
      </trkpt>
      <trkpt lat="43.55092" lon="1.48221">
        <ele>172.8</ele>
        <time>2022-07-03T09:40:55Z</time>
      </trkpt>
      <trkpt lat="43.55086" lon="1.48223">
        <ele>172.8</ele>
        <time>2022-07-03T09:40:57Z</time>
      </trkpt>
      <trkpt lat="43.55084" lon="1.48225">
        <ele>173</ele>
        <time>2022-07-03T09:40:58Z</time>
      </trkpt>
      <trkpt lat="43.55081" lon="1.48226">
        <ele>173</ele>
        <time>2022-07-03T09:40:59Z</time>
      </trkpt>
      <trkpt lat="43.55078" lon="1.48229">
        <ele>173</ele>
        <time>2022-07-03T09:41:00Z</time>
      </trkpt>
      <trkpt lat="43.55077" lon="1.48231">
        <ele>173</ele>
        <time>2022-07-03T09:41:01Z</time>
      </trkpt>
      <trkpt lat="43.55075" lon="1.48233">
        <ele>173.2</ele>
        <time>2022-07-03T09:41:02Z</time>
      </trkpt>
      <trkpt lat="43.55072" lon="1.48235">
        <ele>173.2</ele>
        <time>2022-07-03T09:41:03Z</time>
      </trkpt>
      <trkpt lat="43.55069" lon="1.48237">
        <ele>173.2</ele>
        <time>2022-07-03T09:41:04Z</time>
      </trkpt>
      <trkpt lat="43.55066" lon="1.48239">
        <ele>173.2</ele>
        <time>2022-07-03T09:41:05Z</time>
      </trkpt>
      <trkpt lat="43.55064" lon="1.4824">
        <ele>173.2</ele>
        <time>2022-07-03T09:41:06Z</time>
      </trkpt>
      <trkpt lat="43.55059" lon="1.48244">
        <ele>173.2</ele>
        <time>2022-07-03T09:41:08Z</time>
      </trkpt>
      <trkpt lat="43.55056" lon="1.48246">
        <ele>173.4</ele>
        <time>2022-07-03T09:41:09Z</time>
      </trkpt>
      <trkpt lat="43.55053" lon="1.4825">
        <ele>173.4</ele>
        <time>2022-07-03T09:41:10Z</time>
      </trkpt>
      <trkpt lat="43.55051" lon="1.48252">
        <ele>173.4</ele>
        <time>2022-07-03T09:41:11Z</time>
      </trkpt>
      <trkpt lat="43.5505" lon="1.48254">
        <ele>173.4</ele>
        <time>2022-07-03T09:41:12Z</time>
      </trkpt>
      <trkpt lat="43.55047" lon="1.48257">
        <ele>173.4</ele>
        <time>2022-07-03T09:41:13Z</time>
      </trkpt>
      <trkpt lat="43.55045" lon="1.48259">
        <ele>173.6</ele>
        <time>2022-07-03T09:41:14Z</time>
      </trkpt>
      <trkpt lat="43.55042" lon="1.48263">
        <ele>173.6</ele>
        <time>2022-07-03T09:41:15Z</time>
      </trkpt>
      <trkpt lat="43.55037" lon="1.48268">
        <ele>174</ele>
        <time>2022-07-03T09:41:16Z</time>
      </trkpt>
      <trkpt lat="43.55034" lon="1.48271">
        <ele>174.2</ele>
        <time>2022-07-03T09:41:17Z</time>
      </trkpt>
      <trkpt lat="43.55031" lon="1.48272">
        <ele>174</ele>
        <time>2022-07-03T09:41:18Z</time>
      </trkpt>
      <trkpt lat="43.55027" lon="1.48278">
        <ele>174.4</ele>
        <time>2022-07-03T09:41:20Z</time>
      </trkpt>
      <trkpt lat="43.55026" lon="1.48279">
        <ele>174.4</ele>
        <time>2022-07-03T09:41:21Z</time>
      </trkpt>
      <trkpt lat="43.55023" lon="1.48282">
        <ele>174.6</ele>
        <time>2022-07-03T09:41:23Z</time>
      </trkpt>
      <trkpt lat="43.5502" lon="1.48285">
        <ele>174.6</ele>
        <time>2022-07-03T09:41:24Z</time>
      </trkpt>
      <trkpt lat="43.55012" lon="1.48292">
        <ele>174.8</ele>
        <time>2022-07-03T09:41:25Z</time>
      </trkpt>
      <trkpt lat="43.55002" lon="1.48299">
        <ele>175</ele>
        <time>2022-07-03T09:41:28Z</time>
      </trkpt>
      <trkpt lat="43.54999" lon="1.48303">
        <ele>175.2</ele>
        <time>2022-07-03T09:41:29Z</time>
      </trkpt>
      <trkpt lat="43.54995" lon="1.48308">
        <ele>175.4</ele>
        <time>2022-07-03T09:41:31Z</time>
      </trkpt>
      <trkpt lat="43.54993" lon="1.4831">
        <ele>175.4</ele>
        <time>2022-07-03T09:41:32Z</time>
      </trkpt>
      <trkpt lat="43.54968" lon="1.48335">
        <ele>175.6</ele>
        <time>2022-07-03T09:41:40Z</time>
      </trkpt>
      <trkpt lat="43.54949" lon="1.48352">
        <ele>175.6</ele>
        <time>2022-07-03T09:41:45Z</time>
      </trkpt>
      <trkpt lat="43.54946" lon="1.48356">
        <ele>175.6</ele>
        <time>2022-07-03T09:41:46Z</time>
      </trkpt>
      <trkpt lat="43.54944" lon="1.48359">
        <ele>175.6</ele>
        <time>2022-07-03T09:41:47Z</time>
      </trkpt>
      <trkpt lat="43.54941" lon="1.48362">
        <ele>175.6</ele>
        <time>2022-07-03T09:41:48Z</time>
      </trkpt>
      <trkpt lat="43.54938" lon="1.48365">
        <ele>175.8</ele>
        <time>2022-07-03T09:41:49Z</time>
      </trkpt>
      <trkpt lat="43.54934" lon="1.48369">
        <ele>175.8</ele>
        <time>2022-07-03T09:41:50Z</time>
      </trkpt>
      <trkpt lat="43.5493" lon="1.48373">
        <ele>175.8</ele>
        <time>2022-07-03T09:41:51Z</time>
      </trkpt>
      <trkpt lat="43.54927" lon="1.48377">
        <ele>175.8</ele>
        <time>2022-07-03T09:41:52Z</time>
      </trkpt>
      <trkpt lat="43.54915" lon="1.48389">
        <ele>176</ele>
        <time>2022-07-03T09:41:56Z</time>
      </trkpt>
      <trkpt lat="43.54889" lon="1.48411">
        <ele>176.2</ele>
        <time>2022-07-03T09:42:04Z</time>
      </trkpt>
      <trkpt lat="43.54865" lon="1.4843">
        <ele>175.6</ele>
        <time>2022-07-03T09:42:11Z</time>
      </trkpt>
      <trkpt lat="43.54862" lon="1.48432">
        <ele>175.6</ele>
        <time>2022-07-03T09:42:12Z</time>
      </trkpt>
      <trkpt lat="43.54837" lon="1.48452">
        <ele>175.2</ele>
        <time>2022-07-03T09:42:19Z</time>
      </trkpt>
      <trkpt lat="43.54833" lon="1.48456">
        <ele>175</ele>
        <time>2022-07-03T09:42:20Z</time>
      </trkpt>
      <trkpt lat="43.54825" lon="1.48462">
        <ele>174.8</ele>
        <time>2022-07-03T09:42:22Z</time>
      </trkpt>
      <trkpt lat="43.54818" lon="1.48468">
        <ele>174.6</ele>
        <time>2022-07-03T09:42:24Z</time>
      </trkpt>
      <trkpt lat="43.54814" lon="1.48472">
        <ele>174.2</ele>
        <time>2022-07-03T09:42:26Z</time>
      </trkpt>
      <trkpt lat="43.54813" lon="1.48475">
        <ele>173.8</ele>
        <time>2022-07-03T09:42:27Z</time>
      </trkpt>
      <trkpt lat="43.54814" lon="1.48478">
        <ele>173.8</ele>
        <time>2022-07-03T09:42:28Z</time>
      </trkpt>
      <trkpt lat="43.54815" lon="1.48482">
        <ele>173.6</ele>
        <time>2022-07-03T09:42:29Z</time>
      </trkpt>
      <trkpt lat="43.54816" lon="1.48485">
        <ele>173.4</ele>
        <time>2022-07-03T09:42:30Z</time>
      </trkpt>
      <trkpt lat="43.54819" lon="1.48487">
        <ele>173.2</ele>
        <time>2022-07-03T09:42:31Z</time>
      </trkpt>
      <trkpt lat="43.54823" lon="1.48487">
        <ele>173</ele>
        <time>2022-07-03T09:42:32Z</time>
      </trkpt>
      <trkpt lat="43.54825" lon="1.48486">
        <ele>173</ele>
        <time>2022-07-03T09:42:33Z</time>
      </trkpt>
      <trkpt lat="43.54828" lon="1.4848">
        <ele>172.6</ele>
        <time>2022-07-03T09:42:35Z</time>
      </trkpt>
      <trkpt lat="43.54828" lon="1.48478">
        <ele>172.6</ele>
        <time>2022-07-03T09:42:36Z</time>
      </trkpt>
      <trkpt lat="43.54827" lon="1.48475">
        <ele>172.4</ele>
        <time>2022-07-03T09:42:37Z</time>
      </trkpt>
      <trkpt lat="43.54826" lon="1.48473">
        <ele>172.4</ele>
        <time>2022-07-03T09:42:38Z</time>
      </trkpt>
      <trkpt lat="43.54824" lon="1.48472">
        <ele>172.2</ele>
        <time>2022-07-03T09:42:39Z</time>
      </trkpt>
      <trkpt lat="43.54822" lon="1.48472">
        <ele>172.2</ele>
        <time>2022-07-03T09:42:40Z</time>
      </trkpt>
      <trkpt lat="43.54819" lon="1.48469">
        <ele>172.2</ele>
        <time>2022-07-03T09:42:41Z</time>
      </trkpt>
      <trkpt lat="43.54817" lon="1.48467">
        <ele>172.2</ele>
        <time>2022-07-03T09:42:42Z</time>
      </trkpt>
      <trkpt lat="43.54814" lon="1.48465">
        <ele>172</ele>
        <time>2022-07-03T09:42:43Z</time>
      </trkpt>
      <trkpt lat="43.54809" lon="1.48464">
        <ele>171.6</ele>
        <time>2022-07-03T09:42:45Z</time>
      </trkpt>
      <trkpt lat="43.54808" lon="1.48465">
        <ele>171.4</ele>
        <time>2022-07-03T09:42:46Z</time>
      </trkpt>
      <trkpt lat="43.54806" lon="1.48466">
        <ele>171.4</ele>
        <time>2022-07-03T09:42:47Z</time>
      </trkpt>
      <trkpt lat="43.54805" lon="1.48466">
        <ele>171.2</ele>
        <time>2022-07-03T09:42:48Z</time>
      </trkpt>
      <trkpt lat="43.54803" lon="1.48467">
        <ele>171.2</ele>
        <time>2022-07-03T09:42:49Z</time>
      </trkpt>
      <trkpt lat="43.54802" lon="1.48468">
        <ele>171</ele>
        <time>2022-07-03T09:42:50Z</time>
      </trkpt>
      <trkpt lat="43.54801" lon="1.48469">
        <ele>170.8</ele>
        <time>2022-07-03T09:42:51Z</time>
      </trkpt>
      <trkpt lat="43.548" lon="1.48469">
        <ele>170.8</ele>
        <time>2022-07-03T09:42:52Z</time>
      </trkpt>
      <trkpt lat="43.54797" lon="1.4847">
        <ele>170.6</ele>
        <time>2022-07-03T09:42:53Z</time>
      </trkpt>
      <trkpt lat="43.54789" lon="1.48474">
        <ele>170.6</ele>
        <time>2022-07-03T09:42:57Z</time>
      </trkpt>
      <trkpt lat="43.54777" lon="1.48484">
        <ele>170.6</ele>
        <time>2022-07-03T09:43:02Z</time>
      </trkpt>
      <trkpt lat="43.54776" lon="1.48485">
        <ele>170.6</ele>
        <time>2022-07-03T09:43:03Z</time>
      </trkpt>
      <trkpt lat="43.54755" lon="1.485">
        <ele>171.2</ele>
        <time>2022-07-03T09:43:10Z</time>
      </trkpt>
      <trkpt lat="43.54738" lon="1.48512">
        <ele>171.4</ele>
        <time>2022-07-03T09:43:14Z</time>
      </trkpt>
      <trkpt lat="43.5473" lon="1.48519">
        <ele>171.4</ele>
        <time>2022-07-03T09:43:16Z</time>
      </trkpt>
      <trkpt lat="43.54726" lon="1.48521">
        <ele>171.4</ele>
        <time>2022-07-03T09:43:17Z</time>
      </trkpt>
      <trkpt lat="43.54721" lon="1.48522">
        <ele>171.4</ele>
        <time>2022-07-03T09:43:18Z</time>
      </trkpt>
      <trkpt lat="43.54718" lon="1.48524">
        <ele>171.4</ele>
        <time>2022-07-03T09:43:19Z</time>
      </trkpt>
      <trkpt lat="43.54712" lon="1.48531">
        <ele>171.2</ele>
        <time>2022-07-03T09:43:22Z</time>
      </trkpt>
      <trkpt lat="43.5471" lon="1.48533">
        <ele>171</ele>
        <time>2022-07-03T09:43:23Z</time>
      </trkpt>
      <trkpt lat="43.54709" lon="1.48535">
        <ele>171</ele>
        <time>2022-07-03T09:43:24Z</time>
      </trkpt>
      <trkpt lat="43.54708" lon="1.48535">
        <ele>171</ele>
        <time>2022-07-03T09:43:25Z</time>
      </trkpt>
      <trkpt lat="43.54707" lon="1.48533">
        <ele>170.8</ele>
        <time>2022-07-03T09:43:26Z</time>
      </trkpt>
      <trkpt lat="43.54705" lon="1.48532">
        <ele>171</ele>
        <time>2022-07-03T09:43:27Z</time>
      </trkpt>
      <trkpt lat="43.54704" lon="1.48535">
        <ele>171</ele>
        <time>2022-07-03T09:43:28Z</time>
      </trkpt>
      <trkpt lat="43.54701" lon="1.48537">
        <ele>171</ele>
        <time>2022-07-03T09:43:29Z</time>
      </trkpt>
      <trkpt lat="43.54685" lon="1.4855">
        <ele>170.8</ele>
        <time>2022-07-03T09:43:34Z</time>
      </trkpt>
      <trkpt lat="43.54675" lon="1.48561">
        <ele>170.4</ele>
        <time>2022-07-03T09:43:37Z</time>
      </trkpt>
      <trkpt lat="43.54664" lon="1.48571">
        <ele>170</ele>
        <time>2022-07-03T09:43:40Z</time>
      </trkpt>
      <trkpt lat="43.5466" lon="1.48574">
        <ele>169.8</ele>
        <time>2022-07-03T09:43:41Z</time>
      </trkpt>
      <trkpt lat="43.54657" lon="1.48577">
        <ele>169.8</ele>
        <time>2022-07-03T09:43:42Z</time>
      </trkpt>
      <trkpt lat="43.54641" lon="1.48595">
        <ele>169.4</ele>
        <time>2022-07-03T09:43:47Z</time>
      </trkpt>
      <trkpt lat="43.5464" lon="1.486">
        <ele>169.4</ele>
        <time>2022-07-03T09:43:48Z</time>
      </trkpt>
      <trkpt lat="43.54637" lon="1.48604">
        <ele>169.4</ele>
        <time>2022-07-03T09:43:49Z</time>
      </trkpt>
      <trkpt lat="43.54634" lon="1.48609">
        <ele>169.2</ele>
        <time>2022-07-03T09:43:50Z</time>
      </trkpt>
      <trkpt lat="43.54623" lon="1.48622">
        <ele>169.2</ele>
        <time>2022-07-03T09:43:53Z</time>
      </trkpt>
      <trkpt lat="43.54619" lon="1.48626">
        <ele>169.2</ele>
        <time>2022-07-03T09:43:54Z</time>
      </trkpt>
      <trkpt lat="43.54604" lon="1.48643">
        <ele>168.8</ele>
        <time>2022-07-03T09:43:58Z</time>
      </trkpt>
      <trkpt lat="43.54598" lon="1.48654">
        <ele>168.8</ele>
        <time>2022-07-03T09:44:00Z</time>
      </trkpt>
      <trkpt lat="43.54579" lon="1.48689">
        <ele>168.6</ele>
        <time>2022-07-03T09:44:07Z</time>
      </trkpt>
      <trkpt lat="43.54575" lon="1.48694">
        <ele>168.4</ele>
        <time>2022-07-03T09:44:08Z</time>
      </trkpt>
      <trkpt lat="43.54572" lon="1.48699">
        <ele>168.4</ele>
        <time>2022-07-03T09:44:09Z</time>
      </trkpt>
      <trkpt lat="43.54569" lon="1.48704">
        <ele>168.4</ele>
        <time>2022-07-03T09:44:10Z</time>
      </trkpt>
      <trkpt lat="43.54562" lon="1.48721">
        <ele>168.4</ele>
        <time>2022-07-03T09:44:13Z</time>
      </trkpt>
      <trkpt lat="43.54553" lon="1.4874">
        <ele>168.4</ele>
        <time>2022-07-03T09:44:17Z</time>
      </trkpt>
      <trkpt lat="43.5455" lon="1.48745">
        <ele>168.4</ele>
        <time>2022-07-03T09:44:18Z</time>
      </trkpt>
      <trkpt lat="43.54548" lon="1.48751">
        <ele>168.4</ele>
        <time>2022-07-03T09:44:19Z</time>
      </trkpt>
      <trkpt lat="43.54543" lon="1.48761">
        <ele>168.4</ele>
        <time>2022-07-03T09:44:21Z</time>
      </trkpt>
      <trkpt lat="43.54538" lon="1.48771">
        <ele>168.4</ele>
        <time>2022-07-03T09:44:23Z</time>
      </trkpt>
      <trkpt lat="43.54534" lon="1.48784">
        <ele>168.4</ele>
        <time>2022-07-03T09:44:25Z</time>
      </trkpt>
      <trkpt lat="43.54527" lon="1.48799">
        <ele>168.4</ele>
        <time>2022-07-03T09:44:28Z</time>
      </trkpt>
      <trkpt lat="43.54522" lon="1.48816">
        <ele>168.4</ele>
        <time>2022-07-03T09:44:31Z</time>
      </trkpt>
      <trkpt lat="43.54516" lon="1.48837">
        <ele>168.6</ele>
        <time>2022-07-03T09:44:35Z</time>
      </trkpt>
      <trkpt lat="43.54512" lon="1.48847">
        <ele>168.6</ele>
        <time>2022-07-03T09:44:37Z</time>
      </trkpt>
      <trkpt lat="43.54511" lon="1.48852">
        <ele>168.6</ele>
        <time>2022-07-03T09:44:38Z</time>
      </trkpt>
      <trkpt lat="43.54509" lon="1.48856">
        <ele>168.8</ele>
        <time>2022-07-03T09:44:39Z</time>
      </trkpt>
      <trkpt lat="43.54509" lon="1.48861">
        <ele>168.6</ele>
        <time>2022-07-03T09:44:40Z</time>
      </trkpt>
      <trkpt lat="43.54507" lon="1.48865">
        <ele>168.8</ele>
        <time>2022-07-03T09:44:41Z</time>
      </trkpt>
      <trkpt lat="43.54506" lon="1.48869">
        <ele>169</ele>
        <time>2022-07-03T09:44:42Z</time>
      </trkpt>
      <trkpt lat="43.54505" lon="1.48873">
        <ele>169</ele>
        <time>2022-07-03T09:44:43Z</time>
      </trkpt>
      <trkpt lat="43.54502" lon="1.48882">
        <ele>169</ele>
        <time>2022-07-03T09:44:45Z</time>
      </trkpt>
      <trkpt lat="43.54501" lon="1.48886">
        <ele>169</ele>
        <time>2022-07-03T09:44:46Z</time>
      </trkpt>
      <trkpt lat="43.54498" lon="1.48891">
        <ele>168.8</ele>
        <time>2022-07-03T09:44:47Z</time>
      </trkpt>
      <trkpt lat="43.54497" lon="1.48895">
        <ele>168.8</ele>
        <time>2022-07-03T09:44:48Z</time>
      </trkpt>
      <trkpt lat="43.54496" lon="1.48899">
        <ele>168.8</ele>
        <time>2022-07-03T09:44:49Z</time>
      </trkpt>
      <trkpt lat="43.54495" lon="1.48903">
        <ele>168.8</ele>
        <time>2022-07-03T09:44:50Z</time>
      </trkpt>
      <trkpt lat="43.54495" lon="1.48906">
        <ele>168.8</ele>
        <time>2022-07-03T09:44:51Z</time>
      </trkpt>
      <trkpt lat="43.54494" lon="1.48909">
        <ele>169</ele>
        <time>2022-07-03T09:44:52Z</time>
      </trkpt>
      <trkpt lat="43.54493" lon="1.48913">
        <ele>169</ele>
        <time>2022-07-03T09:44:53Z</time>
      </trkpt>
      <trkpt lat="43.54485" lon="1.48929">
        <ele>169.2</ele>
        <time>2022-07-03T09:44:57Z</time>
      </trkpt>
      <trkpt lat="43.54483" lon="1.48933">
        <ele>169.2</ele>
        <time>2022-07-03T09:44:58Z</time>
      </trkpt>
      <trkpt lat="43.54482" lon="1.48937">
        <ele>169.6</ele>
        <time>2022-07-03T09:44:59Z</time>
      </trkpt>
      <trkpt lat="43.5448" lon="1.48942">
        <ele>169.8</ele>
        <time>2022-07-03T09:45:00Z</time>
      </trkpt>
      <trkpt lat="43.5448" lon="1.48947">
        <ele>169.8</ele>
        <time>2022-07-03T09:45:01Z</time>
      </trkpt>
      <trkpt lat="43.54479" lon="1.48951">
        <ele>170</ele>
        <time>2022-07-03T09:45:02Z</time>
      </trkpt>
      <trkpt lat="43.54477" lon="1.48955">
        <ele>170.2</ele>
        <time>2022-07-03T09:45:03Z</time>
      </trkpt>
      <trkpt lat="43.54473" lon="1.48963">
        <ele>170.4</ele>
        <time>2022-07-03T09:45:05Z</time>
      </trkpt>
      <trkpt lat="43.54471" lon="1.48967">
        <ele>170.4</ele>
        <time>2022-07-03T09:45:06Z</time>
      </trkpt>
      <trkpt lat="43.54469" lon="1.48972">
        <ele>170.6</ele>
        <time>2022-07-03T09:45:07Z</time>
      </trkpt>
      <trkpt lat="43.54462" lon="1.48985">
        <ele>170.8</ele>
        <time>2022-07-03T09:45:11Z</time>
      </trkpt>
      <trkpt lat="43.5446" lon="1.48988">
        <ele>170.8</ele>
        <time>2022-07-03T09:45:12Z</time>
      </trkpt>
      <trkpt lat="43.54459" lon="1.4899">
        <ele>170.8</ele>
        <time>2022-07-03T09:45:13Z</time>
      </trkpt>
      <trkpt lat="43.54458" lon="1.48992">
        <ele>170.8</ele>
        <time>2022-07-03T09:45:14Z</time>
      </trkpt>
      <trkpt lat="43.54457" lon="1.48995">
        <ele>170.8</ele>
        <time>2022-07-03T09:45:15Z</time>
      </trkpt>
      <trkpt lat="43.54456" lon="1.48997">
        <ele>170.8</ele>
        <time>2022-07-03T09:45:16Z</time>
      </trkpt>
      <trkpt lat="43.5445" lon="1.49006">
        <ele>170.8</ele>
        <time>2022-07-03T09:45:19Z</time>
      </trkpt>
      <trkpt lat="43.54448" lon="1.49009">
        <ele>170.8</ele>
        <time>2022-07-03T09:45:20Z</time>
      </trkpt>
      <trkpt lat="43.54446" lon="1.49012">
        <ele>170.8</ele>
        <time>2022-07-03T09:45:21Z</time>
      </trkpt>
      <trkpt lat="43.54437" lon="1.49017">
        <ele>170.8</ele>
        <time>2022-07-03T09:45:24Z</time>
      </trkpt>
      <trkpt lat="43.54433" lon="1.49019">
        <ele>170.8</ele>
        <time>2022-07-03T09:45:25Z</time>
      </trkpt>
      <trkpt lat="43.54428" lon="1.49021">
        <ele>171</ele>
        <time>2022-07-03T09:45:26Z</time>
      </trkpt>
      <trkpt lat="43.54409" lon="1.4903">
        <ele>171.4</ele>
        <time>2022-07-03T09:45:30Z</time>
      </trkpt>
      <trkpt lat="43.54407" lon="1.49031">
        <ele>171.6</ele>
        <time>2022-07-03T09:45:31Z</time>
      </trkpt>
      <trkpt lat="43.54405" lon="1.49031">
        <ele>171.8</ele>
        <time>2022-07-03T09:45:32Z</time>
      </trkpt>
      <trkpt lat="43.54403" lon="1.49032">
        <ele>171.8</ele>
        <time>2022-07-03T09:45:33Z</time>
      </trkpt>
      <trkpt lat="43.544" lon="1.49032">
        <ele>172</ele>
        <time>2022-07-03T09:45:34Z</time>
      </trkpt>
      <trkpt lat="43.54397" lon="1.49033">
        <ele>172</ele>
        <time>2022-07-03T09:45:35Z</time>
      </trkpt>
      <trkpt lat="43.54383" lon="1.49039">
        <ele>172.6</ele>
        <time>2022-07-03T09:45:39Z</time>
      </trkpt>
      <trkpt lat="43.54377" lon="1.49042">
        <ele>172.8</ele>
        <time>2022-07-03T09:45:41Z</time>
      </trkpt>
      <trkpt lat="43.54366" lon="1.49046">
        <ele>173.2</ele>
        <time>2022-07-03T09:45:44Z</time>
      </trkpt>
      <trkpt lat="43.54363" lon="1.49048">
        <ele>173.2</ele>
        <time>2022-07-03T09:45:45Z</time>
      </trkpt>
      <trkpt lat="43.54358" lon="1.4905">
        <ele>173.4</ele>
        <time>2022-07-03T09:45:47Z</time>
      </trkpt>
      <trkpt lat="43.54356" lon="1.4905">
        <ele>173.4</ele>
        <time>2022-07-03T09:45:48Z</time>
      </trkpt>
      <trkpt lat="43.54354" lon="1.4905">
        <ele>173.6</ele>
        <time>2022-07-03T09:45:49Z</time>
      </trkpt>
      <trkpt lat="43.54352" lon="1.4905">
        <ele>173.8</ele>
        <time>2022-07-03T09:45:50Z</time>
      </trkpt>
      <trkpt lat="43.54349" lon="1.49051">
        <ele>173.8</ele>
        <time>2022-07-03T09:45:51Z</time>
      </trkpt>
      <trkpt lat="43.54341" lon="1.49053">
        <ele>174</ele>
        <time>2022-07-03T09:45:54Z</time>
      </trkpt>
      <trkpt lat="43.54339" lon="1.49054">
        <ele>174</ele>
        <time>2022-07-03T09:45:55Z</time>
      </trkpt>
      <trkpt lat="43.54336" lon="1.49055">
        <ele>174.2</ele>
        <time>2022-07-03T09:45:56Z</time>
      </trkpt>
      <trkpt lat="43.54332" lon="1.49056">
        <ele>174.2</ele>
        <time>2022-07-03T09:45:57Z</time>
      </trkpt>
      <trkpt lat="43.54322" lon="1.49061">
        <ele>174.4</ele>
        <time>2022-07-03T09:46:00Z</time>
      </trkpt>
      <trkpt lat="43.5431" lon="1.49066">
        <ele>174.8</ele>
        <time>2022-07-03T09:46:03Z</time>
      </trkpt>
      <trkpt lat="43.54306" lon="1.49069">
        <ele>174.8</ele>
        <time>2022-07-03T09:46:04Z</time>
      </trkpt>
      <trkpt lat="43.54299" lon="1.49072">
        <ele>175.2</ele>
        <time>2022-07-03T09:46:06Z</time>
      </trkpt>
      <trkpt lat="43.54292" lon="1.49075">
        <ele>175.4</ele>
        <time>2022-07-03T09:46:08Z</time>
      </trkpt>
      <trkpt lat="43.54277" lon="1.49083">
        <ele>175.6</ele>
        <time>2022-07-03T09:46:12Z</time>
      </trkpt>
      <trkpt lat="43.54268" lon="1.49086">
        <ele>175.8</ele>
        <time>2022-07-03T09:46:15Z</time>
      </trkpt>
      <trkpt lat="43.54265" lon="1.49087">
        <ele>176</ele>
        <time>2022-07-03T09:46:16Z</time>
      </trkpt>
      <trkpt lat="43.54262" lon="1.49089">
        <ele>176</ele>
        <time>2022-07-03T09:46:17Z</time>
      </trkpt>
      <trkpt lat="43.5426" lon="1.49091">
        <ele>176</ele>
        <time>2022-07-03T09:46:18Z</time>
      </trkpt>
      <trkpt lat="43.54258" lon="1.49092">
        <ele>176</ele>
        <time>2022-07-03T09:46:19Z</time>
      </trkpt>
      <trkpt lat="43.54242" lon="1.491">
        <ele>176.2</ele>
        <time>2022-07-03T09:46:23Z</time>
      </trkpt>
      <trkpt lat="43.54239" lon="1.49102">
        <ele>176.2</ele>
        <time>2022-07-03T09:46:24Z</time>
      </trkpt>
      <trkpt lat="43.54225" lon="1.49109">
        <ele>176.4</ele>
        <time>2022-07-03T09:46:28Z</time>
      </trkpt>
      <trkpt lat="43.54219" lon="1.49112">
        <ele>176.4</ele>
        <time>2022-07-03T09:46:30Z</time>
      </trkpt>
      <trkpt lat="43.54208" lon="1.49118">
        <ele>176.4</ele>
        <time>2022-07-03T09:46:33Z</time>
      </trkpt>
      <trkpt lat="43.54204" lon="1.4912">
        <ele>176.4</ele>
        <time>2022-07-03T09:46:34Z</time>
      </trkpt>
      <trkpt lat="43.54198" lon="1.49123">
        <ele>176.4</ele>
        <time>2022-07-03T09:46:36Z</time>
      </trkpt>
      <trkpt lat="43.54189" lon="1.49131">
        <ele>176.8</ele>
        <time>2022-07-03T09:46:39Z</time>
      </trkpt>
      <trkpt lat="43.54187" lon="1.49133">
        <ele>176.8</ele>
        <time>2022-07-03T09:46:40Z</time>
      </trkpt>
      <trkpt lat="43.54183" lon="1.49138">
        <ele>177</ele>
        <time>2022-07-03T09:46:42Z</time>
      </trkpt>
      <trkpt lat="43.54179" lon="1.4914">
        <ele>177</ele>
        <time>2022-07-03T09:46:43Z</time>
      </trkpt>
      <trkpt lat="43.54173" lon="1.49144">
        <ele>177</ele>
        <time>2022-07-03T09:46:44Z</time>
      </trkpt>
      <trkpt lat="43.54163" lon="1.49151">
        <ele>177.2</ele>
        <time>2022-07-03T09:46:46Z</time>
      </trkpt>
      <trkpt lat="43.54156" lon="1.49155">
        <ele>177.2</ele>
        <time>2022-07-03T09:46:47Z</time>
      </trkpt>
      <trkpt lat="43.54144" lon="1.49164">
        <ele>177.4</ele>
        <time>2022-07-03T09:46:51Z</time>
      </trkpt>
      <trkpt lat="43.5414" lon="1.49167">
        <ele>177.4</ele>
        <time>2022-07-03T09:46:52Z</time>
      </trkpt>
      <trkpt lat="43.54126" lon="1.49173">
        <ele>177.6</ele>
        <time>2022-07-03T09:46:55Z</time>
      </trkpt>
      <trkpt lat="43.54122" lon="1.49175">
        <ele>177.8</ele>
        <time>2022-07-03T09:46:56Z</time>
      </trkpt>
      <trkpt lat="43.54116" lon="1.49182">
        <ele>177.8</ele>
        <time>2022-07-03T09:46:58Z</time>
      </trkpt>
      <trkpt lat="43.54106" lon="1.49189">
        <ele>177.8</ele>
        <time>2022-07-03T09:47:01Z</time>
      </trkpt>
      <trkpt lat="43.541" lon="1.49194">
        <ele>177.8</ele>
        <time>2022-07-03T09:47:02Z</time>
      </trkpt>
      <trkpt lat="43.54098" lon="1.49196">
        <ele>177.8</ele>
        <time>2022-07-03T09:47:03Z</time>
      </trkpt>
      <trkpt lat="43.54094" lon="1.49199">
        <ele>177.8</ele>
        <time>2022-07-03T09:47:04Z</time>
      </trkpt>
      <trkpt lat="43.54079" lon="1.49207">
        <ele>178</ele>
        <time>2022-07-03T09:47:09Z</time>
      </trkpt>
      <trkpt lat="43.54072" lon="1.49213">
        <ele>177.8</ele>
        <time>2022-07-03T09:47:11Z</time>
      </trkpt>
      <trkpt lat="43.54066" lon="1.49215">
        <ele>177.8</ele>
        <time>2022-07-03T09:47:13Z</time>
      </trkpt>
      <trkpt lat="43.54062" lon="1.49215">
        <ele>177.8</ele>
        <time>2022-07-03T09:47:14Z</time>
      </trkpt>
      <trkpt lat="43.54057" lon="1.49216">
        <ele>177.8</ele>
        <time>2022-07-03T09:47:15Z</time>
      </trkpt>
      <trkpt lat="43.54052" lon="1.49219">
        <ele>177.8</ele>
        <time>2022-07-03T09:47:16Z</time>
      </trkpt>
      <trkpt lat="43.54044" lon="1.49224">
        <ele>177.8</ele>
        <time>2022-07-03T09:47:18Z</time>
      </trkpt>
      <trkpt lat="43.54041" lon="1.49224">
        <ele>177.6</ele>
        <time>2022-07-03T09:47:19Z</time>
      </trkpt>
      <trkpt lat="43.54029" lon="1.49231">
        <ele>177.6</ele>
        <time>2022-07-03T09:47:21Z</time>
      </trkpt>
      <trkpt lat="43.54016" lon="1.49233">
        <ele>177.6</ele>
        <time>2022-07-03T09:47:24Z</time>
      </trkpt>
      <trkpt lat="43.54011" lon="1.49235">
        <ele>177.4</ele>
        <time>2022-07-03T09:47:25Z</time>
      </trkpt>
      <trkpt lat="43.54007" lon="1.49236">
        <ele>177.2</ele>
        <time>2022-07-03T09:47:26Z</time>
      </trkpt>
      <trkpt lat="43.54" lon="1.49239">
        <ele>176.4</ele>
        <time>2022-07-03T09:47:29Z</time>
      </trkpt>
      <trkpt lat="43.53995" lon="1.4924">
        <ele>176.2</ele>
        <time>2022-07-03T09:47:30Z</time>
      </trkpt>
      <trkpt lat="43.53977" lon="1.49242">
        <ele>176</ele>
        <time>2022-07-03T09:47:35Z</time>
      </trkpt>
      <trkpt lat="43.53961" lon="1.49248">
        <ele>175.8</ele>
        <time>2022-07-03T09:47:40Z</time>
      </trkpt>
      <trkpt lat="43.53958" lon="1.49249">
        <ele>175.8</ele>
        <time>2022-07-03T09:47:41Z</time>
      </trkpt>
      <trkpt lat="43.53956" lon="1.4925">
        <ele>175.8</ele>
        <time>2022-07-03T09:47:42Z</time>
      </trkpt>
      <trkpt lat="43.53952" lon="1.4925">
        <ele>175.8</ele>
        <time>2022-07-03T09:47:43Z</time>
      </trkpt>
      <trkpt lat="43.53949" lon="1.49251">
        <ele>175.8</ele>
        <time>2022-07-03T09:47:44Z</time>
      </trkpt>
      <trkpt lat="43.53945" lon="1.49252">
        <ele>175.8</ele>
        <time>2022-07-03T09:47:45Z</time>
      </trkpt>
      <trkpt lat="43.53939" lon="1.49254">
        <ele>175.8</ele>
        <time>2022-07-03T09:47:47Z</time>
      </trkpt>
      <trkpt lat="43.53937" lon="1.49255">
        <ele>175.8</ele>
        <time>2022-07-03T09:47:48Z</time>
      </trkpt>
      <trkpt lat="43.53931" lon="1.49256">
        <ele>176</ele>
        <time>2022-07-03T09:47:50Z</time>
      </trkpt>
      <trkpt lat="43.53927" lon="1.49258">
        <ele>176</ele>
        <time>2022-07-03T09:47:51Z</time>
      </trkpt>
      <trkpt lat="43.53924" lon="1.4926">
        <ele>176</ele>
        <time>2022-07-03T09:47:52Z</time>
      </trkpt>
      <trkpt lat="43.53912" lon="1.49265">
        <ele>176.4</ele>
        <time>2022-07-03T09:47:55Z</time>
      </trkpt>
      <trkpt lat="43.53899" lon="1.49274">
        <ele>176.6</ele>
        <time>2022-07-03T09:47:58Z</time>
      </trkpt>
      <trkpt lat="43.5389" lon="1.49283">
        <ele>176.8</ele>
        <time>2022-07-03T09:48:00Z</time>
      </trkpt>
      <trkpt lat="43.53875" lon="1.49301">
        <ele>177</ele>
        <time>2022-07-03T09:48:04Z</time>
      </trkpt>
      <trkpt lat="43.53862" lon="1.49327">
        <ele>177.2</ele>
        <time>2022-07-03T09:48:09Z</time>
      </trkpt>
      <trkpt lat="43.53855" lon="1.49351">
        <ele>177.4</ele>
        <time>2022-07-03T09:48:14Z</time>
      </trkpt>
      <trkpt lat="43.53853" lon="1.49356">
        <ele>177.4</ele>
        <time>2022-07-03T09:48:15Z</time>
      </trkpt>
      <trkpt lat="43.53852" lon="1.4936">
        <ele>177.4</ele>
        <time>2022-07-03T09:48:16Z</time>
      </trkpt>
      <trkpt lat="43.53851" lon="1.49364">
        <ele>177.4</ele>
        <time>2022-07-03T09:48:17Z</time>
      </trkpt>
      <trkpt lat="43.5385" lon="1.49372">
        <ele>177.4</ele>
        <time>2022-07-03T09:48:19Z</time>
      </trkpt>
      <trkpt lat="43.53851" lon="1.49378">
        <ele>177.4</ele>
        <time>2022-07-03T09:48:20Z</time>
      </trkpt>
      <trkpt lat="43.53851" lon="1.49384">
        <ele>177.4</ele>
        <time>2022-07-03T09:48:21Z</time>
      </trkpt>
      <trkpt lat="43.53853" lon="1.4939">
        <ele>177.4</ele>
        <time>2022-07-03T09:48:22Z</time>
      </trkpt>
      <trkpt lat="43.53853" lon="1.49396">
        <ele>177.4</ele>
        <time>2022-07-03T09:48:23Z</time>
      </trkpt>
      <trkpt lat="43.53853" lon="1.49399">
        <ele>177.4</ele>
        <time>2022-07-03T09:48:24Z</time>
      </trkpt>
      <trkpt lat="43.53854" lon="1.49403">
        <ele>177.4</ele>
        <time>2022-07-03T09:48:25Z</time>
      </trkpt>
      <trkpt lat="43.53855" lon="1.49407">
        <ele>177.4</ele>
        <time>2022-07-03T09:48:26Z</time>
      </trkpt>
      <trkpt lat="43.53858" lon="1.49415">
        <ele>177.4</ele>
        <time>2022-07-03T09:48:28Z</time>
      </trkpt>
      <trkpt lat="43.53859" lon="1.4942">
        <ele>177.6</ele>
        <time>2022-07-03T09:48:29Z</time>
      </trkpt>
      <trkpt lat="43.53861" lon="1.49433">
        <ele>177.6</ele>
        <time>2022-07-03T09:48:31Z</time>
      </trkpt>
      <trkpt lat="43.53861" lon="1.49438">
        <ele>177.6</ele>
        <time>2022-07-03T09:48:32Z</time>
      </trkpt>
      <trkpt lat="43.5386" lon="1.49444">
        <ele>177.6</ele>
        <time>2022-07-03T09:48:33Z</time>
      </trkpt>
      <trkpt lat="43.53859" lon="1.4945">
        <ele>177.6</ele>
        <time>2022-07-03T09:48:34Z</time>
      </trkpt>
      <trkpt lat="43.53859" lon="1.49455">
        <ele>177.6</ele>
        <time>2022-07-03T09:48:35Z</time>
      </trkpt>
      <trkpt lat="43.53859" lon="1.49461">
        <ele>177.8</ele>
        <time>2022-07-03T09:48:36Z</time>
      </trkpt>
      <trkpt lat="43.53863" lon="1.49484">
        <ele>178</ele>
        <time>2022-07-03T09:48:40Z</time>
      </trkpt>
      <trkpt lat="43.53866" lon="1.49494">
        <ele>178.2</ele>
        <time>2022-07-03T09:48:42Z</time>
      </trkpt>
      <trkpt lat="43.53866" lon="1.49498">
        <ele>178.2</ele>
        <time>2022-07-03T09:48:43Z</time>
      </trkpt>
      <trkpt lat="43.53867" lon="1.49502">
        <ele>178.2</ele>
        <time>2022-07-03T09:48:44Z</time>
      </trkpt>
      <trkpt lat="43.53868" lon="1.49509">
        <ele>178.2</ele>
        <time>2022-07-03T09:48:46Z</time>
      </trkpt>
      <trkpt lat="43.53868" lon="1.49512">
        <ele>178.2</ele>
        <time>2022-07-03T09:48:47Z</time>
      </trkpt>
      <trkpt lat="43.53869" lon="1.49517">
        <ele>178.2</ele>
        <time>2022-07-03T09:48:48Z</time>
      </trkpt>
      <trkpt lat="43.53873" lon="1.49535">
        <ele>178.4</ele>
        <time>2022-07-03T09:48:52Z</time>
      </trkpt>
      <trkpt lat="43.53876" lon="1.49553">
        <ele>178.4</ele>
        <time>2022-07-03T09:48:56Z</time>
      </trkpt>
      <trkpt lat="43.53877" lon="1.49558">
        <ele>178.4</ele>
        <time>2022-07-03T09:48:57Z</time>
      </trkpt>
      <trkpt lat="43.53877" lon="1.49562">
        <ele>178.4</ele>
        <time>2022-07-03T09:48:58Z</time>
      </trkpt>
      <trkpt lat="43.53879" lon="1.4957">
        <ele>178.4</ele>
        <time>2022-07-03T09:49:00Z</time>
      </trkpt>
      <trkpt lat="43.53881" lon="1.49578">
        <ele>178.2</ele>
        <time>2022-07-03T09:49:02Z</time>
      </trkpt>
      <trkpt lat="43.53882" lon="1.49583">
        <ele>178.2</ele>
        <time>2022-07-03T09:49:03Z</time>
      </trkpt>
      <trkpt lat="43.53884" lon="1.49589">
        <ele>178.2</ele>
        <time>2022-07-03T09:49:04Z</time>
      </trkpt>
      <trkpt lat="43.53886" lon="1.49605">
        <ele>178</ele>
        <time>2022-07-03T09:49:07Z</time>
      </trkpt>
      <trkpt lat="43.53887" lon="1.49609">
        <ele>178</ele>
        <time>2022-07-03T09:49:08Z</time>
      </trkpt>
      <trkpt lat="43.53888" lon="1.49614">
        <ele>178.2</ele>
        <time>2022-07-03T09:49:09Z</time>
      </trkpt>
      <trkpt lat="43.5389" lon="1.4962">
        <ele>178.2</ele>
        <time>2022-07-03T09:49:10Z</time>
      </trkpt>
      <trkpt lat="43.53891" lon="1.49633">
        <ele>178.2</ele>
        <time>2022-07-03T09:49:13Z</time>
      </trkpt>
      <trkpt lat="43.53891" lon="1.49637">
        <ele>178</ele>
        <time>2022-07-03T09:49:14Z</time>
      </trkpt>
      <trkpt lat="43.53892" lon="1.49641">
        <ele>178</ele>
        <time>2022-07-03T09:49:15Z</time>
      </trkpt>
      <trkpt lat="43.53893" lon="1.49647">
        <ele>178</ele>
        <time>2022-07-03T09:49:16Z</time>
      </trkpt>
      <trkpt lat="43.53894" lon="1.49653">
        <ele>178</ele>
        <time>2022-07-03T09:49:17Z</time>
      </trkpt>
      <trkpt lat="43.53898" lon="1.49668">
        <ele>178</ele>
        <time>2022-07-03T09:49:19Z</time>
      </trkpt>
      <trkpt lat="43.53901" lon="1.497">
        <ele>178</ele>
        <time>2022-07-03T09:49:24Z</time>
      </trkpt>
      <trkpt lat="43.53901" lon="1.49704">
        <ele>178</ele>
        <time>2022-07-03T09:49:25Z</time>
      </trkpt>
      <trkpt lat="43.539" lon="1.49709">
        <ele>178</ele>
        <time>2022-07-03T09:49:26Z</time>
      </trkpt>
      <trkpt lat="43.539" lon="1.49714">
        <ele>178</ele>
        <time>2022-07-03T09:49:27Z</time>
      </trkpt>
      <trkpt lat="43.53899" lon="1.49718">
        <ele>178</ele>
        <time>2022-07-03T09:49:28Z</time>
      </trkpt>
      <trkpt lat="43.539" lon="1.49723">
        <ele>178</ele>
        <time>2022-07-03T09:49:29Z</time>
      </trkpt>
      <trkpt lat="43.539" lon="1.49728">
        <ele>178</ele>
        <time>2022-07-03T09:49:30Z</time>
      </trkpt>
      <trkpt lat="43.539" lon="1.49746">
        <ele>177.8</ele>
        <time>2022-07-03T09:49:33Z</time>
      </trkpt>
      <trkpt lat="43.53898" lon="1.49756">
        <ele>177.8</ele>
        <time>2022-07-03T09:49:35Z</time>
      </trkpt>
      <trkpt lat="43.53898" lon="1.49768">
        <ele>177.8</ele>
        <time>2022-07-03T09:49:37Z</time>
      </trkpt>
      <trkpt lat="43.53897" lon="1.49774">
        <ele>177.8</ele>
        <time>2022-07-03T09:49:38Z</time>
      </trkpt>
      <trkpt lat="43.53897" lon="1.49778">
        <ele>177.6</ele>
        <time>2022-07-03T09:49:39Z</time>
      </trkpt>
      <trkpt lat="43.53898" lon="1.49782">
        <ele>177.6</ele>
        <time>2022-07-03T09:49:40Z</time>
      </trkpt>
      <trkpt lat="43.53898" lon="1.49788">
        <ele>177.8</ele>
        <time>2022-07-03T09:49:41Z</time>
      </trkpt>
      <trkpt lat="43.53895" lon="1.49798">
        <ele>177.8</ele>
        <time>2022-07-03T09:49:43Z</time>
      </trkpt>
      <trkpt lat="43.53894" lon="1.49803">
        <ele>177.6</ele>
        <time>2022-07-03T09:49:44Z</time>
      </trkpt>
      <trkpt lat="43.53894" lon="1.49807">
        <ele>177.6</ele>
        <time>2022-07-03T09:49:45Z</time>
      </trkpt>
      <trkpt lat="43.53891" lon="1.49825">
        <ele>177.6</ele>
        <time>2022-07-03T09:49:49Z</time>
      </trkpt>
      <trkpt lat="43.53885" lon="1.49857">
        <ele>177.6</ele>
        <time>2022-07-03T09:49:55Z</time>
      </trkpt>
      <trkpt lat="43.53882" lon="1.49868">
        <ele>177.6</ele>
        <time>2022-07-03T09:49:57Z</time>
      </trkpt>
      <trkpt lat="43.53881" lon="1.49871">
        <ele>177.6</ele>
        <time>2022-07-03T09:49:58Z</time>
      </trkpt>
      <trkpt lat="43.53878" lon="1.49878">
        <ele>177.6</ele>
        <time>2022-07-03T09:49:59Z</time>
      </trkpt>
      <trkpt lat="43.53877" lon="1.49885">
        <ele>177.6</ele>
        <time>2022-07-03T09:50:00Z</time>
      </trkpt>
      <trkpt lat="43.53875" lon="1.49891">
        <ele>177.6</ele>
        <time>2022-07-03T09:50:01Z</time>
      </trkpt>
      <trkpt lat="43.53872" lon="1.49903">
        <ele>177.6</ele>
        <time>2022-07-03T09:50:04Z</time>
      </trkpt>
      <trkpt lat="43.53872" lon="1.49908">
        <ele>177.6</ele>
        <time>2022-07-03T09:50:05Z</time>
      </trkpt>
      <trkpt lat="43.5387" lon="1.49912">
        <ele>177.6</ele>
        <time>2022-07-03T09:50:06Z</time>
      </trkpt>
      <trkpt lat="43.53869" lon="1.49918">
        <ele>177.6</ele>
        <time>2022-07-03T09:50:07Z</time>
      </trkpt>
      <trkpt lat="43.53869" lon="1.49922">
        <ele>177.6</ele>
        <time>2022-07-03T09:50:08Z</time>
      </trkpt>
      <trkpt lat="43.53862" lon="1.49945">
        <ele>177.8</ele>
        <time>2022-07-03T09:50:12Z</time>
      </trkpt>
      <trkpt lat="43.5386" lon="1.4995">
        <ele>177.8</ele>
        <time>2022-07-03T09:50:13Z</time>
      </trkpt>
      <trkpt lat="43.53859" lon="1.49955">
        <ele>177.6</ele>
        <time>2022-07-03T09:50:14Z</time>
      </trkpt>
      <trkpt lat="43.53846" lon="1.49979">
        <ele>177.8</ele>
        <time>2022-07-03T09:50:19Z</time>
      </trkpt>
      <trkpt lat="43.53842" lon="1.49985">
        <ele>177.8</ele>
        <time>2022-07-03T09:50:21Z</time>
      </trkpt>
      <trkpt lat="43.53838" lon="1.49998">
        <ele>177.6</ele>
        <time>2022-07-03T09:50:24Z</time>
      </trkpt>
      <trkpt lat="43.53836" lon="1.50001">
        <ele>177.6</ele>
        <time>2022-07-03T09:50:25Z</time>
      </trkpt>
      <trkpt lat="43.53834" lon="1.50005">
        <ele>177.6</ele>
        <time>2022-07-03T09:50:26Z</time>
      </trkpt>
      <trkpt lat="43.53832" lon="1.50008">
        <ele>177.8</ele>
        <time>2022-07-03T09:50:27Z</time>
      </trkpt>
      <trkpt lat="43.53819" lon="1.50028">
        <ele>177.6</ele>
        <time>2022-07-03T09:50:32Z</time>
      </trkpt>
      <trkpt lat="43.53808" lon="1.50045">
        <ele>177.6</ele>
        <time>2022-07-03T09:50:35Z</time>
      </trkpt>
      <trkpt lat="43.53801" lon="1.50057">
        <ele>177.4</ele>
        <time>2022-07-03T09:50:38Z</time>
      </trkpt>
      <trkpt lat="43.53798" lon="1.50063">
        <ele>177.2</ele>
        <time>2022-07-03T09:50:40Z</time>
      </trkpt>
      <trkpt lat="43.53796" lon="1.50066">
        <ele>177.2</ele>
        <time>2022-07-03T09:50:41Z</time>
      </trkpt>
      <trkpt lat="43.53795" lon="1.5007">
        <ele>177.2</ele>
        <time>2022-07-03T09:50:42Z</time>
      </trkpt>
      <trkpt lat="43.53793" lon="1.50074">
        <ele>177.2</ele>
        <time>2022-07-03T09:50:43Z</time>
      </trkpt>
      <trkpt lat="43.53785" lon="1.50088">
        <ele>177.2</ele>
        <time>2022-07-03T09:50:46Z</time>
      </trkpt>
      <trkpt lat="43.53781" lon="1.50093">
        <ele>177.2</ele>
        <time>2022-07-03T09:50:47Z</time>
      </trkpt>
      <trkpt lat="43.53775" lon="1.50104">
        <ele>177</ele>
        <time>2022-07-03T09:50:49Z</time>
      </trkpt>
      <trkpt lat="43.53773" lon="1.50109">
        <ele>177.2</ele>
        <time>2022-07-03T09:50:50Z</time>
      </trkpt>
      <trkpt lat="43.53764" lon="1.50124">
        <ele>177.2</ele>
        <time>2022-07-03T09:50:54Z</time>
      </trkpt>
      <trkpt lat="43.53763" lon="1.50129">
        <ele>177.2</ele>
        <time>2022-07-03T09:50:55Z</time>
      </trkpt>
      <trkpt lat="43.53759" lon="1.50135">
        <ele>177</ele>
        <time>2022-07-03T09:50:56Z</time>
      </trkpt>
      <trkpt lat="43.53757" lon="1.5014">
        <ele>177</ele>
        <time>2022-07-03T09:50:57Z</time>
      </trkpt>
      <trkpt lat="43.53755" lon="1.5015">
        <ele>177</ele>
        <time>2022-07-03T09:50:59Z</time>
      </trkpt>
      <trkpt lat="43.53754" lon="1.50153">
        <ele>177</ele>
        <time>2022-07-03T09:51:00Z</time>
      </trkpt>
      <trkpt lat="43.53749" lon="1.50167">
        <ele>177.2</ele>
        <time>2022-07-03T09:51:03Z</time>
      </trkpt>
      <trkpt lat="43.53746" lon="1.50172">
        <ele>177</ele>
        <time>2022-07-03T09:51:04Z</time>
      </trkpt>
      <trkpt lat="43.53741" lon="1.50183">
        <ele>177</ele>
        <time>2022-07-03T09:51:06Z</time>
      </trkpt>
      <trkpt lat="43.53738" lon="1.50187">
        <ele>177</ele>
        <time>2022-07-03T09:51:07Z</time>
      </trkpt>
      <trkpt lat="43.5373" lon="1.50196">
        <ele>177</ele>
        <time>2022-07-03T09:51:09Z</time>
      </trkpt>
      <trkpt lat="43.53725" lon="1.50207">
        <ele>176.4</ele>
        <time>2022-07-03T09:51:12Z</time>
      </trkpt>
      <trkpt lat="43.53723" lon="1.5021">
        <ele>176.4</ele>
        <time>2022-07-03T09:51:13Z</time>
      </trkpt>
      <trkpt lat="43.5372" lon="1.50213">
        <ele>176.2</ele>
        <time>2022-07-03T09:51:14Z</time>
      </trkpt>
      <trkpt lat="43.53717" lon="1.50216">
        <ele>175.8</ele>
        <time>2022-07-03T09:51:15Z</time>
      </trkpt>
      <trkpt lat="43.53714" lon="1.5022">
        <ele>175.8</ele>
        <time>2022-07-03T09:51:16Z</time>
      </trkpt>
      <trkpt lat="43.53712" lon="1.50223">
        <ele>175.6</ele>
        <time>2022-07-03T09:51:17Z</time>
      </trkpt>
      <trkpt lat="43.5371" lon="1.50227">
        <ele>175.6</ele>
        <time>2022-07-03T09:51:18Z</time>
      </trkpt>
      <trkpt lat="43.53707" lon="1.5023">
        <ele>175.6</ele>
        <time>2022-07-03T09:51:19Z</time>
      </trkpt>
      <trkpt lat="43.53705" lon="1.50233">
        <ele>175.4</ele>
        <time>2022-07-03T09:51:20Z</time>
      </trkpt>
      <trkpt lat="43.53698" lon="1.50242">
        <ele>175.4</ele>
        <time>2022-07-03T09:51:23Z</time>
      </trkpt>
      <trkpt lat="43.53696" lon="1.50244">
        <ele>175.4</ele>
        <time>2022-07-03T09:51:24Z</time>
      </trkpt>
      <trkpt lat="43.53694" lon="1.50247">
        <ele>175.4</ele>
        <time>2022-07-03T09:51:25Z</time>
      </trkpt>
      <trkpt lat="43.53691" lon="1.50249">
        <ele>175.4</ele>
        <time>2022-07-03T09:51:26Z</time>
      </trkpt>
      <trkpt lat="43.53686" lon="1.50256">
        <ele>175.4</ele>
        <time>2022-07-03T09:51:28Z</time>
      </trkpt>
      <trkpt lat="43.53684" lon="1.5026">
        <ele>175.4</ele>
        <time>2022-07-03T09:51:29Z</time>
      </trkpt>
      <trkpt lat="43.53682" lon="1.50263">
        <ele>175.4</ele>
        <time>2022-07-03T09:51:30Z</time>
      </trkpt>
      <trkpt lat="43.53681" lon="1.50266">
        <ele>175.4</ele>
        <time>2022-07-03T09:51:31Z</time>
      </trkpt>
      <trkpt lat="43.53679" lon="1.50268">
        <ele>175.4</ele>
        <time>2022-07-03T09:51:32Z</time>
      </trkpt>
      <trkpt lat="43.53678" lon="1.5027">
        <ele>175.2</ele>
        <time>2022-07-03T09:51:33Z</time>
      </trkpt>
      <trkpt lat="43.53676" lon="1.50272">
        <ele>175.4</ele>
        <time>2022-07-03T09:51:34Z</time>
      </trkpt>
      <trkpt lat="43.53674" lon="1.50275">
        <ele>175.6</ele>
        <time>2022-07-03T09:51:35Z</time>
      </trkpt>
      <trkpt lat="43.53672" lon="1.50278">
        <ele>175.6</ele>
        <time>2022-07-03T09:51:36Z</time>
      </trkpt>
      <trkpt lat="43.53665" lon="1.50288">
        <ele>175.6</ele>
        <time>2022-07-03T09:51:39Z</time>
      </trkpt>
      <trkpt lat="43.53663" lon="1.50292">
        <ele>175.6</ele>
        <time>2022-07-03T09:51:40Z</time>
      </trkpt>
      <trkpt lat="43.53661" lon="1.50295">
        <ele>175.6</ele>
        <time>2022-07-03T09:51:41Z</time>
      </trkpt>
      <trkpt lat="43.53657" lon="1.50298">
        <ele>175.6</ele>
        <time>2022-07-03T09:51:42Z</time>
      </trkpt>
      <trkpt lat="43.53655" lon="1.50302">
        <ele>175.6</ele>
        <time>2022-07-03T09:51:43Z</time>
      </trkpt>
      <trkpt lat="43.53652" lon="1.50305">
        <ele>175.6</ele>
        <time>2022-07-03T09:51:44Z</time>
      </trkpt>
      <trkpt lat="43.53634" lon="1.5033">
        <ele>175.6</ele>
        <time>2022-07-03T09:51:51Z</time>
      </trkpt>
      <trkpt lat="43.53607" lon="1.50362">
        <ele>175.6</ele>
        <time>2022-07-03T09:52:00Z</time>
      </trkpt>
      <trkpt lat="43.53606" lon="1.50364">
        <ele>175.6</ele>
        <time>2022-07-03T09:52:01Z</time>
      </trkpt>
      <trkpt lat="43.53602" lon="1.50367">
        <ele>175.6</ele>
        <time>2022-07-03T09:52:02Z</time>
      </trkpt>
      <trkpt lat="43.53599" lon="1.5037">
        <ele>175.6</ele>
        <time>2022-07-03T09:52:03Z</time>
      </trkpt>
      <trkpt lat="43.53588" lon="1.50379">
        <ele>175.6</ele>
        <time>2022-07-03T09:52:07Z</time>
      </trkpt>
      <trkpt lat="43.53585" lon="1.50382">
        <ele>175.6</ele>
        <time>2022-07-03T09:52:08Z</time>
      </trkpt>
      <trkpt lat="43.53573" lon="1.50394">
        <ele>175.8</ele>
        <time>2022-07-03T09:52:12Z</time>
      </trkpt>
      <trkpt lat="43.53568" lon="1.50396">
        <ele>175.8</ele>
        <time>2022-07-03T09:52:13Z</time>
      </trkpt>
      <trkpt lat="43.53564" lon="1.504">
        <ele>176</ele>
        <time>2022-07-03T09:52:14Z</time>
      </trkpt>
      <trkpt lat="43.5356" lon="1.50404">
        <ele>176</ele>
        <time>2022-07-03T09:52:15Z</time>
      </trkpt>
      <trkpt lat="43.53546" lon="1.50417">
        <ele>176</ele>
        <time>2022-07-03T09:52:20Z</time>
      </trkpt>
      <trkpt lat="43.53542" lon="1.5042">
        <ele>176</ele>
        <time>2022-07-03T09:52:21Z</time>
      </trkpt>
      <trkpt lat="43.53534" lon="1.50426">
        <ele>175.8</ele>
        <time>2022-07-03T09:52:23Z</time>
      </trkpt>
      <trkpt lat="43.53531" lon="1.5043">
        <ele>175.8</ele>
        <time>2022-07-03T09:52:24Z</time>
      </trkpt>
      <trkpt lat="43.53528" lon="1.50432">
        <ele>175.8</ele>
        <time>2022-07-03T09:52:25Z</time>
      </trkpt>
      <trkpt lat="43.53512" lon="1.50447">
        <ele>175.8</ele>
        <time>2022-07-03T09:52:29Z</time>
      </trkpt>
      <trkpt lat="43.5351" lon="1.50449">
        <ele>175.8</ele>
        <time>2022-07-03T09:52:30Z</time>
      </trkpt>
      <trkpt lat="43.53508" lon="1.50451">
        <ele>175.8</ele>
        <time>2022-07-03T09:52:31Z</time>
      </trkpt>
      <trkpt lat="43.53505" lon="1.50453">
        <ele>175.8</ele>
        <time>2022-07-03T09:52:32Z</time>
      </trkpt>
      <trkpt lat="43.53502" lon="1.50456">
        <ele>175.8</ele>
        <time>2022-07-03T09:52:33Z</time>
      </trkpt>
      <trkpt lat="43.53498" lon="1.50458">
        <ele>175.8</ele>
        <time>2022-07-03T09:52:34Z</time>
      </trkpt>
      <trkpt lat="43.53484" lon="1.50466">
        <ele>175.8</ele>
        <time>2022-07-03T09:52:37Z</time>
      </trkpt>
      <trkpt lat="43.5345" lon="1.50496">
        <ele>175.8</ele>
        <time>2022-07-03T09:52:47Z</time>
      </trkpt>
      <trkpt lat="43.53448" lon="1.50496">
        <ele>175.8</ele>
        <time>2022-07-03T09:52:48Z</time>
      </trkpt>
      <trkpt lat="43.53444" lon="1.50498">
        <ele>175.8</ele>
        <time>2022-07-03T09:52:49Z</time>
      </trkpt>
      <trkpt lat="43.53442" lon="1.50501">
        <ele>175.8</ele>
        <time>2022-07-03T09:52:50Z</time>
      </trkpt>
      <trkpt lat="43.53432" lon="1.50508">
        <ele>175.8</ele>
        <time>2022-07-03T09:52:53Z</time>
      </trkpt>
      <trkpt lat="43.53418" lon="1.50516">
        <ele>176</ele>
        <time>2022-07-03T09:52:57Z</time>
      </trkpt>
      <trkpt lat="43.53413" lon="1.5052">
        <ele>176</ele>
        <time>2022-07-03T09:52:59Z</time>
      </trkpt>
      <trkpt lat="43.53408" lon="1.50521">
        <ele>176</ele>
        <time>2022-07-03T09:53:01Z</time>
      </trkpt>
      <trkpt lat="43.53388" lon="1.5053">
        <ele>176</ele>
        <time>2022-07-03T09:53:07Z</time>
      </trkpt>
      <trkpt lat="43.53381" lon="1.50531">
        <ele>176.2</ele>
        <time>2022-07-03T09:53:09Z</time>
      </trkpt>
      <trkpt lat="43.53354" lon="1.50535">
        <ele>176.2</ele>
        <time>2022-07-03T09:53:16Z</time>
      </trkpt>
      <trkpt lat="43.53338" lon="1.50538">
        <ele>176.2</ele>
        <time>2022-07-03T09:53:20Z</time>
      </trkpt>
      <trkpt lat="43.53334" lon="1.50538">
        <ele>176.2</ele>
        <time>2022-07-03T09:53:21Z</time>
      </trkpt>
      <trkpt lat="43.53331" lon="1.50538">
        <ele>176.2</ele>
        <time>2022-07-03T09:53:22Z</time>
      </trkpt>
      <trkpt lat="43.53327" lon="1.50539">
        <ele>176.2</ele>
        <time>2022-07-03T09:53:23Z</time>
      </trkpt>
      <trkpt lat="43.53317" lon="1.5054">
        <ele>176.2</ele>
        <time>2022-07-03T09:53:26Z</time>
      </trkpt>
      <trkpt lat="43.53309" lon="1.50542">
        <ele>176.2</ele>
        <time>2022-07-03T09:53:28Z</time>
      </trkpt>
      <trkpt lat="43.53285" lon="1.50547">
        <ele>176.2</ele>
        <time>2022-07-03T09:53:34Z</time>
      </trkpt>
      <trkpt lat="43.53273" lon="1.5055">
        <ele>176.4</ele>
        <time>2022-07-03T09:53:37Z</time>
      </trkpt>
      <trkpt lat="43.53269" lon="1.50551">
        <ele>176.4</ele>
        <time>2022-07-03T09:53:38Z</time>
      </trkpt>
      <trkpt lat="43.53266" lon="1.50551">
        <ele>176.4</ele>
        <time>2022-07-03T09:53:39Z</time>
      </trkpt>
      <trkpt lat="43.53259" lon="1.50552">
        <ele>176.4</ele>
        <time>2022-07-03T09:53:41Z</time>
      </trkpt>
      <trkpt lat="43.53255" lon="1.50553">
        <ele>176.4</ele>
        <time>2022-07-03T09:53:42Z</time>
      </trkpt>
      <trkpt lat="43.53252" lon="1.50553">
        <ele>176.4</ele>
        <time>2022-07-03T09:53:43Z</time>
      </trkpt>
      <trkpt lat="43.53249" lon="1.50553">
        <ele>176.4</ele>
        <time>2022-07-03T09:53:44Z</time>
      </trkpt>
      <trkpt lat="43.53245" lon="1.50553">
        <ele>176.4</ele>
        <time>2022-07-03T09:53:45Z</time>
      </trkpt>
      <trkpt lat="43.53238" lon="1.50554">
        <ele>176.4</ele>
        <time>2022-07-03T09:53:47Z</time>
      </trkpt>
      <trkpt lat="43.53235" lon="1.50555">
        <ele>176.4</ele>
        <time>2022-07-03T09:53:48Z</time>
      </trkpt>
      <trkpt lat="43.53231" lon="1.50555">
        <ele>176.4</ele>
        <time>2022-07-03T09:53:49Z</time>
      </trkpt>
      <trkpt lat="43.53203" lon="1.50563">
        <ele>176.2</ele>
        <time>2022-07-03T09:53:56Z</time>
      </trkpt>
      <trkpt lat="43.53195" lon="1.50566">
        <ele>176.4</ele>
        <time>2022-07-03T09:53:58Z</time>
      </trkpt>
      <trkpt lat="43.53173" lon="1.50575">
        <ele>176.2</ele>
        <time>2022-07-03T09:54:04Z</time>
      </trkpt>
      <trkpt lat="43.53159" lon="1.50582">
        <ele>176.2</ele>
        <time>2022-07-03T09:54:08Z</time>
      </trkpt>
      <trkpt lat="43.53156" lon="1.50583">
        <ele>176.2</ele>
        <time>2022-07-03T09:54:09Z</time>
      </trkpt>
      <trkpt lat="43.53153" lon="1.50584">
        <ele>176.2</ele>
        <time>2022-07-03T09:54:10Z</time>
      </trkpt>
      <trkpt lat="43.5315" lon="1.50586">
        <ele>176.2</ele>
        <time>2022-07-03T09:54:11Z</time>
      </trkpt>
      <trkpt lat="43.53147" lon="1.50587">
        <ele>176.2</ele>
        <time>2022-07-03T09:54:12Z</time>
      </trkpt>
      <trkpt lat="43.53143" lon="1.50588">
        <ele>176.2</ele>
        <time>2022-07-03T09:54:13Z</time>
      </trkpt>
      <trkpt lat="43.53139" lon="1.5059">
        <ele>176.2</ele>
        <time>2022-07-03T09:54:14Z</time>
      </trkpt>
      <trkpt lat="43.53136" lon="1.50592">
        <ele>176.2</ele>
        <time>2022-07-03T09:54:15Z</time>
      </trkpt>
      <trkpt lat="43.53132" lon="1.50594">
        <ele>176.2</ele>
        <time>2022-07-03T09:54:16Z</time>
      </trkpt>
      <trkpt lat="43.53112" lon="1.50603">
        <ele>176</ele>
        <time>2022-07-03T09:54:21Z</time>
      </trkpt>
      <trkpt lat="43.53092" lon="1.50613">
        <ele>176</ele>
        <time>2022-07-03T09:54:26Z</time>
      </trkpt>
      <trkpt lat="43.53088" lon="1.50615">
        <ele>176</ele>
        <time>2022-07-03T09:54:27Z</time>
      </trkpt>
      <trkpt lat="43.53084" lon="1.50618">
        <ele>176</ele>
        <time>2022-07-03T09:54:28Z</time>
      </trkpt>
      <trkpt lat="43.53072" lon="1.50626">
        <ele>175.8</ele>
        <time>2022-07-03T09:54:31Z</time>
      </trkpt>
      <trkpt lat="43.53069" lon="1.50627">
        <ele>175.8</ele>
        <time>2022-07-03T09:54:32Z</time>
      </trkpt>
      <trkpt lat="43.53067" lon="1.50628">
        <ele>175.8</ele>
        <time>2022-07-03T09:54:33Z</time>
      </trkpt>
      <trkpt lat="43.53064" lon="1.50629">
        <ele>175.8</ele>
        <time>2022-07-03T09:54:34Z</time>
      </trkpt>
      <trkpt lat="43.53061" lon="1.5063">
        <ele>176.2</ele>
        <time>2022-07-03T09:54:35Z</time>
      </trkpt>
      <trkpt lat="43.53058" lon="1.50631">
        <ele>176</ele>
        <time>2022-07-03T09:54:36Z</time>
      </trkpt>
      <trkpt lat="43.53047" lon="1.50638">
        <ele>176</ele>
        <time>2022-07-03T09:54:40Z</time>
      </trkpt>
      <trkpt lat="43.53044" lon="1.5064">
        <ele>176</ele>
        <time>2022-07-03T09:54:41Z</time>
      </trkpt>
      <trkpt lat="43.53041" lon="1.50642">
        <ele>176</ele>
        <time>2022-07-03T09:54:42Z</time>
      </trkpt>
      <trkpt lat="43.53032" lon="1.50649">
        <ele>176</ele>
        <time>2022-07-03T09:54:45Z</time>
      </trkpt>
      <trkpt lat="43.53015" lon="1.50662">
        <ele>175.8</ele>
        <time>2022-07-03T09:54:50Z</time>
      </trkpt>
      <trkpt lat="43.53008" lon="1.50668">
        <ele>176</ele>
        <time>2022-07-03T09:54:52Z</time>
      </trkpt>
      <trkpt lat="43.52981" lon="1.50696">
        <ele>176</ele>
        <time>2022-07-03T09:55:00Z</time>
      </trkpt>
      <trkpt lat="43.52978" lon="1.50699">
        <ele>176</ele>
        <time>2022-07-03T09:55:01Z</time>
      </trkpt>
      <trkpt lat="43.52975" lon="1.50702">
        <ele>176.2</ele>
        <time>2022-07-03T09:55:02Z</time>
      </trkpt>
      <trkpt lat="43.52971" lon="1.50706">
        <ele>176.2</ele>
        <time>2022-07-03T09:55:03Z</time>
      </trkpt>
      <trkpt lat="43.52961" lon="1.50716">
        <ele>176.2</ele>
        <time>2022-07-03T09:55:06Z</time>
      </trkpt>
      <trkpt lat="43.52959" lon="1.5072">
        <ele>176.2</ele>
        <time>2022-07-03T09:55:07Z</time>
      </trkpt>
      <trkpt lat="43.52955" lon="1.50723">
        <ele>176.2</ele>
        <time>2022-07-03T09:55:08Z</time>
      </trkpt>
      <trkpt lat="43.52953" lon="1.50726">
        <ele>176.2</ele>
        <time>2022-07-03T09:55:09Z</time>
      </trkpt>
      <trkpt lat="43.52947" lon="1.50737">
        <ele>176.2</ele>
        <time>2022-07-03T09:55:12Z</time>
      </trkpt>
      <trkpt lat="43.52932" lon="1.50756">
        <ele>176</ele>
        <time>2022-07-03T09:55:16Z</time>
      </trkpt>
      <trkpt lat="43.52929" lon="1.50759">
        <ele>176</ele>
        <time>2022-07-03T09:55:17Z</time>
      </trkpt>
      <trkpt lat="43.52927" lon="1.50762">
        <ele>176</ele>
        <time>2022-07-03T09:55:18Z</time>
      </trkpt>
      <trkpt lat="43.52924" lon="1.50766">
        <ele>176</ele>
        <time>2022-07-03T09:55:19Z</time>
      </trkpt>
      <trkpt lat="43.52918" lon="1.50774">
        <ele>176</ele>
        <time>2022-07-03T09:55:21Z</time>
      </trkpt>
      <trkpt lat="43.52916" lon="1.50776">
        <ele>176.2</ele>
        <time>2022-07-03T09:55:22Z</time>
      </trkpt>
      <trkpt lat="43.52913" lon="1.5078">
        <ele>176.2</ele>
        <time>2022-07-03T09:55:23Z</time>
      </trkpt>
      <trkpt lat="43.5291" lon="1.50783">
        <ele>176.2</ele>
        <time>2022-07-03T09:55:24Z</time>
      </trkpt>
      <trkpt lat="43.52908" lon="1.50786">
        <ele>176.2</ele>
        <time>2022-07-03T09:55:25Z</time>
      </trkpt>
      <trkpt lat="43.52906" lon="1.50789">
        <ele>176.2</ele>
        <time>2022-07-03T09:55:26Z</time>
      </trkpt>
      <trkpt lat="43.52903" lon="1.50794">
        <ele>176.2</ele>
        <time>2022-07-03T09:55:28Z</time>
      </trkpt>
      <trkpt lat="43.529" lon="1.50796">
        <ele>176.2</ele>
        <time>2022-07-03T09:55:29Z</time>
      </trkpt>
      <trkpt lat="43.52897" lon="1.50799">
        <ele>176.2</ele>
        <time>2022-07-03T09:55:30Z</time>
      </trkpt>
      <trkpt lat="43.5289" lon="1.50805">
        <ele>176.2</ele>
        <time>2022-07-03T09:55:33Z</time>
      </trkpt>
      <trkpt lat="43.52888" lon="1.50806">
        <ele>176</ele>
        <time>2022-07-03T09:55:34Z</time>
      </trkpt>
      <trkpt lat="43.52888" lon="1.50807">
        <ele>176</ele>
        <time>2022-07-03T09:55:35Z</time>
      </trkpt>
      <trkpt lat="43.52889" lon="1.50807">
        <ele>176</ele>
        <time>2022-07-03T09:55:36Z</time>
      </trkpt>
      <trkpt lat="43.52888" lon="1.50809">
        <ele>176</ele>
        <time>2022-07-03T09:55:37Z</time>
      </trkpt>
      <trkpt lat="43.52879" lon="1.50816">
        <ele>176</ele>
        <time>2022-07-03T09:55:43Z</time>
      </trkpt>
      <trkpt lat="43.52863" lon="1.50828">
        <ele>176</ele>
        <time>2022-07-03T09:55:48Z</time>
      </trkpt>
      <trkpt lat="43.52859" lon="1.50831">
        <ele>175.8</ele>
        <time>2022-07-03T09:55:49Z</time>
      </trkpt>
      <trkpt lat="43.52856" lon="1.50833">
        <ele>176</ele>
        <time>2022-07-03T09:55:50Z</time>
      </trkpt>
      <trkpt lat="43.52854" lon="1.50835">
        <ele>175.8</ele>
        <time>2022-07-03T09:55:51Z</time>
      </trkpt>
      <trkpt lat="43.52851" lon="1.50837">
        <ele>175.8</ele>
        <time>2022-07-03T09:55:52Z</time>
      </trkpt>
      <trkpt lat="43.52848" lon="1.50839">
        <ele>175.8</ele>
        <time>2022-07-03T09:55:53Z</time>
      </trkpt>
      <trkpt lat="43.52838" lon="1.50846">
        <ele>175.8</ele>
        <time>2022-07-03T09:55:57Z</time>
      </trkpt>
      <trkpt lat="43.52835" lon="1.50847">
        <ele>175.6</ele>
        <time>2022-07-03T09:55:58Z</time>
      </trkpt>
      <trkpt lat="43.52831" lon="1.50849">
        <ele>175.6</ele>
        <time>2022-07-03T09:55:59Z</time>
      </trkpt>
      <trkpt lat="43.52824" lon="1.50853">
        <ele>175.6</ele>
        <time>2022-07-03T09:56:01Z</time>
      </trkpt>
      <trkpt lat="43.52821" lon="1.50855">
        <ele>175.6</ele>
        <time>2022-07-03T09:56:02Z</time>
      </trkpt>
      <trkpt lat="43.52799" lon="1.50868">
        <ele>175.6</ele>
        <time>2022-07-03T09:56:08Z</time>
      </trkpt>
      <trkpt lat="43.52773" lon="1.50888">
        <ele>175</ele>
        <time>2022-07-03T09:56:14Z</time>
      </trkpt>
      <trkpt lat="43.52762" lon="1.50897">
        <ele>174.4</ele>
        <time>2022-07-03T09:56:17Z</time>
      </trkpt>
      <trkpt lat="43.5276" lon="1.509">
        <ele>174.4</ele>
        <time>2022-07-03T09:56:18Z</time>
      </trkpt>
      <trkpt lat="43.52757" lon="1.50904">
        <ele>174</ele>
        <time>2022-07-03T09:56:19Z</time>
      </trkpt>
      <trkpt lat="43.52754" lon="1.50907">
        <ele>173.8</ele>
        <time>2022-07-03T09:56:20Z</time>
      </trkpt>
      <trkpt lat="43.52746" lon="1.50919">
        <ele>173.4</ele>
        <time>2022-07-03T09:56:23Z</time>
      </trkpt>
      <trkpt lat="43.52739" lon="1.50927">
        <ele>173</ele>
        <time>2022-07-03T09:56:25Z</time>
      </trkpt>
      <trkpt lat="43.52737" lon="1.50931">
        <ele>172.8</ele>
        <time>2022-07-03T09:56:26Z</time>
      </trkpt>
      <trkpt lat="43.52734" lon="1.50934">
        <ele>172.6</ele>
        <time>2022-07-03T09:56:27Z</time>
      </trkpt>
      <trkpt lat="43.52731" lon="1.50938">
        <ele>172.4</ele>
        <time>2022-07-03T09:56:28Z</time>
      </trkpt>
      <trkpt lat="43.52723" lon="1.50949">
        <ele>172</ele>
        <time>2022-07-03T09:56:31Z</time>
      </trkpt>
      <trkpt lat="43.52721" lon="1.50952">
        <ele>171.8</ele>
        <time>2022-07-03T09:56:32Z</time>
      </trkpt>
      <trkpt lat="43.52719" lon="1.50956">
        <ele>171.8</ele>
        <time>2022-07-03T09:56:33Z</time>
      </trkpt>
      <trkpt lat="43.52717" lon="1.50958">
        <ele>171.8</ele>
        <time>2022-07-03T09:56:34Z</time>
      </trkpt>
      <trkpt lat="43.52716" lon="1.50962">
        <ele>171.8</ele>
        <time>2022-07-03T09:56:35Z</time>
      </trkpt>
      <trkpt lat="43.52714" lon="1.50965">
        <ele>171.8</ele>
        <time>2022-07-03T09:56:36Z</time>
      </trkpt>
      <trkpt lat="43.52695" lon="1.50989">
        <ele>172.2</ele>
        <time>2022-07-03T09:56:43Z</time>
      </trkpt>
      <trkpt lat="43.52684" lon="1.51014">
        <ele>172.6</ele>
        <time>2022-07-03T09:56:49Z</time>
      </trkpt>
      <trkpt lat="43.5268" lon="1.51029">
        <ele>173.2</ele>
        <time>2022-07-03T09:56:53Z</time>
      </trkpt>
      <trkpt lat="43.52678" lon="1.51037">
        <ele>173.4</ele>
        <time>2022-07-03T09:56:55Z</time>
      </trkpt>
      <trkpt lat="43.52675" lon="1.51044">
        <ele>173.4</ele>
        <time>2022-07-03T09:56:57Z</time>
      </trkpt>
      <trkpt lat="43.52674" lon="1.51047">
        <ele>173.6</ele>
        <time>2022-07-03T09:56:58Z</time>
      </trkpt>
      <trkpt lat="43.52673" lon="1.5105">
        <ele>173.6</ele>
        <time>2022-07-03T09:56:59Z</time>
      </trkpt>
      <trkpt lat="43.52672" lon="1.51054">
        <ele>173.8</ele>
        <time>2022-07-03T09:57:00Z</time>
      </trkpt>
      <trkpt lat="43.52668" lon="1.5107">
        <ele>174</ele>
        <time>2022-07-03T09:57:04Z</time>
      </trkpt>
      <trkpt lat="43.52666" lon="1.51078">
        <ele>174.2</ele>
        <time>2022-07-03T09:57:06Z</time>
      </trkpt>
      <trkpt lat="43.52665" lon="1.51082">
        <ele>174.4</ele>
        <time>2022-07-03T09:57:07Z</time>
      </trkpt>
      <trkpt lat="43.52661" lon="1.51095">
        <ele>174.8</ele>
        <time>2022-07-03T09:57:10Z</time>
      </trkpt>
      <trkpt lat="43.5266" lon="1.51099">
        <ele>174.8</ele>
        <time>2022-07-03T09:57:11Z</time>
      </trkpt>
      <trkpt lat="43.52659" lon="1.51103">
        <ele>175</ele>
        <time>2022-07-03T09:57:12Z</time>
      </trkpt>
      <trkpt lat="43.52657" lon="1.51108">
        <ele>175</ele>
        <time>2022-07-03T09:57:13Z</time>
      </trkpt>
      <trkpt lat="43.52655" lon="1.51114">
        <ele>175</ele>
        <time>2022-07-03T09:57:14Z</time>
      </trkpt>
      <trkpt lat="43.52655" lon="1.51118">
        <ele>175</ele>
        <time>2022-07-03T09:57:15Z</time>
      </trkpt>
      <trkpt lat="43.52651" lon="1.51138">
        <ele>175.2</ele>
        <time>2022-07-03T09:57:18Z</time>
      </trkpt>
      <trkpt lat="43.52651" lon="1.51153">
        <ele>175.2</ele>
        <time>2022-07-03T09:57:20Z</time>
      </trkpt>
      <trkpt lat="43.52649" lon="1.51188">
        <ele>174</ele>
        <time>2022-07-03T09:57:26Z</time>
      </trkpt>
      <trkpt lat="43.52649" lon="1.51194">
        <ele>173.8</ele>
        <time>2022-07-03T09:57:27Z</time>
      </trkpt>
      <trkpt lat="43.52648" lon="1.51224">
        <ele>173</ele>
        <time>2022-07-03T09:57:34Z</time>
      </trkpt>
      <trkpt lat="43.52647" lon="1.51238">
        <ele>172.4</ele>
        <time>2022-07-03T09:57:37Z</time>
      </trkpt>
      <trkpt lat="43.52646" lon="1.51251">
        <ele>171.8</ele>
        <time>2022-07-03T09:57:40Z</time>
      </trkpt>
      <trkpt lat="43.52646" lon="1.51282">
        <ele>170.8</ele>
        <time>2022-07-03T09:57:47Z</time>
      </trkpt>
      <trkpt lat="43.52646" lon="1.51287">
        <ele>170.6</ele>
        <time>2022-07-03T09:57:48Z</time>
      </trkpt>
      <trkpt lat="43.52645" lon="1.51322">
        <ele>169.8</ele>
        <time>2022-07-03T09:57:56Z</time>
      </trkpt>
      <trkpt lat="43.52645" lon="1.51326">
        <ele>169.6</ele>
        <time>2022-07-03T09:57:57Z</time>
      </trkpt>
      <trkpt lat="43.52644" lon="1.5133">
        <ele>169.6</ele>
        <time>2022-07-03T09:57:58Z</time>
      </trkpt>
      <trkpt lat="43.52644" lon="1.51335">
        <ele>169.4</ele>
        <time>2022-07-03T09:57:59Z</time>
      </trkpt>
      <trkpt lat="43.52644" lon="1.5134">
        <ele>169.4</ele>
        <time>2022-07-03T09:58:00Z</time>
      </trkpt>
      <trkpt lat="43.52642" lon="1.51359">
        <ele>169.2</ele>
        <time>2022-07-03T09:58:04Z</time>
      </trkpt>
      <trkpt lat="43.52642" lon="1.51364">
        <ele>169.2</ele>
        <time>2022-07-03T09:58:05Z</time>
      </trkpt>
      <trkpt lat="43.52639" lon="1.514">
        <ele>169</ele>
        <time>2022-07-03T09:58:12Z</time>
      </trkpt>
      <trkpt lat="43.52638" lon="1.51418">
        <ele>168.8</ele>
        <time>2022-07-03T09:58:15Z</time>
      </trkpt>
      <trkpt lat="43.52637" lon="1.51437">
        <ele>168.4</ele>
        <time>2022-07-03T09:58:18Z</time>
      </trkpt>
      <trkpt lat="43.52632" lon="1.5149">
        <ele>167.8</ele>
        <time>2022-07-03T09:58:27Z</time>
      </trkpt>
      <trkpt lat="43.52631" lon="1.51496">
        <ele>167.6</ele>
        <time>2022-07-03T09:58:28Z</time>
      </trkpt>
      <trkpt lat="43.5263" lon="1.51501">
        <ele>167.6</ele>
        <time>2022-07-03T09:58:29Z</time>
      </trkpt>
      <trkpt lat="43.5263" lon="1.51506">
        <ele>167.6</ele>
        <time>2022-07-03T09:58:30Z</time>
      </trkpt>
      <trkpt lat="43.52629" lon="1.51511">
        <ele>167.4</ele>
        <time>2022-07-03T09:58:31Z</time>
      </trkpt>
      <trkpt lat="43.52629" lon="1.51516">
        <ele>167.4</ele>
        <time>2022-07-03T09:58:32Z</time>
      </trkpt>
      <trkpt lat="43.52628" lon="1.51521">
        <ele>167.2</ele>
        <time>2022-07-03T09:58:33Z</time>
      </trkpt>
      <trkpt lat="43.52627" lon="1.51525">
        <ele>167.2</ele>
        <time>2022-07-03T09:58:34Z</time>
      </trkpt>
      <trkpt lat="43.52627" lon="1.5153">
        <ele>167.2</ele>
        <time>2022-07-03T09:58:35Z</time>
      </trkpt>
      <trkpt lat="43.52626" lon="1.51535">
        <ele>167.2</ele>
        <time>2022-07-03T09:58:36Z</time>
      </trkpt>
      <trkpt lat="43.52625" lon="1.5154">
        <ele>167</ele>
        <time>2022-07-03T09:58:37Z</time>
      </trkpt>
      <trkpt lat="43.52625" lon="1.51544">
        <ele>167</ele>
        <time>2022-07-03T09:58:38Z</time>
      </trkpt>
      <trkpt lat="43.52624" lon="1.51549">
        <ele>167</ele>
        <time>2022-07-03T09:58:39Z</time>
      </trkpt>
      <trkpt lat="43.52618" lon="1.51561">
        <ele>167</ele>
        <time>2022-07-03T09:58:42Z</time>
      </trkpt>
      <trkpt lat="43.52615" lon="1.51565">
        <ele>167</ele>
        <time>2022-07-03T09:58:43Z</time>
      </trkpt>
      <trkpt lat="43.52614" lon="1.51569">
        <ele>167</ele>
        <time>2022-07-03T09:58:44Z</time>
      </trkpt>
      <trkpt lat="43.52611" lon="1.51579">
        <ele>167</ele>
        <time>2022-07-03T09:58:46Z</time>
      </trkpt>
      <trkpt lat="43.5261" lon="1.51584">
        <ele>167</ele>
        <time>2022-07-03T09:58:47Z</time>
      </trkpt>
      <trkpt lat="43.52609" lon="1.51589">
        <ele>167</ele>
        <time>2022-07-03T09:58:48Z</time>
      </trkpt>
      <trkpt lat="43.52608" lon="1.51593">
        <ele>167</ele>
        <time>2022-07-03T09:58:49Z</time>
      </trkpt>
      <trkpt lat="43.52608" lon="1.51597">
        <ele>167</ele>
        <time>2022-07-03T09:58:50Z</time>
      </trkpt>
      <trkpt lat="43.52606" lon="1.51602">
        <ele>167</ele>
        <time>2022-07-03T09:58:51Z</time>
      </trkpt>
      <trkpt lat="43.52605" lon="1.51606">
        <ele>167</ele>
        <time>2022-07-03T09:58:52Z</time>
      </trkpt>
      <trkpt lat="43.52603" lon="1.5161">
        <ele>167.2</ele>
        <time>2022-07-03T09:58:53Z</time>
      </trkpt>
      <trkpt lat="43.52592" lon="1.51641">
        <ele>167.2</ele>
        <time>2022-07-03T09:59:00Z</time>
      </trkpt>
      <trkpt lat="43.52589" lon="1.51644">
        <ele>167.2</ele>
        <time>2022-07-03T09:59:01Z</time>
      </trkpt>
      <trkpt lat="43.52578" lon="1.5167">
        <ele>167.2</ele>
        <time>2022-07-03T09:59:07Z</time>
      </trkpt>
      <trkpt lat="43.52575" lon="1.51673">
        <ele>167.2</ele>
        <time>2022-07-03T09:59:08Z</time>
      </trkpt>
      <trkpt lat="43.52573" lon="1.51676">
        <ele>167.2</ele>
        <time>2022-07-03T09:59:09Z</time>
      </trkpt>
      <trkpt lat="43.52556" lon="1.51714">
        <ele>167.2</ele>
        <time>2022-07-03T09:59:18Z</time>
      </trkpt>
      <trkpt lat="43.52548" lon="1.51737">
        <ele>167.2</ele>
        <time>2022-07-03T09:59:23Z</time>
      </trkpt>
      <trkpt lat="43.52531" lon="1.51774">
        <ele>167.2</ele>
        <time>2022-07-03T09:59:31Z</time>
      </trkpt>
      <trkpt lat="43.5252" lon="1.51791">
        <ele>167.4</ele>
        <time>2022-07-03T09:59:35Z</time>
      </trkpt>
      <trkpt lat="43.52512" lon="1.51802">
        <ele>167.8</ele>
        <time>2022-07-03T09:59:38Z</time>
      </trkpt>
      <trkpt lat="43.52507" lon="1.51809">
        <ele>167.8</ele>
        <time>2022-07-03T09:59:40Z</time>
      </trkpt>
      <trkpt lat="43.52501" lon="1.51814">
        <ele>167.8</ele>
        <time>2022-07-03T09:59:42Z</time>
      </trkpt>
      <trkpt lat="43.52499" lon="1.51817">
        <ele>167.8</ele>
        <time>2022-07-03T09:59:43Z</time>
      </trkpt>
      <trkpt lat="43.52497" lon="1.51818">
        <ele>167.8</ele>
        <time>2022-07-03T09:59:44Z</time>
      </trkpt>
      <trkpt lat="43.52494" lon="1.5182">
        <ele>168</ele>
        <time>2022-07-03T09:59:45Z</time>
      </trkpt>
      <trkpt lat="43.52491" lon="1.51823">
        <ele>168</ele>
        <time>2022-07-03T09:59:46Z</time>
      </trkpt>
      <trkpt lat="43.52489" lon="1.51825">
        <ele>168</ele>
        <time>2022-07-03T09:59:47Z</time>
      </trkpt>
      <trkpt lat="43.52486" lon="1.51827">
        <ele>168</ele>
        <time>2022-07-03T09:59:48Z</time>
      </trkpt>
      <trkpt lat="43.52483" lon="1.5183">
        <ele>168</ele>
        <time>2022-07-03T09:59:49Z</time>
      </trkpt>
      <trkpt lat="43.52481" lon="1.51832">
        <ele>168</ele>
        <time>2022-07-03T09:59:50Z</time>
      </trkpt>
      <trkpt lat="43.52478" lon="1.51834">
        <ele>168</ele>
        <time>2022-07-03T09:59:51Z</time>
      </trkpt>
      <trkpt lat="43.52475" lon="1.51836">
        <ele>168</ele>
        <time>2022-07-03T09:59:52Z</time>
      </trkpt>
      <trkpt lat="43.52473" lon="1.51839">
        <ele>168</ele>
        <time>2022-07-03T09:59:53Z</time>
      </trkpt>
      <trkpt lat="43.52471" lon="1.51841">
        <ele>168</ele>
        <time>2022-07-03T09:59:54Z</time>
      </trkpt>
      <trkpt lat="43.52469" lon="1.51841">
        <ele>168</ele>
        <time>2022-07-03T09:59:55Z</time>
      </trkpt>
      <trkpt lat="43.52468" lon="1.51842">
        <ele>168</ele>
        <time>2022-07-03T09:59:56Z</time>
      </trkpt>
      <trkpt lat="43.52466" lon="1.51843">
        <ele>168</ele>
        <time>2022-07-03T09:59:57Z</time>
      </trkpt>
      <trkpt lat="43.52465" lon="1.51844">
        <ele>168</ele>
        <time>2022-07-03T09:59:58Z</time>
      </trkpt>
      <trkpt lat="43.52464" lon="1.51845">
        <ele>168</ele>
        <time>2022-07-03T09:59:59Z</time>
      </trkpt>
      <trkpt lat="43.52463" lon="1.51846">
        <ele>168</ele>
        <time>2022-07-03T10:00:00Z</time>
      </trkpt>
      <trkpt lat="43.52461" lon="1.51848">
        <ele>168</ele>
        <time>2022-07-03T10:00:01Z</time>
      </trkpt>
      <trkpt lat="43.52459" lon="1.5185">
        <ele>168</ele>
        <time>2022-07-03T10:00:03Z</time>
      </trkpt>
      <trkpt lat="43.52457" lon="1.51851">
        <ele>168</ele>
        <time>2022-07-03T10:00:04Z</time>
      </trkpt>
      <trkpt lat="43.52452" lon="1.51854">
        <ele>167.8</ele>
        <time>2022-07-03T10:00:07Z</time>
      </trkpt>
      <trkpt lat="43.52448" lon="1.51856">
        <ele>167.8</ele>
        <time>2022-07-03T10:00:09Z</time>
      </trkpt>
      <trkpt lat="43.52446" lon="1.51858">
        <ele>167.8</ele>
        <time>2022-07-03T10:00:10Z</time>
      </trkpt>
      <trkpt lat="43.52444" lon="1.51859">
        <ele>167.8</ele>
        <time>2022-07-03T10:00:11Z</time>
      </trkpt>
      <trkpt lat="43.52442" lon="1.5186">
        <ele>167.8</ele>
        <time>2022-07-03T10:00:12Z</time>
      </trkpt>
      <trkpt lat="43.52428" lon="1.51867">
        <ele>168</ele>
        <time>2022-07-03T10:00:19Z</time>
      </trkpt>
      <trkpt lat="43.5241" lon="1.51872">
        <ele>168.8</ele>
        <time>2022-07-03T10:00:26Z</time>
      </trkpt>
      <trkpt lat="43.52408" lon="1.51872">
        <ele>168.8</ele>
        <time>2022-07-03T10:00:27Z</time>
      </trkpt>
      <trkpt lat="43.52406" lon="1.51872">
        <ele>169.2</ele>
        <time>2022-07-03T10:00:28Z</time>
      </trkpt>
      <trkpt lat="43.52397" lon="1.51873">
        <ele>170</ele>
        <time>2022-07-03T10:00:32Z</time>
      </trkpt>
      <trkpt lat="43.52395" lon="1.51873">
        <ele>170.2</ele>
        <time>2022-07-03T10:00:33Z</time>
      </trkpt>
      <trkpt lat="43.52395" lon="1.51873">
        <ele>170.4</ele>
        <time>2022-07-03T10:00:34Z</time>
      </trkpt>
      <trkpt lat="43.52394" lon="1.51873">
        <ele>170.6</ele>
        <time>2022-07-03T10:00:35Z</time>
      </trkpt>
      <trkpt lat="43.52392" lon="1.51874">
        <ele>170.6</ele>
        <time>2022-07-03T10:00:36Z</time>
      </trkpt>
      <trkpt lat="43.52391" lon="1.51874">
        <ele>170.6</ele>
        <time>2022-07-03T10:00:37Z</time>
      </trkpt>
      <trkpt lat="43.52391" lon="1.51874">
        <ele>170.8</ele>
        <time>2022-07-03T10:00:38Z</time>
      </trkpt>
      <trkpt lat="43.5239" lon="1.51875">
        <ele>170.8</ele>
        <time>2022-07-03T10:00:39Z</time>
      </trkpt>
      <trkpt lat="43.5239" lon="1.51875">
        <ele>170.8</ele>
        <time>2022-07-03T10:00:41Z</time>
      </trkpt>
      <trkpt lat="43.52389" lon="1.51875">
        <ele>171</ele>
        <time>2022-07-03T10:00:42Z</time>
      </trkpt>
      <trkpt lat="43.52389" lon="1.51875">
        <ele>171</ele>
        <time>2022-07-03T10:00:43Z</time>
      </trkpt>
      <trkpt lat="43.52388" lon="1.51875">
        <ele>171</ele>
        <time>2022-07-03T10:00:44Z</time>
      </trkpt>
      <trkpt lat="43.52388" lon="1.51875">
        <ele>171.2</ele>
        <time>2022-07-03T10:00:46Z</time>
      </trkpt>
      <trkpt lat="43.52385" lon="1.51877">
        <ele>169</ele>
        <time>2022-07-03T10:02:04Z</time>
      </trkpt>
      <trkpt lat="43.52368" lon="1.51883">
        <ele>168.8</ele>
        <time>2022-07-03T10:02:09Z</time>
      </trkpt>
      <trkpt lat="43.52343" lon="1.5189">
        <ele>169</ele>
        <time>2022-07-03T10:02:15Z</time>
      </trkpt>
      <trkpt lat="43.52313" lon="1.51907">
        <ele>169.6</ele>
        <time>2022-07-03T10:02:23Z</time>
      </trkpt>
      <trkpt lat="43.52305" lon="1.51911">
        <ele>170</ele>
        <time>2022-07-03T10:02:26Z</time>
      </trkpt>
      <trkpt lat="43.52302" lon="1.51913">
        <ele>170</ele>
        <time>2022-07-03T10:02:27Z</time>
      </trkpt>
      <trkpt lat="43.52299" lon="1.51914">
        <ele>170.2</ele>
        <time>2022-07-03T10:02:28Z</time>
      </trkpt>
      <trkpt lat="43.52296" lon="1.51915">
        <ele>170.4</ele>
        <time>2022-07-03T10:02:29Z</time>
      </trkpt>
      <trkpt lat="43.52293" lon="1.51916">
        <ele>170.4</ele>
        <time>2022-07-03T10:02:30Z</time>
      </trkpt>
      <trkpt lat="43.52291" lon="1.51917">
        <ele>170.8</ele>
        <time>2022-07-03T10:02:31Z</time>
      </trkpt>
      <trkpt lat="43.52288" lon="1.51918">
        <ele>170.8</ele>
        <time>2022-07-03T10:02:32Z</time>
      </trkpt>
      <trkpt lat="43.52286" lon="1.51919">
        <ele>171</ele>
        <time>2022-07-03T10:02:33Z</time>
      </trkpt>
      <trkpt lat="43.52283" lon="1.5192">
        <ele>171</ele>
        <time>2022-07-03T10:02:34Z</time>
      </trkpt>
      <trkpt lat="43.52281" lon="1.51921">
        <ele>171.4</ele>
        <time>2022-07-03T10:02:35Z</time>
      </trkpt>
      <trkpt lat="43.52278" lon="1.51922">
        <ele>171.6</ele>
        <time>2022-07-03T10:02:36Z</time>
      </trkpt>
      <trkpt lat="43.52276" lon="1.51923">
        <ele>171.8</ele>
        <time>2022-07-03T10:02:37Z</time>
      </trkpt>
      <trkpt lat="43.52272" lon="1.51923">
        <ele>172.2</ele>
        <time>2022-07-03T10:02:38Z</time>
      </trkpt>
      <trkpt lat="43.5227" lon="1.51925">
        <ele>172.2</ele>
        <time>2022-07-03T10:02:39Z</time>
      </trkpt>
      <trkpt lat="43.52267" lon="1.51926">
        <ele>172.6</ele>
        <time>2022-07-03T10:02:40Z</time>
      </trkpt>
      <trkpt lat="43.52261" lon="1.51926">
        <ele>172.8</ele>
        <time>2022-07-03T10:02:42Z</time>
      </trkpt>
      <trkpt lat="43.52258" lon="1.51927">
        <ele>172.8</ele>
        <time>2022-07-03T10:02:43Z</time>
      </trkpt>
      <trkpt lat="43.52255" lon="1.51928">
        <ele>173</ele>
        <time>2022-07-03T10:02:44Z</time>
      </trkpt>
      <trkpt lat="43.52251" lon="1.51928">
        <ele>173</ele>
        <time>2022-07-03T10:02:45Z</time>
      </trkpt>
      <trkpt lat="43.52248" lon="1.51927">
        <ele>173</ele>
        <time>2022-07-03T10:02:46Z</time>
      </trkpt>
      <trkpt lat="43.52245" lon="1.51928">
        <ele>173.2</ele>
        <time>2022-07-03T10:02:47Z</time>
      </trkpt>
      <trkpt lat="43.52242" lon="1.51929">
        <ele>173.4</ele>
        <time>2022-07-03T10:02:48Z</time>
      </trkpt>
      <trkpt lat="43.52239" lon="1.5193">
        <ele>173.4</ele>
        <time>2022-07-03T10:02:49Z</time>
      </trkpt>
      <trkpt lat="43.52235" lon="1.51931">
        <ele>173.6</ele>
        <time>2022-07-03T10:02:50Z</time>
      </trkpt>
      <trkpt lat="43.52232" lon="1.51933">
        <ele>173.6</ele>
        <time>2022-07-03T10:02:51Z</time>
      </trkpt>
      <trkpt lat="43.52228" lon="1.51935">
        <ele>173.8</ele>
        <time>2022-07-03T10:02:52Z</time>
      </trkpt>
      <trkpt lat="43.52225" lon="1.51938">
        <ele>174</ele>
        <time>2022-07-03T10:02:53Z</time>
      </trkpt>
      <trkpt lat="43.52221" lon="1.51939">
        <ele>174.2</ele>
        <time>2022-07-03T10:02:54Z</time>
      </trkpt>
      <trkpt lat="43.52218" lon="1.5194">
        <ele>174.4</ele>
        <time>2022-07-03T10:02:55Z</time>
      </trkpt>
      <trkpt lat="43.52215" lon="1.51941">
        <ele>174.6</ele>
        <time>2022-07-03T10:02:56Z</time>
      </trkpt>
      <trkpt lat="43.52212" lon="1.51942">
        <ele>174.6</ele>
        <time>2022-07-03T10:02:57Z</time>
      </trkpt>
      <trkpt lat="43.5221" lon="1.51943">
        <ele>174.6</ele>
        <time>2022-07-03T10:02:58Z</time>
      </trkpt>
      <trkpt lat="43.52208" lon="1.51943">
        <ele>174.8</ele>
        <time>2022-07-03T10:02:59Z</time>
      </trkpt>
      <trkpt lat="43.52206" lon="1.51944">
        <ele>175.2</ele>
        <time>2022-07-03T10:03:00Z</time>
      </trkpt>
      <trkpt lat="43.52203" lon="1.51944">
        <ele>175.4</ele>
        <time>2022-07-03T10:03:01Z</time>
      </trkpt>
      <trkpt lat="43.52201" lon="1.51944">
        <ele>176</ele>
        <time>2022-07-03T10:03:02Z</time>
      </trkpt>
      <trkpt lat="43.52197" lon="1.51944">
        <ele>176.2</ele>
        <time>2022-07-03T10:03:03Z</time>
      </trkpt>
      <trkpt lat="43.52194" lon="1.51944">
        <ele>176.6</ele>
        <time>2022-07-03T10:03:04Z</time>
      </trkpt>
      <trkpt lat="43.5219" lon="1.51945">
        <ele>177</ele>
        <time>2022-07-03T10:03:05Z</time>
      </trkpt>
      <trkpt lat="43.52187" lon="1.51947">
        <ele>177.2</ele>
        <time>2022-07-03T10:03:06Z</time>
      </trkpt>
      <trkpt lat="43.52184" lon="1.51947">
        <ele>177.4</ele>
        <time>2022-07-03T10:03:07Z</time>
      </trkpt>
      <trkpt lat="43.52179" lon="1.51947">
        <ele>177.8</ele>
        <time>2022-07-03T10:03:08Z</time>
      </trkpt>
      <trkpt lat="43.52174" lon="1.51949">
        <ele>178</ele>
        <time>2022-07-03T10:03:09Z</time>
      </trkpt>
      <trkpt lat="43.52169" lon="1.51949">
        <ele>178.4</ele>
        <time>2022-07-03T10:03:10Z</time>
      </trkpt>
      <trkpt lat="43.52165" lon="1.51949">
        <ele>178.6</ele>
        <time>2022-07-03T10:03:11Z</time>
      </trkpt>
      <trkpt lat="43.5216" lon="1.51949">
        <ele>178.8</ele>
        <time>2022-07-03T10:03:12Z</time>
      </trkpt>
      <trkpt lat="43.52156" lon="1.51949">
        <ele>178.8</ele>
        <time>2022-07-03T10:03:13Z</time>
      </trkpt>
      <trkpt lat="43.52152" lon="1.51949">
        <ele>179.2</ele>
        <time>2022-07-03T10:03:14Z</time>
      </trkpt>
      <trkpt lat="43.52146" lon="1.5195">
        <ele>179.2</ele>
        <time>2022-07-03T10:03:15Z</time>
      </trkpt>
      <trkpt lat="43.52142" lon="1.5195">
        <ele>179.4</ele>
        <time>2022-07-03T10:03:16Z</time>
      </trkpt>
      <trkpt lat="43.52137" lon="1.51951">
        <ele>179.6</ele>
        <time>2022-07-03T10:03:17Z</time>
      </trkpt>
      <trkpt lat="43.52134" lon="1.51952">
        <ele>179.8</ele>
        <time>2022-07-03T10:03:18Z</time>
      </trkpt>
      <trkpt lat="43.5213" lon="1.51952">
        <ele>180</ele>
        <time>2022-07-03T10:03:19Z</time>
      </trkpt>
      <trkpt lat="43.52126" lon="1.51952">
        <ele>180</ele>
        <time>2022-07-03T10:03:20Z</time>
      </trkpt>
      <trkpt lat="43.52122" lon="1.51953">
        <ele>180.2</ele>
        <time>2022-07-03T10:03:21Z</time>
      </trkpt>
      <trkpt lat="43.52119" lon="1.51954">
        <ele>180.6</ele>
        <time>2022-07-03T10:03:22Z</time>
      </trkpt>
      <trkpt lat="43.52114" lon="1.51957">
        <ele>180.8</ele>
        <time>2022-07-03T10:03:23Z</time>
      </trkpt>
      <trkpt lat="43.52107" lon="1.5196">
        <ele>181</ele>
        <time>2022-07-03T10:03:24Z</time>
      </trkpt>
      <trkpt lat="43.521" lon="1.51963">
        <ele>181</ele>
        <time>2022-07-03T10:03:25Z</time>
      </trkpt>
      <trkpt lat="43.52095" lon="1.51966">
        <ele>181.2</ele>
        <time>2022-07-03T10:03:26Z</time>
      </trkpt>
      <trkpt lat="43.52089" lon="1.51969">
        <ele>181.4</ele>
        <time>2022-07-03T10:03:27Z</time>
      </trkpt>
      <trkpt lat="43.52086" lon="1.51971">
        <ele>181.6</ele>
        <time>2022-07-03T10:03:28Z</time>
      </trkpt>
      <trkpt lat="43.52082" lon="1.51975">
        <ele>181.6</ele>
        <time>2022-07-03T10:03:29Z</time>
      </trkpt>
      <trkpt lat="43.5208" lon="1.51978">
        <ele>181.6</ele>
        <time>2022-07-03T10:03:30Z</time>
      </trkpt>
      <trkpt lat="43.52078" lon="1.51981">
        <ele>181.8</ele>
        <time>2022-07-03T10:03:31Z</time>
      </trkpt>
      <trkpt lat="43.52075" lon="1.51984">
        <ele>181.8</ele>
        <time>2022-07-03T10:03:32Z</time>
      </trkpt>
      <trkpt lat="43.52071" lon="1.51988">
        <ele>182</ele>
        <time>2022-07-03T10:03:33Z</time>
      </trkpt>
      <trkpt lat="43.52067" lon="1.51991">
        <ele>182.2</ele>
        <time>2022-07-03T10:03:34Z</time>
      </trkpt>
      <trkpt lat="43.52063" lon="1.51992">
        <ele>182.4</ele>
        <time>2022-07-03T10:03:35Z</time>
      </trkpt>
      <trkpt lat="43.52059" lon="1.51995">
        <ele>182.6</ele>
        <time>2022-07-03T10:03:36Z</time>
      </trkpt>
      <trkpt lat="43.52053" lon="1.51996">
        <ele>182.8</ele>
        <time>2022-07-03T10:03:37Z</time>
      </trkpt>
      <trkpt lat="43.52049" lon="1.51998">
        <ele>182.8</ele>
        <time>2022-07-03T10:03:38Z</time>
      </trkpt>
      <trkpt lat="43.52046" lon="1.51999">
        <ele>183</ele>
        <time>2022-07-03T10:03:39Z</time>
      </trkpt>
      <trkpt lat="43.52043" lon="1.52001">
        <ele>183.2</ele>
        <time>2022-07-03T10:03:40Z</time>
      </trkpt>
      <trkpt lat="43.5204" lon="1.52003">
        <ele>183.4</ele>
        <time>2022-07-03T10:03:41Z</time>
      </trkpt>
      <trkpt lat="43.52037" lon="1.52005">
        <ele>183.6</ele>
        <time>2022-07-03T10:03:42Z</time>
      </trkpt>
      <trkpt lat="43.52033" lon="1.52006">
        <ele>183.6</ele>
        <time>2022-07-03T10:03:43Z</time>
      </trkpt>
      <trkpt lat="43.52027" lon="1.52008">
        <ele>183.8</ele>
        <time>2022-07-03T10:03:44Z</time>
      </trkpt>
      <trkpt lat="43.52023" lon="1.52009">
        <ele>184</ele>
        <time>2022-07-03T10:03:45Z</time>
      </trkpt>
      <trkpt lat="43.52018" lon="1.5201">
        <ele>184.4</ele>
        <time>2022-07-03T10:03:46Z</time>
      </trkpt>
      <trkpt lat="43.52011" lon="1.52011">
        <ele>184.4</ele>
        <time>2022-07-03T10:03:47Z</time>
      </trkpt>
      <trkpt lat="43.52007" lon="1.52012">
        <ele>184.6</ele>
        <time>2022-07-03T10:03:48Z</time>
      </trkpt>
      <trkpt lat="43.52004" lon="1.52011">
        <ele>184.6</ele>
        <time>2022-07-03T10:03:49Z</time>
      </trkpt>
      <trkpt lat="43.52001" lon="1.52011">
        <ele>184.8</ele>
        <time>2022-07-03T10:03:50Z</time>
      </trkpt>
      <trkpt lat="43.51996" lon="1.52011">
        <ele>185</ele>
        <time>2022-07-03T10:03:51Z</time>
      </trkpt>
      <trkpt lat="43.51993" lon="1.52011">
        <ele>185</ele>
        <time>2022-07-03T10:03:52Z</time>
      </trkpt>
      <trkpt lat="43.51989" lon="1.52012">
        <ele>185.4</ele>
        <time>2022-07-03T10:03:53Z</time>
      </trkpt>
      <trkpt lat="43.51983" lon="1.52013">
        <ele>185.4</ele>
        <time>2022-07-03T10:03:54Z</time>
      </trkpt>
      <trkpt lat="43.51976" lon="1.52014">
        <ele>185.6</ele>
        <time>2022-07-03T10:03:55Z</time>
      </trkpt>
      <trkpt lat="43.51971" lon="1.52014">
        <ele>185.8</ele>
        <time>2022-07-03T10:03:56Z</time>
      </trkpt>
      <trkpt lat="43.51967" lon="1.52015">
        <ele>185.8</ele>
        <time>2022-07-03T10:03:57Z</time>
      </trkpt>
      <trkpt lat="43.51963" lon="1.52016">
        <ele>185.8</ele>
        <time>2022-07-03T10:03:58Z</time>
      </trkpt>
      <trkpt lat="43.51956" lon="1.52016">
        <ele>185.8</ele>
        <time>2022-07-03T10:03:59Z</time>
      </trkpt>
      <trkpt lat="43.51949" lon="1.52016">
        <ele>186</ele>
        <time>2022-07-03T10:04:00Z</time>
      </trkpt>
      <trkpt lat="43.51944" lon="1.52015">
        <ele>186</ele>
        <time>2022-07-03T10:04:01Z</time>
      </trkpt>
      <trkpt lat="43.51938" lon="1.52012">
        <ele>186.2</ele>
        <time>2022-07-03T10:04:02Z</time>
      </trkpt>
      <trkpt lat="43.51933" lon="1.52011">
        <ele>186.2</ele>
        <time>2022-07-03T10:04:03Z</time>
      </trkpt>
      <trkpt lat="43.51927" lon="1.5201">
        <ele>186.2</ele>
        <time>2022-07-03T10:04:04Z</time>
      </trkpt>
      <trkpt lat="43.51922" lon="1.52008">
        <ele>186.4</ele>
        <time>2022-07-03T10:04:05Z</time>
      </trkpt>
      <trkpt lat="43.51917" lon="1.52007">
        <ele>186.4</ele>
        <time>2022-07-03T10:04:06Z</time>
      </trkpt>
      <trkpt lat="43.51913" lon="1.52005">
        <ele>186.4</ele>
        <time>2022-07-03T10:04:07Z</time>
      </trkpt>
      <trkpt lat="43.51909" lon="1.52003">
        <ele>186.4</ele>
        <time>2022-07-03T10:04:08Z</time>
      </trkpt>
      <trkpt lat="43.51905" lon="1.52002">
        <ele>186.4</ele>
        <time>2022-07-03T10:04:09Z</time>
      </trkpt>
      <trkpt lat="43.519" lon="1.52">
        <ele>186.4</ele>
        <time>2022-07-03T10:04:10Z</time>
      </trkpt>
      <trkpt lat="43.51896" lon="1.51998">
        <ele>186.4</ele>
        <time>2022-07-03T10:04:11Z</time>
      </trkpt>
      <trkpt lat="43.51893" lon="1.51997">
        <ele>186.6</ele>
        <time>2022-07-03T10:04:12Z</time>
      </trkpt>
      <trkpt lat="43.51888" lon="1.51994">
        <ele>186.6</ele>
        <time>2022-07-03T10:04:13Z</time>
      </trkpt>
      <trkpt lat="43.51873" lon="1.51984">
        <ele>187</ele>
        <time>2022-07-03T10:04:17Z</time>
      </trkpt>
      <trkpt lat="43.51868" lon="1.51981">
        <ele>187.2</ele>
        <time>2022-07-03T10:04:18Z</time>
      </trkpt>
      <trkpt lat="43.5186" lon="1.51977">
        <ele>187.4</ele>
        <time>2022-07-03T10:04:21Z</time>
      </trkpt>
      <trkpt lat="43.51857" lon="1.51977">
        <ele>187.4</ele>
        <time>2022-07-03T10:04:22Z</time>
      </trkpt>
      <trkpt lat="43.51849" lon="1.51972">
        <ele>187.6</ele>
        <time>2022-07-03T10:04:24Z</time>
      </trkpt>
      <trkpt lat="43.51845" lon="1.5197">
        <ele>187.6</ele>
        <time>2022-07-03T10:04:25Z</time>
      </trkpt>
      <trkpt lat="43.51841" lon="1.51969">
        <ele>187.6</ele>
        <time>2022-07-03T10:04:26Z</time>
      </trkpt>
      <trkpt lat="43.51839" lon="1.51968">
        <ele>187.8</ele>
        <time>2022-07-03T10:04:27Z</time>
      </trkpt>
      <trkpt lat="43.51812" lon="1.51967">
        <ele>187.8</ele>
        <time>2022-07-03T10:04:32Z</time>
      </trkpt>
      <trkpt lat="43.51782" lon="1.51982">
        <ele>188.2</ele>
        <time>2022-07-03T10:04:39Z</time>
      </trkpt>
      <trkpt lat="43.5178" lon="1.51985">
        <ele>188.2</ele>
        <time>2022-07-03T10:04:40Z</time>
      </trkpt>
      <trkpt lat="43.51777" lon="1.51988">
        <ele>188.2</ele>
        <time>2022-07-03T10:04:41Z</time>
      </trkpt>
      <trkpt lat="43.51773" lon="1.51991">
        <ele>188.2</ele>
        <time>2022-07-03T10:04:42Z</time>
      </trkpt>
      <trkpt lat="43.51768" lon="1.51993">
        <ele>188.2</ele>
        <time>2022-07-03T10:04:43Z</time>
      </trkpt>
      <trkpt lat="43.51749" lon="1.52008">
        <ele>188.2</ele>
        <time>2022-07-03T10:04:48Z</time>
      </trkpt>
      <trkpt lat="43.51746" lon="1.52011">
        <ele>188</ele>
        <time>2022-07-03T10:04:49Z</time>
      </trkpt>
      <trkpt lat="43.51728" lon="1.52025">
        <ele>188</ele>
        <time>2022-07-03T10:04:54Z</time>
      </trkpt>
      <trkpt lat="43.51719" lon="1.52032">
        <ele>188</ele>
        <time>2022-07-03T10:04:57Z</time>
      </trkpt>
      <trkpt lat="43.51716" lon="1.52034">
        <ele>188</ele>
        <time>2022-07-03T10:04:58Z</time>
      </trkpt>
      <trkpt lat="43.51714" lon="1.52034">
        <ele>188</ele>
        <time>2022-07-03T10:04:59Z</time>
      </trkpt>
      <trkpt lat="43.5171" lon="1.52035">
        <ele>188</ele>
        <time>2022-07-03T10:05:00Z</time>
      </trkpt>
      <trkpt lat="43.51695" lon="1.52041">
        <ele>188</ele>
        <time>2022-07-03T10:05:04Z</time>
      </trkpt>
      <trkpt lat="43.51662" lon="1.52052">
        <ele>187.8</ele>
        <time>2022-07-03T10:05:12Z</time>
      </trkpt>
      <trkpt lat="43.51658" lon="1.52053">
        <ele>187.8</ele>
        <time>2022-07-03T10:05:13Z</time>
      </trkpt>
      <trkpt lat="43.51646" lon="1.52055">
        <ele>188</ele>
        <time>2022-07-03T10:05:16Z</time>
      </trkpt>
      <trkpt lat="43.51642" lon="1.52054">
        <ele>188</ele>
        <time>2022-07-03T10:05:17Z</time>
      </trkpt>
      <trkpt lat="43.51638" lon="1.52054">
        <ele>188</ele>
        <time>2022-07-03T10:05:18Z</time>
      </trkpt>
      <trkpt lat="43.5163" lon="1.52053">
        <ele>188</ele>
        <time>2022-07-03T10:05:20Z</time>
      </trkpt>
      <trkpt lat="43.51625" lon="1.52053">
        <ele>188</ele>
        <time>2022-07-03T10:05:21Z</time>
      </trkpt>
      <trkpt lat="43.5162" lon="1.52053">
        <ele>187.8</ele>
        <time>2022-07-03T10:05:22Z</time>
      </trkpt>
      <trkpt lat="43.51599" lon="1.5205">
        <ele>187.8</ele>
        <time>2022-07-03T10:05:26Z</time>
      </trkpt>
      <trkpt lat="43.51588" lon="1.52042">
        <ele>187.8</ele>
        <time>2022-07-03T10:05:29Z</time>
      </trkpt>
      <trkpt lat="43.51582" lon="1.52036">
        <ele>187.6</ele>
        <time>2022-07-03T10:05:31Z</time>
      </trkpt>
      <trkpt lat="43.51578" lon="1.52032">
        <ele>187.6</ele>
        <time>2022-07-03T10:05:32Z</time>
      </trkpt>
      <trkpt lat="43.51563" lon="1.52012">
        <ele>187.6</ele>
        <time>2022-07-03T10:05:36Z</time>
      </trkpt>
      <trkpt lat="43.51562" lon="1.52008">
        <ele>187.6</ele>
        <time>2022-07-03T10:05:37Z</time>
      </trkpt>
      <trkpt lat="43.5156" lon="1.52004">
        <ele>187.8</ele>
        <time>2022-07-03T10:05:38Z</time>
      </trkpt>
      <trkpt lat="43.51557" lon="1.52">
        <ele>187.8</ele>
        <time>2022-07-03T10:05:39Z</time>
      </trkpt>
      <trkpt lat="43.51554" lon="1.51996">
        <ele>187.8</ele>
        <time>2022-07-03T10:05:40Z</time>
      </trkpt>
      <trkpt lat="43.51552" lon="1.51993">
        <ele>187.8</ele>
        <time>2022-07-03T10:05:41Z</time>
      </trkpt>
      <trkpt lat="43.51543" lon="1.51981">
        <ele>187.6</ele>
        <time>2022-07-03T10:05:44Z</time>
      </trkpt>
      <trkpt lat="43.5154" lon="1.51978">
        <ele>187.6</ele>
        <time>2022-07-03T10:05:45Z</time>
      </trkpt>
      <trkpt lat="43.51538" lon="1.51975">
        <ele>187.6</ele>
        <time>2022-07-03T10:05:46Z</time>
      </trkpt>
      <trkpt lat="43.51534" lon="1.51971">
        <ele>187.6</ele>
        <time>2022-07-03T10:05:47Z</time>
      </trkpt>
      <trkpt lat="43.51527" lon="1.51965">
        <ele>187.6</ele>
        <time>2022-07-03T10:05:49Z</time>
      </trkpt>
      <trkpt lat="43.51522" lon="1.51961">
        <ele>187.6</ele>
        <time>2022-07-03T10:05:50Z</time>
      </trkpt>
      <trkpt lat="43.51509" lon="1.51949">
        <ele>187.6</ele>
        <time>2022-07-03T10:05:54Z</time>
      </trkpt>
      <trkpt lat="43.51499" lon="1.51935">
        <ele>187.6</ele>
        <time>2022-07-03T10:05:57Z</time>
      </trkpt>
      <trkpt lat="43.5149" lon="1.51918">
        <ele>187.6</ele>
        <time>2022-07-03T10:06:00Z</time>
      </trkpt>
      <trkpt lat="43.51488" lon="1.51913">
        <ele>187.4</ele>
        <time>2022-07-03T10:06:01Z</time>
      </trkpt>
      <trkpt lat="43.51486" lon="1.51908">
        <ele>187.4</ele>
        <time>2022-07-03T10:06:02Z</time>
      </trkpt>
      <trkpt lat="43.51486" lon="1.51903">
        <ele>187.4</ele>
        <time>2022-07-03T10:06:03Z</time>
      </trkpt>
      <trkpt lat="43.51485" lon="1.51899">
        <ele>187.4</ele>
        <time>2022-07-03T10:06:04Z</time>
      </trkpt>
      <trkpt lat="43.51486" lon="1.51896">
        <ele>187.4</ele>
        <time>2022-07-03T10:06:05Z</time>
      </trkpt>
      <trkpt lat="43.51486" lon="1.5189">
        <ele>187.4</ele>
        <time>2022-07-03T10:06:06Z</time>
      </trkpt>
      <trkpt lat="43.51484" lon="1.51884">
        <ele>187.4</ele>
        <time>2022-07-03T10:06:07Z</time>
      </trkpt>
      <trkpt lat="43.51482" lon="1.51865">
        <ele>187.2</ele>
        <time>2022-07-03T10:06:10Z</time>
      </trkpt>
      <trkpt lat="43.51482" lon="1.5186">
        <ele>187.2</ele>
        <time>2022-07-03T10:06:11Z</time>
      </trkpt>
      <trkpt lat="43.51482" lon="1.51854">
        <ele>187.2</ele>
        <time>2022-07-03T10:06:12Z</time>
      </trkpt>
      <trkpt lat="43.51481" lon="1.51849">
        <ele>187.2</ele>
        <time>2022-07-03T10:06:13Z</time>
      </trkpt>
      <trkpt lat="43.51482" lon="1.51845">
        <ele>187.2</ele>
        <time>2022-07-03T10:06:14Z</time>
      </trkpt>
      <trkpt lat="43.51482" lon="1.5184">
        <ele>187.2</ele>
        <time>2022-07-03T10:06:15Z</time>
      </trkpt>
      <trkpt lat="43.51481" lon="1.51837">
        <ele>187.2</ele>
        <time>2022-07-03T10:06:16Z</time>
      </trkpt>
      <trkpt lat="43.51481" lon="1.51833">
        <ele>187.2</ele>
        <time>2022-07-03T10:06:17Z</time>
      </trkpt>
      <trkpt lat="43.5148" lon="1.51831">
        <ele>187</ele>
        <time>2022-07-03T10:06:18Z</time>
      </trkpt>
      <trkpt lat="43.51479" lon="1.51829">
        <ele>187</ele>
        <time>2022-07-03T10:06:19Z</time>
      </trkpt>
      <trkpt lat="43.51478" lon="1.51827">
        <ele>187.2</ele>
        <time>2022-07-03T10:06:20Z</time>
      </trkpt>
      <trkpt lat="43.51476" lon="1.51825">
        <ele>187.2</ele>
        <time>2022-07-03T10:06:21Z</time>
      </trkpt>
      <trkpt lat="43.51473" lon="1.51824">
        <ele>187</ele>
        <time>2022-07-03T10:06:22Z</time>
      </trkpt>
      <trkpt lat="43.51469" lon="1.51823">
        <ele>187</ele>
        <time>2022-07-03T10:06:23Z</time>
      </trkpt>
      <trkpt lat="43.51452" lon="1.51816">
        <ele>186.8</ele>
        <time>2022-07-03T10:06:27Z</time>
      </trkpt>
      <trkpt lat="43.51434" lon="1.51807">
        <ele>185.8</ele>
        <time>2022-07-03T10:06:31Z</time>
      </trkpt>
      <trkpt lat="43.5143" lon="1.51805">
        <ele>185.4</ele>
        <time>2022-07-03T10:06:32Z</time>
      </trkpt>
      <trkpt lat="43.51426" lon="1.51804">
        <ele>185</ele>
        <time>2022-07-03T10:06:33Z</time>
      </trkpt>
      <trkpt lat="43.51422" lon="1.51802">
        <ele>184.6</ele>
        <time>2022-07-03T10:06:34Z</time>
      </trkpt>
      <trkpt lat="43.51415" lon="1.51798">
        <ele>184.2</ele>
        <time>2022-07-03T10:06:36Z</time>
      </trkpt>
      <trkpt lat="43.51409" lon="1.5179">
        <ele>183.8</ele>
        <time>2022-07-03T10:06:38Z</time>
      </trkpt>
      <trkpt lat="43.51407" lon="1.51785">
        <ele>183.6</ele>
        <time>2022-07-03T10:06:39Z</time>
      </trkpt>
      <trkpt lat="43.51406" lon="1.51779">
        <ele>183.2</ele>
        <time>2022-07-03T10:06:40Z</time>
      </trkpt>
      <trkpt lat="43.51405" lon="1.51773">
        <ele>182.8</ele>
        <time>2022-07-03T10:06:41Z</time>
      </trkpt>
      <trkpt lat="43.51405" lon="1.51767">
        <ele>182.8</ele>
        <time>2022-07-03T10:06:42Z</time>
      </trkpt>
      <trkpt lat="43.51405" lon="1.51762">
        <ele>182.2</ele>
        <time>2022-07-03T10:06:43Z</time>
      </trkpt>
      <trkpt lat="43.51404" lon="1.51737">
        <ele>181.6</ele>
        <time>2022-07-03T10:06:47Z</time>
      </trkpt>
      <trkpt lat="43.51401" lon="1.51726">
        <ele>181.4</ele>
        <time>2022-07-03T10:06:49Z</time>
      </trkpt>
      <trkpt lat="43.51397" lon="1.51723">
        <ele>181.4</ele>
        <time>2022-07-03T10:06:50Z</time>
      </trkpt>
      <trkpt lat="43.51392" lon="1.51721">
        <ele>181.2</ele>
        <time>2022-07-03T10:06:51Z</time>
      </trkpt>
      <trkpt lat="43.51388" lon="1.5172">
        <ele>181.2</ele>
        <time>2022-07-03T10:06:52Z</time>
      </trkpt>
      <trkpt lat="43.51379" lon="1.51721">
        <ele>180.6</ele>
        <time>2022-07-03T10:06:54Z</time>
      </trkpt>
      <trkpt lat="43.51375" lon="1.51722">
        <ele>180.2</ele>
        <time>2022-07-03T10:06:55Z</time>
      </trkpt>
      <trkpt lat="43.5137" lon="1.51722">
        <ele>180.2</ele>
        <time>2022-07-03T10:06:56Z</time>
      </trkpt>
      <trkpt lat="43.51352" lon="1.51722">
        <ele>179.4</ele>
        <time>2022-07-03T10:07:00Z</time>
      </trkpt>
      <trkpt lat="43.51346" lon="1.51717">
        <ele>179</ele>
        <time>2022-07-03T10:07:02Z</time>
      </trkpt>
      <trkpt lat="43.51344" lon="1.51713">
        <ele>179</ele>
        <time>2022-07-03T10:07:03Z</time>
      </trkpt>
      <trkpt lat="43.5134" lon="1.51704">
        <ele>178.6</ele>
        <time>2022-07-03T10:07:05Z</time>
      </trkpt>
      <trkpt lat="43.51338" lon="1.517">
        <ele>178.4</ele>
        <time>2022-07-03T10:07:06Z</time>
      </trkpt>
      <trkpt lat="43.51335" lon="1.51696">
        <ele>178.4</ele>
        <time>2022-07-03T10:07:07Z</time>
      </trkpt>
      <trkpt lat="43.51333" lon="1.51693">
        <ele>178.2</ele>
        <time>2022-07-03T10:07:08Z</time>
      </trkpt>
      <trkpt lat="43.5133" lon="1.5169">
        <ele>178.2</ele>
        <time>2022-07-03T10:07:09Z</time>
      </trkpt>
      <trkpt lat="43.51329" lon="1.51688">
        <ele>178.2</ele>
        <time>2022-07-03T10:07:10Z</time>
      </trkpt>
      <trkpt lat="43.51326" lon="1.51687">
        <ele>178</ele>
        <time>2022-07-03T10:07:11Z</time>
      </trkpt>
      <trkpt lat="43.51324" lon="1.51686">
        <ele>178</ele>
        <time>2022-07-03T10:07:12Z</time>
      </trkpt>
      <trkpt lat="43.51321" lon="1.51686">
        <ele>178</ele>
        <time>2022-07-03T10:07:13Z</time>
      </trkpt>
      <trkpt lat="43.51318" lon="1.51686">
        <ele>178</ele>
        <time>2022-07-03T10:07:14Z</time>
      </trkpt>
      <trkpt lat="43.51316" lon="1.51686">
        <ele>178</ele>
        <time>2022-07-03T10:07:15Z</time>
      </trkpt>
      <trkpt lat="43.51298" lon="1.51688">
        <ele>178.6</ele>
        <time>2022-07-03T10:07:20Z</time>
      </trkpt>
      <trkpt lat="43.51285" lon="1.5169">
        <ele>164</ele>
        <time>2022-07-03T10:07:23Z</time>
      </trkpt>
      <trkpt lat="43.51265" lon="1.51694">
        <ele>180.6</ele>
        <time>2022-07-03T10:07:28Z</time>
      </trkpt>
      <trkpt lat="43.51261" lon="1.51695">
        <ele>180.8</ele>
        <time>2022-07-03T10:07:29Z</time>
      </trkpt>
      <trkpt lat="43.51229" lon="1.51701">
        <ele>181.4</ele>
        <time>2022-07-03T10:07:36Z</time>
      </trkpt>
      <trkpt lat="43.51225" lon="1.51702">
        <ele>181.6</ele>
        <time>2022-07-03T10:07:37Z</time>
      </trkpt>
      <trkpt lat="43.51222" lon="1.51703">
        <ele>181.8</ele>
        <time>2022-07-03T10:07:38Z</time>
      </trkpt>
      <trkpt lat="43.51218" lon="1.51704">
        <ele>181.8</ele>
        <time>2022-07-03T10:07:39Z</time>
      </trkpt>
      <trkpt lat="43.51208" lon="1.51707">
        <ele>182.2</ele>
        <time>2022-07-03T10:07:41Z</time>
      </trkpt>
      <trkpt lat="43.51201" lon="1.51709">
        <ele>182.2</ele>
        <time>2022-07-03T10:07:42Z</time>
      </trkpt>
      <trkpt lat="43.51198" lon="1.51711">
        <ele>182.4</ele>
        <time>2022-07-03T10:07:43Z</time>
      </trkpt>
      <trkpt lat="43.51194" lon="1.51712">
        <ele>182.4</ele>
        <time>2022-07-03T10:07:44Z</time>
      </trkpt>
      <trkpt lat="43.51191" lon="1.51713">
        <ele>182.6</ele>
        <time>2022-07-03T10:07:45Z</time>
      </trkpt>
      <trkpt lat="43.51189" lon="1.51714">
        <ele>182.6</ele>
        <time>2022-07-03T10:07:46Z</time>
      </trkpt>
      <trkpt lat="43.51186" lon="1.51716">
        <ele>182.8</ele>
        <time>2022-07-03T10:07:47Z</time>
      </trkpt>
      <trkpt lat="43.51182" lon="1.51718">
        <ele>182.8</ele>
        <time>2022-07-03T10:07:48Z</time>
      </trkpt>
      <trkpt lat="43.51176" lon="1.51719">
        <ele>183</ele>
        <time>2022-07-03T10:07:49Z</time>
      </trkpt>
      <trkpt lat="43.51172" lon="1.5172">
        <ele>183</ele>
        <time>2022-07-03T10:07:50Z</time>
      </trkpt>
      <trkpt lat="43.51168" lon="1.51721">
        <ele>183.2</ele>
        <time>2022-07-03T10:07:51Z</time>
      </trkpt>
      <trkpt lat="43.51164" lon="1.51722">
        <ele>183.2</ele>
        <time>2022-07-03T10:07:52Z</time>
      </trkpt>
      <trkpt lat="43.5116" lon="1.51723">
        <ele>183.4</ele>
        <time>2022-07-03T10:07:53Z</time>
      </trkpt>
      <trkpt lat="43.51156" lon="1.51724">
        <ele>183.6</ele>
        <time>2022-07-03T10:07:54Z</time>
      </trkpt>
      <trkpt lat="43.5115" lon="1.51726">
        <ele>183.6</ele>
        <time>2022-07-03T10:07:55Z</time>
      </trkpt>
      <trkpt lat="43.51146" lon="1.51726">
        <ele>183.6</ele>
        <time>2022-07-03T10:07:56Z</time>
      </trkpt>
      <trkpt lat="43.51142" lon="1.51728">
        <ele>183.8</ele>
        <time>2022-07-03T10:07:57Z</time>
      </trkpt>
      <trkpt lat="43.51138" lon="1.5173">
        <ele>183.8</ele>
        <time>2022-07-03T10:07:58Z</time>
      </trkpt>
      <trkpt lat="43.51134" lon="1.51731">
        <ele>184</ele>
        <time>2022-07-03T10:07:59Z</time>
      </trkpt>
      <trkpt lat="43.51132" lon="1.51732">
        <ele>184.4</ele>
        <time>2022-07-03T10:08:00Z</time>
      </trkpt>
      <trkpt lat="43.5113" lon="1.51734">
        <ele>184.4</ele>
        <time>2022-07-03T10:08:01Z</time>
      </trkpt>
      <trkpt lat="43.51128" lon="1.51735">
        <ele>184.4</ele>
        <time>2022-07-03T10:08:02Z</time>
      </trkpt>
      <trkpt lat="43.51127" lon="1.51737">
        <ele>184.6</ele>
        <time>2022-07-03T10:08:03Z</time>
      </trkpt>
      <trkpt lat="43.51125" lon="1.51738">
        <ele>184.6</ele>
        <time>2022-07-03T10:08:04Z</time>
      </trkpt>
      <trkpt lat="43.51123" lon="1.5174">
        <ele>184.6</ele>
        <time>2022-07-03T10:08:05Z</time>
      </trkpt>
      <trkpt lat="43.51122" lon="1.51741">
        <ele>184.6</ele>
        <time>2022-07-03T10:08:06Z</time>
      </trkpt>
      <trkpt lat="43.51121" lon="1.51743">
        <ele>184.6</ele>
        <time>2022-07-03T10:08:07Z</time>
      </trkpt>
      <trkpt lat="43.5112" lon="1.51744">
        <ele>184.6</ele>
        <time>2022-07-03T10:08:08Z</time>
      </trkpt>
      <trkpt lat="43.51112" lon="1.51752">
        <ele>183.8</ele>
        <time>2022-07-03T10:08:11Z</time>
      </trkpt>
      <trkpt lat="43.51104" lon="1.51755">
        <ele>183.6</ele>
        <time>2022-07-03T10:08:13Z</time>
      </trkpt>
      <trkpt lat="43.511" lon="1.51755">
        <ele>183.4</ele>
        <time>2022-07-03T10:08:14Z</time>
      </trkpt>
      <trkpt lat="43.51095" lon="1.51754">
        <ele>183</ele>
        <time>2022-07-03T10:08:15Z</time>
      </trkpt>
      <trkpt lat="43.5109" lon="1.51754">
        <ele>182.6</ele>
        <time>2022-07-03T10:08:16Z</time>
      </trkpt>
      <trkpt lat="43.51086" lon="1.51755">
        <ele>182.4</ele>
        <time>2022-07-03T10:08:17Z</time>
      </trkpt>
      <trkpt lat="43.51082" lon="1.51755">
        <ele>182.4</ele>
        <time>2022-07-03T10:08:18Z</time>
      </trkpt>
      <trkpt lat="43.51079" lon="1.51756">
        <ele>182.2</ele>
        <time>2022-07-03T10:08:19Z</time>
      </trkpt>
      <trkpt lat="43.51076" lon="1.51757">
        <ele>182.2</ele>
        <time>2022-07-03T10:08:20Z</time>
      </trkpt>
      <trkpt lat="43.51074" lon="1.51758">
        <ele>182.2</ele>
        <time>2022-07-03T10:08:21Z</time>
      </trkpt>
      <trkpt lat="43.51072" lon="1.51759">
        <ele>182.2</ele>
        <time>2022-07-03T10:08:22Z</time>
      </trkpt>
      <trkpt lat="43.5107" lon="1.51759">
        <ele>182.2</ele>
        <time>2022-07-03T10:08:23Z</time>
      </trkpt>
      <trkpt lat="43.51068" lon="1.51759">
        <ele>182.2</ele>
        <time>2022-07-03T10:08:24Z</time>
      </trkpt>
      <trkpt lat="43.51068" lon="1.51759">
        <ele>182.2</ele>
        <time>2022-07-03T10:08:25Z</time>
      </trkpt>
      <trkpt lat="43.51067" lon="1.51759">
        <ele>182.2</ele>
        <time>2022-07-03T10:08:26Z</time>
      </trkpt>
      <trkpt lat="43.51066" lon="1.51759">
        <ele>182.2</ele>
        <time>2022-07-03T10:08:27Z</time>
      </trkpt>
      <trkpt lat="43.51065" lon="1.5176">
        <ele>182.2</ele>
        <time>2022-07-03T10:08:28Z</time>
      </trkpt>
      <trkpt lat="43.51063" lon="1.5176">
        <ele>182.2</ele>
        <time>2022-07-03T10:08:29Z</time>
      </trkpt>
      <trkpt lat="43.51053" lon="1.51763">
        <ele>182.6</ele>
        <time>2022-07-03T10:08:34Z</time>
      </trkpt>
      <trkpt lat="43.51052" lon="1.51764">
        <ele>182.6</ele>
        <time>2022-07-03T10:08:35Z</time>
      </trkpt>
      <trkpt lat="43.5105" lon="1.51764">
        <ele>182.6</ele>
        <time>2022-07-03T10:08:36Z</time>
      </trkpt>
      <trkpt lat="43.51049" lon="1.51764">
        <ele>182.8</ele>
        <time>2022-07-03T10:08:37Z</time>
      </trkpt>
      <trkpt lat="43.51047" lon="1.51764">
        <ele>182.8</ele>
        <time>2022-07-03T10:08:38Z</time>
      </trkpt>
      <trkpt lat="43.51046" lon="1.51765">
        <ele>182.8</ele>
        <time>2022-07-03T10:08:39Z</time>
      </trkpt>
      <trkpt lat="43.51044" lon="1.51765">
        <ele>183</ele>
        <time>2022-07-03T10:08:40Z</time>
      </trkpt>
      <trkpt lat="43.51044" lon="1.51765">
        <ele>183</ele>
        <time>2022-07-03T10:08:41Z</time>
      </trkpt>
      <trkpt lat="43.51043" lon="1.51766">
        <ele>183</ele>
        <time>2022-07-03T10:08:42Z</time>
      </trkpt>
      <trkpt lat="43.51043" lon="1.51766">
        <ele>183</ele>
        <time>2022-07-03T10:08:43Z</time>
      </trkpt>
      <trkpt lat="43.51043" lon="1.51766">
        <ele>183.2</ele>
        <time>2022-07-03T10:08:45Z</time>
      </trkpt>
      <trkpt lat="43.51037" lon="1.51767">
        <ele>183.2</ele>
        <time>2022-07-03T10:10:56Z</time>
      </trkpt>
      <trkpt lat="43.51034" lon="1.51768">
        <ele>183.4</ele>
        <time>2022-07-03T10:10:57Z</time>
      </trkpt>
      <trkpt lat="43.51025" lon="1.51771">
        <ele>183.4</ele>
        <time>2022-07-03T10:11:01Z</time>
      </trkpt>
      <trkpt lat="43.51022" lon="1.51773">
        <ele>183.4</ele>
        <time>2022-07-03T10:11:02Z</time>
      </trkpt>
      <trkpt lat="43.51017" lon="1.51775">
        <ele>183.4</ele>
        <time>2022-07-03T10:11:04Z</time>
      </trkpt>
      <trkpt lat="43.50989" lon="1.51787">
        <ele>183.4</ele>
        <time>2022-07-03T10:11:11Z</time>
      </trkpt>
      <trkpt lat="43.50962" lon="1.51802">
        <ele>183.6</ele>
        <time>2022-07-03T10:11:16Z</time>
      </trkpt>
      <trkpt lat="43.50959" lon="1.51804">
        <ele>183.6</ele>
        <time>2022-07-03T10:11:17Z</time>
      </trkpt>
      <trkpt lat="43.50954" lon="1.51807">
        <ele>183.6</ele>
        <time>2022-07-03T10:11:18Z</time>
      </trkpt>
      <trkpt lat="43.5095" lon="1.5181">
        <ele>183.6</ele>
        <time>2022-07-03T10:11:19Z</time>
      </trkpt>
      <trkpt lat="43.50947" lon="1.51813">
        <ele>183.6</ele>
        <time>2022-07-03T10:11:20Z</time>
      </trkpt>
      <trkpt lat="43.50942" lon="1.51815">
        <ele>183.6</ele>
        <time>2022-07-03T10:11:21Z</time>
      </trkpt>
      <trkpt lat="43.50939" lon="1.51817">
        <ele>183.6</ele>
        <time>2022-07-03T10:11:22Z</time>
      </trkpt>
      <trkpt lat="43.50936" lon="1.51819">
        <ele>183.6</ele>
        <time>2022-07-03T10:11:23Z</time>
      </trkpt>
      <trkpt lat="43.50934" lon="1.51822">
        <ele>183.6</ele>
        <time>2022-07-03T10:11:24Z</time>
      </trkpt>
      <trkpt lat="43.50927" lon="1.51829">
        <ele>183.6</ele>
        <time>2022-07-03T10:11:26Z</time>
      </trkpt>
      <trkpt lat="43.50907" lon="1.51845">
        <ele>183.6</ele>
        <time>2022-07-03T10:11:31Z</time>
      </trkpt>
      <trkpt lat="43.50905" lon="1.51849">
        <ele>183.8</ele>
        <time>2022-07-03T10:11:32Z</time>
      </trkpt>
      <trkpt lat="43.50902" lon="1.51852">
        <ele>183.8</ele>
        <time>2022-07-03T10:11:33Z</time>
      </trkpt>
      <trkpt lat="43.50899" lon="1.51854">
        <ele>183.8</ele>
        <time>2022-07-03T10:11:34Z</time>
      </trkpt>
      <trkpt lat="43.50893" lon="1.51854">
        <ele>183.8</ele>
        <time>2022-07-03T10:11:35Z</time>
      </trkpt>
      <trkpt lat="43.50887" lon="1.51859">
        <ele>184</ele>
        <time>2022-07-03T10:11:37Z</time>
      </trkpt>
      <trkpt lat="43.50885" lon="1.51862">
        <ele>184</ele>
        <time>2022-07-03T10:11:38Z</time>
      </trkpt>
      <trkpt lat="43.50883" lon="1.51865">
        <ele>184</ele>
        <time>2022-07-03T10:11:39Z</time>
      </trkpt>
      <trkpt lat="43.5088" lon="1.51868">
        <ele>184</ele>
        <time>2022-07-03T10:11:40Z</time>
      </trkpt>
      <trkpt lat="43.50876" lon="1.51871">
        <ele>184</ele>
        <time>2022-07-03T10:11:41Z</time>
      </trkpt>
      <trkpt lat="43.5087" lon="1.51878">
        <ele>184.2</ele>
        <time>2022-07-03T10:11:43Z</time>
      </trkpt>
      <trkpt lat="43.50868" lon="1.5188">
        <ele>184.4</ele>
        <time>2022-07-03T10:11:44Z</time>
      </trkpt>
      <trkpt lat="43.50857" lon="1.5189">
        <ele>184.6</ele>
        <time>2022-07-03T10:11:47Z</time>
      </trkpt>
      <trkpt lat="43.50854" lon="1.51893">
        <ele>184.6</ele>
        <time>2022-07-03T10:11:48Z</time>
      </trkpt>
      <trkpt lat="43.50846" lon="1.51901">
        <ele>184.8</ele>
        <time>2022-07-03T10:11:50Z</time>
      </trkpt>
      <trkpt lat="43.50833" lon="1.51912">
        <ele>184.8</ele>
        <time>2022-07-03T10:11:53Z</time>
      </trkpt>
      <trkpt lat="43.50826" lon="1.51921">
        <ele>185</ele>
        <time>2022-07-03T10:11:55Z</time>
      </trkpt>
      <trkpt lat="43.50806" lon="1.51947">
        <ele>185.2</ele>
        <time>2022-07-03T10:12:00Z</time>
      </trkpt>
      <trkpt lat="43.508" lon="1.51959">
        <ele>185.2</ele>
        <time>2022-07-03T10:12:02Z</time>
      </trkpt>
      <trkpt lat="43.50797" lon="1.51962">
        <ele>185.2</ele>
        <time>2022-07-03T10:12:03Z</time>
      </trkpt>
      <trkpt lat="43.50794" lon="1.51968">
        <ele>185.2</ele>
        <time>2022-07-03T10:12:04Z</time>
      </trkpt>
      <trkpt lat="43.5079" lon="1.51972">
        <ele>185.2</ele>
        <time>2022-07-03T10:12:05Z</time>
      </trkpt>
      <trkpt lat="43.50776" lon="1.51986">
        <ele>185</ele>
        <time>2022-07-03T10:12:09Z</time>
      </trkpt>
      <trkpt lat="43.50773" lon="1.5199">
        <ele>185</ele>
        <time>2022-07-03T10:12:10Z</time>
      </trkpt>
      <trkpt lat="43.50771" lon="1.51993">
        <ele>185</ele>
        <time>2022-07-03T10:12:11Z</time>
      </trkpt>
      <trkpt lat="43.50764" lon="1.52001">
        <ele>185</ele>
        <time>2022-07-03T10:12:13Z</time>
      </trkpt>
      <trkpt lat="43.50761" lon="1.52004">
        <ele>185</ele>
        <time>2022-07-03T10:12:14Z</time>
      </trkpt>
      <trkpt lat="43.50758" lon="1.52007">
        <ele>185.2</ele>
        <time>2022-07-03T10:12:15Z</time>
      </trkpt>
      <trkpt lat="43.50755" lon="1.5201">
        <ele>185.2</ele>
        <time>2022-07-03T10:12:16Z</time>
      </trkpt>
      <trkpt lat="43.50752" lon="1.52013">
        <ele>185.2</ele>
        <time>2022-07-03T10:12:17Z</time>
      </trkpt>
      <trkpt lat="43.50748" lon="1.52016">
        <ele>185.2</ele>
        <time>2022-07-03T10:12:18Z</time>
      </trkpt>
      <trkpt lat="43.50745" lon="1.52018">
        <ele>185.2</ele>
        <time>2022-07-03T10:12:19Z</time>
      </trkpt>
      <trkpt lat="43.50741" lon="1.52021">
        <ele>185.2</ele>
        <time>2022-07-03T10:12:20Z</time>
      </trkpt>
      <trkpt lat="43.50737" lon="1.52025">
        <ele>185.2</ele>
        <time>2022-07-03T10:12:21Z</time>
      </trkpt>
      <trkpt lat="43.50734" lon="1.52028">
        <ele>185.2</ele>
        <time>2022-07-03T10:12:22Z</time>
      </trkpt>
      <trkpt lat="43.5073" lon="1.52032">
        <ele>185.2</ele>
        <time>2022-07-03T10:12:23Z</time>
      </trkpt>
      <trkpt lat="43.50707" lon="1.52048">
        <ele>185.4</ele>
        <time>2022-07-03T10:12:28Z</time>
      </trkpt>
      <trkpt lat="43.50703" lon="1.5205">
        <ele>185.4</ele>
        <time>2022-07-03T10:12:29Z</time>
      </trkpt>
      <trkpt lat="43.50699" lon="1.52053">
        <ele>185.4</ele>
        <time>2022-07-03T10:12:30Z</time>
      </trkpt>
      <trkpt lat="43.50695" lon="1.52056">
        <ele>185.4</ele>
        <time>2022-07-03T10:12:31Z</time>
      </trkpt>
      <trkpt lat="43.5069" lon="1.52058">
        <ele>185.4</ele>
        <time>2022-07-03T10:12:32Z</time>
      </trkpt>
      <trkpt lat="43.50677" lon="1.52063">
        <ele>185.2</ele>
        <time>2022-07-03T10:12:35Z</time>
      </trkpt>
      <trkpt lat="43.50667" lon="1.52066">
        <ele>184.8</ele>
        <time>2022-07-03T10:12:37Z</time>
      </trkpt>
      <trkpt lat="43.50658" lon="1.52068">
        <ele>184.8</ele>
        <time>2022-07-03T10:12:39Z</time>
      </trkpt>
      <trkpt lat="43.50654" lon="1.52069">
        <ele>184.6</ele>
        <time>2022-07-03T10:12:40Z</time>
      </trkpt>
      <trkpt lat="43.5065" lon="1.5207">
        <ele>184.6</ele>
        <time>2022-07-03T10:12:41Z</time>
      </trkpt>
      <trkpt lat="43.50646" lon="1.52071">
        <ele>184.6</ele>
        <time>2022-07-03T10:12:42Z</time>
      </trkpt>
      <trkpt lat="43.50637" lon="1.52072">
        <ele>184.4</ele>
        <time>2022-07-03T10:12:44Z</time>
      </trkpt>
      <trkpt lat="43.50633" lon="1.52072">
        <ele>184.4</ele>
        <time>2022-07-03T10:12:45Z</time>
      </trkpt>
      <trkpt lat="43.50627" lon="1.52073">
        <ele>184</ele>
        <time>2022-07-03T10:12:46Z</time>
      </trkpt>
      <trkpt lat="43.50613" lon="1.52074">
        <ele>183.6</ele>
        <time>2022-07-03T10:12:49Z</time>
      </trkpt>
      <trkpt lat="43.50582" lon="1.52079">
        <ele>183.2</ele>
        <time>2022-07-03T10:12:56Z</time>
      </trkpt>
      <trkpt lat="43.50574" lon="1.5208">
        <ele>183.2</ele>
        <time>2022-07-03T10:12:58Z</time>
      </trkpt>
      <trkpt lat="43.50554" lon="1.52082">
        <ele>182.4</ele>
        <time>2022-07-03T10:13:03Z</time>
      </trkpt>
      <trkpt lat="43.50546" lon="1.52084">
        <ele>182.4</ele>
        <time>2022-07-03T10:13:05Z</time>
      </trkpt>
      <trkpt lat="43.50543" lon="1.52086">
        <ele>182.2</ele>
        <time>2022-07-03T10:13:06Z</time>
      </trkpt>
      <trkpt lat="43.50538" lon="1.52087">
        <ele>182.2</ele>
        <time>2022-07-03T10:13:07Z</time>
      </trkpt>
      <trkpt lat="43.50517" lon="1.52094">
        <ele>182.4</ele>
        <time>2022-07-03T10:13:12Z</time>
      </trkpt>
      <trkpt lat="43.50508" lon="1.52099">
        <ele>182.4</ele>
        <time>2022-07-03T10:13:14Z</time>
      </trkpt>
      <trkpt lat="43.50479" lon="1.52129">
        <ele>182.8</ele>
        <time>2022-07-03T10:13:22Z</time>
      </trkpt>
      <trkpt lat="43.50473" lon="1.52136">
        <ele>183</ele>
        <time>2022-07-03T10:13:24Z</time>
      </trkpt>
      <trkpt lat="43.5047" lon="1.52139">
        <ele>183</ele>
        <time>2022-07-03T10:13:25Z</time>
      </trkpt>
      <trkpt lat="43.50467" lon="1.52144">
        <ele>183</ele>
        <time>2022-07-03T10:13:26Z</time>
      </trkpt>
      <trkpt lat="43.50465" lon="1.52147">
        <ele>183</ele>
        <time>2022-07-03T10:13:27Z</time>
      </trkpt>
      <trkpt lat="43.50462" lon="1.52151">
        <ele>183</ele>
        <time>2022-07-03T10:13:28Z</time>
      </trkpt>
      <trkpt lat="43.5046" lon="1.52154">
        <ele>183</ele>
        <time>2022-07-03T10:13:29Z</time>
      </trkpt>
      <trkpt lat="43.50458" lon="1.52158">
        <ele>183</ele>
        <time>2022-07-03T10:13:30Z</time>
      </trkpt>
      <trkpt lat="43.50445" lon="1.52179">
        <ele>183</ele>
        <time>2022-07-03T10:13:35Z</time>
      </trkpt>
      <trkpt lat="43.50443" lon="1.52185">
        <ele>183</ele>
        <time>2022-07-03T10:13:36Z</time>
      </trkpt>
      <trkpt lat="43.50434" lon="1.5222">
        <ele>183.2</ele>
        <time>2022-07-03T10:13:42Z</time>
      </trkpt>
      <trkpt lat="43.50433" lon="1.52269">
        <ele>183.4</ele>
        <time>2022-07-03T10:13:49Z</time>
      </trkpt>
      <trkpt lat="43.50432" lon="1.52294">
        <ele>183.6</ele>
        <time>2022-07-03T10:13:53Z</time>
      </trkpt>
      <trkpt lat="43.50432" lon="1.523">
        <ele>183.6</ele>
        <time>2022-07-03T10:13:54Z</time>
      </trkpt>
      <trkpt lat="43.50429" lon="1.52305">
        <ele>183.8</ele>
        <time>2022-07-03T10:13:55Z</time>
      </trkpt>
      <trkpt lat="43.50427" lon="1.52312">
        <ele>183.6</ele>
        <time>2022-07-03T10:13:56Z</time>
      </trkpt>
      <trkpt lat="43.50425" lon="1.52331">
        <ele>183.6</ele>
        <time>2022-07-03T10:13:59Z</time>
      </trkpt>
      <trkpt lat="43.50425" lon="1.52338">
        <ele>183.4</ele>
        <time>2022-07-03T10:14:00Z</time>
      </trkpt>
      <trkpt lat="43.50423" lon="1.52349">
        <ele>183.2</ele>
        <time>2022-07-03T10:14:02Z</time>
      </trkpt>
      <trkpt lat="43.50423" lon="1.52356">
        <ele>183.2</ele>
        <time>2022-07-03T10:14:03Z</time>
      </trkpt>
      <trkpt lat="43.50424" lon="1.52372">
        <ele>182.6</ele>
        <time>2022-07-03T10:14:06Z</time>
      </trkpt>
      <trkpt lat="43.50424" lon="1.52378">
        <ele>182.2</ele>
        <time>2022-07-03T10:14:07Z</time>
      </trkpt>
      <trkpt lat="43.50424" lon="1.52383">
        <ele>182</ele>
        <time>2022-07-03T10:14:08Z</time>
      </trkpt>
      <trkpt lat="43.50424" lon="1.52389">
        <ele>181.8</ele>
        <time>2022-07-03T10:14:09Z</time>
      </trkpt>
      <trkpt lat="43.50425" lon="1.524">
        <ele>181.8</ele>
        <time>2022-07-03T10:14:11Z</time>
      </trkpt>
      <trkpt lat="43.50424" lon="1.52405">
        <ele>181.8</ele>
        <time>2022-07-03T10:14:12Z</time>
      </trkpt>
      <trkpt lat="43.50424" lon="1.5241">
        <ele>181.8</ele>
        <time>2022-07-03T10:14:13Z</time>
      </trkpt>
      <trkpt lat="43.50423" lon="1.52415">
        <ele>181.8</ele>
        <time>2022-07-03T10:14:14Z</time>
      </trkpt>
      <trkpt lat="43.50423" lon="1.5242">
        <ele>181.8</ele>
        <time>2022-07-03T10:14:15Z</time>
      </trkpt>
      <trkpt lat="43.50422" lon="1.52424">
        <ele>181.8</ele>
        <time>2022-07-03T10:14:16Z</time>
      </trkpt>
      <trkpt lat="43.5042" lon="1.52428">
        <ele>182</ele>
        <time>2022-07-03T10:14:17Z</time>
      </trkpt>
      <trkpt lat="43.50418" lon="1.52433">
        <ele>182</ele>
        <time>2022-07-03T10:14:18Z</time>
      </trkpt>
      <trkpt lat="43.50416" lon="1.52436">
        <ele>182</ele>
        <time>2022-07-03T10:14:19Z</time>
      </trkpt>
      <trkpt lat="43.50414" lon="1.52441">
        <ele>182</ele>
        <time>2022-07-03T10:14:20Z</time>
      </trkpt>
      <trkpt lat="43.50411" lon="1.52447">
        <ele>182</ele>
        <time>2022-07-03T10:14:21Z</time>
      </trkpt>
      <trkpt lat="43.50409" lon="1.52452">
        <ele>182.2</ele>
        <time>2022-07-03T10:14:22Z</time>
      </trkpt>
      <trkpt lat="43.50406" lon="1.52469">
        <ele>182.4</ele>
        <time>2022-07-03T10:14:25Z</time>
      </trkpt>
      <trkpt lat="43.50404" lon="1.52482">
        <ele>182.4</ele>
        <time>2022-07-03T10:14:27Z</time>
      </trkpt>
      <trkpt lat="43.50401" lon="1.52496">
        <ele>183</ele>
        <time>2022-07-03T10:14:30Z</time>
      </trkpt>
      <trkpt lat="43.50401" lon="1.525">
        <ele>183.2</ele>
        <time>2022-07-03T10:14:31Z</time>
      </trkpt>
      <trkpt lat="43.50399" lon="1.52504">
        <ele>183.2</ele>
        <time>2022-07-03T10:14:32Z</time>
      </trkpt>
      <trkpt lat="43.50399" lon="1.52508">
        <ele>183.4</ele>
        <time>2022-07-03T10:14:33Z</time>
      </trkpt>
      <trkpt lat="43.50391" lon="1.52539">
        <ele>183.8</ele>
        <time>2022-07-03T10:14:38Z</time>
      </trkpt>
      <trkpt lat="43.50391" lon="1.52544">
        <ele>183.8</ele>
        <time>2022-07-03T10:14:39Z</time>
      </trkpt>
      <trkpt lat="43.50391" lon="1.52549">
        <ele>183.8</ele>
        <time>2022-07-03T10:14:40Z</time>
      </trkpt>
      <trkpt lat="43.5039" lon="1.52555">
        <ele>184</ele>
        <time>2022-07-03T10:14:41Z</time>
      </trkpt>
      <trkpt lat="43.50388" lon="1.52567">
        <ele>184.2</ele>
        <time>2022-07-03T10:14:43Z</time>
      </trkpt>
      <trkpt lat="43.50387" lon="1.52577">
        <ele>184.4</ele>
        <time>2022-07-03T10:14:45Z</time>
      </trkpt>
      <trkpt lat="43.50385" lon="1.52588">
        <ele>184.4</ele>
        <time>2022-07-03T10:14:47Z</time>
      </trkpt>
      <trkpt lat="43.50384" lon="1.52595">
        <ele>184.4</ele>
        <time>2022-07-03T10:14:48Z</time>
      </trkpt>
      <trkpt lat="43.5038" lon="1.52604">
        <ele>184.6</ele>
        <time>2022-07-03T10:14:50Z</time>
      </trkpt>
      <trkpt lat="43.50376" lon="1.52615">
        <ele>184.8</ele>
        <time>2022-07-03T10:14:53Z</time>
      </trkpt>
      <trkpt lat="43.50375" lon="1.52618">
        <ele>184.8</ele>
        <time>2022-07-03T10:14:54Z</time>
      </trkpt>
      <trkpt lat="43.50371" lon="1.52635">
        <ele>184.8</ele>
        <time>2022-07-03T10:14:56Z</time>
      </trkpt>
      <trkpt lat="43.5037" lon="1.52646">
        <ele>184.8</ele>
        <time>2022-07-03T10:14:58Z</time>
      </trkpt>
      <trkpt lat="43.50363" lon="1.5266">
        <ele>184.8</ele>
        <time>2022-07-03T10:15:01Z</time>
      </trkpt>
      <trkpt lat="43.50361" lon="1.52665">
        <ele>184.8</ele>
        <time>2022-07-03T10:15:02Z</time>
      </trkpt>
      <trkpt lat="43.50347" lon="1.52688">
        <ele>184.8</ele>
        <time>2022-07-03T10:15:07Z</time>
      </trkpt>
      <trkpt lat="43.50325" lon="1.52721">
        <ele>185</ele>
        <time>2022-07-03T10:15:14Z</time>
      </trkpt>
      <trkpt lat="43.50322" lon="1.52725">
        <ele>185</ele>
        <time>2022-07-03T10:15:15Z</time>
      </trkpt>
      <trkpt lat="43.50319" lon="1.52729">
        <ele>185</ele>
        <time>2022-07-03T10:15:16Z</time>
      </trkpt>
      <trkpt lat="43.50317" lon="1.52732">
        <ele>185</ele>
        <time>2022-07-03T10:15:17Z</time>
      </trkpt>
      <trkpt lat="43.50313" lon="1.52738">
        <ele>185.2</ele>
        <time>2022-07-03T10:15:19Z</time>
      </trkpt>
      <trkpt lat="43.5031" lon="1.52742">
        <ele>185.2</ele>
        <time>2022-07-03T10:15:20Z</time>
      </trkpt>
      <trkpt lat="43.50309" lon="1.52745">
        <ele>185.2</ele>
        <time>2022-07-03T10:15:21Z</time>
      </trkpt>
      <trkpt lat="43.50307" lon="1.5275">
        <ele>185.2</ele>
        <time>2022-07-03T10:15:22Z</time>
      </trkpt>
      <trkpt lat="43.50304" lon="1.52754">
        <ele>185.2</ele>
        <time>2022-07-03T10:15:23Z</time>
      </trkpt>
      <trkpt lat="43.50301" lon="1.5276">
        <ele>185.2</ele>
        <time>2022-07-03T10:15:24Z</time>
      </trkpt>
      <trkpt lat="43.50297" lon="1.52769">
        <ele>185.6</ele>
        <time>2022-07-03T10:15:26Z</time>
      </trkpt>
      <trkpt lat="43.50295" lon="1.52773">
        <ele>185.6</ele>
        <time>2022-07-03T10:15:27Z</time>
      </trkpt>
      <trkpt lat="43.50292" lon="1.52777">
        <ele>185.4</ele>
        <time>2022-07-03T10:15:28Z</time>
      </trkpt>
      <trkpt lat="43.50281" lon="1.52787">
        <ele>185.6</ele>
        <time>2022-07-03T10:15:31Z</time>
      </trkpt>
      <trkpt lat="43.50274" lon="1.52793">
        <ele>185.6</ele>
        <time>2022-07-03T10:15:32Z</time>
      </trkpt>
      <trkpt lat="43.50253" lon="1.52814">
        <ele>185.6</ele>
        <time>2022-07-03T10:15:39Z</time>
      </trkpt>
      <trkpt lat="43.50234" lon="1.52832">
        <ele>185.6</ele>
        <time>2022-07-03T10:15:44Z</time>
      </trkpt>
      <trkpt lat="43.50207" lon="1.52856">
        <ele>185.6</ele>
        <time>2022-07-03T10:15:51Z</time>
      </trkpt>
      <trkpt lat="43.50204" lon="1.52858">
        <ele>185.6</ele>
        <time>2022-07-03T10:15:52Z</time>
      </trkpt>
      <trkpt lat="43.50202" lon="1.5286">
        <ele>185.6</ele>
        <time>2022-07-03T10:15:54Z</time>
      </trkpt>
      <trkpt lat="43.50195" lon="1.52866">
        <ele>185.6</ele>
        <time>2022-07-03T10:15:55Z</time>
      </trkpt>
      <trkpt lat="43.50195" lon="1.52866">
        <ele>185.6</ele>
        <time>2022-07-03T10:15:56Z</time>
      </trkpt>
      <trkpt lat="43.50189" lon="1.5287">
        <ele>185.6</ele>
        <time>2022-07-03T10:15:57Z</time>
      </trkpt>
      <trkpt lat="43.5018" lon="1.52879">
        <ele>185.8</ele>
        <time>2022-07-03T10:16:01Z</time>
      </trkpt>
      <trkpt lat="43.50172" lon="1.52883">
        <ele>186</ele>
        <time>2022-07-03T10:16:02Z</time>
      </trkpt>
      <trkpt lat="43.50168" lon="1.52885">
        <ele>186</ele>
        <time>2022-07-03T10:16:03Z</time>
      </trkpt>
      <trkpt lat="43.50164" lon="1.52888">
        <ele>186</ele>
        <time>2022-07-03T10:16:05Z</time>
      </trkpt>
      <trkpt lat="43.50146" lon="1.52905">
        <ele>186</ele>
        <time>2022-07-03T10:16:09Z</time>
      </trkpt>
      <trkpt lat="43.50141" lon="1.52907">
        <ele>186</ele>
        <time>2022-07-03T10:16:10Z</time>
      </trkpt>
      <trkpt lat="43.5014" lon="1.5291">
        <ele>186</ele>
        <time>2022-07-03T10:16:11Z</time>
      </trkpt>
      <trkpt lat="43.50136" lon="1.52913">
        <ele>186</ele>
        <time>2022-07-03T10:16:12Z</time>
      </trkpt>
      <trkpt lat="43.50134" lon="1.52916">
        <ele>186</ele>
        <time>2022-07-03T10:16:13Z</time>
      </trkpt>
      <trkpt lat="43.50129" lon="1.52919">
        <ele>185.8</ele>
        <time>2022-07-03T10:16:14Z</time>
      </trkpt>
      <trkpt lat="43.50124" lon="1.52923">
        <ele>185.8</ele>
        <time>2022-07-03T10:16:15Z</time>
      </trkpt>
      <trkpt lat="43.50112" lon="1.52934">
        <ele>185.6</ele>
        <time>2022-07-03T10:16:18Z</time>
      </trkpt>
      <trkpt lat="43.50108" lon="1.52937">
        <ele>185.6</ele>
        <time>2022-07-03T10:16:19Z</time>
      </trkpt>
      <trkpt lat="43.50102" lon="1.5294">
        <ele>185.6</ele>
        <time>2022-07-03T10:16:20Z</time>
      </trkpt>
      <trkpt lat="43.50096" lon="1.52944">
        <ele>185.6</ele>
        <time>2022-07-03T10:16:21Z</time>
      </trkpt>
      <trkpt lat="43.50083" lon="1.52955">
        <ele>185.6</ele>
        <time>2022-07-03T10:16:25Z</time>
      </trkpt>
      <trkpt lat="43.50077" lon="1.52964">
        <ele>185.6</ele>
        <time>2022-07-03T10:16:26Z</time>
      </trkpt>
      <trkpt lat="43.50075" lon="1.52968">
        <ele>185.6</ele>
        <time>2022-07-03T10:16:27Z</time>
      </trkpt>
      <trkpt lat="43.50065" lon="1.52986">
        <ele>185.6</ele>
        <time>2022-07-03T10:16:31Z</time>
      </trkpt>
      <trkpt lat="43.50047" lon="1.5301">
        <ele>185.2</ele>
        <time>2022-07-03T10:16:37Z</time>
      </trkpt>
      <trkpt lat="43.50041" lon="1.53021">
        <ele>185.2</ele>
        <time>2022-07-03T10:16:38Z</time>
      </trkpt>
      <trkpt lat="43.50034" lon="1.53031">
        <ele>185</ele>
        <time>2022-07-03T10:16:41Z</time>
      </trkpt>
      <trkpt lat="43.50029" lon="1.53034">
        <ele>185</ele>
        <time>2022-07-03T10:16:42Z</time>
      </trkpt>
      <trkpt lat="43.50026" lon="1.53038">
        <ele>185</ele>
        <time>2022-07-03T10:16:43Z</time>
      </trkpt>
      <trkpt lat="43.50016" lon="1.53048">
        <ele>185</ele>
        <time>2022-07-03T10:16:47Z</time>
      </trkpt>
      <trkpt lat="43.50013" lon="1.53051">
        <ele>184.8</ele>
        <time>2022-07-03T10:16:48Z</time>
      </trkpt>
      <trkpt lat="43.50009" lon="1.53055">
        <ele>184.8</ele>
        <time>2022-07-03T10:16:49Z</time>
      </trkpt>
      <trkpt lat="43.49986" lon="1.53075">
        <ele>184.8</ele>
        <time>2022-07-03T10:16:55Z</time>
      </trkpt>
      <trkpt lat="43.49968" lon="1.53097">
        <ele>185</ele>
        <time>2022-07-03T10:17:01Z</time>
      </trkpt>
      <trkpt lat="43.49965" lon="1.53099">
        <ele>185</ele>
        <time>2022-07-03T10:17:02Z</time>
      </trkpt>
      <trkpt lat="43.4996" lon="1.53103">
        <ele>185</ele>
        <time>2022-07-03T10:17:03Z</time>
      </trkpt>
      <trkpt lat="43.4995" lon="1.53113">
        <ele>185</ele>
        <time>2022-07-03T10:17:06Z</time>
      </trkpt>
      <trkpt lat="43.49944" lon="1.53118">
        <ele>185</ele>
        <time>2022-07-03T10:17:07Z</time>
      </trkpt>
      <trkpt lat="43.49939" lon="1.53122">
        <ele>185</ele>
        <time>2022-07-03T10:17:08Z</time>
      </trkpt>
      <trkpt lat="43.49939" lon="1.53122">
        <ele>185</ele>
        <time>2022-07-03T10:17:09Z</time>
      </trkpt>
      <trkpt lat="43.49932" lon="1.5313">
        <ele>184.8</ele>
        <time>2022-07-03T10:17:10Z</time>
      </trkpt>
      <trkpt lat="43.49918" lon="1.53144">
        <ele>184.8</ele>
        <time>2022-07-03T10:17:14Z</time>
      </trkpt>
      <trkpt lat="43.49918" lon="1.53144">
        <ele>184.8</ele>
        <time>2022-07-03T10:17:15Z</time>
      </trkpt>
      <trkpt lat="43.49915" lon="1.53152">
        <ele>184.8</ele>
        <time>2022-07-03T10:17:16Z</time>
      </trkpt>
      <trkpt lat="43.49911" lon="1.53155">
        <ele>184.8</ele>
        <time>2022-07-03T10:17:17Z</time>
      </trkpt>
      <trkpt lat="43.49911" lon="1.53155">
        <ele>184.8</ele>
        <time>2022-07-03T10:17:18Z</time>
      </trkpt>
      <trkpt lat="43.49897" lon="1.53164">
        <ele>184.8</ele>
        <time>2022-07-03T10:17:20Z</time>
      </trkpt>
      <trkpt lat="43.49897" lon="1.53164">
        <ele>184.8</ele>
        <time>2022-07-03T10:17:21Z</time>
      </trkpt>
      <trkpt lat="43.49887" lon="1.5317">
        <ele>184.8</ele>
        <time>2022-07-03T10:17:22Z</time>
      </trkpt>
      <trkpt lat="43.49884" lon="1.53173">
        <ele>184.8</ele>
        <time>2022-07-03T10:17:24Z</time>
      </trkpt>
      <trkpt lat="43.49869" lon="1.53184">
        <ele>184.8</ele>
        <time>2022-07-03T10:17:26Z</time>
      </trkpt>
      <trkpt lat="43.4984" lon="1.53214">
        <ele>184.4</ele>
        <time>2022-07-03T10:17:34Z</time>
      </trkpt>
      <trkpt lat="43.49836" lon="1.53218">
        <ele>184.4</ele>
        <time>2022-07-03T10:17:36Z</time>
      </trkpt>
      <trkpt lat="43.49825" lon="1.53233">
        <ele>184.2</ele>
        <time>2022-07-03T10:17:39Z</time>
      </trkpt>
      <trkpt lat="43.49823" lon="1.53235">
        <ele>184.4</ele>
        <time>2022-07-03T10:17:40Z</time>
      </trkpt>
      <trkpt lat="43.49817" lon="1.53242">
        <ele>184.2</ele>
        <time>2022-07-03T10:17:42Z</time>
      </trkpt>
      <trkpt lat="43.49815" lon="1.53245">
        <ele>184.2</ele>
        <time>2022-07-03T10:17:43Z</time>
      </trkpt>
      <trkpt lat="43.49813" lon="1.53248">
        <ele>184.2</ele>
        <time>2022-07-03T10:17:44Z</time>
      </trkpt>
      <trkpt lat="43.49813" lon="1.53248">
        <ele>184.2</ele>
        <time>2022-07-03T10:17:45Z</time>
      </trkpt>
      <trkpt lat="43.498" lon="1.53265">
        <ele>184.4</ele>
        <time>2022-07-03T10:17:50Z</time>
      </trkpt>
      <trkpt lat="43.49795" lon="1.53272">
        <ele>184.4</ele>
        <time>2022-07-03T10:17:51Z</time>
      </trkpt>
      <trkpt lat="43.49792" lon="1.53275">
        <ele>184.4</ele>
        <time>2022-07-03T10:17:52Z</time>
      </trkpt>
      <trkpt lat="43.4978" lon="1.53291">
        <ele>184.4</ele>
        <time>2022-07-03T10:17:56Z</time>
      </trkpt>
      <trkpt lat="43.4977" lon="1.5331">
        <ele>184.4</ele>
        <time>2022-07-03T10:18:00Z</time>
      </trkpt>
      <trkpt lat="43.4976" lon="1.53321">
        <ele>184.4</ele>
        <time>2022-07-03T10:18:03Z</time>
      </trkpt>
      <trkpt lat="43.49742" lon="1.53347">
        <ele>184.4</ele>
        <time>2022-07-03T10:18:07Z</time>
      </trkpt>
      <trkpt lat="43.49742" lon="1.53347">
        <ele>184.4</ele>
        <time>2022-07-03T10:18:08Z</time>
      </trkpt>
      <trkpt lat="43.49732" lon="1.5337">
        <ele>184.6</ele>
        <time>2022-07-03T10:18:11Z</time>
      </trkpt>
      <trkpt lat="43.4973" lon="1.53375">
        <ele>184.6</ele>
        <time>2022-07-03T10:18:12Z</time>
      </trkpt>
      <trkpt lat="43.49727" lon="1.53381">
        <ele>184.6</ele>
        <time>2022-07-03T10:18:13Z</time>
      </trkpt>
      <trkpt lat="43.49725" lon="1.53385">
        <ele>184.6</ele>
        <time>2022-07-03T10:18:14Z</time>
      </trkpt>
      <trkpt lat="43.49722" lon="1.5339">
        <ele>184.6</ele>
        <time>2022-07-03T10:18:15Z</time>
      </trkpt>
      <trkpt lat="43.49712" lon="1.5341">
        <ele>184.8</ele>
        <time>2022-07-03T10:18:19Z</time>
      </trkpt>
      <trkpt lat="43.49711" lon="1.53414">
        <ele>184.8</ele>
        <time>2022-07-03T10:18:20Z</time>
      </trkpt>
      <trkpt lat="43.49708" lon="1.53419">
        <ele>184.8</ele>
        <time>2022-07-03T10:18:21Z</time>
      </trkpt>
      <trkpt lat="43.49703" lon="1.53423">
        <ele>184.8</ele>
        <time>2022-07-03T10:18:22Z</time>
      </trkpt>
      <trkpt lat="43.49697" lon="1.53431">
        <ele>185</ele>
        <time>2022-07-03T10:18:23Z</time>
      </trkpt>
      <trkpt lat="43.49695" lon="1.53438">
        <ele>185</ele>
        <time>2022-07-03T10:18:24Z</time>
      </trkpt>
      <trkpt lat="43.49692" lon="1.53442">
        <ele>185</ele>
        <time>2022-07-03T10:18:25Z</time>
      </trkpt>
      <trkpt lat="43.49679" lon="1.5346">
        <ele>185</ele>
        <time>2022-07-03T10:18:29Z</time>
      </trkpt>
      <trkpt lat="43.49676" lon="1.53465">
        <ele>185</ele>
        <time>2022-07-03T10:18:30Z</time>
      </trkpt>
      <trkpt lat="43.49671" lon="1.53476">
        <ele>185</ele>
        <time>2022-07-03T10:18:32Z</time>
      </trkpt>
      <trkpt lat="43.4967" lon="1.53481">
        <ele>185</ele>
        <time>2022-07-03T10:18:33Z</time>
      </trkpt>
      <trkpt lat="43.49667" lon="1.53487">
        <ele>185</ele>
        <time>2022-07-03T10:18:34Z</time>
      </trkpt>
      <trkpt lat="43.49661" lon="1.53501">
        <ele>185</ele>
        <time>2022-07-03T10:18:37Z</time>
      </trkpt>
      <trkpt lat="43.49659" lon="1.53505">
        <ele>185</ele>
        <time>2022-07-03T10:18:38Z</time>
      </trkpt>
      <trkpt lat="43.49657" lon="1.53508">
        <ele>185</ele>
        <time>2022-07-03T10:18:39Z</time>
      </trkpt>
      <trkpt lat="43.49649" lon="1.53515">
        <ele>185</ele>
        <time>2022-07-03T10:18:41Z</time>
      </trkpt>
      <trkpt lat="43.49645" lon="1.53518">
        <ele>184.8</ele>
        <time>2022-07-03T10:18:42Z</time>
      </trkpt>
      <trkpt lat="43.49629" lon="1.53532">
        <ele>184.8</ele>
        <time>2022-07-03T10:18:46Z</time>
      </trkpt>
      <trkpt lat="43.49622" lon="1.53539">
        <ele>184.8</ele>
        <time>2022-07-03T10:18:48Z</time>
      </trkpt>
      <trkpt lat="43.49613" lon="1.5355">
        <ele>184.8</ele>
        <time>2022-07-03T10:18:51Z</time>
      </trkpt>
      <trkpt lat="43.49611" lon="1.53552">
        <ele>184.8</ele>
        <time>2022-07-03T10:18:52Z</time>
      </trkpt>
      <trkpt lat="43.4961" lon="1.53555">
        <ele>184.8</ele>
        <time>2022-07-03T10:18:53Z</time>
      </trkpt>
      <trkpt lat="43.4961" lon="1.53557">
        <ele>184.8</ele>
        <time>2022-07-03T10:18:54Z</time>
      </trkpt>
      <trkpt lat="43.49609" lon="1.5356">
        <ele>184.8</ele>
        <time>2022-07-03T10:18:55Z</time>
      </trkpt>
      <trkpt lat="43.49608" lon="1.53562">
        <ele>185</ele>
        <time>2022-07-03T10:18:56Z</time>
      </trkpt>
      <trkpt lat="43.49606" lon="1.53564">
        <ele>185</ele>
        <time>2022-07-03T10:18:57Z</time>
      </trkpt>
      <trkpt lat="43.49605" lon="1.53566">
        <ele>185</ele>
        <time>2022-07-03T10:18:58Z</time>
      </trkpt>
      <trkpt lat="43.496" lon="1.53571">
        <ele>184.8</ele>
        <time>2022-07-03T10:19:01Z</time>
      </trkpt>
      <trkpt lat="43.49597" lon="1.53573">
        <ele>184.8</ele>
        <time>2022-07-03T10:19:02Z</time>
      </trkpt>
      <trkpt lat="43.49587" lon="1.5358">
        <ele>184.6</ele>
        <time>2022-07-03T10:19:05Z</time>
      </trkpt>
      <trkpt lat="43.49561" lon="1.53594">
        <ele>183.8</ele>
        <time>2022-07-03T10:19:11Z</time>
      </trkpt>
      <trkpt lat="43.49552" lon="1.53599">
        <ele>183.2</ele>
        <time>2022-07-03T10:19:13Z</time>
      </trkpt>
      <trkpt lat="43.49552" lon="1.53599">
        <ele>183</ele>
        <time>2022-07-03T10:19:14Z</time>
      </trkpt>
      <trkpt lat="43.49543" lon="1.53602">
        <ele>182.6</ele>
        <time>2022-07-03T10:19:15Z</time>
      </trkpt>
      <trkpt lat="43.49529" lon="1.53607">
        <ele>181.4</ele>
        <time>2022-07-03T10:19:18Z</time>
      </trkpt>
      <trkpt lat="43.49521" lon="1.53609">
        <ele>181</ele>
        <time>2022-07-03T10:19:20Z</time>
      </trkpt>
      <trkpt lat="43.49521" lon="1.53609">
        <ele>180.8</ele>
        <time>2022-07-03T10:19:21Z</time>
      </trkpt>
      <trkpt lat="43.49514" lon="1.53612">
        <ele>180.6</ele>
        <time>2022-07-03T10:19:22Z</time>
      </trkpt>
      <trkpt lat="43.49509" lon="1.53613">
        <ele>180</ele>
        <time>2022-07-03T10:19:23Z</time>
      </trkpt>
      <trkpt lat="43.49506" lon="1.53614">
        <ele>179.8</ele>
        <time>2022-07-03T10:19:24Z</time>
      </trkpt>
      <trkpt lat="43.49503" lon="1.53616">
        <ele>179.6</ele>
        <time>2022-07-03T10:19:25Z</time>
      </trkpt>
      <trkpt lat="43.49499" lon="1.53617">
        <ele>179.4</ele>
        <time>2022-07-03T10:19:26Z</time>
      </trkpt>
      <trkpt lat="43.49495" lon="1.53619">
        <ele>179</ele>
        <time>2022-07-03T10:19:27Z</time>
      </trkpt>
      <trkpt lat="43.49491" lon="1.5362">
        <ele>178.8</ele>
        <time>2022-07-03T10:19:28Z</time>
      </trkpt>
      <trkpt lat="43.4947" lon="1.53625">
        <ele>177.8</ele>
        <time>2022-07-03T10:19:33Z</time>
      </trkpt>
      <trkpt lat="43.49455" lon="1.53629">
        <ele>177</ele>
        <time>2022-07-03T10:19:37Z</time>
      </trkpt>
      <trkpt lat="43.49447" lon="1.53631">
        <ele>176.8</ele>
        <time>2022-07-03T10:19:39Z</time>
      </trkpt>
      <trkpt lat="43.49442" lon="1.53633">
        <ele>176.8</ele>
        <time>2022-07-03T10:19:40Z</time>
      </trkpt>
      <trkpt lat="43.49422" lon="1.53639">
        <ele>176.8</ele>
        <time>2022-07-03T10:19:45Z</time>
      </trkpt>
      <trkpt lat="43.49415" lon="1.5364">
        <ele>176.6</ele>
        <time>2022-07-03T10:19:47Z</time>
      </trkpt>
      <trkpt lat="43.49411" lon="1.53641">
        <ele>176.6</ele>
        <time>2022-07-03T10:19:48Z</time>
      </trkpt>
      <trkpt lat="43.49369" lon="1.53652">
        <ele>176.4</ele>
        <time>2022-07-03T10:19:57Z</time>
      </trkpt>
      <trkpt lat="43.49355" lon="1.53654">
        <ele>176.4</ele>
        <time>2022-07-03T10:19:59Z</time>
      </trkpt>
      <trkpt lat="43.4934" lon="1.53656">
        <ele>176.4</ele>
        <time>2022-07-03T10:20:02Z</time>
      </trkpt>
      <trkpt lat="43.49336" lon="1.53657">
        <ele>176.6</ele>
        <time>2022-07-03T10:20:03Z</time>
      </trkpt>
      <trkpt lat="43.49336" lon="1.53657">
        <ele>176.6</ele>
        <time>2022-07-03T10:20:04Z</time>
      </trkpt>
      <trkpt lat="43.49327" lon="1.53656">
        <ele>176.6</ele>
        <time>2022-07-03T10:20:05Z</time>
      </trkpt>
      <trkpt lat="43.49324" lon="1.53657">
        <ele>176.6</ele>
        <time>2022-07-03T10:20:06Z</time>
      </trkpt>
      <trkpt lat="43.4932" lon="1.53658">
        <ele>176.6</ele>
        <time>2022-07-03T10:20:07Z</time>
      </trkpt>
      <trkpt lat="43.49316" lon="1.53658">
        <ele>176.8</ele>
        <time>2022-07-03T10:20:08Z</time>
      </trkpt>
      <trkpt lat="43.49279" lon="1.5366">
        <ele>178</ele>
        <time>2022-07-03T10:20:16Z</time>
      </trkpt>
      <trkpt lat="43.49265" lon="1.5366">
        <ele>178</ele>
        <time>2022-07-03T10:20:19Z</time>
      </trkpt>
      <trkpt lat="43.49253" lon="1.5366">
        <ele>178</ele>
        <time>2022-07-03T10:20:22Z</time>
      </trkpt>
      <trkpt lat="43.49225" lon="1.53659">
        <ele>177.8</ele>
        <time>2022-07-03T10:20:28Z</time>
      </trkpt>
      <trkpt lat="43.49221" lon="1.53659">
        <ele>177.8</ele>
        <time>2022-07-03T10:20:29Z</time>
      </trkpt>
      <trkpt lat="43.49221" lon="1.53659">
        <ele>177.8</ele>
        <time>2022-07-03T10:20:30Z</time>
      </trkpt>
      <trkpt lat="43.49212" lon="1.53658">
        <ele>177.6</ele>
        <time>2022-07-03T10:20:31Z</time>
      </trkpt>
      <trkpt lat="43.49201" lon="1.53656">
        <ele>177.6</ele>
        <time>2022-07-03T10:20:34Z</time>
      </trkpt>
      <trkpt lat="43.49201" lon="1.53656">
        <ele>177.6</ele>
        <time>2022-07-03T10:20:35Z</time>
      </trkpt>
      <trkpt lat="43.49192" lon="1.53655">
        <ele>177.8</ele>
        <time>2022-07-03T10:20:36Z</time>
      </trkpt>
      <trkpt lat="43.49187" lon="1.53654">
        <ele>177.8</ele>
        <time>2022-07-03T10:20:37Z</time>
      </trkpt>
      <trkpt lat="43.49184" lon="1.53653">
        <ele>178</ele>
        <time>2022-07-03T10:20:38Z</time>
      </trkpt>
      <trkpt lat="43.4918" lon="1.53653">
        <ele>178.2</ele>
        <time>2022-07-03T10:20:39Z</time>
      </trkpt>
      <trkpt lat="43.49175" lon="1.53652">
        <ele>178.2</ele>
        <time>2022-07-03T10:20:40Z</time>
      </trkpt>
      <trkpt lat="43.49175" lon="1.53652">
        <ele>178.4</ele>
        <time>2022-07-03T10:20:41Z</time>
      </trkpt>
      <trkpt lat="43.49134" lon="1.53643">
        <ele>178.8</ele>
        <time>2022-07-03T10:20:48Z</time>
      </trkpt>
      <trkpt lat="43.49124" lon="1.53639">
        <ele>179</ele>
        <time>2022-07-03T10:20:50Z</time>
      </trkpt>
      <trkpt lat="43.49118" lon="1.53638">
        <ele>179</ele>
        <time>2022-07-03T10:20:51Z</time>
      </trkpt>
      <trkpt lat="43.49088" lon="1.53628">
        <ele>178.8</ele>
        <time>2022-07-03T10:20:57Z</time>
      </trkpt>
      <trkpt lat="43.49083" lon="1.53627">
        <ele>178.8</ele>
        <time>2022-07-03T10:20:58Z</time>
      </trkpt>
      <trkpt lat="43.49078" lon="1.53626">
        <ele>178.8</ele>
        <time>2022-07-03T10:20:59Z</time>
      </trkpt>
      <trkpt lat="43.49072" lon="1.53624">
        <ele>178.8</ele>
        <time>2022-07-03T10:21:00Z</time>
      </trkpt>
      <trkpt lat="43.49068" lon="1.53623">
        <ele>178.8</ele>
        <time>2022-07-03T10:21:01Z</time>
      </trkpt>
      <trkpt lat="43.49064" lon="1.53623">
        <ele>178.8</ele>
        <time>2022-07-03T10:21:02Z</time>
      </trkpt>
      <trkpt lat="43.4906" lon="1.53622">
        <ele>178.8</ele>
        <time>2022-07-03T10:21:03Z</time>
      </trkpt>
      <trkpt lat="43.49056" lon="1.53621">
        <ele>178.8</ele>
        <time>2022-07-03T10:21:04Z</time>
      </trkpt>
      <trkpt lat="43.49048" lon="1.53619">
        <ele>178.8</ele>
        <time>2022-07-03T10:21:06Z</time>
      </trkpt>
      <trkpt lat="43.49048" lon="1.53619">
        <ele>178.6</ele>
        <time>2022-07-03T10:21:07Z</time>
      </trkpt>
      <trkpt lat="43.49039" lon="1.53618">
        <ele>178.6</ele>
        <time>2022-07-03T10:21:08Z</time>
      </trkpt>
      <trkpt lat="43.49035" lon="1.53618">
        <ele>178.6</ele>
        <time>2022-07-03T10:21:09Z</time>
      </trkpt>
      <trkpt lat="43.49016" lon="1.53623">
        <ele>177.8</ele>
        <time>2022-07-03T10:21:14Z</time>
      </trkpt>
      <trkpt lat="43.49016" lon="1.53623">
        <ele>177.8</ele>
        <time>2022-07-03T10:21:15Z</time>
      </trkpt>
      <trkpt lat="43.49009" lon="1.53626">
        <ele>177.8</ele>
        <time>2022-07-03T10:21:16Z</time>
      </trkpt>
      <trkpt lat="43.49006" lon="1.53628">
        <ele>177.8</ele>
        <time>2022-07-03T10:21:17Z</time>
      </trkpt>
      <trkpt lat="43.49003" lon="1.53629">
        <ele>177.6</ele>
        <time>2022-07-03T10:21:18Z</time>
      </trkpt>
      <trkpt lat="43.48996" lon="1.53634">
        <ele>177.6</ele>
        <time>2022-07-03T10:21:21Z</time>
      </trkpt>
      <trkpt lat="43.48993" lon="1.53636">
        <ele>177.6</ele>
        <time>2022-07-03T10:21:22Z</time>
      </trkpt>
      <trkpt lat="43.48991" lon="1.53639">
        <ele>177.6</ele>
        <time>2022-07-03T10:21:23Z</time>
      </trkpt>
      <trkpt lat="43.48988" lon="1.53642">
        <ele>177.4</ele>
        <time>2022-07-03T10:21:24Z</time>
      </trkpt>
      <trkpt lat="43.48985" lon="1.53645">
        <ele>177.4</ele>
        <time>2022-07-03T10:21:25Z</time>
      </trkpt>
      <trkpt lat="43.48982" lon="1.53649">
        <ele>177.4</ele>
        <time>2022-07-03T10:21:26Z</time>
      </trkpt>
      <trkpt lat="43.4898" lon="1.53653">
        <ele>177.4</ele>
        <time>2022-07-03T10:21:27Z</time>
      </trkpt>
      <trkpt lat="43.48978" lon="1.53657">
        <ele>177.6</ele>
        <time>2022-07-03T10:21:28Z</time>
      </trkpt>
      <trkpt lat="43.48965" lon="1.53688">
        <ele>178</ele>
        <time>2022-07-03T10:21:35Z</time>
      </trkpt>
      <trkpt lat="43.48964" lon="1.53693">
        <ele>178.4</ele>
        <time>2022-07-03T10:21:36Z</time>
      </trkpt>
      <trkpt lat="43.48962" lon="1.53698">
        <ele>178.6</ele>
        <time>2022-07-03T10:21:37Z</time>
      </trkpt>
      <trkpt lat="43.48958" lon="1.53728">
        <ele>179</ele>
        <time>2022-07-03T10:21:42Z</time>
      </trkpt>
      <trkpt lat="43.48957" lon="1.53746">
        <ele>179.2</ele>
        <time>2022-07-03T10:21:45Z</time>
      </trkpt>
      <trkpt lat="43.48958" lon="1.53779">
        <ele>179.6</ele>
        <time>2022-07-03T10:21:51Z</time>
      </trkpt>
      <trkpt lat="43.48958" lon="1.53789">
        <ele>179.8</ele>
        <time>2022-07-03T10:21:53Z</time>
      </trkpt>
      <trkpt lat="43.48959" lon="1.53793">
        <ele>180</ele>
        <time>2022-07-03T10:21:54Z</time>
      </trkpt>
      <trkpt lat="43.48959" lon="1.53798">
        <ele>180</ele>
        <time>2022-07-03T10:21:55Z</time>
      </trkpt>
      <trkpt lat="43.4896" lon="1.53804">
        <ele>180.2</ele>
        <time>2022-07-03T10:21:56Z</time>
      </trkpt>
      <trkpt lat="43.4896" lon="1.53809">
        <ele>180.2</ele>
        <time>2022-07-03T10:21:57Z</time>
      </trkpt>
      <trkpt lat="43.48961" lon="1.53815">
        <ele>180.2</ele>
        <time>2022-07-03T10:21:58Z</time>
      </trkpt>
      <trkpt lat="43.48962" lon="1.53821">
        <ele>180.4</ele>
        <time>2022-07-03T10:21:59Z</time>
      </trkpt>
      <trkpt lat="43.48965" lon="1.53845">
        <ele>180.8</ele>
        <time>2022-07-03T10:22:03Z</time>
      </trkpt>
      <trkpt lat="43.48965" lon="1.53845">
        <ele>181</ele>
        <time>2022-07-03T10:22:04Z</time>
      </trkpt>
      <trkpt lat="43.48966" lon="1.53856">
        <ele>181</ele>
        <time>2022-07-03T10:22:05Z</time>
      </trkpt>
      <trkpt lat="43.48966" lon="1.53861">
        <ele>181.2</ele>
        <time>2022-07-03T10:22:06Z</time>
      </trkpt>
      <trkpt lat="43.4897" lon="1.53886">
        <ele>181.4</ele>
        <time>2022-07-03T10:22:10Z</time>
      </trkpt>
      <trkpt lat="43.48971" lon="1.53891">
        <ele>181.6</ele>
        <time>2022-07-03T10:22:11Z</time>
      </trkpt>
      <trkpt lat="43.48971" lon="1.53903">
        <ele>181.8</ele>
        <time>2022-07-03T10:22:13Z</time>
      </trkpt>
      <trkpt lat="43.48972" lon="1.53909">
        <ele>182</ele>
        <time>2022-07-03T10:22:14Z</time>
      </trkpt>
      <trkpt lat="43.48972" lon="1.53915">
        <ele>182</ele>
        <time>2022-07-03T10:22:15Z</time>
      </trkpt>
      <trkpt lat="43.48975" lon="1.5394">
        <ele>182.4</ele>
        <time>2022-07-03T10:22:19Z</time>
      </trkpt>
      <trkpt lat="43.48976" lon="1.53948">
        <ele>182.4</ele>
        <time>2022-07-03T10:22:20Z</time>
      </trkpt>
      <trkpt lat="43.48976" lon="1.53954">
        <ele>182.8</ele>
        <time>2022-07-03T10:22:21Z</time>
      </trkpt>
      <trkpt lat="43.48977" lon="1.53972">
        <ele>183.2</ele>
        <time>2022-07-03T10:22:24Z</time>
      </trkpt>
      <trkpt lat="43.48978" lon="1.53985">
        <ele>183.6</ele>
        <time>2022-07-03T10:22:26Z</time>
      </trkpt>
      <trkpt lat="43.48978" lon="1.53993">
        <ele>183.6</ele>
        <time>2022-07-03T10:22:27Z</time>
      </trkpt>
      <trkpt lat="43.48977" lon="1.53999">
        <ele>183.6</ele>
        <time>2022-07-03T10:22:28Z</time>
      </trkpt>
      <trkpt lat="43.48977" lon="1.54003">
        <ele>183.8</ele>
        <time>2022-07-03T10:22:29Z</time>
      </trkpt>
      <trkpt lat="43.48977" lon="1.54003">
        <ele>183.8</ele>
        <time>2022-07-03T10:22:30Z</time>
      </trkpt>
      <trkpt lat="43.48975" lon="1.54014">
        <ele>183.8</ele>
        <time>2022-07-03T10:22:31Z</time>
      </trkpt>
      <trkpt lat="43.48975" lon="1.54021">
        <ele>184</ele>
        <time>2022-07-03T10:22:32Z</time>
      </trkpt>
      <trkpt lat="43.48975" lon="1.54021">
        <ele>184</ele>
        <time>2022-07-03T10:22:33Z</time>
      </trkpt>
      <trkpt lat="43.48973" lon="1.54032">
        <ele>184</ele>
        <time>2022-07-03T10:22:34Z</time>
      </trkpt>
      <trkpt lat="43.48972" lon="1.54041">
        <ele>184.2</ele>
        <time>2022-07-03T10:22:35Z</time>
      </trkpt>
      <trkpt lat="43.48972" lon="1.54041">
        <ele>184.2</ele>
        <time>2022-07-03T10:22:36Z</time>
      </trkpt>
      <trkpt lat="43.4897" lon="1.54051">
        <ele>184.2</ele>
        <time>2022-07-03T10:22:37Z</time>
      </trkpt>
      <trkpt lat="43.4897" lon="1.54056">
        <ele>184.4</ele>
        <time>2022-07-03T10:22:38Z</time>
      </trkpt>
      <trkpt lat="43.4897" lon="1.54061">
        <ele>184.2</ele>
        <time>2022-07-03T10:22:39Z</time>
      </trkpt>
      <trkpt lat="43.48969" lon="1.54068">
        <ele>184.2</ele>
        <time>2022-07-03T10:22:40Z</time>
      </trkpt>
      <trkpt lat="43.48969" lon="1.54074">
        <ele>184.2</ele>
        <time>2022-07-03T10:22:41Z</time>
      </trkpt>
      <trkpt lat="43.48967" lon="1.54104">
        <ele>184.8</ele>
        <time>2022-07-03T10:22:46Z</time>
      </trkpt>
      <trkpt lat="43.48965" lon="1.54134">
        <ele>184.8</ele>
        <time>2022-07-03T10:22:51Z</time>
      </trkpt>
      <trkpt lat="43.48964" lon="1.54139">
        <ele>185</ele>
        <time>2022-07-03T10:22:52Z</time>
      </trkpt>
      <trkpt lat="43.48954" lon="1.54184">
        <ele>185.2</ele>
        <time>2022-07-03T10:22:59Z</time>
      </trkpt>
      <trkpt lat="43.48952" lon="1.54189">
        <ele>185.2</ele>
        <time>2022-07-03T10:23:00Z</time>
      </trkpt>
      <trkpt lat="43.4895" lon="1.54194">
        <ele>185.2</ele>
        <time>2022-07-03T10:23:01Z</time>
      </trkpt>
      <trkpt lat="43.4895" lon="1.54194">
        <ele>185.2</ele>
        <time>2022-07-03T10:23:02Z</time>
      </trkpt>
      <trkpt lat="43.48947" lon="1.54204">
        <ele>185.2</ele>
        <time>2022-07-03T10:23:03Z</time>
      </trkpt>
      <trkpt lat="43.48945" lon="1.54209">
        <ele>185.2</ele>
        <time>2022-07-03T10:23:04Z</time>
      </trkpt>
      <trkpt lat="43.48945" lon="1.54214">
        <ele>185.2</ele>
        <time>2022-07-03T10:23:05Z</time>
      </trkpt>
      <trkpt lat="43.48944" lon="1.54218">
        <ele>185.4</ele>
        <time>2022-07-03T10:23:06Z</time>
      </trkpt>
      <trkpt lat="43.48942" lon="1.54224">
        <ele>185.4</ele>
        <time>2022-07-03T10:23:07Z</time>
      </trkpt>
      <trkpt lat="43.48939" lon="1.54231">
        <ele>185.4</ele>
        <time>2022-07-03T10:23:08Z</time>
      </trkpt>
      <trkpt lat="43.48935" lon="1.54241">
        <ele>185.6</ele>
        <time>2022-07-03T10:23:10Z</time>
      </trkpt>
      <trkpt lat="43.48934" lon="1.54246">
        <ele>185.6</ele>
        <time>2022-07-03T10:23:11Z</time>
      </trkpt>
      <trkpt lat="43.48932" lon="1.54251">
        <ele>185.6</ele>
        <time>2022-07-03T10:23:12Z</time>
      </trkpt>
      <trkpt lat="43.48917" lon="1.54282">
        <ele>185.8</ele>
        <time>2022-07-03T10:23:17Z</time>
      </trkpt>
      <trkpt lat="43.48913" lon="1.5429">
        <ele>185.8</ele>
        <time>2022-07-03T10:23:19Z</time>
      </trkpt>
      <trkpt lat="43.48912" lon="1.54294">
        <ele>185.8</ele>
        <time>2022-07-03T10:23:20Z</time>
      </trkpt>
      <trkpt lat="43.48908" lon="1.54299">
        <ele>185.8</ele>
        <time>2022-07-03T10:23:21Z</time>
      </trkpt>
      <trkpt lat="43.48907" lon="1.54303">
        <ele>185.8</ele>
        <time>2022-07-03T10:23:22Z</time>
      </trkpt>
      <trkpt lat="43.48899" lon="1.54317">
        <ele>185.8</ele>
        <time>2022-07-03T10:23:25Z</time>
      </trkpt>
      <trkpt lat="43.48897" lon="1.54321">
        <ele>185.8</ele>
        <time>2022-07-03T10:23:26Z</time>
      </trkpt>
      <trkpt lat="43.48893" lon="1.54325">
        <ele>186</ele>
        <time>2022-07-03T10:23:27Z</time>
      </trkpt>
      <trkpt lat="43.48889" lon="1.54328">
        <ele>186</ele>
        <time>2022-07-03T10:23:28Z</time>
      </trkpt>
      <trkpt lat="43.48886" lon="1.54331">
        <ele>186</ele>
        <time>2022-07-03T10:23:29Z</time>
      </trkpt>
      <trkpt lat="43.48882" lon="1.54335">
        <ele>186</ele>
        <time>2022-07-03T10:23:30Z</time>
      </trkpt>
      <trkpt lat="43.48869" lon="1.54356">
        <ele>185.8</ele>
        <time>2022-07-03T10:23:35Z</time>
      </trkpt>
      <trkpt lat="43.48846" lon="1.54383">
        <ele>185.4</ele>
        <time>2022-07-03T10:23:42Z</time>
      </trkpt>
      <trkpt lat="43.48841" lon="1.54391">
        <ele>185.4</ele>
        <time>2022-07-03T10:23:44Z</time>
      </trkpt>
      <trkpt lat="43.48834" lon="1.54402">
        <ele>185.4</ele>
        <time>2022-07-03T10:23:46Z</time>
      </trkpt>
      <trkpt lat="43.48827" lon="1.5441">
        <ele>185.4</ele>
        <time>2022-07-03T10:23:48Z</time>
      </trkpt>
      <trkpt lat="43.48822" lon="1.54416">
        <ele>185.4</ele>
        <time>2022-07-03T10:23:50Z</time>
      </trkpt>
      <trkpt lat="43.48819" lon="1.54418">
        <ele>185.6</ele>
        <time>2022-07-03T10:23:51Z</time>
      </trkpt>
      <trkpt lat="43.48819" lon="1.54418">
        <ele>185.6</ele>
        <time>2022-07-03T10:23:52Z</time>
      </trkpt>
      <trkpt lat="43.48816" lon="1.54426">
        <ele>185.6</ele>
        <time>2022-07-03T10:23:53Z</time>
      </trkpt>
      <trkpt lat="43.48814" lon="1.54428">
        <ele>185.6</ele>
        <time>2022-07-03T10:23:54Z</time>
      </trkpt>
      <trkpt lat="43.48812" lon="1.54433">
        <ele>185.6</ele>
        <time>2022-07-03T10:23:55Z</time>
      </trkpt>
      <trkpt lat="43.488" lon="1.54448">
        <ele>185.8</ele>
        <time>2022-07-03T10:23:58Z</time>
      </trkpt>
      <trkpt lat="43.48797" lon="1.54451">
        <ele>185.8</ele>
        <time>2022-07-03T10:23:59Z</time>
      </trkpt>
      <trkpt lat="43.48795" lon="1.54456">
        <ele>185.8</ele>
        <time>2022-07-03T10:24:00Z</time>
      </trkpt>
      <trkpt lat="43.48794" lon="1.54462">
        <ele>185.8</ele>
        <time>2022-07-03T10:24:02Z</time>
      </trkpt>
      <trkpt lat="43.48792" lon="1.54465">
        <ele>185.8</ele>
        <time>2022-07-03T10:24:03Z</time>
      </trkpt>
      <trkpt lat="43.4879" lon="1.5447">
        <ele>185.8</ele>
        <time>2022-07-03T10:24:04Z</time>
      </trkpt>
      <trkpt lat="43.48787" lon="1.54474">
        <ele>186</ele>
        <time>2022-07-03T10:24:05Z</time>
      </trkpt>
      <trkpt lat="43.4877" lon="1.54492">
        <ele>186.2</ele>
        <time>2022-07-03T10:24:11Z</time>
      </trkpt>
      <trkpt lat="43.48769" lon="1.54494">
        <ele>186.2</ele>
        <time>2022-07-03T10:24:12Z</time>
      </trkpt>
      <trkpt lat="43.48767" lon="1.54499">
        <ele>186.2</ele>
        <time>2022-07-03T10:24:13Z</time>
      </trkpt>
      <trkpt lat="43.48764" lon="1.54504">
        <ele>186.2</ele>
        <time>2022-07-03T10:24:14Z</time>
      </trkpt>
      <trkpt lat="43.48757" lon="1.54516">
        <ele>186.2</ele>
        <time>2022-07-03T10:24:16Z</time>
      </trkpt>
      <trkpt lat="43.48754" lon="1.54522">
        <ele>186.2</ele>
        <time>2022-07-03T10:24:18Z</time>
      </trkpt>
      <trkpt lat="43.48751" lon="1.54526">
        <ele>186.2</ele>
        <time>2022-07-03T10:24:19Z</time>
      </trkpt>
      <trkpt lat="43.48748" lon="1.5453">
        <ele>186.2</ele>
        <time>2022-07-03T10:24:20Z</time>
      </trkpt>
      <trkpt lat="43.48744" lon="1.54534">
        <ele>186.2</ele>
        <time>2022-07-03T10:24:21Z</time>
      </trkpt>
      <trkpt lat="43.48739" lon="1.54539">
        <ele>186.4</ele>
        <time>2022-07-03T10:24:22Z</time>
      </trkpt>
      <trkpt lat="43.48736" lon="1.54544">
        <ele>186.4</ele>
        <time>2022-07-03T10:24:23Z</time>
      </trkpt>
      <trkpt lat="43.48733" lon="1.54548">
        <ele>186.2</ele>
        <time>2022-07-03T10:24:24Z</time>
      </trkpt>
      <trkpt lat="43.48722" lon="1.54556">
        <ele>186.4</ele>
        <time>2022-07-03T10:24:27Z</time>
      </trkpt>
      <trkpt lat="43.48695" lon="1.54582">
        <ele>186.2</ele>
        <time>2022-07-03T10:24:34Z</time>
      </trkpt>
      <trkpt lat="43.48684" lon="1.54588">
        <ele>186.2</ele>
        <time>2022-07-03T10:24:36Z</time>
      </trkpt>
      <trkpt lat="43.48681" lon="1.54591">
        <ele>186.2</ele>
        <time>2022-07-03T10:24:37Z</time>
      </trkpt>
      <trkpt lat="43.48676" lon="1.54595">
        <ele>186.2</ele>
        <time>2022-07-03T10:24:38Z</time>
      </trkpt>
      <trkpt lat="43.48669" lon="1.54599">
        <ele>186.2</ele>
        <time>2022-07-03T10:24:40Z</time>
      </trkpt>
      <trkpt lat="43.48658" lon="1.54603">
        <ele>186</ele>
        <time>2022-07-03T10:24:43Z</time>
      </trkpt>
      <trkpt lat="43.48653" lon="1.54605">
        <ele>186</ele>
        <time>2022-07-03T10:24:44Z</time>
      </trkpt>
      <trkpt lat="43.48649" lon="1.54606">
        <ele>186</ele>
        <time>2022-07-03T10:24:45Z</time>
      </trkpt>
      <trkpt lat="43.48647" lon="1.54607">
        <ele>186</ele>
        <time>2022-07-03T10:24:46Z</time>
      </trkpt>
      <trkpt lat="43.48644" lon="1.54608">
        <ele>186</ele>
        <time>2022-07-03T10:24:47Z</time>
      </trkpt>
      <trkpt lat="43.48641" lon="1.54609">
        <ele>186</ele>
        <time>2022-07-03T10:24:48Z</time>
      </trkpt>
      <trkpt lat="43.48637" lon="1.54611">
        <ele>186</ele>
        <time>2022-07-03T10:24:49Z</time>
      </trkpt>
      <trkpt lat="43.48633" lon="1.54613">
        <ele>186</ele>
        <time>2022-07-03T10:24:50Z</time>
      </trkpt>
      <trkpt lat="43.48629" lon="1.54615">
        <ele>186</ele>
        <time>2022-07-03T10:24:51Z</time>
      </trkpt>
      <trkpt lat="43.48608" lon="1.54621">
        <ele>186.2</ele>
        <time>2022-07-03T10:24:56Z</time>
      </trkpt>
      <trkpt lat="43.48569" lon="1.54629">
        <ele>186.2</ele>
        <time>2022-07-03T10:25:05Z</time>
      </trkpt>
      <trkpt lat="43.48544" lon="1.54634">
        <ele>185.6</ele>
        <time>2022-07-03T10:25:11Z</time>
      </trkpt>
      <trkpt lat="43.4854" lon="1.54635">
        <ele>185.6</ele>
        <time>2022-07-03T10:25:12Z</time>
      </trkpt>
      <trkpt lat="43.48536" lon="1.54636">
        <ele>185.6</ele>
        <time>2022-07-03T10:25:13Z</time>
      </trkpt>
      <trkpt lat="43.48526" lon="1.54639">
        <ele>185.4</ele>
        <time>2022-07-03T10:25:16Z</time>
      </trkpt>
      <trkpt lat="43.48521" lon="1.5464">
        <ele>185.4</ele>
        <time>2022-07-03T10:25:17Z</time>
      </trkpt>
      <trkpt lat="43.48515" lon="1.54642">
        <ele>185.4</ele>
        <time>2022-07-03T10:25:18Z</time>
      </trkpt>
      <trkpt lat="43.48494" lon="1.54648">
        <ele>185.4</ele>
        <time>2022-07-03T10:25:23Z</time>
      </trkpt>
      <trkpt lat="43.4849" lon="1.5465">
        <ele>185.4</ele>
        <time>2022-07-03T10:25:24Z</time>
      </trkpt>
      <trkpt lat="43.48484" lon="1.54653">
        <ele>185.4</ele>
        <time>2022-07-03T10:25:26Z</time>
      </trkpt>
      <trkpt lat="43.48478" lon="1.54655">
        <ele>185.4</ele>
        <time>2022-07-03T10:25:27Z</time>
      </trkpt>
      <trkpt lat="43.48474" lon="1.54656">
        <ele>185.4</ele>
        <time>2022-07-03T10:25:28Z</time>
      </trkpt>
      <trkpt lat="43.48462" lon="1.54661">
        <ele>185.8</ele>
        <time>2022-07-03T10:25:32Z</time>
      </trkpt>
      <trkpt lat="43.48458" lon="1.54663">
        <ele>185.8</ele>
        <time>2022-07-03T10:25:33Z</time>
      </trkpt>
      <trkpt lat="43.48455" lon="1.54664">
        <ele>185.8</ele>
        <time>2022-07-03T10:25:34Z</time>
      </trkpt>
      <trkpt lat="43.4844" lon="1.54671">
        <ele>186</ele>
        <time>2022-07-03T10:25:38Z</time>
      </trkpt>
      <trkpt lat="43.48428" lon="1.54675">
        <ele>186</ele>
        <time>2022-07-03T10:25:41Z</time>
      </trkpt>
      <trkpt lat="43.48409" lon="1.54679">
        <ele>186</ele>
        <time>2022-07-03T10:25:46Z</time>
      </trkpt>
      <trkpt lat="43.48366" lon="1.54674">
        <ele>185.8</ele>
        <time>2022-07-03T10:25:55Z</time>
      </trkpt>
      <trkpt lat="43.48351" lon="1.54671">
        <ele>185.8</ele>
        <time>2022-07-03T10:25:58Z</time>
      </trkpt>
      <trkpt lat="43.48332" lon="1.54665">
        <ele>186</ele>
        <time>2022-07-03T10:26:02Z</time>
      </trkpt>
      <trkpt lat="43.48313" lon="1.54661">
        <ele>186</ele>
        <time>2022-07-03T10:26:06Z</time>
      </trkpt>
      <trkpt lat="43.48309" lon="1.54662">
        <ele>186</ele>
        <time>2022-07-03T10:26:07Z</time>
      </trkpt>
      <trkpt lat="43.48305" lon="1.54665">
        <ele>185.8</ele>
        <time>2022-07-03T10:26:08Z</time>
      </trkpt>
      <trkpt lat="43.483" lon="1.54667">
        <ele>185.8</ele>
        <time>2022-07-03T10:26:09Z</time>
      </trkpt>
      <trkpt lat="43.48294" lon="1.54669">
        <ele>185.8</ele>
        <time>2022-07-03T10:26:10Z</time>
      </trkpt>
      <trkpt lat="43.4829" lon="1.54672">
        <ele>185.8</ele>
        <time>2022-07-03T10:26:11Z</time>
      </trkpt>
      <trkpt lat="43.48287" lon="1.54675">
        <ele>185.8</ele>
        <time>2022-07-03T10:26:12Z</time>
      </trkpt>
      <trkpt lat="43.48283" lon="1.54677">
        <ele>185.8</ele>
        <time>2022-07-03T10:26:13Z</time>
      </trkpt>
      <trkpt lat="43.4828" lon="1.54679">
        <ele>186</ele>
        <time>2022-07-03T10:26:14Z</time>
      </trkpt>
      <trkpt lat="43.48276" lon="1.54682">
        <ele>186</ele>
        <time>2022-07-03T10:26:15Z</time>
      </trkpt>
      <trkpt lat="43.48273" lon="1.54684">
        <ele>186</ele>
        <time>2022-07-03T10:26:16Z</time>
      </trkpt>
      <trkpt lat="43.48271" lon="1.54687">
        <ele>186</ele>
        <time>2022-07-03T10:26:17Z</time>
      </trkpt>
      <trkpt lat="43.48269" lon="1.54692">
        <ele>186</ele>
        <time>2022-07-03T10:26:18Z</time>
      </trkpt>
      <trkpt lat="43.48264" lon="1.54697">
        <ele>186.2</ele>
        <time>2022-07-03T10:26:19Z</time>
      </trkpt>
      <trkpt lat="43.48261" lon="1.547">
        <ele>186.2</ele>
        <time>2022-07-03T10:26:20Z</time>
      </trkpt>
      <trkpt lat="43.48256" lon="1.54702">
        <ele>186.2</ele>
        <time>2022-07-03T10:26:21Z</time>
      </trkpt>
      <trkpt lat="43.4824" lon="1.54717">
        <ele>186.2</ele>
        <time>2022-07-03T10:26:25Z</time>
      </trkpt>
      <trkpt lat="43.48236" lon="1.54721">
        <ele>186.2</ele>
        <time>2022-07-03T10:26:26Z</time>
      </trkpt>
      <trkpt lat="43.48232" lon="1.54725">
        <ele>186.2</ele>
        <time>2022-07-03T10:26:27Z</time>
      </trkpt>
      <trkpt lat="43.48227" lon="1.5473">
        <ele>186.2</ele>
        <time>2022-07-03T10:26:28Z</time>
      </trkpt>
      <trkpt lat="43.48225" lon="1.54733">
        <ele>186.2</ele>
        <time>2022-07-03T10:26:29Z</time>
      </trkpt>
      <trkpt lat="43.48218" lon="1.54742">
        <ele>186.2</ele>
        <time>2022-07-03T10:26:32Z</time>
      </trkpt>
      <trkpt lat="43.48216" lon="1.54745">
        <ele>186.2</ele>
        <time>2022-07-03T10:26:33Z</time>
      </trkpt>
      <trkpt lat="43.48213" lon="1.54748">
        <ele>186.2</ele>
        <time>2022-07-03T10:26:34Z</time>
      </trkpt>
      <trkpt lat="43.48211" lon="1.54751">
        <ele>186.2</ele>
        <time>2022-07-03T10:26:35Z</time>
      </trkpt>
      <trkpt lat="43.48207" lon="1.54754">
        <ele>186.2</ele>
        <time>2022-07-03T10:26:36Z</time>
      </trkpt>
      <trkpt lat="43.48194" lon="1.54763">
        <ele>186.2</ele>
        <time>2022-07-03T10:26:39Z</time>
      </trkpt>
      <trkpt lat="43.48189" lon="1.54766">
        <ele>186.2</ele>
        <time>2022-07-03T10:26:41Z</time>
      </trkpt>
      <trkpt lat="43.48187" lon="1.54768">
        <ele>186.4</ele>
        <time>2022-07-03T10:26:42Z</time>
      </trkpt>
      <trkpt lat="43.48183" lon="1.5477">
        <ele>186.4</ele>
        <time>2022-07-03T10:26:43Z</time>
      </trkpt>
      <trkpt lat="43.48178" lon="1.54772">
        <ele>186.4</ele>
        <time>2022-07-03T10:26:44Z</time>
      </trkpt>
      <trkpt lat="43.48172" lon="1.54776">
        <ele>186.4</ele>
        <time>2022-07-03T10:26:46Z</time>
      </trkpt>
      <trkpt lat="43.48157" lon="1.54784">
        <ele>186.4</ele>
        <time>2022-07-03T10:26:49Z</time>
      </trkpt>
      <trkpt lat="43.48154" lon="1.54787">
        <ele>186.4</ele>
        <time>2022-07-03T10:26:50Z</time>
      </trkpt>
      <trkpt lat="43.48145" lon="1.5479">
        <ele>186.4</ele>
        <time>2022-07-03T10:26:52Z</time>
      </trkpt>
      <trkpt lat="43.48117" lon="1.54802">
        <ele>186</ele>
        <time>2022-07-03T10:26:57Z</time>
      </trkpt>
      <trkpt lat="43.48105" lon="1.54813">
        <ele>186</ele>
        <time>2022-07-03T10:26:59Z</time>
      </trkpt>
      <trkpt lat="43.48092" lon="1.54829">
        <ele>185.6</ele>
        <time>2022-07-03T10:27:02Z</time>
      </trkpt>
      <trkpt lat="43.48088" lon="1.54835">
        <ele>185.4</ele>
        <time>2022-07-03T10:27:03Z</time>
      </trkpt>
      <trkpt lat="43.48085" lon="1.54841">
        <ele>185.4</ele>
        <time>2022-07-03T10:27:04Z</time>
      </trkpt>
      <trkpt lat="43.48082" lon="1.54848">
        <ele>185.2</ele>
        <time>2022-07-03T10:27:05Z</time>
      </trkpt>
      <trkpt lat="43.48079" lon="1.54854">
        <ele>185.2</ele>
        <time>2022-07-03T10:27:06Z</time>
      </trkpt>
      <trkpt lat="43.48076" lon="1.5486">
        <ele>185</ele>
        <time>2022-07-03T10:27:07Z</time>
      </trkpt>
      <trkpt lat="43.48075" lon="1.54867">
        <ele>185</ele>
        <time>2022-07-03T10:27:08Z</time>
      </trkpt>
      <trkpt lat="43.48073" lon="1.54877">
        <ele>184.8</ele>
        <time>2022-07-03T10:27:10Z</time>
      </trkpt>
      <trkpt lat="43.48072" lon="1.54882">
        <ele>184.8</ele>
        <time>2022-07-03T10:27:11Z</time>
      </trkpt>
      <trkpt lat="43.48071" lon="1.54887">
        <ele>184.8</ele>
        <time>2022-07-03T10:27:12Z</time>
      </trkpt>
      <trkpt lat="43.4807" lon="1.54892">
        <ele>184.6</ele>
        <time>2022-07-03T10:27:13Z</time>
      </trkpt>
      <trkpt lat="43.4807" lon="1.54896">
        <ele>184.6</ele>
        <time>2022-07-03T10:27:14Z</time>
      </trkpt>
      <trkpt lat="43.48071" lon="1.54905">
        <ele>184.4</ele>
        <time>2022-07-03T10:27:16Z</time>
      </trkpt>
      <trkpt lat="43.48071" lon="1.54908">
        <ele>184.4</ele>
        <time>2022-07-03T10:27:17Z</time>
      </trkpt>
      <trkpt lat="43.48069" lon="1.54913">
        <ele>184.4</ele>
        <time>2022-07-03T10:27:18Z</time>
      </trkpt>
      <trkpt lat="43.48069" lon="1.54917">
        <ele>184.4</ele>
        <time>2022-07-03T10:27:19Z</time>
      </trkpt>
      <trkpt lat="43.48066" lon="1.54931">
        <ele>184.6</ele>
        <time>2022-07-03T10:27:22Z</time>
      </trkpt>
      <trkpt lat="43.48066" lon="1.54936">
        <ele>184.6</ele>
        <time>2022-07-03T10:27:23Z</time>
      </trkpt>
      <trkpt lat="43.48062" lon="1.54946">
        <ele>184.6</ele>
        <time>2022-07-03T10:27:25Z</time>
      </trkpt>
      <trkpt lat="43.48059" lon="1.54952">
        <ele>184.6</ele>
        <time>2022-07-03T10:27:26Z</time>
      </trkpt>
      <trkpt lat="43.48057" lon="1.54964">
        <ele>184.6</ele>
        <time>2022-07-03T10:27:28Z</time>
      </trkpt>
      <trkpt lat="43.48048" lon="1.54996">
        <ele>184.8</ele>
        <time>2022-07-03T10:27:34Z</time>
      </trkpt>
      <trkpt lat="43.48036" lon="1.55016">
        <ele>185</ele>
        <time>2022-07-03T10:27:39Z</time>
      </trkpt>
      <trkpt lat="43.48034" lon="1.5502">
        <ele>185</ele>
        <time>2022-07-03T10:27:40Z</time>
      </trkpt>
      <trkpt lat="43.48033" lon="1.55022">
        <ele>185</ele>
        <time>2022-07-03T10:27:41Z</time>
      </trkpt>
      <trkpt lat="43.48031" lon="1.55026">
        <ele>185</ele>
        <time>2022-07-03T10:27:42Z</time>
      </trkpt>
      <trkpt lat="43.48028" lon="1.55029">
        <ele>185</ele>
        <time>2022-07-03T10:27:43Z</time>
      </trkpt>
      <trkpt lat="43.48024" lon="1.55033">
        <ele>185</ele>
        <time>2022-07-03T10:27:44Z</time>
      </trkpt>
      <trkpt lat="43.48019" lon="1.55034">
        <ele>185</ele>
        <time>2022-07-03T10:27:45Z</time>
      </trkpt>
      <trkpt lat="43.48016" lon="1.55037">
        <ele>185</ele>
        <time>2022-07-03T10:27:46Z</time>
      </trkpt>
      <trkpt lat="43.48013" lon="1.5504">
        <ele>185</ele>
        <time>2022-07-03T10:27:47Z</time>
      </trkpt>
      <trkpt lat="43.4801" lon="1.55043">
        <ele>185</ele>
        <time>2022-07-03T10:27:48Z</time>
      </trkpt>
      <trkpt lat="43.47999" lon="1.55053">
        <ele>184.8</ele>
        <time>2022-07-03T10:27:52Z</time>
      </trkpt>
      <trkpt lat="43.47998" lon="1.55055">
        <ele>184.8</ele>
        <time>2022-07-03T10:27:53Z</time>
      </trkpt>
      <trkpt lat="43.47996" lon="1.55057">
        <ele>184.8</ele>
        <time>2022-07-03T10:27:54Z</time>
      </trkpt>
      <trkpt lat="43.47994" lon="1.55058">
        <ele>184.6</ele>
        <time>2022-07-03T10:27:55Z</time>
      </trkpt>
      <trkpt lat="43.47991" lon="1.5506">
        <ele>184.6</ele>
        <time>2022-07-03T10:27:56Z</time>
      </trkpt>
      <trkpt lat="43.47985" lon="1.55064">
        <ele>184.6</ele>
        <time>2022-07-03T10:27:58Z</time>
      </trkpt>
      <trkpt lat="43.47972" lon="1.55074">
        <ele>184.4</ele>
        <time>2022-07-03T10:28:02Z</time>
      </trkpt>
      <trkpt lat="43.47953" lon="1.55087">
        <ele>184.4</ele>
        <time>2022-07-03T10:28:07Z</time>
      </trkpt>
      <trkpt lat="43.47915" lon="1.55108">
        <ele>184.2</ele>
        <time>2022-07-03T10:28:16Z</time>
      </trkpt>
      <trkpt lat="43.47909" lon="1.55111">
        <ele>184.2</ele>
        <time>2022-07-03T10:28:17Z</time>
      </trkpt>
      <trkpt lat="43.47882" lon="1.55132">
        <ele>183.8</ele>
        <time>2022-07-03T10:28:23Z</time>
      </trkpt>
      <trkpt lat="43.47873" lon="1.55141">
        <ele>183.8</ele>
        <time>2022-07-03T10:28:26Z</time>
      </trkpt>
      <trkpt lat="43.47869" lon="1.55145">
        <ele>183.8</ele>
        <time>2022-07-03T10:28:27Z</time>
      </trkpt>
      <trkpt lat="43.47866" lon="1.55149">
        <ele>183.8</ele>
        <time>2022-07-03T10:28:28Z</time>
      </trkpt>
      <trkpt lat="43.47862" lon="1.55153">
        <ele>183.8</ele>
        <time>2022-07-03T10:28:29Z</time>
      </trkpt>
      <trkpt lat="43.47859" lon="1.55155">
        <ele>183.8</ele>
        <time>2022-07-03T10:28:30Z</time>
      </trkpt>
      <trkpt lat="43.47858" lon="1.55157">
        <ele>183.8</ele>
        <time>2022-07-03T10:28:31Z</time>
      </trkpt>
      <trkpt lat="43.47855" lon="1.5516">
        <ele>183.8</ele>
        <time>2022-07-03T10:28:32Z</time>
      </trkpt>
      <trkpt lat="43.47853" lon="1.55162">
        <ele>183.8</ele>
        <time>2022-07-03T10:28:33Z</time>
      </trkpt>
      <trkpt lat="43.47849" lon="1.55165">
        <ele>183.8</ele>
        <time>2022-07-03T10:28:34Z</time>
      </trkpt>
      <trkpt lat="43.47846" lon="1.55169">
        <ele>183.8</ele>
        <time>2022-07-03T10:28:35Z</time>
      </trkpt>
      <trkpt lat="43.47842" lon="1.55176">
        <ele>183.8</ele>
        <time>2022-07-03T10:28:38Z</time>
      </trkpt>
      <trkpt lat="43.4784" lon="1.55179">
        <ele>183.8</ele>
        <time>2022-07-03T10:28:39Z</time>
      </trkpt>
      <trkpt lat="43.47837" lon="1.55181">
        <ele>183.8</ele>
        <time>2022-07-03T10:28:40Z</time>
      </trkpt>
      <trkpt lat="43.47834" lon="1.55184">
        <ele>183.8</ele>
        <time>2022-07-03T10:28:41Z</time>
      </trkpt>
      <trkpt lat="43.47828" lon="1.55189">
        <ele>183.8</ele>
        <time>2022-07-03T10:28:43Z</time>
      </trkpt>
      <trkpt lat="43.47824" lon="1.55194">
        <ele>183.8</ele>
        <time>2022-07-03T10:28:44Z</time>
      </trkpt>
      <trkpt lat="43.47814" lon="1.55211">
        <ele>184</ele>
        <time>2022-07-03T10:28:49Z</time>
      </trkpt>
      <trkpt lat="43.47798" lon="1.55231">
        <ele>184.2</ele>
        <time>2022-07-03T10:28:53Z</time>
      </trkpt>
      <trkpt lat="43.47793" lon="1.55236">
        <ele>184</ele>
        <time>2022-07-03T10:28:54Z</time>
      </trkpt>
      <trkpt lat="43.47777" lon="1.55256">
        <ele>183.6</ele>
        <time>2022-07-03T10:28:58Z</time>
      </trkpt>
      <trkpt lat="43.47775" lon="1.5526">
        <ele>183.4</ele>
        <time>2022-07-03T10:28:59Z</time>
      </trkpt>
      <trkpt lat="43.47772" lon="1.55263">
        <ele>183.4</ele>
        <time>2022-07-03T10:29:00Z</time>
      </trkpt>
      <trkpt lat="43.47769" lon="1.55264">
        <ele>183.2</ele>
        <time>2022-07-03T10:29:01Z</time>
      </trkpt>
      <trkpt lat="43.47767" lon="1.55266">
        <ele>182.8</ele>
        <time>2022-07-03T10:29:02Z</time>
      </trkpt>
      <trkpt lat="43.47765" lon="1.55268">
        <ele>182.8</ele>
        <time>2022-07-03T10:29:03Z</time>
      </trkpt>
      <trkpt lat="43.47764" lon="1.5527">
        <ele>182.4</ele>
        <time>2022-07-03T10:29:04Z</time>
      </trkpt>
      <trkpt lat="43.47763" lon="1.55272">
        <ele>182.2</ele>
        <time>2022-07-03T10:29:05Z</time>
      </trkpt>
      <trkpt lat="43.47761" lon="1.55273">
        <ele>182</ele>
        <time>2022-07-03T10:29:06Z</time>
      </trkpt>
      <trkpt lat="43.4776" lon="1.55275">
        <ele>181.8</ele>
        <time>2022-07-03T10:29:07Z</time>
      </trkpt>
      <trkpt lat="43.47759" lon="1.55277">
        <ele>181.6</ele>
        <time>2022-07-03T10:29:08Z</time>
      </trkpt>
      <trkpt lat="43.4775" lon="1.55288">
        <ele>181</ele>
        <time>2022-07-03T10:29:11Z</time>
      </trkpt>
      <trkpt lat="43.47734" lon="1.55306">
        <ele>180</ele>
        <time>2022-07-03T10:29:15Z</time>
      </trkpt>
      <trkpt lat="43.47729" lon="1.55311">
        <ele>179.6</ele>
        <time>2022-07-03T10:29:16Z</time>
      </trkpt>
      <trkpt lat="43.47715" lon="1.55325">
        <ele>178.8</ele>
        <time>2022-07-03T10:29:19Z</time>
      </trkpt>
      <trkpt lat="43.47711" lon="1.5533">
        <ele>178.6</ele>
        <time>2022-07-03T10:29:20Z</time>
      </trkpt>
      <trkpt lat="43.47707" lon="1.55334">
        <ele>178.2</ele>
        <time>2022-07-03T10:29:21Z</time>
      </trkpt>
      <trkpt lat="43.477" lon="1.55342">
        <ele>177.6</ele>
        <time>2022-07-03T10:29:23Z</time>
      </trkpt>
      <trkpt lat="43.47696" lon="1.55346">
        <ele>177.2</ele>
        <time>2022-07-03T10:29:24Z</time>
      </trkpt>
      <trkpt lat="43.47693" lon="1.55349">
        <ele>177.2</ele>
        <time>2022-07-03T10:29:25Z</time>
      </trkpt>
      <trkpt lat="43.47689" lon="1.55353">
        <ele>177</ele>
        <time>2022-07-03T10:29:26Z</time>
      </trkpt>
      <trkpt lat="43.47686" lon="1.55356">
        <ele>177</ele>
        <time>2022-07-03T10:29:27Z</time>
      </trkpt>
      <trkpt lat="43.47683" lon="1.55359">
        <ele>177</ele>
        <time>2022-07-03T10:29:28Z</time>
      </trkpt>
      <trkpt lat="43.47681" lon="1.55361">
        <ele>177</ele>
        <time>2022-07-03T10:29:29Z</time>
      </trkpt>
      <trkpt lat="43.47679" lon="1.55363">
        <ele>177</ele>
        <time>2022-07-03T10:29:30Z</time>
      </trkpt>
      <trkpt lat="43.47677" lon="1.55366">
        <ele>177</ele>
        <time>2022-07-03T10:29:31Z</time>
      </trkpt>
      <trkpt lat="43.47674" lon="1.55368">
        <ele>177</ele>
        <time>2022-07-03T10:29:32Z</time>
      </trkpt>
      <trkpt lat="43.47672" lon="1.5537">
        <ele>177</ele>
        <time>2022-07-03T10:29:33Z</time>
      </trkpt>
      <trkpt lat="43.4767" lon="1.55372">
        <ele>177</ele>
        <time>2022-07-03T10:29:34Z</time>
      </trkpt>
      <trkpt lat="43.47668" lon="1.55374">
        <ele>177.4</ele>
        <time>2022-07-03T10:29:35Z</time>
      </trkpt>
      <trkpt lat="43.47663" lon="1.55378">
        <ele>177.6</ele>
        <time>2022-07-03T10:29:37Z</time>
      </trkpt>
      <trkpt lat="43.47657" lon="1.55382">
        <ele>178</ele>
        <time>2022-07-03T10:29:39Z</time>
      </trkpt>
      <trkpt lat="43.47655" lon="1.55384">
        <ele>178.2</ele>
        <time>2022-07-03T10:29:40Z</time>
      </trkpt>
      <trkpt lat="43.47652" lon="1.55387">
        <ele>178.2</ele>
        <time>2022-07-03T10:29:41Z</time>
      </trkpt>
      <trkpt lat="43.4764" lon="1.55397">
        <ele>179</ele>
        <time>2022-07-03T10:29:45Z</time>
      </trkpt>
      <trkpt lat="43.47631" lon="1.55403">
        <ele>179.2</ele>
        <time>2022-07-03T10:29:48Z</time>
      </trkpt>
      <trkpt lat="43.47624" lon="1.55408">
        <ele>179.8</ele>
        <time>2022-07-03T10:29:50Z</time>
      </trkpt>
      <trkpt lat="43.47615" lon="1.55415">
        <ele>180</ele>
        <time>2022-07-03T10:29:52Z</time>
      </trkpt>
      <trkpt lat="43.4761" lon="1.5542">
        <ele>180</ele>
        <time>2022-07-03T10:29:53Z</time>
      </trkpt>
      <trkpt lat="43.47592" lon="1.55437">
        <ele>180.4</ele>
        <time>2022-07-03T10:29:57Z</time>
      </trkpt>
      <trkpt lat="43.47589" lon="1.5544">
        <ele>180.4</ele>
        <time>2022-07-03T10:29:58Z</time>
      </trkpt>
      <trkpt lat="43.47587" lon="1.55443">
        <ele>180.6</ele>
        <time>2022-07-03T10:29:59Z</time>
      </trkpt>
      <trkpt lat="43.47585" lon="1.55446">
        <ele>180.8</ele>
        <time>2022-07-03T10:30:00Z</time>
      </trkpt>
      <trkpt lat="43.47582" lon="1.55449">
        <ele>181.2</ele>
        <time>2022-07-03T10:30:01Z</time>
      </trkpt>
      <trkpt lat="43.47576" lon="1.55452">
        <ele>181.2</ele>
        <time>2022-07-03T10:30:02Z</time>
      </trkpt>
      <trkpt lat="43.47572" lon="1.55455">
        <ele>181.4</ele>
        <time>2022-07-03T10:30:03Z</time>
      </trkpt>
      <trkpt lat="43.47569" lon="1.55458">
        <ele>181.6</ele>
        <time>2022-07-03T10:30:04Z</time>
      </trkpt>
      <trkpt lat="43.47567" lon="1.55461">
        <ele>181.6</ele>
        <time>2022-07-03T10:30:05Z</time>
      </trkpt>
      <trkpt lat="43.47565" lon="1.55464">
        <ele>181.8</ele>
        <time>2022-07-03T10:30:06Z</time>
      </trkpt>
      <trkpt lat="43.47562" lon="1.55467">
        <ele>181.8</ele>
        <time>2022-07-03T10:30:07Z</time>
      </trkpt>
      <trkpt lat="43.47559" lon="1.55471">
        <ele>182</ele>
        <time>2022-07-03T10:30:08Z</time>
      </trkpt>
      <trkpt lat="43.47556" lon="1.55472">
        <ele>182</ele>
        <time>2022-07-03T10:30:09Z</time>
      </trkpt>
      <trkpt lat="43.47554" lon="1.55475">
        <ele>182.2</ele>
        <time>2022-07-03T10:30:10Z</time>
      </trkpt>
      <trkpt lat="43.47551" lon="1.55478">
        <ele>182.2</ele>
        <time>2022-07-03T10:30:11Z</time>
      </trkpt>
      <trkpt lat="43.47548" lon="1.5548">
        <ele>182.4</ele>
        <time>2022-07-03T10:30:12Z</time>
      </trkpt>
      <trkpt lat="43.47545" lon="1.55483">
        <ele>182.4</ele>
        <time>2022-07-03T10:30:13Z</time>
      </trkpt>
      <trkpt lat="43.47542" lon="1.55487">
        <ele>182.6</ele>
        <time>2022-07-03T10:30:14Z</time>
      </trkpt>
      <trkpt lat="43.47538" lon="1.5549">
        <ele>182.8</ele>
        <time>2022-07-03T10:30:15Z</time>
      </trkpt>
      <trkpt lat="43.47535" lon="1.55495">
        <ele>182.8</ele>
        <time>2022-07-03T10:30:16Z</time>
      </trkpt>
      <trkpt lat="43.47532" lon="1.55498">
        <ele>183</ele>
        <time>2022-07-03T10:30:17Z</time>
      </trkpt>
      <trkpt lat="43.47529" lon="1.55501">
        <ele>183</ele>
        <time>2022-07-03T10:30:18Z</time>
      </trkpt>
      <trkpt lat="43.47528" lon="1.55505">
        <ele>183.2</ele>
        <time>2022-07-03T10:30:19Z</time>
      </trkpt>
      <trkpt lat="43.47525" lon="1.55509">
        <ele>183.2</ele>
        <time>2022-07-03T10:30:20Z</time>
      </trkpt>
      <trkpt lat="43.47521" lon="1.55514">
        <ele>183.4</ele>
        <time>2022-07-03T10:30:21Z</time>
      </trkpt>
      <trkpt lat="43.47518" lon="1.55517">
        <ele>183.4</ele>
        <time>2022-07-03T10:30:22Z</time>
      </trkpt>
      <trkpt lat="43.47515" lon="1.55521">
        <ele>183.8</ele>
        <time>2022-07-03T10:30:23Z</time>
      </trkpt>
      <trkpt lat="43.47511" lon="1.55526">
        <ele>183.6</ele>
        <time>2022-07-03T10:30:24Z</time>
      </trkpt>
      <trkpt lat="43.47507" lon="1.55529">
        <ele>183.6</ele>
        <time>2022-07-03T10:30:25Z</time>
      </trkpt>
      <trkpt lat="43.47502" lon="1.55533">
        <ele>183.8</ele>
        <time>2022-07-03T10:30:26Z</time>
      </trkpt>
      <trkpt lat="43.47499" lon="1.55535">
        <ele>183.8</ele>
        <time>2022-07-03T10:30:27Z</time>
      </trkpt>
      <trkpt lat="43.47496" lon="1.55536">
        <ele>184.2</ele>
        <time>2022-07-03T10:30:28Z</time>
      </trkpt>
      <trkpt lat="43.47493" lon="1.55539">
        <ele>184.2</ele>
        <time>2022-07-03T10:30:29Z</time>
      </trkpt>
      <trkpt lat="43.4749" lon="1.55542">
        <ele>184.2</ele>
        <time>2022-07-03T10:30:30Z</time>
      </trkpt>
      <trkpt lat="43.47487" lon="1.55545">
        <ele>184.4</ele>
        <time>2022-07-03T10:30:31Z</time>
      </trkpt>
      <trkpt lat="43.47483" lon="1.55548">
        <ele>184.4</ele>
        <time>2022-07-03T10:30:32Z</time>
      </trkpt>
      <trkpt lat="43.4748" lon="1.55552">
        <ele>184.4</ele>
        <time>2022-07-03T10:30:33Z</time>
      </trkpt>
      <trkpt lat="43.47476" lon="1.55555">
        <ele>184.6</ele>
        <time>2022-07-03T10:30:34Z</time>
      </trkpt>
      <trkpt lat="43.47474" lon="1.55557">
        <ele>184.8</ele>
        <time>2022-07-03T10:30:35Z</time>
      </trkpt>
      <trkpt lat="43.47472" lon="1.55561">
        <ele>184.8</ele>
        <time>2022-07-03T10:30:36Z</time>
      </trkpt>
      <trkpt lat="43.47458" lon="1.55576">
        <ele>185</ele>
        <time>2022-07-03T10:30:40Z</time>
      </trkpt>
      <trkpt lat="43.47455" lon="1.5558">
        <ele>185</ele>
        <time>2022-07-03T10:30:41Z</time>
      </trkpt>
      <trkpt lat="43.47451" lon="1.55584">
        <ele>185</ele>
        <time>2022-07-03T10:30:42Z</time>
      </trkpt>
      <trkpt lat="43.47447" lon="1.55588">
        <ele>185</ele>
        <time>2022-07-03T10:30:43Z</time>
      </trkpt>
      <trkpt lat="43.47431" lon="1.55598">
        <ele>185.4</ele>
        <time>2022-07-03T10:30:47Z</time>
      </trkpt>
      <trkpt lat="43.47428" lon="1.55599">
        <ele>185.4</ele>
        <time>2022-07-03T10:30:48Z</time>
      </trkpt>
      <trkpt lat="43.47422" lon="1.55604">
        <ele>185.6</ele>
        <time>2022-07-03T10:30:50Z</time>
      </trkpt>
      <trkpt lat="43.47402" lon="1.55619">
        <ele>185.4</ele>
        <time>2022-07-03T10:30:55Z</time>
      </trkpt>
      <trkpt lat="43.47398" lon="1.55621">
        <ele>185.4</ele>
        <time>2022-07-03T10:30:56Z</time>
      </trkpt>
      <trkpt lat="43.47394" lon="1.55624">
        <ele>185.2</ele>
        <time>2022-07-03T10:30:57Z</time>
      </trkpt>
      <trkpt lat="43.4736" lon="1.55642">
        <ele>185</ele>
        <time>2022-07-03T10:31:04Z</time>
      </trkpt>
      <trkpt lat="43.4733" lon="1.55657">
        <ele>185.4</ele>
        <time>2022-07-03T10:31:11Z</time>
      </trkpt>
      <trkpt lat="43.47326" lon="1.55659">
        <ele>185.4</ele>
        <time>2022-07-03T10:31:12Z</time>
      </trkpt>
      <trkpt lat="43.47321" lon="1.55659">
        <ele>185.4</ele>
        <time>2022-07-03T10:31:13Z</time>
      </trkpt>
      <trkpt lat="43.47312" lon="1.55662">
        <ele>185.4</ele>
        <time>2022-07-03T10:31:15Z</time>
      </trkpt>
      <trkpt lat="43.47308" lon="1.55663">
        <ele>185.4</ele>
        <time>2022-07-03T10:31:16Z</time>
      </trkpt>
      <trkpt lat="43.47304" lon="1.55665">
        <ele>185.6</ele>
        <time>2022-07-03T10:31:17Z</time>
      </trkpt>
      <trkpt lat="43.47301" lon="1.55667">
        <ele>185.6</ele>
        <time>2022-07-03T10:31:18Z</time>
      </trkpt>
      <trkpt lat="43.47297" lon="1.55668">
        <ele>185.6</ele>
        <time>2022-07-03T10:31:19Z</time>
      </trkpt>
      <trkpt lat="43.47293" lon="1.5567">
        <ele>185.6</ele>
        <time>2022-07-03T10:31:20Z</time>
      </trkpt>
      <trkpt lat="43.47288" lon="1.55672">
        <ele>185.6</ele>
        <time>2022-07-03T10:31:21Z</time>
      </trkpt>
      <trkpt lat="43.47261" lon="1.55686">
        <ele>185.8</ele>
        <time>2022-07-03T10:31:27Z</time>
      </trkpt>
      <trkpt lat="43.47225" lon="1.55703">
        <ele>185.8</ele>
        <time>2022-07-03T10:31:35Z</time>
      </trkpt>
      <trkpt lat="43.4722" lon="1.55705">
        <ele>185.6</ele>
        <time>2022-07-03T10:31:36Z</time>
      </trkpt>
      <trkpt lat="43.47215" lon="1.55707">
        <ele>185.6</ele>
        <time>2022-07-03T10:31:37Z</time>
      </trkpt>
      <trkpt lat="43.47186" lon="1.55714">
        <ele>185.6</ele>
        <time>2022-07-03T10:31:44Z</time>
      </trkpt>
      <trkpt lat="43.47169" lon="1.55718">
        <ele>185.8</ele>
        <time>2022-07-03T10:31:48Z</time>
      </trkpt>
      <trkpt lat="43.47149" lon="1.55723">
        <ele>185.8</ele>
        <time>2022-07-03T10:31:52Z</time>
      </trkpt>
      <trkpt lat="43.47128" lon="1.55729">
        <ele>185.8</ele>
        <time>2022-07-03T10:31:57Z</time>
      </trkpt>
      <trkpt lat="43.47104" lon="1.55735">
        <ele>185.8</ele>
        <time>2022-07-03T10:32:01Z</time>
      </trkpt>
      <trkpt lat="43.47091" lon="1.55738">
        <ele>185.8</ele>
        <time>2022-07-03T10:32:04Z</time>
      </trkpt>
      <trkpt lat="43.47086" lon="1.5574">
        <ele>185.6</ele>
        <time>2022-07-03T10:32:05Z</time>
      </trkpt>
      <trkpt lat="43.47082" lon="1.55741">
        <ele>185.6</ele>
        <time>2022-07-03T10:32:06Z</time>
      </trkpt>
      <trkpt lat="43.47077" lon="1.55742">
        <ele>185.4</ele>
        <time>2022-07-03T10:32:07Z</time>
      </trkpt>
      <trkpt lat="43.47073" lon="1.55744">
        <ele>185.2</ele>
        <time>2022-07-03T10:32:08Z</time>
      </trkpt>
      <trkpt lat="43.47069" lon="1.55745">
        <ele>185</ele>
        <time>2022-07-03T10:32:09Z</time>
      </trkpt>
      <trkpt lat="43.47064" lon="1.55747">
        <ele>184.6</ele>
        <time>2022-07-03T10:32:10Z</time>
      </trkpt>
      <trkpt lat="43.47049" lon="1.55751">
        <ele>184</ele>
        <time>2022-07-03T10:32:14Z</time>
      </trkpt>
      <trkpt lat="43.47033" lon="1.55757">
        <ele>183.8</ele>
        <time>2022-07-03T10:32:17Z</time>
      </trkpt>
      <trkpt lat="43.47028" lon="1.5576">
        <ele>183.8</ele>
        <time>2022-07-03T10:32:18Z</time>
      </trkpt>
      <trkpt lat="43.47008" lon="1.55772">
        <ele>183.4</ele>
        <time>2022-07-03T10:32:23Z</time>
      </trkpt>
      <trkpt lat="43.47004" lon="1.55776">
        <ele>183.4</ele>
        <time>2022-07-03T10:32:24Z</time>
      </trkpt>
      <trkpt lat="43.46998" lon="1.55783">
        <ele>183.4</ele>
        <time>2022-07-03T10:32:26Z</time>
      </trkpt>
      <trkpt lat="43.46992" lon="1.55788">
        <ele>183.4</ele>
        <time>2022-07-03T10:32:28Z</time>
      </trkpt>
      <trkpt lat="43.4699" lon="1.55792">
        <ele>183.4</ele>
        <time>2022-07-03T10:32:29Z</time>
      </trkpt>
      <trkpt lat="43.46987" lon="1.55796">
        <ele>183.4</ele>
        <time>2022-07-03T10:32:30Z</time>
      </trkpt>
      <trkpt lat="43.46982" lon="1.55804">
        <ele>183.4</ele>
        <time>2022-07-03T10:32:32Z</time>
      </trkpt>
      <trkpt lat="43.4697" lon="1.5582">
        <ele>183.4</ele>
        <time>2022-07-03T10:32:37Z</time>
      </trkpt>
      <trkpt lat="43.46968" lon="1.55824">
        <ele>183.4</ele>
        <time>2022-07-03T10:32:38Z</time>
      </trkpt>
      <trkpt lat="43.46965" lon="1.55827">
        <ele>183.4</ele>
        <time>2022-07-03T10:32:39Z</time>
      </trkpt>
      <trkpt lat="43.46963" lon="1.55831">
        <ele>183.4</ele>
        <time>2022-07-03T10:32:40Z</time>
      </trkpt>
      <trkpt lat="43.46961" lon="1.55834">
        <ele>183.4</ele>
        <time>2022-07-03T10:32:41Z</time>
      </trkpt>
      <trkpt lat="43.46958" lon="1.55839">
        <ele>183.4</ele>
        <time>2022-07-03T10:32:42Z</time>
      </trkpt>
      <trkpt lat="43.46955" lon="1.55843">
        <ele>183.4</ele>
        <time>2022-07-03T10:32:43Z</time>
      </trkpt>
      <trkpt lat="43.46953" lon="1.55846">
        <ele>183.6</ele>
        <time>2022-07-03T10:32:44Z</time>
      </trkpt>
      <trkpt lat="43.46951" lon="1.5585">
        <ele>183.6</ele>
        <time>2022-07-03T10:32:45Z</time>
      </trkpt>
      <trkpt lat="43.46949" lon="1.55853">
        <ele>183.6</ele>
        <time>2022-07-03T10:32:46Z</time>
      </trkpt>
      <trkpt lat="43.46944" lon="1.55865">
        <ele>183.6</ele>
        <time>2022-07-03T10:32:49Z</time>
      </trkpt>
      <trkpt lat="43.46942" lon="1.55869">
        <ele>183.6</ele>
        <time>2022-07-03T10:32:50Z</time>
      </trkpt>
      <trkpt lat="43.46939" lon="1.55873">
        <ele>183.6</ele>
        <time>2022-07-03T10:32:51Z</time>
      </trkpt>
      <trkpt lat="43.46919" lon="1.55909">
        <ele>184</ele>
        <time>2022-07-03T10:32:58Z</time>
      </trkpt>
      <trkpt lat="43.469" lon="1.55947">
        <ele>184.2</ele>
        <time>2022-07-03T10:33:04Z</time>
      </trkpt>
      <trkpt lat="43.46882" lon="1.55984">
        <ele>184.2</ele>
        <time>2022-07-03T10:33:11Z</time>
      </trkpt>
      <trkpt lat="43.4688" lon="1.55988">
        <ele>184.2</ele>
        <time>2022-07-03T10:33:12Z</time>
      </trkpt>
      <trkpt lat="43.46878" lon="1.55994">
        <ele>184.2</ele>
        <time>2022-07-03T10:33:13Z</time>
      </trkpt>
      <trkpt lat="43.46875" lon="1.55998">
        <ele>184.2</ele>
        <time>2022-07-03T10:33:14Z</time>
      </trkpt>
      <trkpt lat="43.46873" lon="1.56004">
        <ele>184.2</ele>
        <time>2022-07-03T10:33:15Z</time>
      </trkpt>
      <trkpt lat="43.4687" lon="1.56014">
        <ele>184.2</ele>
        <time>2022-07-03T10:33:17Z</time>
      </trkpt>
      <trkpt lat="43.46869" lon="1.56019">
        <ele>184.2</ele>
        <time>2022-07-03T10:33:18Z</time>
      </trkpt>
      <trkpt lat="43.46867" lon="1.56024">
        <ele>184.2</ele>
        <time>2022-07-03T10:33:19Z</time>
      </trkpt>
      <trkpt lat="43.46863" lon="1.5603">
        <ele>184.4</ele>
        <time>2022-07-03T10:33:20Z</time>
      </trkpt>
      <trkpt lat="43.4686" lon="1.56036">
        <ele>184.4</ele>
        <time>2022-07-03T10:33:21Z</time>
      </trkpt>
      <trkpt lat="43.46859" lon="1.56041">
        <ele>184.4</ele>
        <time>2022-07-03T10:33:22Z</time>
      </trkpt>
      <trkpt lat="43.4685" lon="1.56055">
        <ele>184.4</ele>
        <time>2022-07-03T10:33:25Z</time>
      </trkpt>
      <trkpt lat="43.46832" lon="1.56097">
        <ele>184.4</ele>
        <time>2022-07-03T10:33:34Z</time>
      </trkpt>
      <trkpt lat="43.46829" lon="1.56102">
        <ele>184.4</ele>
        <time>2022-07-03T10:33:35Z</time>
      </trkpt>
      <trkpt lat="43.46825" lon="1.56106">
        <ele>184.4</ele>
        <time>2022-07-03T10:33:36Z</time>
      </trkpt>
      <trkpt lat="43.4682" lon="1.56117">
        <ele>184.4</ele>
        <time>2022-07-03T10:33:38Z</time>
      </trkpt>
      <trkpt lat="43.46818" lon="1.56124">
        <ele>184.2</ele>
        <time>2022-07-03T10:33:39Z</time>
      </trkpt>
      <trkpt lat="43.46812" lon="1.56135">
        <ele>183.8</ele>
        <time>2022-07-03T10:33:41Z</time>
      </trkpt>
      <trkpt lat="43.46802" lon="1.56161">
        <ele>182.8</ele>
        <time>2022-07-03T10:33:47Z</time>
      </trkpt>
      <trkpt lat="43.468" lon="1.56164">
        <ele>182.8</ele>
        <time>2022-07-03T10:33:48Z</time>
      </trkpt>
      <trkpt lat="43.46798" lon="1.56167">
        <ele>182.8</ele>
        <time>2022-07-03T10:33:49Z</time>
      </trkpt>
      <trkpt lat="43.46796" lon="1.56169">
        <ele>182.8</ele>
        <time>2022-07-03T10:33:50Z</time>
      </trkpt>
      <trkpt lat="43.46795" lon="1.56171">
        <ele>183</ele>
        <time>2022-07-03T10:33:51Z</time>
      </trkpt>
      <trkpt lat="43.46794" lon="1.56172">
        <ele>183.2</ele>
        <time>2022-07-03T10:33:52Z</time>
      </trkpt>
      <trkpt lat="43.46794" lon="1.56173">
        <ele>183.2</ele>
        <time>2022-07-03T10:33:53Z</time>
      </trkpt>
      <trkpt lat="43.46794" lon="1.56173">
        <ele>183.2</ele>
        <time>2022-07-03T10:33:54Z</time>
      </trkpt>
      <trkpt lat="43.46794" lon="1.56173">
        <ele>183.4</ele>
        <time>2022-07-03T10:33:55Z</time>
      </trkpt>
      <trkpt lat="43.46796" lon="1.56173">
        <ele>183.8</ele>
        <time>2022-07-03T10:44:41Z</time>
      </trkpt>
      <trkpt lat="43.46797" lon="1.56173">
        <ele>183.6</ele>
        <time>2022-07-03T10:44:42Z</time>
      </trkpt>
      <trkpt lat="43.46798" lon="1.56172">
        <ele>183.6</ele>
        <time>2022-07-03T10:44:43Z</time>
      </trkpt>
      <trkpt lat="43.46798" lon="1.56171">
        <ele>183.6</ele>
        <time>2022-07-03T10:44:44Z</time>
      </trkpt>
      <trkpt lat="43.46802" lon="1.56164">
        <ele>183.6</ele>
        <time>2022-07-03T10:44:47Z</time>
      </trkpt>
      <trkpt lat="43.46804" lon="1.56162">
        <ele>183.6</ele>
        <time>2022-07-03T10:44:48Z</time>
      </trkpt>
      <trkpt lat="43.46807" lon="1.56157">
        <ele>183.6</ele>
        <time>2022-07-03T10:44:50Z</time>
      </trkpt>
      <trkpt lat="43.46811" lon="1.56148">
        <ele>183.4</ele>
        <time>2022-07-03T10:44:53Z</time>
      </trkpt>
      <trkpt lat="43.46819" lon="1.56131">
        <ele>183</ele>
        <time>2022-07-03T10:44:58Z</time>
      </trkpt>
      <trkpt lat="43.46822" lon="1.56125">
        <ele>182.8</ele>
        <time>2022-07-03T10:45:00Z</time>
      </trkpt>
      <trkpt lat="43.46836" lon="1.56093">
        <ele>182.2</ele>
        <time>2022-07-03T10:45:08Z</time>
      </trkpt>
      <trkpt lat="43.46842" lon="1.5608">
        <ele>182.2</ele>
        <time>2022-07-03T10:45:12Z</time>
      </trkpt>
      <trkpt lat="43.46844" lon="1.56078">
        <ele>182.2</ele>
        <time>2022-07-03T10:45:13Z</time>
      </trkpt>
      <trkpt lat="43.46845" lon="1.56075">
        <ele>182.2</ele>
        <time>2022-07-03T10:45:14Z</time>
      </trkpt>
      <trkpt lat="43.4685" lon="1.56066">
        <ele>182.4</ele>
        <time>2022-07-03T10:45:17Z</time>
      </trkpt>
      <trkpt lat="43.46851" lon="1.56063">
        <ele>182.4</ele>
        <time>2022-07-03T10:45:18Z</time>
      </trkpt>
      <trkpt lat="43.46853" lon="1.56059">
        <ele>182.4</ele>
        <time>2022-07-03T10:45:19Z</time>
      </trkpt>
      <trkpt lat="43.46855" lon="1.56055">
        <ele>182.4</ele>
        <time>2022-07-03T10:45:20Z</time>
      </trkpt>
      <trkpt lat="43.46856" lon="1.56052">
        <ele>182.6</ele>
        <time>2022-07-03T10:45:21Z</time>
      </trkpt>
      <trkpt lat="43.46858" lon="1.56048">
        <ele>182.6</ele>
        <time>2022-07-03T10:45:22Z</time>
      </trkpt>
      <trkpt lat="43.46863" lon="1.56036">
        <ele>182.8</ele>
        <time>2022-07-03T10:45:25Z</time>
      </trkpt>
      <trkpt lat="43.46872" lon="1.56013">
        <ele>183</ele>
        <time>2022-07-03T10:45:30Z</time>
      </trkpt>
      <trkpt lat="43.46882" lon="1.55994">
        <ele>183.4</ele>
        <time>2022-07-03T10:45:35Z</time>
      </trkpt>
      <trkpt lat="43.46894" lon="1.5597">
        <ele>183.4</ele>
        <time>2022-07-03T10:45:41Z</time>
      </trkpt>
      <trkpt lat="43.46897" lon="1.55966">
        <ele>183.4</ele>
        <time>2022-07-03T10:45:42Z</time>
      </trkpt>
      <trkpt lat="43.46912" lon="1.55935">
        <ele>183.6</ele>
        <time>2022-07-03T10:45:49Z</time>
      </trkpt>
      <trkpt lat="43.46913" lon="1.5593">
        <ele>183.6</ele>
        <time>2022-07-03T10:45:50Z</time>
      </trkpt>
      <trkpt lat="43.46916" lon="1.55925">
        <ele>183.6</ele>
        <time>2022-07-03T10:45:51Z</time>
      </trkpt>
      <trkpt lat="43.46917" lon="1.55921">
        <ele>183.6</ele>
        <time>2022-07-03T10:45:52Z</time>
      </trkpt>
      <trkpt lat="43.46919" lon="1.55917">
        <ele>183.8</ele>
        <time>2022-07-03T10:45:53Z</time>
      </trkpt>
      <trkpt lat="43.46922" lon="1.55912">
        <ele>183.8</ele>
        <time>2022-07-03T10:45:54Z</time>
      </trkpt>
      <trkpt lat="43.46925" lon="1.55907">
        <ele>183.8</ele>
        <time>2022-07-03T10:45:55Z</time>
      </trkpt>
      <trkpt lat="43.46931" lon="1.55896">
        <ele>184</ele>
        <time>2022-07-03T10:45:58Z</time>
      </trkpt>
      <trkpt lat="43.46936" lon="1.55882">
        <ele>184</ele>
        <time>2022-07-03T10:46:01Z</time>
      </trkpt>
      <trkpt lat="43.46951" lon="1.55856">
        <ele>184.2</ele>
        <time>2022-07-03T10:46:08Z</time>
      </trkpt>
      <trkpt lat="43.46958" lon="1.55839">
        <ele>184.2</ele>
        <time>2022-07-03T10:46:11Z</time>
      </trkpt>
      <trkpt lat="43.4696" lon="1.55836">
        <ele>184.4</ele>
        <time>2022-07-03T10:46:12Z</time>
      </trkpt>
      <trkpt lat="43.46971" lon="1.55825">
        <ele>184.4</ele>
        <time>2022-07-03T10:46:15Z</time>
      </trkpt>
      <trkpt lat="43.46995" lon="1.55799">
        <ele>184.6</ele>
        <time>2022-07-03T10:46:23Z</time>
      </trkpt>
      <trkpt lat="43.46998" lon="1.55797">
        <ele>184.6</ele>
        <time>2022-07-03T10:46:24Z</time>
      </trkpt>
      <trkpt lat="43.47002" lon="1.55794">
        <ele>184.6</ele>
        <time>2022-07-03T10:46:25Z</time>
      </trkpt>
      <trkpt lat="43.47006" lon="1.55791">
        <ele>184.6</ele>
        <time>2022-07-03T10:46:26Z</time>
      </trkpt>
      <trkpt lat="43.47014" lon="1.55781">
        <ele>184.6</ele>
        <time>2022-07-03T10:46:29Z</time>
      </trkpt>
      <trkpt lat="43.47025" lon="1.55771">
        <ele>184.6</ele>
        <time>2022-07-03T10:46:33Z</time>
      </trkpt>
      <trkpt lat="43.47032" lon="1.55766">
        <ele>184.6</ele>
        <time>2022-07-03T10:46:34Z</time>
      </trkpt>
      <trkpt lat="43.47035" lon="1.55764">
        <ele>184.8</ele>
        <time>2022-07-03T10:46:35Z</time>
      </trkpt>
      <trkpt lat="43.47073" lon="1.55748">
        <ele>184.2</ele>
        <time>2022-07-03T10:46:43Z</time>
      </trkpt>
      <trkpt lat="43.47098" lon="1.55742">
        <ele>183</ele>
        <time>2022-07-03T10:46:49Z</time>
      </trkpt>
      <trkpt lat="43.47102" lon="1.55741">
        <ele>182.8</ele>
        <time>2022-07-03T10:46:50Z</time>
      </trkpt>
      <trkpt lat="43.4711" lon="1.5574">
        <ele>182.8</ele>
        <time>2022-07-03T10:46:52Z</time>
      </trkpt>
      <trkpt lat="43.47113" lon="1.55739">
        <ele>182.8</ele>
        <time>2022-07-03T10:46:53Z</time>
      </trkpt>
      <trkpt lat="43.47116" lon="1.55739">
        <ele>182.8</ele>
        <time>2022-07-03T10:46:54Z</time>
      </trkpt>
      <trkpt lat="43.47119" lon="1.55739">
        <ele>182.8</ele>
        <time>2022-07-03T10:46:55Z</time>
      </trkpt>
      <trkpt lat="43.47122" lon="1.55739">
        <ele>182.8</ele>
        <time>2022-07-03T10:46:56Z</time>
      </trkpt>
      <trkpt lat="43.47125" lon="1.55738">
        <ele>182.8</ele>
        <time>2022-07-03T10:46:57Z</time>
      </trkpt>
      <trkpt lat="43.47131" lon="1.55736">
        <ele>183</ele>
        <time>2022-07-03T10:46:59Z</time>
      </trkpt>
      <trkpt lat="43.47134" lon="1.55735">
        <ele>183</ele>
        <time>2022-07-03T10:47:00Z</time>
      </trkpt>
      <trkpt lat="43.47141" lon="1.55733">
        <ele>183.2</ele>
        <time>2022-07-03T10:47:02Z</time>
      </trkpt>
      <trkpt lat="43.47144" lon="1.55733">
        <ele>183.2</ele>
        <time>2022-07-03T10:47:03Z</time>
      </trkpt>
      <trkpt lat="43.47147" lon="1.55732">
        <ele>183.2</ele>
        <time>2022-07-03T10:47:04Z</time>
      </trkpt>
      <trkpt lat="43.4715" lon="1.55731">
        <ele>183.2</ele>
        <time>2022-07-03T10:47:05Z</time>
      </trkpt>
      <trkpt lat="43.47154" lon="1.55731">
        <ele>183.4</ele>
        <time>2022-07-03T10:47:06Z</time>
      </trkpt>
      <trkpt lat="43.47157" lon="1.55731">
        <ele>183.4</ele>
        <time>2022-07-03T10:47:07Z</time>
      </trkpt>
      <trkpt lat="43.47179" lon="1.55726">
        <ele>184</ele>
        <time>2022-07-03T10:47:12Z</time>
      </trkpt>
      <trkpt lat="43.47192" lon="1.55724">
        <ele>184.2</ele>
        <time>2022-07-03T10:47:15Z</time>
      </trkpt>
      <trkpt lat="43.47219" lon="1.55712">
        <ele>184.6</ele>
        <time>2022-07-03T10:47:22Z</time>
      </trkpt>
      <trkpt lat="43.47253" lon="1.55699">
        <ele>184.8</ele>
        <time>2022-07-03T10:47:31Z</time>
      </trkpt>
      <trkpt lat="43.47283" lon="1.55685">
        <ele>184.8</ele>
        <time>2022-07-03T10:47:38Z</time>
      </trkpt>
      <trkpt lat="43.47287" lon="1.55683">
        <ele>184.8</ele>
        <time>2022-07-03T10:47:39Z</time>
      </trkpt>
      <trkpt lat="43.47299" lon="1.55678">
        <ele>184.8</ele>
        <time>2022-07-03T10:47:42Z</time>
      </trkpt>
      <trkpt lat="43.47311" lon="1.55672">
        <ele>184.8</ele>
        <time>2022-07-03T10:47:45Z</time>
      </trkpt>
      <trkpt lat="43.47315" lon="1.55669">
        <ele>184.8</ele>
        <time>2022-07-03T10:47:46Z</time>
      </trkpt>
      <trkpt lat="43.47319" lon="1.55668">
        <ele>184.8</ele>
        <time>2022-07-03T10:47:47Z</time>
      </trkpt>
      <trkpt lat="43.47323" lon="1.55666">
        <ele>184.8</ele>
        <time>2022-07-03T10:47:48Z</time>
      </trkpt>
      <trkpt lat="43.47327" lon="1.55664">
        <ele>185</ele>
        <time>2022-07-03T10:47:49Z</time>
      </trkpt>
      <trkpt lat="43.4733" lon="1.55662">
        <ele>185.2</ele>
        <time>2022-07-03T10:47:50Z</time>
      </trkpt>
      <trkpt lat="43.47343" lon="1.55655">
        <ele>185.2</ele>
        <time>2022-07-03T10:47:53Z</time>
      </trkpt>
      <trkpt lat="43.47358" lon="1.55648">
        <ele>185.4</ele>
        <time>2022-07-03T10:47:56Z</time>
      </trkpt>
      <trkpt lat="43.47369" lon="1.55643">
        <ele>185.4</ele>
        <time>2022-07-03T10:47:58Z</time>
      </trkpt>
      <trkpt lat="43.47386" lon="1.55635">
        <ele>185.6</ele>
        <time>2022-07-03T10:48:01Z</time>
      </trkpt>
      <trkpt lat="43.47394" lon="1.55631">
        <ele>185.6</ele>
        <time>2022-07-03T10:48:02Z</time>
      </trkpt>
      <trkpt lat="43.47406" lon="1.55625">
        <ele>185.6</ele>
        <time>2022-07-03T10:48:04Z</time>
      </trkpt>
      <trkpt lat="43.47417" lon="1.55617">
        <ele>185.8</ele>
        <time>2022-07-03T10:48:06Z</time>
      </trkpt>
      <trkpt lat="43.47428" lon="1.55609">
        <ele>185.8</ele>
        <time>2022-07-03T10:48:08Z</time>
      </trkpt>
      <trkpt lat="43.47459" lon="1.55578">
        <ele>185.8</ele>
        <time>2022-07-03T10:48:14Z</time>
      </trkpt>
      <trkpt lat="43.475" lon="1.55535">
        <ele>185.8</ele>
        <time>2022-07-03T10:48:22Z</time>
      </trkpt>
      <trkpt lat="43.47539" lon="1.55498">
        <ele>186</ele>
        <time>2022-07-03T10:48:29Z</time>
      </trkpt>
      <trkpt lat="43.47543" lon="1.55494">
        <ele>186</ele>
        <time>2022-07-03T10:48:30Z</time>
      </trkpt>
      <trkpt lat="43.47547" lon="1.5549">
        <ele>186</ele>
        <time>2022-07-03T10:48:31Z</time>
      </trkpt>
      <trkpt lat="43.47552" lon="1.55486">
        <ele>186</ele>
        <time>2022-07-03T10:48:32Z</time>
      </trkpt>
      <trkpt lat="43.47562" lon="1.55475">
        <ele>186</ele>
        <time>2022-07-03T10:48:34Z</time>
      </trkpt>
      <trkpt lat="43.47567" lon="1.5547">
        <ele>186.2</ele>
        <time>2022-07-03T10:48:35Z</time>
      </trkpt>
      <trkpt lat="43.47573" lon="1.55465">
        <ele>186.2</ele>
        <time>2022-07-03T10:48:36Z</time>
      </trkpt>
      <trkpt lat="43.47579" lon="1.5546">
        <ele>186.2</ele>
        <time>2022-07-03T10:48:37Z</time>
      </trkpt>
      <trkpt lat="43.47604" lon="1.55436">
        <ele>186.4</ele>
        <time>2022-07-03T10:48:41Z</time>
      </trkpt>
      <trkpt lat="43.4762" lon="1.55422">
        <ele>186.4</ele>
        <time>2022-07-03T10:48:44Z</time>
      </trkpt>
      <trkpt lat="43.47624" lon="1.55419">
        <ele>186.6</ele>
        <time>2022-07-03T10:48:45Z</time>
      </trkpt>
      <trkpt lat="43.4763" lon="1.55415">
        <ele>186.6</ele>
        <time>2022-07-03T10:48:46Z</time>
      </trkpt>
      <trkpt lat="43.47635" lon="1.55411">
        <ele>186.6</ele>
        <time>2022-07-03T10:48:47Z</time>
      </trkpt>
      <trkpt lat="43.4764" lon="1.55407">
        <ele>186.6</ele>
        <time>2022-07-03T10:48:48Z</time>
      </trkpt>
      <trkpt lat="43.47643" lon="1.55404">
        <ele>186.6</ele>
        <time>2022-07-03T10:48:49Z</time>
      </trkpt>
      <trkpt lat="43.47652" lon="1.55398">
        <ele>186.6</ele>
        <time>2022-07-03T10:48:51Z</time>
      </trkpt>
      <trkpt lat="43.47656" lon="1.55395">
        <ele>186.6</ele>
        <time>2022-07-03T10:48:52Z</time>
      </trkpt>
      <trkpt lat="43.47661" lon="1.55391">
        <ele>186.6</ele>
        <time>2022-07-03T10:48:53Z</time>
      </trkpt>
      <trkpt lat="43.47665" lon="1.55387">
        <ele>186.6</ele>
        <time>2022-07-03T10:48:54Z</time>
      </trkpt>
      <trkpt lat="43.47683" lon="1.55369">
        <ele>186.6</ele>
        <time>2022-07-03T10:48:58Z</time>
      </trkpt>
      <trkpt lat="43.47716" lon="1.55336">
        <ele>186.6</ele>
        <time>2022-07-03T10:49:05Z</time>
      </trkpt>
      <trkpt lat="43.47742" lon="1.55308">
        <ele>186.4</ele>
        <time>2022-07-03T10:49:11Z</time>
      </trkpt>
      <trkpt lat="43.47754" lon="1.55295">
        <ele>186.2</ele>
        <time>2022-07-03T10:49:14Z</time>
      </trkpt>
      <trkpt lat="43.47757" lon="1.55291">
        <ele>186.2</ele>
        <time>2022-07-03T10:49:15Z</time>
      </trkpt>
      <trkpt lat="43.47759" lon="1.55288">
        <ele>186.2</ele>
        <time>2022-07-03T10:49:16Z</time>
      </trkpt>
      <trkpt lat="43.4776" lon="1.55286">
        <ele>186</ele>
        <time>2022-07-03T10:49:17Z</time>
      </trkpt>
      <trkpt lat="43.47761" lon="1.55284">
        <ele>186</ele>
        <time>2022-07-03T10:49:18Z</time>
      </trkpt>
      <trkpt lat="43.47763" lon="1.55283">
        <ele>185.8</ele>
        <time>2022-07-03T10:49:19Z</time>
      </trkpt>
      <trkpt lat="43.47764" lon="1.55281">
        <ele>185.6</ele>
        <time>2022-07-03T10:49:20Z</time>
      </trkpt>
      <trkpt lat="43.47765" lon="1.55279">
        <ele>185.6</ele>
        <time>2022-07-03T10:49:21Z</time>
      </trkpt>
      <trkpt lat="43.47766" lon="1.55278">
        <ele>185.6</ele>
        <time>2022-07-03T10:49:22Z</time>
      </trkpt>
      <trkpt lat="43.47768" lon="1.55276">
        <ele>185.4</ele>
        <time>2022-07-03T10:49:23Z</time>
      </trkpt>
      <trkpt lat="43.47774" lon="1.55269">
        <ele>185.6</ele>
        <time>2022-07-03T10:49:25Z</time>
      </trkpt>
      <trkpt lat="43.47792" lon="1.55253">
        <ele>185.4</ele>
        <time>2022-07-03T10:49:29Z</time>
      </trkpt>
      <trkpt lat="43.47796" lon="1.55248">
        <ele>185.4</ele>
        <time>2022-07-03T10:49:30Z</time>
      </trkpt>
      <trkpt lat="43.47806" lon="1.55238">
        <ele>185.2</ele>
        <time>2022-07-03T10:49:32Z</time>
      </trkpt>
      <trkpt lat="43.47813" lon="1.5523">
        <ele>184.8</ele>
        <time>2022-07-03T10:49:34Z</time>
      </trkpt>
      <trkpt lat="43.47816" lon="1.55226">
        <ele>184.8</ele>
        <time>2022-07-03T10:49:35Z</time>
      </trkpt>
      <trkpt lat="43.47819" lon="1.55222">
        <ele>184.8</ele>
        <time>2022-07-03T10:49:36Z</time>
      </trkpt>
      <trkpt lat="43.47822" lon="1.55217">
        <ele>184.8</ele>
        <time>2022-07-03T10:49:37Z</time>
      </trkpt>
      <trkpt lat="43.47825" lon="1.55213">
        <ele>184.8</ele>
        <time>2022-07-03T10:49:38Z</time>
      </trkpt>
      <trkpt lat="43.47828" lon="1.55209">
        <ele>184.8</ele>
        <time>2022-07-03T10:49:39Z</time>
      </trkpt>
      <trkpt lat="43.47832" lon="1.55203">
        <ele>184.8</ele>
        <time>2022-07-03T10:49:40Z</time>
      </trkpt>
      <trkpt lat="43.47841" lon="1.55189">
        <ele>184.6</ele>
        <time>2022-07-03T10:49:42Z</time>
      </trkpt>
      <trkpt lat="43.47846" lon="1.55183">
        <ele>184.6</ele>
        <time>2022-07-03T10:49:43Z</time>
      </trkpt>
      <trkpt lat="43.47873" lon="1.55151">
        <ele>184.8</ele>
        <time>2022-07-03T10:49:48Z</time>
      </trkpt>
      <trkpt lat="43.47878" lon="1.55146">
        <ele>184.8</ele>
        <time>2022-07-03T10:49:49Z</time>
      </trkpt>
      <trkpt lat="43.47906" lon="1.55124">
        <ele>185</ele>
        <time>2022-07-03T10:49:54Z</time>
      </trkpt>
      <trkpt lat="43.47911" lon="1.5512">
        <ele>185</ele>
        <time>2022-07-03T10:49:55Z</time>
      </trkpt>
      <trkpt lat="43.47916" lon="1.55117">
        <ele>185</ele>
        <time>2022-07-03T10:49:56Z</time>
      </trkpt>
      <trkpt lat="43.47921" lon="1.55114">
        <ele>185</ele>
        <time>2022-07-03T10:49:57Z</time>
      </trkpt>
      <trkpt lat="43.47932" lon="1.55107">
        <ele>185</ele>
        <time>2022-07-03T10:49:59Z</time>
      </trkpt>
      <trkpt lat="43.47936" lon="1.55104">
        <ele>185</ele>
        <time>2022-07-03T10:50:00Z</time>
      </trkpt>
      <trkpt lat="43.4794" lon="1.55102">
        <ele>185</ele>
        <time>2022-07-03T10:50:01Z</time>
      </trkpt>
      <trkpt lat="43.47945" lon="1.55099">
        <ele>185</ele>
        <time>2022-07-03T10:50:02Z</time>
      </trkpt>
      <trkpt lat="43.4795" lon="1.55096">
        <ele>185</ele>
        <time>2022-07-03T10:50:03Z</time>
      </trkpt>
      <trkpt lat="43.47954" lon="1.55093">
        <ele>185.2</ele>
        <time>2022-07-03T10:50:04Z</time>
      </trkpt>
      <trkpt lat="43.4798" lon="1.55076">
        <ele>185.2</ele>
        <time>2022-07-03T10:50:09Z</time>
      </trkpt>
      <trkpt lat="43.47996" lon="1.55063">
        <ele>185.2</ele>
        <time>2022-07-03T10:50:12Z</time>
      </trkpt>
      <trkpt lat="43.48008" lon="1.55055">
        <ele>185.2</ele>
        <time>2022-07-03T10:50:14Z</time>
      </trkpt>
      <trkpt lat="43.48013" lon="1.5505">
        <ele>185.2</ele>
        <time>2022-07-03T10:50:15Z</time>
      </trkpt>
      <trkpt lat="43.48022" lon="1.55041">
        <ele>185.2</ele>
        <time>2022-07-03T10:50:17Z</time>
      </trkpt>
      <trkpt lat="43.48037" lon="1.55027">
        <ele>185</ele>
        <time>2022-07-03T10:50:20Z</time>
      </trkpt>
      <trkpt lat="43.48047" lon="1.55015">
        <ele>185</ele>
        <time>2022-07-03T10:50:22Z</time>
      </trkpt>
      <trkpt lat="43.48055" lon="1.55001">
        <ele>185</ele>
        <time>2022-07-03T10:50:24Z</time>
      </trkpt>
      <trkpt lat="43.48058" lon="1.54993">
        <ele>185</ele>
        <time>2022-07-03T10:50:25Z</time>
      </trkpt>
      <trkpt lat="43.48061" lon="1.54985">
        <ele>185</ele>
        <time>2022-07-03T10:50:26Z</time>
      </trkpt>
      <trkpt lat="43.48065" lon="1.54969">
        <ele>185</ele>
        <time>2022-07-03T10:50:28Z</time>
      </trkpt>
      <trkpt lat="43.48069" lon="1.54953">
        <ele>185</ele>
        <time>2022-07-03T10:50:30Z</time>
      </trkpt>
      <trkpt lat="43.48074" lon="1.54928">
        <ele>184.8</ele>
        <time>2022-07-03T10:50:33Z</time>
      </trkpt>
      <trkpt lat="43.48076" lon="1.5491">
        <ele>184.8</ele>
        <time>2022-07-03T10:50:35Z</time>
      </trkpt>
      <trkpt lat="43.48076" lon="1.54902">
        <ele>185</ele>
        <time>2022-07-03T10:50:36Z</time>
      </trkpt>
      <trkpt lat="43.48076" lon="1.54874">
        <ele>185</ele>
        <time>2022-07-03T10:50:39Z</time>
      </trkpt>
      <trkpt lat="43.4808" lon="1.54854">
        <ele>185.2</ele>
        <time>2022-07-03T10:50:41Z</time>
      </trkpt>
      <trkpt lat="43.48082" lon="1.54846">
        <ele>185.2</ele>
        <time>2022-07-03T10:50:42Z</time>
      </trkpt>
      <trkpt lat="43.48085" lon="1.54839">
        <ele>185</ele>
        <time>2022-07-03T10:50:43Z</time>
      </trkpt>
      <trkpt lat="43.48091" lon="1.54831">
        <ele>185.2</ele>
        <time>2022-07-03T10:50:44Z</time>
      </trkpt>
      <trkpt lat="43.48095" lon="1.54825">
        <ele>185</ele>
        <time>2022-07-03T10:50:45Z</time>
      </trkpt>
      <trkpt lat="43.481" lon="1.54821">
        <ele>185</ele>
        <time>2022-07-03T10:50:46Z</time>
      </trkpt>
      <trkpt lat="43.48105" lon="1.54816">
        <ele>185</ele>
        <time>2022-07-03T10:50:47Z</time>
      </trkpt>
      <trkpt lat="43.48109" lon="1.54812">
        <ele>185</ele>
        <time>2022-07-03T10:50:48Z</time>
      </trkpt>
      <trkpt lat="43.48115" lon="1.54808">
        <ele>184.8</ele>
        <time>2022-07-03T10:50:49Z</time>
      </trkpt>
      <trkpt lat="43.48119" lon="1.54806">
        <ele>184.8</ele>
        <time>2022-07-03T10:50:50Z</time>
      </trkpt>
      <trkpt lat="43.48123" lon="1.54804">
        <ele>184.8</ele>
        <time>2022-07-03T10:50:51Z</time>
      </trkpt>
      <trkpt lat="43.48126" lon="1.54804">
        <ele>184.8</ele>
        <time>2022-07-03T10:50:52Z</time>
      </trkpt>
      <trkpt lat="43.48131" lon="1.54804">
        <ele>184.8</ele>
        <time>2022-07-03T10:50:53Z</time>
      </trkpt>
      <trkpt lat="43.48135" lon="1.54803">
        <ele>184.8</ele>
        <time>2022-07-03T10:50:54Z</time>
      </trkpt>
      <trkpt lat="43.48148" lon="1.54797">
        <ele>184.6</ele>
        <time>2022-07-03T10:50:57Z</time>
      </trkpt>
      <trkpt lat="43.48167" lon="1.54784">
        <ele>184.8</ele>
        <time>2022-07-03T10:51:01Z</time>
      </trkpt>
      <trkpt lat="43.48176" lon="1.54778">
        <ele>184.8</ele>
        <time>2022-07-03T10:51:03Z</time>
      </trkpt>
      <trkpt lat="43.48187" lon="1.5477">
        <ele>184.8</ele>
        <time>2022-07-03T10:51:05Z</time>
      </trkpt>
      <trkpt lat="43.48208" lon="1.54754">
        <ele>185.2</ele>
        <time>2022-07-03T10:51:09Z</time>
      </trkpt>
      <trkpt lat="43.48212" lon="1.5475">
        <ele>185.2</ele>
        <time>2022-07-03T10:51:10Z</time>
      </trkpt>
      <trkpt lat="43.48218" lon="1.54744">
        <ele>185.2</ele>
        <time>2022-07-03T10:51:11Z</time>
      </trkpt>
      <trkpt lat="43.48224" lon="1.54738">
        <ele>185.2</ele>
        <time>2022-07-03T10:51:12Z</time>
      </trkpt>
      <trkpt lat="43.48246" lon="1.54717">
        <ele>185.2</ele>
        <time>2022-07-03T10:51:16Z</time>
      </trkpt>
      <trkpt lat="43.4825" lon="1.54712">
        <ele>185.2</ele>
        <time>2022-07-03T10:51:17Z</time>
      </trkpt>
      <trkpt lat="43.48255" lon="1.54708">
        <ele>185.4</ele>
        <time>2022-07-03T10:51:18Z</time>
      </trkpt>
      <trkpt lat="43.48259" lon="1.54704">
        <ele>185.4</ele>
        <time>2022-07-03T10:51:19Z</time>
      </trkpt>
      <trkpt lat="43.48278" lon="1.54688">
        <ele>185.4</ele>
        <time>2022-07-03T10:51:23Z</time>
      </trkpt>
      <trkpt lat="43.48283" lon="1.54684">
        <ele>185.4</ele>
        <time>2022-07-03T10:51:24Z</time>
      </trkpt>
      <trkpt lat="43.48294" lon="1.54677">
        <ele>185.4</ele>
        <time>2022-07-03T10:51:26Z</time>
      </trkpt>
      <trkpt lat="43.48299" lon="1.54675">
        <ele>185.4</ele>
        <time>2022-07-03T10:51:27Z</time>
      </trkpt>
      <trkpt lat="43.48304" lon="1.54674">
        <ele>185.4</ele>
        <time>2022-07-03T10:51:28Z</time>
      </trkpt>
      <trkpt lat="43.48311" lon="1.54674">
        <ele>185.6</ele>
        <time>2022-07-03T10:51:29Z</time>
      </trkpt>
      <trkpt lat="43.48317" lon="1.54675">
        <ele>185.6</ele>
        <time>2022-07-03T10:51:30Z</time>
      </trkpt>
      <trkpt lat="43.48325" lon="1.54676">
        <ele>185.6</ele>
        <time>2022-07-03T10:51:31Z</time>
      </trkpt>
      <trkpt lat="43.48332" lon="1.54677">
        <ele>185.6</ele>
        <time>2022-07-03T10:51:32Z</time>
      </trkpt>
      <trkpt lat="43.48338" lon="1.54679">
        <ele>185.6</ele>
        <time>2022-07-03T10:51:33Z</time>
      </trkpt>
      <trkpt lat="43.48349" lon="1.54683">
        <ele>185.6</ele>
        <time>2022-07-03T10:51:35Z</time>
      </trkpt>
      <trkpt lat="43.4836" lon="1.54685">
        <ele>185.6</ele>
        <time>2022-07-03T10:51:37Z</time>
      </trkpt>
      <trkpt lat="43.4837" lon="1.5469">
        <ele>185.6</ele>
        <time>2022-07-03T10:51:39Z</time>
      </trkpt>
      <trkpt lat="43.48382" lon="1.54691">
        <ele>185.6</ele>
        <time>2022-07-03T10:51:41Z</time>
      </trkpt>
      <trkpt lat="43.48394" lon="1.5469">
        <ele>185.6</ele>
        <time>2022-07-03T10:51:43Z</time>
      </trkpt>
      <trkpt lat="43.48401" lon="1.54688">
        <ele>185.6</ele>
        <time>2022-07-03T10:51:44Z</time>
      </trkpt>
      <trkpt lat="43.48423" lon="1.54682">
        <ele>185.6</ele>
        <time>2022-07-03T10:51:48Z</time>
      </trkpt>
      <trkpt lat="43.48428" lon="1.54679">
        <ele>185.6</ele>
        <time>2022-07-03T10:51:49Z</time>
      </trkpt>
      <trkpt lat="43.48433" lon="1.54678">
        <ele>185.6</ele>
        <time>2022-07-03T10:51:50Z</time>
      </trkpt>
      <trkpt lat="43.48439" lon="1.54676">
        <ele>185.4</ele>
        <time>2022-07-03T10:51:51Z</time>
      </trkpt>
      <trkpt lat="43.48447" lon="1.54674">
        <ele>185.4</ele>
        <time>2022-07-03T10:51:53Z</time>
      </trkpt>
      <trkpt lat="43.48453" lon="1.54671">
        <ele>185.4</ele>
        <time>2022-07-03T10:51:54Z</time>
      </trkpt>
      <trkpt lat="43.48459" lon="1.54668">
        <ele>185.4</ele>
        <time>2022-07-03T10:51:55Z</time>
      </trkpt>
      <trkpt lat="43.48465" lon="1.54665">
        <ele>185.4</ele>
        <time>2022-07-03T10:51:56Z</time>
      </trkpt>
      <trkpt lat="43.48472" lon="1.54663">
        <ele>185.4</ele>
        <time>2022-07-03T10:51:57Z</time>
      </trkpt>
      <trkpt lat="43.48482" lon="1.54659">
        <ele>185.4</ele>
        <time>2022-07-03T10:51:59Z</time>
      </trkpt>
      <trkpt lat="43.48512" lon="1.5465">
        <ele>185.2</ele>
        <time>2022-07-03T10:52:04Z</time>
      </trkpt>
      <trkpt lat="43.48531" lon="1.54647">
        <ele>185.2</ele>
        <time>2022-07-03T10:52:07Z</time>
      </trkpt>
      <trkpt lat="43.48548" lon="1.54646">
        <ele>185.2</ele>
        <time>2022-07-03T10:52:09Z</time>
      </trkpt>
      <trkpt lat="43.4857" lon="1.54641">
        <ele>185</ele>
        <time>2022-07-03T10:52:12Z</time>
      </trkpt>
      <trkpt lat="43.48576" lon="1.5464">
        <ele>184.8</ele>
        <time>2022-07-03T10:52:13Z</time>
      </trkpt>
      <trkpt lat="43.48581" lon="1.54639">
        <ele>184.8</ele>
        <time>2022-07-03T10:52:14Z</time>
      </trkpt>
      <trkpt lat="43.48589" lon="1.54639">
        <ele>184.6</ele>
        <time>2022-07-03T10:52:16Z</time>
      </trkpt>
      <trkpt lat="43.48593" lon="1.54638">
        <ele>184.6</ele>
        <time>2022-07-03T10:52:17Z</time>
      </trkpt>
      <trkpt lat="43.48598" lon="1.54639">
        <ele>184.6</ele>
        <time>2022-07-03T10:52:18Z</time>
      </trkpt>
      <trkpt lat="43.48603" lon="1.54637">
        <ele>184.6</ele>
        <time>2022-07-03T10:52:19Z</time>
      </trkpt>
      <trkpt lat="43.48609" lon="1.54635">
        <ele>184.6</ele>
        <time>2022-07-03T10:52:20Z</time>
      </trkpt>
      <trkpt lat="43.48621" lon="1.5463">
        <ele>184.4</ele>
        <time>2022-07-03T10:52:22Z</time>
      </trkpt>
      <trkpt lat="43.4863" lon="1.54626">
        <ele>184.4</ele>
        <time>2022-07-03T10:52:24Z</time>
      </trkpt>
      <trkpt lat="43.48633" lon="1.54625">
        <ele>184.4</ele>
        <time>2022-07-03T10:52:25Z</time>
      </trkpt>
      <trkpt lat="43.48637" lon="1.54622">
        <ele>184.4</ele>
        <time>2022-07-03T10:52:26Z</time>
      </trkpt>
      <trkpt lat="43.48642" lon="1.5462">
        <ele>184.4</ele>
        <time>2022-07-03T10:52:27Z</time>
      </trkpt>
      <trkpt lat="43.48666" lon="1.54607">
        <ele>184.6</ele>
        <time>2022-07-03T10:52:31Z</time>
      </trkpt>
      <trkpt lat="43.48677" lon="1.54602">
        <ele>184.6</ele>
        <time>2022-07-03T10:52:33Z</time>
      </trkpt>
      <trkpt lat="43.4868" lon="1.54599">
        <ele>184.6</ele>
        <time>2022-07-03T10:52:34Z</time>
      </trkpt>
      <trkpt lat="43.48685" lon="1.54596">
        <ele>184.8</ele>
        <time>2022-07-03T10:52:35Z</time>
      </trkpt>
      <trkpt lat="43.48691" lon="1.54592">
        <ele>184.8</ele>
        <time>2022-07-03T10:52:36Z</time>
      </trkpt>
      <trkpt lat="43.48716" lon="1.54574">
        <ele>185</ele>
        <time>2022-07-03T10:52:40Z</time>
      </trkpt>
      <trkpt lat="43.48721" lon="1.54569">
        <ele>185</ele>
        <time>2022-07-03T10:52:41Z</time>
      </trkpt>
      <trkpt lat="43.4875" lon="1.54539">
        <ele>185</ele>
        <time>2022-07-03T10:52:47Z</time>
      </trkpt>
      <trkpt lat="43.4876" lon="1.54525">
        <ele>185</ele>
        <time>2022-07-03T10:52:49Z</time>
      </trkpt>
      <trkpt lat="43.48776" lon="1.54502">
        <ele>185.2</ele>
        <time>2022-07-03T10:52:53Z</time>
      </trkpt>
      <trkpt lat="43.48779" lon="1.54498">
        <ele>185.2</ele>
        <time>2022-07-03T10:52:54Z</time>
      </trkpt>
      <trkpt lat="43.48783" lon="1.54491">
        <ele>185.4</ele>
        <time>2022-07-03T10:52:55Z</time>
      </trkpt>
      <trkpt lat="43.48791" lon="1.54482">
        <ele>185.6</ele>
        <time>2022-07-03T10:52:57Z</time>
      </trkpt>
      <trkpt lat="43.48814" lon="1.54442">
        <ele>185.6</ele>
        <time>2022-07-03T10:53:04Z</time>
      </trkpt>
      <trkpt lat="43.48819" lon="1.54437">
        <ele>185.6</ele>
        <time>2022-07-03T10:53:05Z</time>
      </trkpt>
      <trkpt lat="43.48823" lon="1.54431">
        <ele>185.6</ele>
        <time>2022-07-03T10:53:06Z</time>
      </trkpt>
      <trkpt lat="43.48855" lon="1.54388">
        <ele>185.6</ele>
        <time>2022-07-03T10:53:14Z</time>
      </trkpt>
      <trkpt lat="43.48891" lon="1.5434">
        <ele>185.2</ele>
        <time>2022-07-03T10:53:23Z</time>
      </trkpt>
      <trkpt lat="43.48924" lon="1.54291">
        <ele>185</ele>
        <time>2022-07-03T10:53:31Z</time>
      </trkpt>
      <trkpt lat="43.48929" lon="1.54284">
        <ele>185</ele>
        <time>2022-07-03T10:53:32Z</time>
      </trkpt>
      <trkpt lat="43.48934" lon="1.54272">
        <ele>185</ele>
        <time>2022-07-03T10:53:34Z</time>
      </trkpt>
      <trkpt lat="43.48937" lon="1.54265">
        <ele>185</ele>
        <time>2022-07-03T10:53:35Z</time>
      </trkpt>
      <trkpt lat="43.48939" lon="1.54259">
        <ele>185</ele>
        <time>2022-07-03T10:53:36Z</time>
      </trkpt>
      <trkpt lat="43.48942" lon="1.54252">
        <ele>185</ele>
        <time>2022-07-03T10:53:37Z</time>
      </trkpt>
      <trkpt lat="43.48945" lon="1.54243">
        <ele>185</ele>
        <time>2022-07-03T10:53:38Z</time>
      </trkpt>
      <trkpt lat="43.4895" lon="1.54229">
        <ele>184.8</ele>
        <time>2022-07-03T10:53:40Z</time>
      </trkpt>
      <trkpt lat="43.48952" lon="1.54221">
        <ele>184.8</ele>
        <time>2022-07-03T10:53:41Z</time>
      </trkpt>
      <trkpt lat="43.48956" lon="1.54214">
        <ele>184.8</ele>
        <time>2022-07-03T10:53:42Z</time>
      </trkpt>
      <trkpt lat="43.48959" lon="1.54207">
        <ele>184.8</ele>
        <time>2022-07-03T10:53:43Z</time>
      </trkpt>
      <trkpt lat="43.48962" lon="1.54199">
        <ele>184.8</ele>
        <time>2022-07-03T10:53:44Z</time>
      </trkpt>
      <trkpt lat="43.48965" lon="1.5419">
        <ele>184.8</ele>
        <time>2022-07-03T10:53:45Z</time>
      </trkpt>
      <trkpt lat="43.48966" lon="1.54174">
        <ele>184.8</ele>
        <time>2022-07-03T10:53:47Z</time>
      </trkpt>
      <trkpt lat="43.48967" lon="1.54167">
        <ele>184.8</ele>
        <time>2022-07-03T10:53:48Z</time>
      </trkpt>
      <trkpt lat="43.4897" lon="1.54156">
        <ele>184.8</ele>
        <time>2022-07-03T10:53:49Z</time>
      </trkpt>
      <trkpt lat="43.48977" lon="1.54124">
        <ele>185</ele>
        <time>2022-07-03T10:53:52Z</time>
      </trkpt>
      <trkpt lat="43.48977" lon="1.54108">
        <ele>185.2</ele>
        <time>2022-07-03T10:53:54Z</time>
      </trkpt>
      <trkpt lat="43.48983" lon="1.54028">
        <ele>185.6</ele>
        <time>2022-07-03T10:54:03Z</time>
      </trkpt>
      <trkpt lat="43.48985" lon="1.5397">
        <ele>185.2</ele>
        <time>2022-07-03T10:54:10Z</time>
      </trkpt>
      <trkpt lat="43.48985" lon="1.53962">
        <ele>185.2</ele>
        <time>2022-07-03T10:54:11Z</time>
      </trkpt>
      <trkpt lat="43.48984" lon="1.53954">
        <ele>185.2</ele>
        <time>2022-07-03T10:54:12Z</time>
      </trkpt>
      <trkpt lat="43.48984" lon="1.53948">
        <ele>185</ele>
        <time>2022-07-03T10:54:13Z</time>
      </trkpt>
      <trkpt lat="43.48982" lon="1.53922">
        <ele>185</ele>
        <time>2022-07-03T10:54:16Z</time>
      </trkpt>
      <trkpt lat="43.48974" lon="1.53864">
        <ele>185.2</ele>
        <time>2022-07-03T10:54:23Z</time>
      </trkpt>
      <trkpt lat="43.48965" lon="1.53796">
        <ele>185</ele>
        <time>2022-07-03T10:54:31Z</time>
      </trkpt>
      <trkpt lat="43.48964" lon="1.53787">
        <ele>184.8</ele>
        <time>2022-07-03T10:54:32Z</time>
      </trkpt>
      <trkpt lat="43.48963" lon="1.53778">
        <ele>184.8</ele>
        <time>2022-07-03T10:54:33Z</time>
      </trkpt>
      <trkpt lat="43.48962" lon="1.53741">
        <ele>184.4</ele>
        <time>2022-07-03T10:54:37Z</time>
      </trkpt>
      <trkpt lat="43.48962" lon="1.53732">
        <ele>184.4</ele>
        <time>2022-07-03T10:54:38Z</time>
      </trkpt>
      <trkpt lat="43.48966" lon="1.53698">
        <ele>184</ele>
        <time>2022-07-03T10:54:42Z</time>
      </trkpt>
      <trkpt lat="43.4897" lon="1.53684">
        <ele>183.6</ele>
        <time>2022-07-03T10:54:44Z</time>
      </trkpt>
      <trkpt lat="43.48972" lon="1.53677">
        <ele>183.4</ele>
        <time>2022-07-03T10:54:45Z</time>
      </trkpt>
      <trkpt lat="43.48975" lon="1.53671">
        <ele>183.2</ele>
        <time>2022-07-03T10:54:46Z</time>
      </trkpt>
      <trkpt lat="43.48978" lon="1.53664">
        <ele>183</ele>
        <time>2022-07-03T10:54:47Z</time>
      </trkpt>
      <trkpt lat="43.48982" lon="1.53659">
        <ele>183</ele>
        <time>2022-07-03T10:54:48Z</time>
      </trkpt>
      <trkpt lat="43.48986" lon="1.53653">
        <ele>183</ele>
        <time>2022-07-03T10:54:49Z</time>
      </trkpt>
      <trkpt lat="43.49012" lon="1.5363">
        <ele>182.8</ele>
        <time>2022-07-03T10:54:54Z</time>
      </trkpt>
      <trkpt lat="43.49018" lon="1.53627">
        <ele>182.8</ele>
        <time>2022-07-03T10:54:55Z</time>
      </trkpt>
      <trkpt lat="43.49037" lon="1.53624">
        <ele>182.8</ele>
        <time>2022-07-03T10:54:58Z</time>
      </trkpt>
      <trkpt lat="43.4905" lon="1.53625">
        <ele>182.8</ele>
        <time>2022-07-03T10:55:00Z</time>
      </trkpt>
      <trkpt lat="43.49085" lon="1.53636">
        <ele>181.8</ele>
        <time>2022-07-03T10:55:06Z</time>
      </trkpt>
      <trkpt lat="43.49091" lon="1.53638">
        <ele>181.4</ele>
        <time>2022-07-03T10:55:07Z</time>
      </trkpt>
      <trkpt lat="43.49097" lon="1.5364">
        <ele>181</ele>
        <time>2022-07-03T10:55:08Z</time>
      </trkpt>
      <trkpt lat="43.49101" lon="1.53642">
        <ele>180.8</ele>
        <time>2022-07-03T10:55:09Z</time>
      </trkpt>
      <trkpt lat="43.49107" lon="1.53643">
        <ele>180.4</ele>
        <time>2022-07-03T10:55:10Z</time>
      </trkpt>
      <trkpt lat="43.49119" lon="1.53647">
        <ele>180.2</ele>
        <time>2022-07-03T10:55:12Z</time>
      </trkpt>
      <trkpt lat="43.49124" lon="1.53649">
        <ele>180.2</ele>
        <time>2022-07-03T10:55:13Z</time>
      </trkpt>
      <trkpt lat="43.49129" lon="1.5365">
        <ele>180.2</ele>
        <time>2022-07-03T10:55:14Z</time>
      </trkpt>
      <trkpt lat="43.49134" lon="1.53651">
        <ele>180.2</ele>
        <time>2022-07-03T10:55:15Z</time>
      </trkpt>
      <trkpt lat="43.49152" lon="1.53657">
        <ele>180</ele>
        <time>2022-07-03T10:55:18Z</time>
      </trkpt>
      <trkpt lat="43.49157" lon="1.53658">
        <ele>180</ele>
        <time>2022-07-03T10:55:19Z</time>
      </trkpt>
      <trkpt lat="43.49161" lon="1.53658">
        <ele>180</ele>
        <time>2022-07-03T10:55:20Z</time>
      </trkpt>
      <trkpt lat="43.49172" lon="1.53661">
        <ele>180</ele>
        <time>2022-07-03T10:55:22Z</time>
      </trkpt>
      <trkpt lat="43.49177" lon="1.53662">
        <ele>180</ele>
        <time>2022-07-03T10:55:23Z</time>
      </trkpt>
      <trkpt lat="43.49182" lon="1.53662">
        <ele>180</ele>
        <time>2022-07-03T10:55:24Z</time>
      </trkpt>
      <trkpt lat="43.49186" lon="1.53662">
        <ele>180</ele>
        <time>2022-07-03T10:55:25Z</time>
      </trkpt>
      <trkpt lat="43.49191" lon="1.53663">
        <ele>180</ele>
        <time>2022-07-03T10:55:26Z</time>
      </trkpt>
      <trkpt lat="43.49197" lon="1.53664">
        <ele>180.2</ele>
        <time>2022-07-03T10:55:27Z</time>
      </trkpt>
      <trkpt lat="43.49222" lon="1.53665">
        <ele>180.8</ele>
        <time>2022-07-03T10:55:31Z</time>
      </trkpt>
      <trkpt lat="43.4924" lon="1.53666">
        <ele>180.8</ele>
        <time>2022-07-03T10:55:34Z</time>
      </trkpt>
      <trkpt lat="43.49246" lon="1.53666">
        <ele>180.8</ele>
        <time>2022-07-03T10:55:35Z</time>
      </trkpt>
      <trkpt lat="43.49251" lon="1.53667">
        <ele>180.8</ele>
        <time>2022-07-03T10:55:36Z</time>
      </trkpt>
      <trkpt lat="43.49255" lon="1.53667">
        <ele>180.8</ele>
        <time>2022-07-03T10:55:37Z</time>
      </trkpt>
      <trkpt lat="43.4926" lon="1.53668">
        <ele>180.8</ele>
        <time>2022-07-03T10:55:38Z</time>
      </trkpt>
      <trkpt lat="43.49266" lon="1.53668">
        <ele>180.8</ele>
        <time>2022-07-03T10:55:39Z</time>
      </trkpt>
      <trkpt lat="43.49271" lon="1.53668">
        <ele>180.6</ele>
        <time>2022-07-03T10:55:40Z</time>
      </trkpt>
      <trkpt lat="43.49288" lon="1.53667">
        <ele>180.6</ele>
        <time>2022-07-03T10:55:43Z</time>
      </trkpt>
      <trkpt lat="43.49304" lon="1.53665">
        <ele>180.4</ele>
        <time>2022-07-03T10:55:46Z</time>
      </trkpt>
      <trkpt lat="43.4931" lon="1.53664">
        <ele>180.4</ele>
        <time>2022-07-03T10:55:47Z</time>
      </trkpt>
      <trkpt lat="43.49315" lon="1.53662">
        <ele>180.4</ele>
        <time>2022-07-03T10:55:48Z</time>
      </trkpt>
      <trkpt lat="43.49322" lon="1.53662">
        <ele>180.4</ele>
        <time>2022-07-03T10:55:49Z</time>
      </trkpt>
      <trkpt lat="43.49328" lon="1.53662">
        <ele>180.4</ele>
        <time>2022-07-03T10:55:50Z</time>
      </trkpt>
      <trkpt lat="43.4936" lon="1.53659">
        <ele>180.4</ele>
        <time>2022-07-03T10:55:55Z</time>
      </trkpt>
      <trkpt lat="43.4938" lon="1.53654">
        <ele>180.4</ele>
        <time>2022-07-03T10:55:58Z</time>
      </trkpt>
      <trkpt lat="43.49388" lon="1.53653">
        <ele>180.4</ele>
        <time>2022-07-03T10:55:59Z</time>
      </trkpt>
      <trkpt lat="43.49394" lon="1.53652">
        <ele>180.4</ele>
        <time>2022-07-03T10:56:00Z</time>
      </trkpt>
      <trkpt lat="43.494" lon="1.5365">
        <ele>180.2</ele>
        <time>2022-07-03T10:56:01Z</time>
      </trkpt>
      <trkpt lat="43.49454" lon="1.53634">
        <ele>179.8</ele>
        <time>2022-07-03T10:56:10Z</time>
      </trkpt>
      <trkpt lat="43.49507" lon="1.53617">
        <ele>179.8</ele>
        <time>2022-07-03T10:56:19Z</time>
      </trkpt>
      <trkpt lat="43.49518" lon="1.53613">
        <ele>179.6</ele>
        <time>2022-07-03T10:56:21Z</time>
      </trkpt>
      <trkpt lat="43.49524" lon="1.53611">
        <ele>179.6</ele>
        <time>2022-07-03T10:56:22Z</time>
      </trkpt>
      <trkpt lat="43.49529" lon="1.53609">
        <ele>179.4</ele>
        <time>2022-07-03T10:56:23Z</time>
      </trkpt>
      <trkpt lat="43.49535" lon="1.53608">
        <ele>179.4</ele>
        <time>2022-07-03T10:56:24Z</time>
      </trkpt>
      <trkpt lat="43.49541" lon="1.53605">
        <ele>179.4</ele>
        <time>2022-07-03T10:56:25Z</time>
      </trkpt>
      <trkpt lat="43.49545" lon="1.53603">
        <ele>179.2</ele>
        <time>2022-07-03T10:56:26Z</time>
      </trkpt>
      <trkpt lat="43.49552" lon="1.53601">
        <ele>179.2</ele>
        <time>2022-07-03T10:56:27Z</time>
      </trkpt>
      <trkpt lat="43.49557" lon="1.53598">
        <ele>179.2</ele>
        <time>2022-07-03T10:56:28Z</time>
      </trkpt>
      <trkpt lat="43.49567" lon="1.53594">
        <ele>179.2</ele>
        <time>2022-07-03T10:56:30Z</time>
      </trkpt>
      <trkpt lat="43.49572" lon="1.53592">
        <ele>179.2</ele>
        <time>2022-07-03T10:56:31Z</time>
      </trkpt>
      <trkpt lat="43.49575" lon="1.53591">
        <ele>179.2</ele>
        <time>2022-07-03T10:56:32Z</time>
      </trkpt>
      <trkpt lat="43.4958" lon="1.53589">
        <ele>179.2</ele>
        <time>2022-07-03T10:56:33Z</time>
      </trkpt>
      <trkpt lat="43.49583" lon="1.53587">
        <ele>179.2</ele>
        <time>2022-07-03T10:56:34Z</time>
      </trkpt>
      <trkpt lat="43.49587" lon="1.53586">
        <ele>179.2</ele>
        <time>2022-07-03T10:56:35Z</time>
      </trkpt>
      <trkpt lat="43.49591" lon="1.53584">
        <ele>179.2</ele>
        <time>2022-07-03T10:56:36Z</time>
      </trkpt>
      <trkpt lat="43.49594" lon="1.53582">
        <ele>179.2</ele>
        <time>2022-07-03T10:56:37Z</time>
      </trkpt>
      <trkpt lat="43.49596" lon="1.53581">
        <ele>179.4</ele>
        <time>2022-07-03T10:56:38Z</time>
      </trkpt>
      <trkpt lat="43.49598" lon="1.5358">
        <ele>179.4</ele>
        <time>2022-07-03T10:56:39Z</time>
      </trkpt>
      <trkpt lat="43.496" lon="1.53579">
        <ele>179.4</ele>
        <time>2022-07-03T10:56:40Z</time>
      </trkpt>
      <trkpt lat="43.49601" lon="1.53578">
        <ele>179.6</ele>
        <time>2022-07-03T10:56:41Z</time>
      </trkpt>
      <trkpt lat="43.49601" lon="1.53577">
        <ele>179.8</ele>
        <time>2022-07-03T10:56:42Z</time>
      </trkpt>
      <trkpt lat="43.49602" lon="1.53577">
        <ele>179.8</ele>
        <time>2022-07-03T10:56:43Z</time>
      </trkpt>
      <trkpt lat="43.49602" lon="1.53577">
        <ele>180</ele>
        <time>2022-07-03T10:56:44Z</time>
      </trkpt>
      <trkpt lat="43.49602" lon="1.53577">
        <ele>180.2</ele>
        <time>2022-07-03T10:56:45Z</time>
      </trkpt>
      <trkpt lat="43.49602" lon="1.53577">
        <ele>180.4</ele>
        <time>2022-07-03T10:56:46Z</time>
      </trkpt>
      <trkpt lat="43.49603" lon="1.53571">
        <ele>181.4</ele>
        <time>2022-07-03T10:56:55Z</time>
      </trkpt>
      <trkpt lat="43.49602" lon="1.53569">
        <ele>181.6</ele>
        <time>2022-07-03T10:56:56Z</time>
      </trkpt>
      <trkpt lat="43.496" lon="1.53564">
        <ele>181.4</ele>
        <time>2022-07-03T10:56:59Z</time>
      </trkpt>
      <trkpt lat="43.49599" lon="1.53563">
        <ele>181.4</ele>
        <time>2022-07-03T10:57:00Z</time>
      </trkpt>
      <trkpt lat="43.49599" lon="1.53561">
        <ele>181.4</ele>
        <time>2022-07-03T10:57:01Z</time>
      </trkpt>
      <trkpt lat="43.49598" lon="1.53561">
        <ele>181.4</ele>
        <time>2022-07-03T10:57:02Z</time>
      </trkpt>
      <trkpt lat="43.49597" lon="1.5356">
        <ele>181.2</ele>
        <time>2022-07-03T10:57:03Z</time>
      </trkpt>
      <trkpt lat="43.49597" lon="1.53559">
        <ele>181.2</ele>
        <time>2022-07-03T10:57:04Z</time>
      </trkpt>
      <trkpt lat="43.49597" lon="1.53558">
        <ele>181</ele>
        <time>2022-07-03T10:57:05Z</time>
      </trkpt>
      <trkpt lat="43.49597" lon="1.53558">
        <ele>181</ele>
        <time>2022-07-03T10:57:06Z</time>
      </trkpt>
      <trkpt lat="43.49597" lon="1.53558">
        <ele>181</ele>
        <time>2022-07-03T10:57:07Z</time>
      </trkpt>
      <trkpt lat="43.49597" lon="1.53562">
        <ele>180.4</ele>
        <time>2022-07-03T10:57:14Z</time>
      </trkpt>
      <trkpt lat="43.49598" lon="1.53564">
        <ele>180</ele>
        <time>2022-07-03T10:57:15Z</time>
      </trkpt>
      <trkpt lat="43.496" lon="1.53567">
        <ele>179.8</ele>
        <time>2022-07-03T10:57:16Z</time>
      </trkpt>
      <trkpt lat="43.49605" lon="1.5357">
        <ele>179.8</ele>
        <time>2022-07-03T10:57:18Z</time>
      </trkpt>
      <trkpt lat="43.49607" lon="1.53569">
        <ele>179.8</ele>
        <time>2022-07-03T10:57:19Z</time>
      </trkpt>
      <trkpt lat="43.49617" lon="1.53561">
        <ele>179.6</ele>
        <time>2022-07-03T10:57:22Z</time>
      </trkpt>
      <trkpt lat="43.4962" lon="1.53558">
        <ele>179.6</ele>
        <time>2022-07-03T10:57:23Z</time>
      </trkpt>
      <trkpt lat="43.49624" lon="1.53556">
        <ele>179.6</ele>
        <time>2022-07-03T10:57:24Z</time>
      </trkpt>
      <trkpt lat="43.49635" lon="1.53547">
        <ele>179.6</ele>
        <time>2022-07-03T10:57:27Z</time>
      </trkpt>
      <trkpt lat="43.49661" lon="1.53517">
        <ele>180</ele>
        <time>2022-07-03T10:57:35Z</time>
      </trkpt>
      <trkpt lat="43.49664" lon="1.53513">
        <ele>180</ele>
        <time>2022-07-03T10:57:36Z</time>
      </trkpt>
      <trkpt lat="43.49666" lon="1.53509">
        <ele>180.2</ele>
        <time>2022-07-03T10:57:37Z</time>
      </trkpt>
      <trkpt lat="43.49669" lon="1.53505">
        <ele>180.2</ele>
        <time>2022-07-03T10:57:38Z</time>
      </trkpt>
      <trkpt lat="43.49672" lon="1.53501">
        <ele>180.4</ele>
        <time>2022-07-03T10:57:39Z</time>
      </trkpt>
      <trkpt lat="43.49675" lon="1.53497">
        <ele>180.4</ele>
        <time>2022-07-03T10:57:40Z</time>
      </trkpt>
      <trkpt lat="43.49677" lon="1.53493">
        <ele>180.6</ele>
        <time>2022-07-03T10:57:41Z</time>
      </trkpt>
      <trkpt lat="43.4968" lon="1.5349">
        <ele>180.6</ele>
        <time>2022-07-03T10:57:42Z</time>
      </trkpt>
      <trkpt lat="43.49683" lon="1.53484">
        <ele>180.6</ele>
        <time>2022-07-03T10:57:43Z</time>
      </trkpt>
      <trkpt lat="43.4969" lon="1.53475">
        <ele>180.8</ele>
        <time>2022-07-03T10:57:45Z</time>
      </trkpt>
      <trkpt lat="43.49692" lon="1.53471">
        <ele>180.8</ele>
        <time>2022-07-03T10:57:46Z</time>
      </trkpt>
      <trkpt lat="43.49692" lon="1.53471">
        <ele>180.8</ele>
        <time>2022-07-03T10:57:47Z</time>
      </trkpt>
      <trkpt lat="43.49699" lon="1.5346">
        <ele>181</ele>
        <time>2022-07-03T10:57:49Z</time>
      </trkpt>
      <trkpt lat="43.49701" lon="1.53457">
        <ele>181.2</ele>
        <time>2022-07-03T10:57:50Z</time>
      </trkpt>
      <trkpt lat="43.49704" lon="1.53454">
        <ele>181.2</ele>
        <time>2022-07-03T10:57:51Z</time>
      </trkpt>
      <trkpt lat="43.49706" lon="1.53451">
        <ele>181.4</ele>
        <time>2022-07-03T10:57:52Z</time>
      </trkpt>
      <trkpt lat="43.49708" lon="1.53446">
        <ele>181.4</ele>
        <time>2022-07-03T10:57:53Z</time>
      </trkpt>
      <trkpt lat="43.49711" lon="1.53441">
        <ele>181.6</ele>
        <time>2022-07-03T10:57:54Z</time>
      </trkpt>
      <trkpt lat="43.49726" lon="1.53406">
        <ele>182.4</ele>
        <time>2022-07-03T10:58:00Z</time>
      </trkpt>
      <trkpt lat="43.4973" lon="1.53402">
        <ele>182.6</ele>
        <time>2022-07-03T10:58:01Z</time>
      </trkpt>
      <trkpt lat="43.49746" lon="1.5337">
        <ele>183</ele>
        <time>2022-07-03T10:58:07Z</time>
      </trkpt>
      <trkpt lat="43.49749" lon="1.53364">
        <ele>183.2</ele>
        <time>2022-07-03T10:58:08Z</time>
      </trkpt>
      <trkpt lat="43.49751" lon="1.53358">
        <ele>183.2</ele>
        <time>2022-07-03T10:58:09Z</time>
      </trkpt>
      <trkpt lat="43.49764" lon="1.53333">
        <ele>183.4</ele>
        <time>2022-07-03T10:58:13Z</time>
      </trkpt>
      <trkpt lat="43.49774" lon="1.53318">
        <ele>183.4</ele>
        <time>2022-07-03T10:58:16Z</time>
      </trkpt>
      <trkpt lat="43.49778" lon="1.53313">
        <ele>183.6</ele>
        <time>2022-07-03T10:58:17Z</time>
      </trkpt>
      <trkpt lat="43.49781" lon="1.53308">
        <ele>183.6</ele>
        <time>2022-07-03T10:58:18Z</time>
      </trkpt>
      <trkpt lat="43.49785" lon="1.53302">
        <ele>183.8</ele>
        <time>2022-07-03T10:58:19Z</time>
      </trkpt>
      <trkpt lat="43.49813" lon="1.53266">
        <ele>184.2</ele>
        <time>2022-07-03T10:58:26Z</time>
      </trkpt>
      <trkpt lat="43.49822" lon="1.53254">
        <ele>184.2</ele>
        <time>2022-07-03T10:58:28Z</time>
      </trkpt>
      <trkpt lat="43.49838" lon="1.53236">
        <ele>184.4</ele>
        <time>2022-07-03T10:58:32Z</time>
      </trkpt>
      <trkpt lat="43.49841" lon="1.5323">
        <ele>184.4</ele>
        <time>2022-07-03T10:58:33Z</time>
      </trkpt>
      <trkpt lat="43.49847" lon="1.53221">
        <ele>184.4</ele>
        <time>2022-07-03T10:58:35Z</time>
      </trkpt>
      <trkpt lat="43.49851" lon="1.53215">
        <ele>184.4</ele>
        <time>2022-07-03T10:58:36Z</time>
      </trkpt>
      <trkpt lat="43.49871" lon="1.53194">
        <ele>184.6</ele>
        <time>2022-07-03T10:58:40Z</time>
      </trkpt>
      <trkpt lat="43.49875" lon="1.53191">
        <ele>184.6</ele>
        <time>2022-07-03T10:58:41Z</time>
      </trkpt>
      <trkpt lat="43.49879" lon="1.53188">
        <ele>184.6</ele>
        <time>2022-07-03T10:58:42Z</time>
      </trkpt>
      <trkpt lat="43.49884" lon="1.53184">
        <ele>184.6</ele>
        <time>2022-07-03T10:58:43Z</time>
      </trkpt>
      <trkpt lat="43.49888" lon="1.5318">
        <ele>184.6</ele>
        <time>2022-07-03T10:58:44Z</time>
      </trkpt>
      <trkpt lat="43.49892" lon="1.53177">
        <ele>184.6</ele>
        <time>2022-07-03T10:58:45Z</time>
      </trkpt>
      <trkpt lat="43.49897" lon="1.53172">
        <ele>184.6</ele>
        <time>2022-07-03T10:58:46Z</time>
      </trkpt>
      <trkpt lat="43.49899" lon="1.53169">
        <ele>184.6</ele>
        <time>2022-07-03T10:58:47Z</time>
      </trkpt>
      <trkpt lat="43.49904" lon="1.53164">
        <ele>184.8</ele>
        <time>2022-07-03T10:58:48Z</time>
      </trkpt>
      <trkpt lat="43.49904" lon="1.53164">
        <ele>184.8</ele>
        <time>2022-07-03T10:58:49Z</time>
      </trkpt>
      <trkpt lat="43.49912" lon="1.53156">
        <ele>184.8</ele>
        <time>2022-07-03T10:58:50Z</time>
      </trkpt>
      <trkpt lat="43.49939" lon="1.53133">
        <ele>185</ele>
        <time>2022-07-03T10:58:56Z</time>
      </trkpt>
      <trkpt lat="43.49948" lon="1.53126">
        <ele>185.2</ele>
        <time>2022-07-03T10:58:58Z</time>
      </trkpt>
      <trkpt lat="43.49967" lon="1.5311">
        <ele>185.4</ele>
        <time>2022-07-03T10:59:02Z</time>
      </trkpt>
      <trkpt lat="43.50005" lon="1.53073">
        <ele>185.4</ele>
        <time>2022-07-03T10:59:10Z</time>
      </trkpt>
      <trkpt lat="43.5001" lon="1.53068">
        <ele>185.4</ele>
        <time>2022-07-03T10:59:11Z</time>
      </trkpt>
      <trkpt lat="43.50014" lon="1.53064">
        <ele>185.4</ele>
        <time>2022-07-03T10:59:12Z</time>
      </trkpt>
      <trkpt lat="43.50022" lon="1.53055">
        <ele>185.4</ele>
        <time>2022-07-03T10:59:14Z</time>
      </trkpt>
      <trkpt lat="43.50026" lon="1.5305">
        <ele>185.4</ele>
        <time>2022-07-03T10:59:15Z</time>
      </trkpt>
      <trkpt lat="43.5003" lon="1.53045">
        <ele>185.4</ele>
        <time>2022-07-03T10:59:16Z</time>
      </trkpt>
      <trkpt lat="43.50033" lon="1.5304">
        <ele>185.4</ele>
        <time>2022-07-03T10:59:17Z</time>
      </trkpt>
      <trkpt lat="43.50038" lon="1.53035">
        <ele>185.4</ele>
        <time>2022-07-03T10:59:18Z</time>
      </trkpt>
      <trkpt lat="43.50041" lon="1.5303">
        <ele>185.4</ele>
        <time>2022-07-03T10:59:19Z</time>
      </trkpt>
      <trkpt lat="43.50044" lon="1.53025">
        <ele>185.4</ele>
        <time>2022-07-03T10:59:20Z</time>
      </trkpt>
      <trkpt lat="43.50048" lon="1.53019">
        <ele>185.4</ele>
        <time>2022-07-03T10:59:21Z</time>
      </trkpt>
      <trkpt lat="43.50052" lon="1.53014">
        <ele>185.4</ele>
        <time>2022-07-03T10:59:22Z</time>
      </trkpt>
      <trkpt lat="43.50077" lon="1.52986">
        <ele>185.4</ele>
        <time>2022-07-03T10:59:28Z</time>
      </trkpt>
      <trkpt lat="43.50083" lon="1.52978">
        <ele>185.2</ele>
        <time>2022-07-03T10:59:30Z</time>
      </trkpt>
      <trkpt lat="43.50104" lon="1.52956">
        <ele>185.2</ele>
        <time>2022-07-03T10:59:35Z</time>
      </trkpt>
      <trkpt lat="43.50109" lon="1.5295">
        <ele>185.2</ele>
        <time>2022-07-03T10:59:36Z</time>
      </trkpt>
      <trkpt lat="43.50113" lon="1.52947">
        <ele>185.2</ele>
        <time>2022-07-03T10:59:37Z</time>
      </trkpt>
      <trkpt lat="43.50116" lon="1.52943">
        <ele>185.2</ele>
        <time>2022-07-03T10:59:38Z</time>
      </trkpt>
      <trkpt lat="43.5012" lon="1.52938">
        <ele>185.2</ele>
        <time>2022-07-03T10:59:39Z</time>
      </trkpt>
      <trkpt lat="43.50123" lon="1.52936">
        <ele>185.2</ele>
        <time>2022-07-03T10:59:40Z</time>
      </trkpt>
      <trkpt lat="43.50125" lon="1.52934">
        <ele>185.2</ele>
        <time>2022-07-03T10:59:41Z</time>
      </trkpt>
      <trkpt lat="43.50127" lon="1.52931">
        <ele>185.2</ele>
        <time>2022-07-03T10:59:42Z</time>
      </trkpt>
      <trkpt lat="43.5013" lon="1.52928">
        <ele>185.2</ele>
        <time>2022-07-03T10:59:43Z</time>
      </trkpt>
      <trkpt lat="43.50133" lon="1.52925">
        <ele>185.2</ele>
        <time>2022-07-03T10:59:44Z</time>
      </trkpt>
      <trkpt lat="43.50143" lon="1.52917">
        <ele>185.2</ele>
        <time>2022-07-03T10:59:47Z</time>
      </trkpt>
      <trkpt lat="43.50146" lon="1.52914">
        <ele>185.2</ele>
        <time>2022-07-03T10:59:48Z</time>
      </trkpt>
      <trkpt lat="43.50151" lon="1.52911">
        <ele>185.2</ele>
        <time>2022-07-03T10:59:49Z</time>
      </trkpt>
      <trkpt lat="43.50154" lon="1.52908">
        <ele>185.2</ele>
        <time>2022-07-03T10:59:50Z</time>
      </trkpt>
      <trkpt lat="43.50157" lon="1.52905">
        <ele>185.2</ele>
        <time>2022-07-03T10:59:51Z</time>
      </trkpt>
      <trkpt lat="43.50171" lon="1.52893">
        <ele>185.2</ele>
        <time>2022-07-03T10:59:54Z</time>
      </trkpt>
      <trkpt lat="43.50202" lon="1.52866">
        <ele>185.4</ele>
        <time>2022-07-03T11:00:00Z</time>
      </trkpt>
      <trkpt lat="43.50217" lon="1.52853">
        <ele>185.6</ele>
        <time>2022-07-03T11:00:04Z</time>
      </trkpt>
      <trkpt lat="43.50222" lon="1.52849">
        <ele>185.6</ele>
        <time>2022-07-03T11:00:05Z</time>
      </trkpt>
      <trkpt lat="43.50229" lon="1.52843">
        <ele>185.6</ele>
        <time>2022-07-03T11:00:06Z</time>
      </trkpt>
      <trkpt lat="43.50249" lon="1.52824">
        <ele>185.6</ele>
        <time>2022-07-03T11:00:10Z</time>
      </trkpt>
      <trkpt lat="43.50258" lon="1.52815">
        <ele>185.6</ele>
        <time>2022-07-03T11:00:12Z</time>
      </trkpt>
      <trkpt lat="43.50263" lon="1.5281">
        <ele>185.6</ele>
        <time>2022-07-03T11:00:13Z</time>
      </trkpt>
      <trkpt lat="43.50301" lon="1.52779">
        <ele>185.6</ele>
        <time>2022-07-03T11:00:20Z</time>
      </trkpt>
      <trkpt lat="43.50303" lon="1.52775">
        <ele>185.6</ele>
        <time>2022-07-03T11:00:21Z</time>
      </trkpt>
      <trkpt lat="43.50308" lon="1.52768">
        <ele>185.6</ele>
        <time>2022-07-03T11:00:23Z</time>
      </trkpt>
      <trkpt lat="43.50312" lon="1.52763">
        <ele>185.6</ele>
        <time>2022-07-03T11:00:24Z</time>
      </trkpt>
      <trkpt lat="43.50318" lon="1.52757">
        <ele>185.6</ele>
        <time>2022-07-03T11:00:25Z</time>
      </trkpt>
      <trkpt lat="43.50335" lon="1.52739">
        <ele>185.6</ele>
        <time>2022-07-03T11:00:30Z</time>
      </trkpt>
      <trkpt lat="43.50337" lon="1.52735">
        <ele>185.6</ele>
        <time>2022-07-03T11:00:31Z</time>
      </trkpt>
      <trkpt lat="43.5034" lon="1.52732">
        <ele>185.6</ele>
        <time>2022-07-03T11:00:32Z</time>
      </trkpt>
      <trkpt lat="43.50343" lon="1.52728">
        <ele>185.6</ele>
        <time>2022-07-03T11:00:33Z</time>
      </trkpt>
      <trkpt lat="43.50357" lon="1.52708">
        <ele>185.6</ele>
        <time>2022-07-03T11:00:37Z</time>
      </trkpt>
      <trkpt lat="43.50359" lon="1.52702">
        <ele>185.6</ele>
        <time>2022-07-03T11:00:38Z</time>
      </trkpt>
      <trkpt lat="43.50363" lon="1.52688">
        <ele>185.4</ele>
        <time>2022-07-03T11:00:40Z</time>
      </trkpt>
      <trkpt lat="43.50368" lon="1.52661">
        <ele>185.2</ele>
        <time>2022-07-03T11:00:44Z</time>
      </trkpt>
      <trkpt lat="43.5037" lon="1.52655">
        <ele>185.2</ele>
        <time>2022-07-03T11:00:45Z</time>
      </trkpt>
      <trkpt lat="43.50371" lon="1.52649">
        <ele>185.2</ele>
        <time>2022-07-03T11:00:46Z</time>
      </trkpt>
      <trkpt lat="43.50373" lon="1.52644">
        <ele>185</ele>
        <time>2022-07-03T11:00:47Z</time>
      </trkpt>
      <trkpt lat="43.50378" lon="1.52632">
        <ele>185</ele>
        <time>2022-07-03T11:00:49Z</time>
      </trkpt>
      <trkpt lat="43.50379" lon="1.52626">
        <ele>185</ele>
        <time>2022-07-03T11:00:50Z</time>
      </trkpt>
      <trkpt lat="43.5038" lon="1.5262">
        <ele>185</ele>
        <time>2022-07-03T11:00:51Z</time>
      </trkpt>
      <trkpt lat="43.50381" lon="1.52613">
        <ele>185</ele>
        <time>2022-07-03T11:00:52Z</time>
      </trkpt>
      <trkpt lat="43.50381" lon="1.52607">
        <ele>185</ele>
        <time>2022-07-03T11:00:53Z</time>
      </trkpt>
      <trkpt lat="43.50382" lon="1.52601">
        <ele>185</ele>
        <time>2022-07-03T11:00:54Z</time>
      </trkpt>
      <trkpt lat="43.5039" lon="1.52554">
        <ele>184.8</ele>
        <time>2022-07-03T11:01:00Z</time>
      </trkpt>
      <trkpt lat="43.50391" lon="1.52547">
        <ele>184.8</ele>
        <time>2022-07-03T11:01:01Z</time>
      </trkpt>
      <trkpt lat="43.50394" lon="1.5254">
        <ele>184.8</ele>
        <time>2022-07-03T11:01:02Z</time>
      </trkpt>
      <trkpt lat="43.50397" lon="1.52531">
        <ele>184.8</ele>
        <time>2022-07-03T11:01:03Z</time>
      </trkpt>
      <trkpt lat="43.50404" lon="1.52507">
        <ele>184.8</ele>
        <time>2022-07-03T11:01:06Z</time>
      </trkpt>
      <trkpt lat="43.5041" lon="1.5248">
        <ele>185</ele>
        <time>2022-07-03T11:01:09Z</time>
      </trkpt>
      <trkpt lat="43.50412" lon="1.52471">
        <ele>185</ele>
        <time>2022-07-03T11:01:10Z</time>
      </trkpt>
      <trkpt lat="43.50413" lon="1.52464">
        <ele>185</ele>
        <time>2022-07-03T11:01:11Z</time>
      </trkpt>
      <trkpt lat="43.50417" lon="1.52443">
        <ele>185</ele>
        <time>2022-07-03T11:01:14Z</time>
      </trkpt>
      <trkpt lat="43.50417" lon="1.52436">
        <ele>185</ele>
        <time>2022-07-03T11:01:15Z</time>
      </trkpt>
      <trkpt lat="43.50418" lon="1.52428">
        <ele>185</ele>
        <time>2022-07-03T11:01:16Z</time>
      </trkpt>
      <trkpt lat="43.50419" lon="1.52421">
        <ele>185</ele>
        <time>2022-07-03T11:01:17Z</time>
      </trkpt>
      <trkpt lat="43.50419" lon="1.52413">
        <ele>185</ele>
        <time>2022-07-03T11:01:18Z</time>
      </trkpt>
      <trkpt lat="43.50422" lon="1.52404">
        <ele>185</ele>
        <time>2022-07-03T11:01:19Z</time>
      </trkpt>
      <trkpt lat="43.50423" lon="1.52395">
        <ele>185</ele>
        <time>2022-07-03T11:01:20Z</time>
      </trkpt>
      <trkpt lat="43.50424" lon="1.52366">
        <ele>184.6</ele>
        <time>2022-07-03T11:01:23Z</time>
      </trkpt>
      <trkpt lat="43.50424" lon="1.52356">
        <ele>184.6</ele>
        <time>2022-07-03T11:01:24Z</time>
      </trkpt>
      <trkpt lat="43.50425" lon="1.52333">
        <ele>184</ele>
        <time>2022-07-03T11:01:27Z</time>
      </trkpt>
      <trkpt lat="43.50426" lon="1.52325">
        <ele>184</ele>
        <time>2022-07-03T11:01:28Z</time>
      </trkpt>
      <trkpt lat="43.50428" lon="1.52318">
        <ele>184</ele>
        <time>2022-07-03T11:01:29Z</time>
      </trkpt>
      <trkpt lat="43.50429" lon="1.5231">
        <ele>183.6</ele>
        <time>2022-07-03T11:01:30Z</time>
      </trkpt>
      <trkpt lat="43.5043" lon="1.52303">
        <ele>183.4</ele>
        <time>2022-07-03T11:01:31Z</time>
      </trkpt>
      <trkpt lat="43.50431" lon="1.52285">
        <ele>182.8</ele>
        <time>2022-07-03T11:01:33Z</time>
      </trkpt>
      <trkpt lat="43.5043" lon="1.52277">
        <ele>182.4</ele>
        <time>2022-07-03T11:01:34Z</time>
      </trkpt>
      <trkpt lat="43.50434" lon="1.52226">
        <ele>182</ele>
        <time>2022-07-03T11:01:41Z</time>
      </trkpt>
      <trkpt lat="43.50435" lon="1.5222">
        <ele>182.2</ele>
        <time>2022-07-03T11:01:42Z</time>
      </trkpt>
      <trkpt lat="43.50437" lon="1.52214">
        <ele>182.2</ele>
        <time>2022-07-03T11:01:43Z</time>
      </trkpt>
      <trkpt lat="43.50438" lon="1.52209">
        <ele>182.2</ele>
        <time>2022-07-03T11:01:44Z</time>
      </trkpt>
      <trkpt lat="43.5044" lon="1.52203">
        <ele>182.2</ele>
        <time>2022-07-03T11:01:45Z</time>
      </trkpt>
      <trkpt lat="43.50442" lon="1.52197">
        <ele>182.4</ele>
        <time>2022-07-03T11:01:46Z</time>
      </trkpt>
      <trkpt lat="43.50447" lon="1.52185">
        <ele>182.4</ele>
        <time>2022-07-03T11:01:48Z</time>
      </trkpt>
      <trkpt lat="43.50462" lon="1.52163">
        <ele>182.6</ele>
        <time>2022-07-03T11:01:52Z</time>
      </trkpt>
      <trkpt lat="43.50499" lon="1.52119">
        <ele>182.8</ele>
        <time>2022-07-03T11:02:01Z</time>
      </trkpt>
      <trkpt lat="43.50518" lon="1.52103">
        <ele>183</ele>
        <time>2022-07-03T11:02:05Z</time>
      </trkpt>
      <trkpt lat="43.50522" lon="1.52101">
        <ele>183</ele>
        <time>2022-07-03T11:02:06Z</time>
      </trkpt>
      <trkpt lat="43.50525" lon="1.52099">
        <ele>183</ele>
        <time>2022-07-03T11:02:07Z</time>
      </trkpt>
      <trkpt lat="43.50529" lon="1.52097">
        <ele>183.2</ele>
        <time>2022-07-03T11:02:08Z</time>
      </trkpt>
      <trkpt lat="43.50533" lon="1.52096">
        <ele>183.2</ele>
        <time>2022-07-03T11:02:09Z</time>
      </trkpt>
      <trkpt lat="43.50551" lon="1.5209">
        <ele>183.4</ele>
        <time>2022-07-03T11:02:12Z</time>
      </trkpt>
      <trkpt lat="43.50581" lon="1.52083">
        <ele>183.2</ele>
        <time>2022-07-03T11:02:17Z</time>
      </trkpt>
      <trkpt lat="43.50586" lon="1.52083">
        <ele>183.2</ele>
        <time>2022-07-03T11:02:18Z</time>
      </trkpt>
      <trkpt lat="43.50627" lon="1.52078">
        <ele>182.6</ele>
        <time>2022-07-03T11:02:25Z</time>
      </trkpt>
      <trkpt lat="43.50633" lon="1.52077">
        <ele>182.4</ele>
        <time>2022-07-03T11:02:26Z</time>
      </trkpt>
      <trkpt lat="43.50638" lon="1.52076">
        <ele>182.2</ele>
        <time>2022-07-03T11:02:27Z</time>
      </trkpt>
      <trkpt lat="43.50643" lon="1.52076">
        <ele>182.2</ele>
        <time>2022-07-03T11:02:28Z</time>
      </trkpt>
      <trkpt lat="43.50647" lon="1.52075">
        <ele>182.2</ele>
        <time>2022-07-03T11:02:29Z</time>
      </trkpt>
      <trkpt lat="43.50652" lon="1.52075">
        <ele>182</ele>
        <time>2022-07-03T11:02:30Z</time>
      </trkpt>
      <trkpt lat="43.50656" lon="1.52074">
        <ele>182</ele>
        <time>2022-07-03T11:02:31Z</time>
      </trkpt>
      <trkpt lat="43.50656" lon="1.52074">
        <ele>182</ele>
        <time>2022-07-03T11:02:32Z</time>
      </trkpt>
      <trkpt lat="43.50666" lon="1.52073">
        <ele>182</ele>
        <time>2022-07-03T11:02:33Z</time>
      </trkpt>
      <trkpt lat="43.50676" lon="1.5207">
        <ele>182</ele>
        <time>2022-07-03T11:02:35Z</time>
      </trkpt>
      <trkpt lat="43.50681" lon="1.52069">
        <ele>182</ele>
        <time>2022-07-03T11:02:37Z</time>
      </trkpt>
      <trkpt lat="43.50705" lon="1.52056">
        <ele>182</ele>
        <time>2022-07-03T11:02:41Z</time>
      </trkpt>
      <trkpt lat="43.50708" lon="1.52053">
        <ele>182</ele>
        <time>2022-07-03T11:02:42Z</time>
      </trkpt>
      <trkpt lat="43.50712" lon="1.52051">
        <ele>182</ele>
        <time>2022-07-03T11:02:43Z</time>
      </trkpt>
      <trkpt lat="43.50716" lon="1.52047">
        <ele>182.4</ele>
        <time>2022-07-03T11:02:44Z</time>
      </trkpt>
      <trkpt lat="43.50734" lon="1.52034">
        <ele>183</ele>
        <time>2022-07-03T11:02:48Z</time>
      </trkpt>
      <trkpt lat="43.50739" lon="1.52031">
        <ele>182.8</ele>
        <time>2022-07-03T11:02:49Z</time>
      </trkpt>
      <trkpt lat="43.50748" lon="1.52024">
        <ele>183.2</ele>
        <time>2022-07-03T11:02:51Z</time>
      </trkpt>
      <trkpt lat="43.50752" lon="1.5202">
        <ele>183.2</ele>
        <time>2022-07-03T11:02:52Z</time>
      </trkpt>
      <trkpt lat="43.50757" lon="1.52015">
        <ele>183.2</ele>
        <time>2022-07-03T11:02:53Z</time>
      </trkpt>
      <trkpt lat="43.50793" lon="1.51975">
        <ele>183.6</ele>
        <time>2022-07-03T11:03:01Z</time>
      </trkpt>
      <trkpt lat="43.50801" lon="1.51965">
        <ele>183.8</ele>
        <time>2022-07-03T11:03:03Z</time>
      </trkpt>
      <trkpt lat="43.50813" lon="1.5195">
        <ele>184</ele>
        <time>2022-07-03T11:03:06Z</time>
      </trkpt>
      <trkpt lat="43.50817" lon="1.51945">
        <ele>184</ele>
        <time>2022-07-03T11:03:07Z</time>
      </trkpt>
      <trkpt lat="43.50822" lon="1.5194">
        <ele>184.2</ele>
        <time>2022-07-03T11:03:08Z</time>
      </trkpt>
      <trkpt lat="43.50827" lon="1.51935">
        <ele>184.2</ele>
        <time>2022-07-03T11:03:09Z</time>
      </trkpt>
      <trkpt lat="43.50829" lon="1.5193">
        <ele>184.2</ele>
        <time>2022-07-03T11:03:10Z</time>
      </trkpt>
      <trkpt lat="43.50829" lon="1.5193">
        <ele>184.2</ele>
        <time>2022-07-03T11:03:11Z</time>
      </trkpt>
      <trkpt lat="43.50836" lon="1.51922">
        <ele>184.4</ele>
        <time>2022-07-03T11:03:12Z</time>
      </trkpt>
      <trkpt lat="43.50839" lon="1.51917">
        <ele>184.4</ele>
        <time>2022-07-03T11:03:14Z</time>
      </trkpt>
      <trkpt lat="43.50848" lon="1.51909">
        <ele>184.6</ele>
        <time>2022-07-03T11:03:15Z</time>
      </trkpt>
      <trkpt lat="43.50855" lon="1.519">
        <ele>184.8</ele>
        <time>2022-07-03T11:03:17Z</time>
      </trkpt>
      <trkpt lat="43.50862" lon="1.51893">
        <ele>184.8</ele>
        <time>2022-07-03T11:03:18Z</time>
      </trkpt>
      <trkpt lat="43.5087" lon="1.51884">
        <ele>184.8</ele>
        <time>2022-07-03T11:03:20Z</time>
      </trkpt>
      <trkpt lat="43.50893" lon="1.51862">
        <ele>185.2</ele>
        <time>2022-07-03T11:03:25Z</time>
      </trkpt>
      <trkpt lat="43.50906" lon="1.51851">
        <ele>185.4</ele>
        <time>2022-07-03T11:03:28Z</time>
      </trkpt>
      <trkpt lat="43.50931" lon="1.51828">
        <ele>185.4</ele>
        <time>2022-07-03T11:03:34Z</time>
      </trkpt>
      <trkpt lat="43.50939" lon="1.51821">
        <ele>185.4</ele>
        <time>2022-07-03T11:03:36Z</time>
      </trkpt>
      <trkpt lat="43.50947" lon="1.51814">
        <ele>185.6</ele>
        <time>2022-07-03T11:03:38Z</time>
      </trkpt>
      <trkpt lat="43.50951" lon="1.51811">
        <ele>185.6</ele>
        <time>2022-07-03T11:03:39Z</time>
      </trkpt>
      <trkpt lat="43.50955" lon="1.51808">
        <ele>185.6</ele>
        <time>2022-07-03T11:03:40Z</time>
      </trkpt>
      <trkpt lat="43.50959" lon="1.51805">
        <ele>185.6</ele>
        <time>2022-07-03T11:03:41Z</time>
      </trkpt>
      <trkpt lat="43.50963" lon="1.51803">
        <ele>185.6</ele>
        <time>2022-07-03T11:03:42Z</time>
      </trkpt>
      <trkpt lat="43.50967" lon="1.51801">
        <ele>185.6</ele>
        <time>2022-07-03T11:03:43Z</time>
      </trkpt>
      <trkpt lat="43.50976" lon="1.51797">
        <ele>185.6</ele>
        <time>2022-07-03T11:03:45Z</time>
      </trkpt>
      <trkpt lat="43.50982" lon="1.51794">
        <ele>185.6</ele>
        <time>2022-07-03T11:03:47Z</time>
      </trkpt>
      <trkpt lat="43.50985" lon="1.51792">
        <ele>185.6</ele>
        <time>2022-07-03T11:03:48Z</time>
      </trkpt>
      <trkpt lat="43.50989" lon="1.51792">
        <ele>185.6</ele>
        <time>2022-07-03T11:03:49Z</time>
      </trkpt>
      <trkpt lat="43.50993" lon="1.51791">
        <ele>185.6</ele>
        <time>2022-07-03T11:03:50Z</time>
      </trkpt>
      <trkpt lat="43.51" lon="1.51789">
        <ele>185.4</ele>
        <time>2022-07-03T11:03:52Z</time>
      </trkpt>
      <trkpt lat="43.51005" lon="1.51787">
        <ele>185.4</ele>
        <time>2022-07-03T11:03:53Z</time>
      </trkpt>
      <trkpt lat="43.51025" lon="1.51777">
        <ele>185.4</ele>
        <time>2022-07-03T11:03:58Z</time>
      </trkpt>
      <trkpt lat="43.51029" lon="1.51776">
        <ele>185.4</ele>
        <time>2022-07-03T11:03:59Z</time>
      </trkpt>
      <trkpt lat="43.51033" lon="1.51774">
        <ele>185.2</ele>
        <time>2022-07-03T11:04:00Z</time>
      </trkpt>
      <trkpt lat="43.51062" lon="1.51765">
        <ele>185.2</ele>
        <time>2022-07-03T11:04:06Z</time>
      </trkpt>
      <trkpt lat="43.51068" lon="1.51764">
        <ele>185</ele>
        <time>2022-07-03T11:04:07Z</time>
      </trkpt>
      <trkpt lat="43.51085" lon="1.51753">
        <ele>185</ele>
        <time>2022-07-03T11:04:10Z</time>
      </trkpt>
      <trkpt lat="43.51094" lon="1.51745">
        <ele>185</ele>
        <time>2022-07-03T11:04:12Z</time>
      </trkpt>
      <trkpt lat="43.51098" lon="1.51744">
        <ele>185</ele>
        <time>2022-07-03T11:04:13Z</time>
      </trkpt>
      <trkpt lat="43.51102" lon="1.51742">
        <ele>184.8</ele>
        <time>2022-07-03T11:04:14Z</time>
      </trkpt>
      <trkpt lat="43.51115" lon="1.51739">
        <ele>184.8</ele>
        <time>2022-07-03T11:04:18Z</time>
      </trkpt>
      <trkpt lat="43.51117" lon="1.51738">
        <ele>184.8</ele>
        <time>2022-07-03T11:04:19Z</time>
      </trkpt>
      <trkpt lat="43.51119" lon="1.51737">
        <ele>184.8</ele>
        <time>2022-07-03T11:04:20Z</time>
      </trkpt>
      <trkpt lat="43.51121" lon="1.51736">
        <ele>185</ele>
        <time>2022-07-03T11:04:21Z</time>
      </trkpt>
      <trkpt lat="43.51123" lon="1.51734">
        <ele>185</ele>
        <time>2022-07-03T11:04:22Z</time>
      </trkpt>
      <trkpt lat="43.51123" lon="1.51726">
        <ele>185.2</ele>
        <time>2022-07-03T11:04:24Z</time>
      </trkpt>
      <trkpt lat="43.5112" lon="1.51711">
        <ele>185.2</ele>
        <time>2022-07-03T11:04:27Z</time>
      </trkpt>
      <trkpt lat="43.51119" lon="1.51706">
        <ele>185.2</ele>
        <time>2022-07-03T11:04:28Z</time>
      </trkpt>
      <trkpt lat="43.51117" lon="1.51701">
        <ele>185.2</ele>
        <time>2022-07-03T11:04:29Z</time>
      </trkpt>
      <trkpt lat="43.51115" lon="1.51698">
        <ele>185.2</ele>
        <time>2022-07-03T11:04:30Z</time>
      </trkpt>
      <trkpt lat="43.51113" lon="1.51697">
        <ele>185</ele>
        <time>2022-07-03T11:04:31Z</time>
      </trkpt>
      <trkpt lat="43.51111" lon="1.51697">
        <ele>184.8</ele>
        <time>2022-07-03T11:04:32Z</time>
      </trkpt>
      <trkpt lat="43.5111" lon="1.51699">
        <ele>184.4</ele>
        <time>2022-07-03T11:04:33Z</time>
      </trkpt>
      <trkpt lat="43.51109" lon="1.517">
        <ele>184.4</ele>
        <time>2022-07-03T11:04:34Z</time>
      </trkpt>
      <trkpt lat="43.51108" lon="1.51702">
        <ele>184</ele>
        <time>2022-07-03T11:04:35Z</time>
      </trkpt>
      <trkpt lat="43.51106" lon="1.51704">
        <ele>183.8</ele>
        <time>2022-07-03T11:04:36Z</time>
      </trkpt>
      <trkpt lat="43.51104" lon="1.51705">
        <ele>183.6</ele>
        <time>2022-07-03T11:04:37Z</time>
      </trkpt>
      <trkpt lat="43.51101" lon="1.51707">
        <ele>183.2</ele>
        <time>2022-07-03T11:04:39Z</time>
      </trkpt>
      <trkpt lat="43.51101" lon="1.51707">
        <ele>183</ele>
        <time>2022-07-03T11:04:40Z</time>
      </trkpt>
      <trkpt lat="43.51101" lon="1.51707">
        <ele>183</ele>
        <time>2022-07-03T11:04:41Z</time>
      </trkpt>
      <trkpt lat="43.51101" lon="1.51707">
        <ele>183</ele>
        <time>2022-07-03T11:04:42Z</time>
      </trkpt>
      <trkpt lat="43.51093" lon="1.51706">
        <ele>183.4</ele>
        <time>2022-07-03T12:48:55Z</time>
      </trkpt>
      <trkpt lat="43.51095" lon="1.51703">
        <ele>183.4</ele>
        <time>2022-07-03T12:48:56Z</time>
      </trkpt>
      <trkpt lat="43.51096" lon="1.51689">
        <ele>182.4</ele>
        <time>2022-07-03T12:49:11Z</time>
      </trkpt>
      <trkpt lat="43.51096" lon="1.51686">
        <ele>182.4</ele>
        <time>2022-07-03T12:49:13Z</time>
      </trkpt>
      <trkpt lat="43.51098" lon="1.51681">
        <ele>182.2</ele>
        <time>2022-07-03T12:49:14Z</time>
      </trkpt>
      <trkpt lat="43.51102" lon="1.51679">
        <ele>182</ele>
        <time>2022-07-03T12:49:16Z</time>
      </trkpt>
      <trkpt lat="43.51103" lon="1.5168">
        <ele>182</ele>
        <time>2022-07-03T12:49:17Z</time>
      </trkpt>
      <trkpt lat="43.51105" lon="1.51681">
        <ele>181.8</ele>
        <time>2022-07-03T12:49:18Z</time>
      </trkpt>
      <trkpt lat="43.51106" lon="1.51684">
        <ele>181.8</ele>
        <time>2022-07-03T12:49:19Z</time>
      </trkpt>
      <trkpt lat="43.51108" lon="1.51688">
        <ele>181.8</ele>
        <time>2022-07-03T12:49:21Z</time>
      </trkpt>
      <trkpt lat="43.51116" lon="1.51713">
        <ele>182.2</ele>
        <time>2022-07-03T12:49:28Z</time>
      </trkpt>
      <trkpt lat="43.51119" lon="1.5172">
        <ele>182.4</ele>
        <time>2022-07-03T12:49:31Z</time>
      </trkpt>
      <trkpt lat="43.51122" lon="1.51723">
        <ele>182.4</ele>
        <time>2022-07-03T12:49:32Z</time>
      </trkpt>
      <trkpt lat="43.51124" lon="1.51723">
        <ele>182.4</ele>
        <time>2022-07-03T12:49:33Z</time>
      </trkpt>
      <trkpt lat="43.51124" lon="1.51723">
        <ele>182.6</ele>
        <time>2022-07-03T12:49:34Z</time>
      </trkpt>
      <trkpt lat="43.51127" lon="1.51722">
        <ele>182.6</ele>
        <time>2022-07-03T12:49:35Z</time>
      </trkpt>
      <trkpt lat="43.51128" lon="1.51722">
        <ele>182.8</ele>
        <time>2022-07-03T12:49:36Z</time>
      </trkpt>
      <trkpt lat="43.51129" lon="1.51722">
        <ele>182.8</ele>
        <time>2022-07-03T12:49:37Z</time>
      </trkpt>
      <trkpt lat="43.51129" lon="1.51722">
        <ele>182.8</ele>
        <time>2022-07-03T12:49:38Z</time>
      </trkpt>
      <trkpt lat="43.5113" lon="1.51722">
        <ele>182.8</ele>
        <time>2022-07-03T12:49:39Z</time>
      </trkpt>
      <trkpt lat="43.51131" lon="1.51723">
        <ele>182.8</ele>
        <time>2022-07-03T12:49:40Z</time>
      </trkpt>
      <trkpt lat="43.51142" lon="1.5172">
        <ele>182</ele>
        <time>2022-07-03T12:49:52Z</time>
      </trkpt>
      <trkpt lat="43.51146" lon="1.5172">
        <ele>182</ele>
        <time>2022-07-03T12:49:53Z</time>
      </trkpt>
      <trkpt lat="43.5117" lon="1.51713">
        <ele>181.8</ele>
        <time>2022-07-03T12:49:59Z</time>
      </trkpt>
      <trkpt lat="43.51186" lon="1.51709">
        <ele>182</ele>
        <time>2022-07-03T12:50:03Z</time>
      </trkpt>
      <trkpt lat="43.51186" lon="1.51709">
        <ele>182</ele>
        <time>2022-07-03T12:50:04Z</time>
      </trkpt>
      <trkpt lat="43.51192" lon="1.51709">
        <ele>182</ele>
        <time>2022-07-03T12:50:05Z</time>
      </trkpt>
      <trkpt lat="43.51194" lon="1.51709">
        <ele>182.2</ele>
        <time>2022-07-03T12:50:06Z</time>
      </trkpt>
      <trkpt lat="43.51195" lon="1.51709">
        <ele>182.2</ele>
        <time>2022-07-03T12:50:07Z</time>
      </trkpt>
      <trkpt lat="43.51195" lon="1.51709">
        <ele>182.2</ele>
        <time>2022-07-03T12:50:08Z</time>
      </trkpt>
      <trkpt lat="43.51196" lon="1.51709">
        <ele>182.4</ele>
        <time>2022-07-03T12:50:09Z</time>
      </trkpt>
      <trkpt lat="43.51196" lon="1.5171">
        <ele>182.4</ele>
        <time>2022-07-03T12:50:10Z</time>
      </trkpt>
      <trkpt lat="43.51209" lon="1.5172">
        <ele>184.8</ele>
        <time>2022-07-03T12:51:18Z</time>
      </trkpt>
      <trkpt lat="43.51215" lon="1.51719">
        <ele>184.8</ele>
        <time>2022-07-03T12:51:20Z</time>
      </trkpt>
      <trkpt lat="43.51232" lon="1.51716">
        <ele>185</ele>
        <time>2022-07-03T12:51:24Z</time>
      </trkpt>
      <trkpt lat="43.51237" lon="1.51714">
        <ele>185</ele>
        <time>2022-07-03T12:51:25Z</time>
      </trkpt>
      <trkpt lat="43.51251" lon="1.5171">
        <ele>185</ele>
        <time>2022-07-03T12:51:28Z</time>
      </trkpt>
      <trkpt lat="43.51256" lon="1.51709">
        <ele>185</ele>
        <time>2022-07-03T12:51:29Z</time>
      </trkpt>
      <trkpt lat="43.51265" lon="1.51707">
        <ele>185</ele>
        <time>2022-07-03T12:51:31Z</time>
      </trkpt>
      <trkpt lat="43.51284" lon="1.51703">
        <ele>185</ele>
        <time>2022-07-03T12:51:35Z</time>
      </trkpt>
      <trkpt lat="43.51288" lon="1.51701">
        <ele>185</ele>
        <time>2022-07-03T12:51:36Z</time>
      </trkpt>
      <trkpt lat="43.51292" lon="1.51701">
        <ele>185.2</ele>
        <time>2022-07-03T12:51:37Z</time>
      </trkpt>
      <trkpt lat="43.51301" lon="1.51699">
        <ele>185.2</ele>
        <time>2022-07-03T12:51:39Z</time>
      </trkpt>
      <trkpt lat="43.51306" lon="1.51698">
        <ele>185.2</ele>
        <time>2022-07-03T12:51:40Z</time>
      </trkpt>
      <trkpt lat="43.51311" lon="1.51696">
        <ele>185.4</ele>
        <time>2022-07-03T12:51:41Z</time>
      </trkpt>
      <trkpt lat="43.51316" lon="1.51695">
        <ele>185.4</ele>
        <time>2022-07-03T12:51:42Z</time>
      </trkpt>
      <trkpt lat="43.51326" lon="1.51699">
        <ele>185.4</ele>
        <time>2022-07-03T12:51:44Z</time>
      </trkpt>
      <trkpt lat="43.51329" lon="1.51702">
        <ele>185.4</ele>
        <time>2022-07-03T12:51:45Z</time>
      </trkpt>
      <trkpt lat="43.51333" lon="1.51706">
        <ele>185.4</ele>
        <time>2022-07-03T12:51:46Z</time>
      </trkpt>
      <trkpt lat="43.51336" lon="1.5171">
        <ele>185.4</ele>
        <time>2022-07-03T12:51:47Z</time>
      </trkpt>
      <trkpt lat="43.5134" lon="1.51715">
        <ele>185.4</ele>
        <time>2022-07-03T12:51:48Z</time>
      </trkpt>
      <trkpt lat="43.51343" lon="1.51721">
        <ele>185.4</ele>
        <time>2022-07-03T12:51:49Z</time>
      </trkpt>
      <trkpt lat="43.51347" lon="1.51726">
        <ele>185.2</ele>
        <time>2022-07-03T12:51:50Z</time>
      </trkpt>
      <trkpt lat="43.51352" lon="1.51729">
        <ele>185.2</ele>
        <time>2022-07-03T12:51:51Z</time>
      </trkpt>
      <trkpt lat="43.51357" lon="1.5173">
        <ele>185.2</ele>
        <time>2022-07-03T12:51:52Z</time>
      </trkpt>
      <trkpt lat="43.51363" lon="1.51728">
        <ele>185</ele>
        <time>2022-07-03T12:51:53Z</time>
      </trkpt>
      <trkpt lat="43.51381" lon="1.51725">
        <ele>184.6</ele>
        <time>2022-07-03T12:51:57Z</time>
      </trkpt>
      <trkpt lat="43.51386" lon="1.51724">
        <ele>184.4</ele>
        <time>2022-07-03T12:51:58Z</time>
      </trkpt>
      <trkpt lat="43.5139" lon="1.51724">
        <ele>184</ele>
        <time>2022-07-03T12:51:59Z</time>
      </trkpt>
      <trkpt lat="43.51395" lon="1.51724">
        <ele>183.6</ele>
        <time>2022-07-03T12:52:00Z</time>
      </trkpt>
      <trkpt lat="43.51399" lon="1.51726">
        <ele>183.4</ele>
        <time>2022-07-03T12:52:01Z</time>
      </trkpt>
      <trkpt lat="43.51402" lon="1.51731">
        <ele>183.2</ele>
        <time>2022-07-03T12:52:02Z</time>
      </trkpt>
      <trkpt lat="43.51403" lon="1.51743">
        <ele>182.6</ele>
        <time>2022-07-03T12:52:04Z</time>
      </trkpt>
      <trkpt lat="43.51403" lon="1.51756">
        <ele>182.4</ele>
        <time>2022-07-03T12:52:06Z</time>
      </trkpt>
      <trkpt lat="43.51403" lon="1.51763">
        <ele>182</ele>
        <time>2022-07-03T12:52:07Z</time>
      </trkpt>
      <trkpt lat="43.51403" lon="1.51776">
        <ele>181.8</ele>
        <time>2022-07-03T12:52:09Z</time>
      </trkpt>
      <trkpt lat="43.51404" lon="1.51783">
        <ele>181.6</ele>
        <time>2022-07-03T12:52:10Z</time>
      </trkpt>
      <trkpt lat="43.51406" lon="1.51789">
        <ele>181.2</ele>
        <time>2022-07-03T12:52:11Z</time>
      </trkpt>
      <trkpt lat="43.5141" lon="1.51795">
        <ele>180.8</ele>
        <time>2022-07-03T12:52:12Z</time>
      </trkpt>
      <trkpt lat="43.51414" lon="1.51798">
        <ele>180.6</ele>
        <time>2022-07-03T12:52:13Z</time>
      </trkpt>
      <trkpt lat="43.51418" lon="1.51801">
        <ele>180.4</ele>
        <time>2022-07-03T12:52:14Z</time>
      </trkpt>
      <trkpt lat="43.51423" lon="1.51803">
        <ele>180.4</ele>
        <time>2022-07-03T12:52:15Z</time>
      </trkpt>
      <trkpt lat="43.51428" lon="1.51805">
        <ele>180.2</ele>
        <time>2022-07-03T12:52:16Z</time>
      </trkpt>
      <trkpt lat="43.51452" lon="1.51814">
        <ele>180</ele>
        <time>2022-07-03T12:52:21Z</time>
      </trkpt>
      <trkpt lat="43.51456" lon="1.51816">
        <ele>180</ele>
        <time>2022-07-03T12:52:22Z</time>
      </trkpt>
      <trkpt lat="43.5146" lon="1.51817">
        <ele>180</ele>
        <time>2022-07-03T12:52:23Z</time>
      </trkpt>
      <trkpt lat="43.51464" lon="1.51819">
        <ele>180</ele>
        <time>2022-07-03T12:52:24Z</time>
      </trkpt>
      <trkpt lat="43.51467" lon="1.51822">
        <ele>179.8</ele>
        <time>2022-07-03T12:52:25Z</time>
      </trkpt>
      <trkpt lat="43.5147" lon="1.51824">
        <ele>179.6</ele>
        <time>2022-07-03T12:52:26Z</time>
      </trkpt>
      <trkpt lat="43.51472" lon="1.51828">
        <ele>179.6</ele>
        <time>2022-07-03T12:52:27Z</time>
      </trkpt>
      <trkpt lat="43.51473" lon="1.51833">
        <ele>179.6</ele>
        <time>2022-07-03T12:52:28Z</time>
      </trkpt>
      <trkpt lat="43.51474" lon="1.51837">
        <ele>179.6</ele>
        <time>2022-07-03T12:52:29Z</time>
      </trkpt>
      <trkpt lat="43.51474" lon="1.51842">
        <ele>179.6</ele>
        <time>2022-07-03T12:52:30Z</time>
      </trkpt>
      <trkpt lat="43.51475" lon="1.51847">
        <ele>179.6</ele>
        <time>2022-07-03T12:52:31Z</time>
      </trkpt>
      <trkpt lat="43.51475" lon="1.51852">
        <ele>179.6</ele>
        <time>2022-07-03T12:52:32Z</time>
      </trkpt>
      <trkpt lat="43.51476" lon="1.51863">
        <ele>179.6</ele>
        <time>2022-07-03T12:52:34Z</time>
      </trkpt>
      <trkpt lat="43.51477" lon="1.51869">
        <ele>179.8</ele>
        <time>2022-07-03T12:52:35Z</time>
      </trkpt>
      <trkpt lat="43.51477" lon="1.51874">
        <ele>179.8</ele>
        <time>2022-07-03T12:52:36Z</time>
      </trkpt>
      <trkpt lat="43.51482" lon="1.51898">
        <ele>180.4</ele>
        <time>2022-07-03T12:52:40Z</time>
      </trkpt>
      <trkpt lat="43.51484" lon="1.51905">
        <ele>180.6</ele>
        <time>2022-07-03T12:52:41Z</time>
      </trkpt>
      <trkpt lat="43.51489" lon="1.51918">
        <ele>181</ele>
        <time>2022-07-03T12:52:43Z</time>
      </trkpt>
      <trkpt lat="43.51494" lon="1.5193">
        <ele>181.4</ele>
        <time>2022-07-03T12:52:45Z</time>
      </trkpt>
      <trkpt lat="43.51497" lon="1.51935">
        <ele>181.4</ele>
        <time>2022-07-03T12:52:46Z</time>
      </trkpt>
      <trkpt lat="43.515" lon="1.51941">
        <ele>181.6</ele>
        <time>2022-07-03T12:52:47Z</time>
      </trkpt>
      <trkpt lat="43.51504" lon="1.51945">
        <ele>181.6</ele>
        <time>2022-07-03T12:52:48Z</time>
      </trkpt>
      <trkpt lat="43.51511" lon="1.51955">
        <ele>181.8</ele>
        <time>2022-07-03T12:52:50Z</time>
      </trkpt>
      <trkpt lat="43.51515" lon="1.5196">
        <ele>181.8</ele>
        <time>2022-07-03T12:52:51Z</time>
      </trkpt>
      <trkpt lat="43.51518" lon="1.51965">
        <ele>182</ele>
        <time>2022-07-03T12:52:52Z</time>
      </trkpt>
      <trkpt lat="43.51522" lon="1.5197">
        <ele>182.2</ele>
        <time>2022-07-03T12:52:53Z</time>
      </trkpt>
      <trkpt lat="43.51526" lon="1.51976">
        <ele>182.4</ele>
        <time>2022-07-03T12:52:54Z</time>
      </trkpt>
      <trkpt lat="43.51532" lon="1.51983">
        <ele>182.6</ele>
        <time>2022-07-03T12:52:55Z</time>
      </trkpt>
      <trkpt lat="43.51543" lon="1.51996">
        <ele>183</ele>
        <time>2022-07-03T12:52:57Z</time>
      </trkpt>
      <trkpt lat="43.51552" lon="1.52009">
        <ele>183.4</ele>
        <time>2022-07-03T12:52:59Z</time>
      </trkpt>
      <trkpt lat="43.51555" lon="1.52014">
        <ele>183.4</ele>
        <time>2022-07-03T12:53:00Z</time>
      </trkpt>
      <trkpt lat="43.51558" lon="1.5202">
        <ele>183.6</ele>
        <time>2022-07-03T12:53:01Z</time>
      </trkpt>
      <trkpt lat="43.51561" lon="1.52026">
        <ele>183.8</ele>
        <time>2022-07-03T12:53:02Z</time>
      </trkpt>
      <trkpt lat="43.51565" lon="1.52032">
        <ele>183.8</ele>
        <time>2022-07-03T12:53:03Z</time>
      </trkpt>
      <trkpt lat="43.51569" lon="1.52038">
        <ele>184</ele>
        <time>2022-07-03T12:53:04Z</time>
      </trkpt>
      <trkpt lat="43.51575" lon="1.52045">
        <ele>184</ele>
        <time>2022-07-03T12:53:05Z</time>
      </trkpt>
      <trkpt lat="43.51579" lon="1.52049">
        <ele>184</ele>
        <time>2022-07-03T12:53:06Z</time>
      </trkpt>
      <trkpt lat="43.51583" lon="1.52055">
        <ele>184.2</ele>
        <time>2022-07-03T12:53:07Z</time>
      </trkpt>
      <trkpt lat="43.51591" lon="1.5206">
        <ele>184.4</ele>
        <time>2022-07-03T12:53:08Z</time>
      </trkpt>
      <trkpt lat="43.51598" lon="1.52065">
        <ele>184.6</ele>
        <time>2022-07-03T12:53:09Z</time>
      </trkpt>
      <trkpt lat="43.51606" lon="1.52069">
        <ele>184.6</ele>
        <time>2022-07-03T12:53:10Z</time>
      </trkpt>
      <trkpt lat="43.51611" lon="1.5207">
        <ele>184.6</ele>
        <time>2022-07-03T12:53:11Z</time>
      </trkpt>
      <trkpt lat="43.51618" lon="1.5207">
        <ele>184.8</ele>
        <time>2022-07-03T12:53:12Z</time>
      </trkpt>
      <trkpt lat="43.51623" lon="1.52071">
        <ele>184.8</ele>
        <time>2022-07-03T12:53:13Z</time>
      </trkpt>
      <trkpt lat="43.51628" lon="1.52071">
        <ele>184.8</ele>
        <time>2022-07-03T12:53:14Z</time>
      </trkpt>
      <trkpt lat="43.51632" lon="1.52071">
        <ele>184.8</ele>
        <time>2022-07-03T12:53:15Z</time>
      </trkpt>
      <trkpt lat="43.51636" lon="1.52068">
        <ele>184.8</ele>
        <time>2022-07-03T12:53:16Z</time>
      </trkpt>
      <trkpt lat="43.51641" lon="1.52067">
        <ele>185</ele>
        <time>2022-07-03T12:53:17Z</time>
      </trkpt>
      <trkpt lat="43.51645" lon="1.52065">
        <ele>185</ele>
        <time>2022-07-03T12:53:18Z</time>
      </trkpt>
      <trkpt lat="43.5165" lon="1.52063">
        <ele>185</ele>
        <time>2022-07-03T12:53:19Z</time>
      </trkpt>
      <trkpt lat="43.51654" lon="1.52062">
        <ele>185.2</ele>
        <time>2022-07-03T12:53:20Z</time>
      </trkpt>
      <trkpt lat="43.51658" lon="1.52059">
        <ele>185.2</ele>
        <time>2022-07-03T12:53:21Z</time>
      </trkpt>
      <trkpt lat="43.51664" lon="1.52057">
        <ele>185.2</ele>
        <time>2022-07-03T12:53:22Z</time>
      </trkpt>
      <trkpt lat="43.51669" lon="1.52056">
        <ele>185.2</ele>
        <time>2022-07-03T12:53:23Z</time>
      </trkpt>
      <trkpt lat="43.51673" lon="1.52055">
        <ele>185.2</ele>
        <time>2022-07-03T12:53:24Z</time>
      </trkpt>
      <trkpt lat="43.51677" lon="1.52054">
        <ele>185.2</ele>
        <time>2022-07-03T12:53:25Z</time>
      </trkpt>
      <trkpt lat="43.51682" lon="1.52052">
        <ele>185.4</ele>
        <time>2022-07-03T12:53:26Z</time>
      </trkpt>
      <trkpt lat="43.51686" lon="1.5205">
        <ele>185.4</ele>
        <time>2022-07-03T12:53:27Z</time>
      </trkpt>
      <trkpt lat="43.51689" lon="1.52049">
        <ele>185.4</ele>
        <time>2022-07-03T12:53:28Z</time>
      </trkpt>
      <trkpt lat="43.51693" lon="1.52048">
        <ele>185.6</ele>
        <time>2022-07-03T12:53:29Z</time>
      </trkpt>
      <trkpt lat="43.51695" lon="1.52046">
        <ele>185.6</ele>
        <time>2022-07-03T12:53:30Z</time>
      </trkpt>
      <trkpt lat="43.51698" lon="1.52046">
        <ele>185.6</ele>
        <time>2022-07-03T12:53:31Z</time>
      </trkpt>
      <trkpt lat="43.51703" lon="1.52045">
        <ele>185.6</ele>
        <time>2022-07-03T12:53:32Z</time>
      </trkpt>
      <trkpt lat="43.51708" lon="1.52044">
        <ele>185.6</ele>
        <time>2022-07-03T12:53:33Z</time>
      </trkpt>
      <trkpt lat="43.51715" lon="1.52041">
        <ele>185.8</ele>
        <time>2022-07-03T12:53:35Z</time>
      </trkpt>
      <trkpt lat="43.51734" lon="1.52029">
        <ele>186.4</ele>
        <time>2022-07-03T12:53:40Z</time>
      </trkpt>
      <trkpt lat="43.51738" lon="1.52026">
        <ele>186.4</ele>
        <time>2022-07-03T12:53:41Z</time>
      </trkpt>
      <trkpt lat="43.5175" lon="1.52018">
        <ele>186.4</ele>
        <time>2022-07-03T12:53:44Z</time>
      </trkpt>
      <trkpt lat="43.51753" lon="1.52015">
        <ele>186.6</ele>
        <time>2022-07-03T12:53:45Z</time>
      </trkpt>
      <trkpt lat="43.5176" lon="1.52008">
        <ele>186.6</ele>
        <time>2022-07-03T12:53:47Z</time>
      </trkpt>
      <trkpt lat="43.51766" lon="1.52004">
        <ele>186.6</ele>
        <time>2022-07-03T12:53:49Z</time>
      </trkpt>
      <trkpt lat="43.51788" lon="1.51991">
        <ele>186.8</ele>
        <time>2022-07-03T12:53:54Z</time>
      </trkpt>
      <trkpt lat="43.51793" lon="1.51988">
        <ele>187</ele>
        <time>2022-07-03T12:53:55Z</time>
      </trkpt>
      <trkpt lat="43.5182" lon="1.5198">
        <ele>187.2</ele>
        <time>2022-07-03T12:54:01Z</time>
      </trkpt>
      <trkpt lat="43.51823" lon="1.51981">
        <ele>187.2</ele>
        <time>2022-07-03T12:54:02Z</time>
      </trkpt>
      <trkpt lat="43.51826" lon="1.51982">
        <ele>187.2</ele>
        <time>2022-07-03T12:54:03Z</time>
      </trkpt>
      <trkpt lat="43.5183" lon="1.51984">
        <ele>187.2</ele>
        <time>2022-07-03T12:54:04Z</time>
      </trkpt>
      <trkpt lat="43.51833" lon="1.51985">
        <ele>187.2</ele>
        <time>2022-07-03T12:54:05Z</time>
      </trkpt>
      <trkpt lat="43.51835" lon="1.51987">
        <ele>187.2</ele>
        <time>2022-07-03T12:54:06Z</time>
      </trkpt>
      <trkpt lat="43.51846" lon="1.51991">
        <ele>187.4</ele>
        <time>2022-07-03T12:54:09Z</time>
      </trkpt>
      <trkpt lat="43.51849" lon="1.51993">
        <ele>187.4</ele>
        <time>2022-07-03T12:54:10Z</time>
      </trkpt>
      <trkpt lat="43.51852" lon="1.51994">
        <ele>187.4</ele>
        <time>2022-07-03T12:54:11Z</time>
      </trkpt>
      <trkpt lat="43.51857" lon="1.51996">
        <ele>187.4</ele>
        <time>2022-07-03T12:54:12Z</time>
      </trkpt>
      <trkpt lat="43.51861" lon="1.51997">
        <ele>187.4</ele>
        <time>2022-07-03T12:54:13Z</time>
      </trkpt>
      <trkpt lat="43.51863" lon="1.51998">
        <ele>187.4</ele>
        <time>2022-07-03T12:54:14Z</time>
      </trkpt>
      <trkpt lat="43.51866" lon="1.52">
        <ele>187.4</ele>
        <time>2022-07-03T12:54:15Z</time>
      </trkpt>
      <trkpt lat="43.51882" lon="1.52006">
        <ele>187.4</ele>
        <time>2022-07-03T12:54:19Z</time>
      </trkpt>
      <trkpt lat="43.51887" lon="1.52008">
        <ele>187.4</ele>
        <time>2022-07-03T12:54:20Z</time>
      </trkpt>
      <trkpt lat="43.51932" lon="1.52021">
        <ele>187.2</ele>
        <time>2022-07-03T12:54:27Z</time>
      </trkpt>
      <trkpt lat="43.51937" lon="1.52023">
        <ele>187.2</ele>
        <time>2022-07-03T12:54:28Z</time>
      </trkpt>
      <trkpt lat="43.51948" lon="1.52025">
        <ele>187.4</ele>
        <time>2022-07-03T12:54:30Z</time>
      </trkpt>
      <trkpt lat="43.51954" lon="1.52025">
        <ele>187.4</ele>
        <time>2022-07-03T12:54:31Z</time>
      </trkpt>
      <trkpt lat="43.51965" lon="1.52025">
        <ele>187.6</ele>
        <time>2022-07-03T12:54:33Z</time>
      </trkpt>
      <trkpt lat="43.52007" lon="1.52022">
        <ele>187.8</ele>
        <time>2022-07-03T12:54:40Z</time>
      </trkpt>
      <trkpt lat="43.52013" lon="1.5202">
        <ele>187.8</ele>
        <time>2022-07-03T12:54:41Z</time>
      </trkpt>
      <trkpt lat="43.52032" lon="1.52009">
        <ele>187.8</ele>
        <time>2022-07-03T12:54:45Z</time>
      </trkpt>
      <trkpt lat="43.52051" lon="1.52001">
        <ele>188</ele>
        <time>2022-07-03T12:54:49Z</time>
      </trkpt>
      <trkpt lat="43.52056" lon="1.51998">
        <ele>188</ele>
        <time>2022-07-03T12:54:50Z</time>
      </trkpt>
      <trkpt lat="43.52064" lon="1.51992">
        <ele>188</ele>
        <time>2022-07-03T12:54:52Z</time>
      </trkpt>
      <trkpt lat="43.52095" lon="1.51968">
        <ele>188</ele>
        <time>2022-07-03T12:54:59Z</time>
      </trkpt>
      <trkpt lat="43.52099" lon="1.51966">
        <ele>188</ele>
        <time>2022-07-03T12:55:00Z</time>
      </trkpt>
      <trkpt lat="43.52103" lon="1.51965">
        <ele>188</ele>
        <time>2022-07-03T12:55:01Z</time>
      </trkpt>
      <trkpt lat="43.52106" lon="1.51964">
        <ele>188</ele>
        <time>2022-07-03T12:55:02Z</time>
      </trkpt>
      <trkpt lat="43.52109" lon="1.51963">
        <ele>188</ele>
        <time>2022-07-03T12:55:03Z</time>
      </trkpt>
      <trkpt lat="43.52112" lon="1.51962">
        <ele>188</ele>
        <time>2022-07-03T12:55:04Z</time>
      </trkpt>
      <trkpt lat="43.52115" lon="1.51962">
        <ele>188</ele>
        <time>2022-07-03T12:55:05Z</time>
      </trkpt>
      <trkpt lat="43.52119" lon="1.51962">
        <ele>188</ele>
        <time>2022-07-03T12:55:06Z</time>
      </trkpt>
      <trkpt lat="43.52122" lon="1.51962">
        <ele>188</ele>
        <time>2022-07-03T12:55:07Z</time>
      </trkpt>
      <trkpt lat="43.52129" lon="1.51962">
        <ele>188</ele>
        <time>2022-07-03T12:55:09Z</time>
      </trkpt>
      <trkpt lat="43.52133" lon="1.51962">
        <ele>188</ele>
        <time>2022-07-03T12:55:10Z</time>
      </trkpt>
      <trkpt lat="43.52142" lon="1.51962">
        <ele>188</ele>
        <time>2022-07-03T12:55:12Z</time>
      </trkpt>
      <trkpt lat="43.52152" lon="1.51962">
        <ele>188</ele>
        <time>2022-07-03T12:55:14Z</time>
      </trkpt>
      <trkpt lat="43.52156" lon="1.51962">
        <ele>188</ele>
        <time>2022-07-03T12:55:15Z</time>
      </trkpt>
      <trkpt lat="43.5216" lon="1.51961">
        <ele>188</ele>
        <time>2022-07-03T12:55:16Z</time>
      </trkpt>
      <trkpt lat="43.52165" lon="1.5196">
        <ele>188</ele>
        <time>2022-07-03T12:55:17Z</time>
      </trkpt>
      <trkpt lat="43.5217" lon="1.51959">
        <ele>188</ele>
        <time>2022-07-03T12:55:18Z</time>
      </trkpt>
      <trkpt lat="43.52174" lon="1.51958">
        <ele>188</ele>
        <time>2022-07-03T12:55:19Z</time>
      </trkpt>
      <trkpt lat="43.52187" lon="1.51955">
        <ele>188</ele>
        <time>2022-07-03T12:55:22Z</time>
      </trkpt>
      <trkpt lat="43.52189" lon="1.51955">
        <ele>188.2</ele>
        <time>2022-07-03T12:55:23Z</time>
      </trkpt>
      <trkpt lat="43.5219" lon="1.51954">
        <ele>188.2</ele>
        <time>2022-07-03T12:55:24Z</time>
      </trkpt>
      <trkpt lat="43.5219" lon="1.51954">
        <ele>188.4</ele>
        <time>2022-07-03T12:55:26Z</time>
      </trkpt>
      <trkpt lat="43.52198" lon="1.51953">
        <ele>186.6</ele>
        <time>2022-07-03T12:56:04Z</time>
      </trkpt>
      <trkpt lat="43.52201" lon="1.51952">
        <ele>186.6</ele>
        <time>2022-07-03T12:56:05Z</time>
      </trkpt>
      <trkpt lat="43.52203" lon="1.51951">
        <ele>186.6</ele>
        <time>2022-07-03T12:56:06Z</time>
      </trkpt>
      <trkpt lat="43.52206" lon="1.5195">
        <ele>186.6</ele>
        <time>2022-07-03T12:56:07Z</time>
      </trkpt>
      <trkpt lat="43.52219" lon="1.51948">
        <ele>186.6</ele>
        <time>2022-07-03T12:56:11Z</time>
      </trkpt>
      <trkpt lat="43.52223" lon="1.51946">
        <ele>186.4</ele>
        <time>2022-07-03T12:56:13Z</time>
      </trkpt>
      <trkpt lat="43.52234" lon="1.51942">
        <ele>186.4</ele>
        <time>2022-07-03T12:56:16Z</time>
      </trkpt>
      <trkpt lat="43.52253" lon="1.51934">
        <ele>186</ele>
        <time>2022-07-03T12:56:21Z</time>
      </trkpt>
      <trkpt lat="43.52269" lon="1.51927">
        <ele>185.6</ele>
        <time>2022-07-03T12:56:25Z</time>
      </trkpt>
      <trkpt lat="43.52274" lon="1.51925">
        <ele>185.4</ele>
        <time>2022-07-03T12:56:26Z</time>
      </trkpt>
      <trkpt lat="43.52304" lon="1.51917">
        <ele>184.4</ele>
        <time>2022-07-03T12:56:33Z</time>
      </trkpt>
      <trkpt lat="43.52307" lon="1.51914">
        <ele>184.4</ele>
        <time>2022-07-03T12:56:34Z</time>
      </trkpt>
      <trkpt lat="43.52331" lon="1.51899">
        <ele>183.2</ele>
        <time>2022-07-03T12:56:40Z</time>
      </trkpt>
      <trkpt lat="43.52335" lon="1.51896">
        <ele>183</ele>
        <time>2022-07-03T12:56:41Z</time>
      </trkpt>
      <trkpt lat="43.52348" lon="1.51891">
        <ele>182.4</ele>
        <time>2022-07-03T12:56:44Z</time>
      </trkpt>
      <trkpt lat="43.52352" lon="1.5189">
        <ele>182.2</ele>
        <time>2022-07-03T12:56:45Z</time>
      </trkpt>
      <trkpt lat="43.52367" lon="1.51888">
        <ele>181.6</ele>
        <time>2022-07-03T12:56:48Z</time>
      </trkpt>
      <trkpt lat="43.52381" lon="1.51886">
        <ele>181</ele>
        <time>2022-07-03T12:56:51Z</time>
      </trkpt>
      <trkpt lat="43.52385" lon="1.51884">
        <ele>180.8</ele>
        <time>2022-07-03T12:56:52Z</time>
      </trkpt>
      <trkpt lat="43.52393" lon="1.51881">
        <ele>180.6</ele>
        <time>2022-07-03T12:56:54Z</time>
      </trkpt>
      <trkpt lat="43.52397" lon="1.51879">
        <ele>180.6</ele>
        <time>2022-07-03T12:56:55Z</time>
      </trkpt>
      <trkpt lat="43.52401" lon="1.51878">
        <ele>180.4</ele>
        <time>2022-07-03T12:56:56Z</time>
      </trkpt>
      <trkpt lat="43.52404" lon="1.51876">
        <ele>180.2</ele>
        <time>2022-07-03T12:56:57Z</time>
      </trkpt>
      <trkpt lat="43.52407" lon="1.51875">
        <ele>180</ele>
        <time>2022-07-03T12:56:58Z</time>
      </trkpt>
      <trkpt lat="43.5241" lon="1.51875">
        <ele>180</ele>
        <time>2022-07-03T12:56:59Z</time>
      </trkpt>
      <trkpt lat="43.52416" lon="1.51874">
        <ele>180</ele>
        <time>2022-07-03T12:57:00Z</time>
      </trkpt>
      <trkpt lat="43.52432" lon="1.51868">
        <ele>179.6</ele>
        <time>2022-07-03T12:57:03Z</time>
      </trkpt>
      <trkpt lat="43.52459" lon="1.51853">
        <ele>179.2</ele>
        <time>2022-07-03T12:57:07Z</time>
      </trkpt>
      <trkpt lat="43.52473" lon="1.51844">
        <ele>178.8</ele>
        <time>2022-07-03T12:57:09Z</time>
      </trkpt>
      <trkpt lat="43.52479" lon="1.51839">
        <ele>178.4</ele>
        <time>2022-07-03T12:57:10Z</time>
      </trkpt>
      <trkpt lat="43.52485" lon="1.51835">
        <ele>178.4</ele>
        <time>2022-07-03T12:57:11Z</time>
      </trkpt>
      <trkpt lat="43.52491" lon="1.5183">
        <ele>178.4</ele>
        <time>2022-07-03T12:57:12Z</time>
      </trkpt>
      <trkpt lat="43.52496" lon="1.51825">
        <ele>178</ele>
        <time>2022-07-03T12:57:13Z</time>
      </trkpt>
      <trkpt lat="43.52507" lon="1.51814">
        <ele>177.4</ele>
        <time>2022-07-03T12:57:15Z</time>
      </trkpt>
      <trkpt lat="43.52512" lon="1.5181">
        <ele>177</ele>
        <time>2022-07-03T12:57:16Z</time>
      </trkpt>
      <trkpt lat="43.52517" lon="1.51805">
        <ele>176.8</ele>
        <time>2022-07-03T12:57:17Z</time>
      </trkpt>
      <trkpt lat="43.52522" lon="1.518">
        <ele>176.4</ele>
        <time>2022-07-03T12:57:18Z</time>
      </trkpt>
      <trkpt lat="43.52526" lon="1.51795">
        <ele>176.6</ele>
        <time>2022-07-03T12:57:19Z</time>
      </trkpt>
      <trkpt lat="43.52531" lon="1.5179">
        <ele>176.6</ele>
        <time>2022-07-03T12:57:20Z</time>
      </trkpt>
      <trkpt lat="43.52535" lon="1.51784">
        <ele>176.4</ele>
        <time>2022-07-03T12:57:21Z</time>
      </trkpt>
      <trkpt lat="43.52538" lon="1.51779">
        <ele>176.2</ele>
        <time>2022-07-03T12:57:22Z</time>
      </trkpt>
      <trkpt lat="43.52542" lon="1.51774">
        <ele>175.8</ele>
        <time>2022-07-03T12:57:23Z</time>
      </trkpt>
      <trkpt lat="43.52545" lon="1.51769">
        <ele>176</ele>
        <time>2022-07-03T12:57:24Z</time>
      </trkpt>
      <trkpt lat="43.52548" lon="1.51764">
        <ele>175.6</ele>
        <time>2022-07-03T12:57:25Z</time>
      </trkpt>
      <trkpt lat="43.52551" lon="1.51759">
        <ele>175.6</ele>
        <time>2022-07-03T12:57:26Z</time>
      </trkpt>
      <trkpt lat="43.52553" lon="1.51755">
        <ele>175.4</ele>
        <time>2022-07-03T12:57:27Z</time>
      </trkpt>
      <trkpt lat="43.52556" lon="1.5175">
        <ele>175.2</ele>
        <time>2022-07-03T12:57:28Z</time>
      </trkpt>
      <trkpt lat="43.52572" lon="1.51713">
        <ele>174.6</ele>
        <time>2022-07-03T12:57:35Z</time>
      </trkpt>
      <trkpt lat="43.52575" lon="1.51708">
        <ele>174.6</ele>
        <time>2022-07-03T12:57:36Z</time>
      </trkpt>
      <trkpt lat="43.52591" lon="1.51662">
        <ele>174.2</ele>
        <time>2022-07-03T12:57:44Z</time>
      </trkpt>
      <trkpt lat="43.52593" lon="1.51657">
        <ele>174</ele>
        <time>2022-07-03T12:57:45Z</time>
      </trkpt>
      <trkpt lat="43.52596" lon="1.51646">
        <ele>174</ele>
        <time>2022-07-03T12:57:47Z</time>
      </trkpt>
      <trkpt lat="43.52598" lon="1.51641">
        <ele>174</ele>
        <time>2022-07-03T12:57:48Z</time>
      </trkpt>
      <trkpt lat="43.526" lon="1.51636">
        <ele>173.8</ele>
        <time>2022-07-03T12:57:49Z</time>
      </trkpt>
      <trkpt lat="43.52601" lon="1.51631">
        <ele>173.8</ele>
        <time>2022-07-03T12:57:50Z</time>
      </trkpt>
      <trkpt lat="43.52603" lon="1.51626">
        <ele>173.8</ele>
        <time>2022-07-03T12:57:51Z</time>
      </trkpt>
      <trkpt lat="43.52605" lon="1.5162">
        <ele>173.8</ele>
        <time>2022-07-03T12:57:52Z</time>
      </trkpt>
      <trkpt lat="43.52606" lon="1.51615">
        <ele>173.8</ele>
        <time>2022-07-03T12:57:53Z</time>
      </trkpt>
      <trkpt lat="43.52613" lon="1.51574">
        <ele>173.8</ele>
        <time>2022-07-03T12:58:00Z</time>
      </trkpt>
      <trkpt lat="43.52615" lon="1.51568">
        <ele>173.8</ele>
        <time>2022-07-03T12:58:01Z</time>
      </trkpt>
      <trkpt lat="43.52618" lon="1.51564">
        <ele>174</ele>
        <time>2022-07-03T12:58:02Z</time>
      </trkpt>
      <trkpt lat="43.52621" lon="1.51559">
        <ele>174</ele>
        <time>2022-07-03T12:58:03Z</time>
      </trkpt>
      <trkpt lat="43.52623" lon="1.51555">
        <ele>174.2</ele>
        <time>2022-07-03T12:58:04Z</time>
      </trkpt>
      <trkpt lat="43.52625" lon="1.5155">
        <ele>174.2</ele>
        <time>2022-07-03T12:58:05Z</time>
      </trkpt>
      <trkpt lat="43.52626" lon="1.51544">
        <ele>174.2</ele>
        <time>2022-07-03T12:58:06Z</time>
      </trkpt>
      <trkpt lat="43.52627" lon="1.51539">
        <ele>174.2</ele>
        <time>2022-07-03T12:58:07Z</time>
      </trkpt>
      <trkpt lat="43.52628" lon="1.51534">
        <ele>174.4</ele>
        <time>2022-07-03T12:58:08Z</time>
      </trkpt>
      <trkpt lat="43.52628" lon="1.51528">
        <ele>174.4</ele>
        <time>2022-07-03T12:58:09Z</time>
      </trkpt>
      <trkpt lat="43.52629" lon="1.51523">
        <ele>174.4</ele>
        <time>2022-07-03T12:58:10Z</time>
      </trkpt>
      <trkpt lat="43.52632" lon="1.51499">
        <ele>174.4</ele>
        <time>2022-07-03T12:58:14Z</time>
      </trkpt>
      <trkpt lat="43.52638" lon="1.51443">
        <ele>174.4</ele>
        <time>2022-07-03T12:58:23Z</time>
      </trkpt>
      <trkpt lat="43.52643" lon="1.51382">
        <ele>174.8</ele>
        <time>2022-07-03T12:58:33Z</time>
      </trkpt>
      <trkpt lat="43.52643" lon="1.51376">
        <ele>174.8</ele>
        <time>2022-07-03T12:58:34Z</time>
      </trkpt>
      <trkpt lat="43.52644" lon="1.5137">
        <ele>175</ele>
        <time>2022-07-03T12:58:35Z</time>
      </trkpt>
      <trkpt lat="43.52645" lon="1.51364">
        <ele>175</ele>
        <time>2022-07-03T12:58:36Z</time>
      </trkpt>
      <trkpt lat="43.52645" lon="1.51358">
        <ele>175.2</ele>
        <time>2022-07-03T12:58:37Z</time>
      </trkpt>
      <trkpt lat="43.52646" lon="1.51339">
        <ele>175.6</ele>
        <time>2022-07-03T12:58:40Z</time>
      </trkpt>
      <trkpt lat="43.52647" lon="1.51313">
        <ele>176</ele>
        <time>2022-07-03T12:58:44Z</time>
      </trkpt>
      <trkpt lat="43.52649" lon="1.5124">
        <ele>176.4</ele>
        <time>2022-07-03T12:58:54Z</time>
      </trkpt>
      <trkpt lat="43.52657" lon="1.51159">
        <ele>176.4</ele>
        <time>2022-07-03T12:59:05Z</time>
      </trkpt>
      <trkpt lat="43.52662" lon="1.51132">
        <ele>176.6</ele>
        <time>2022-07-03T12:59:09Z</time>
      </trkpt>
      <trkpt lat="43.52664" lon="1.51125">
        <ele>176.6</ele>
        <time>2022-07-03T12:59:10Z</time>
      </trkpt>
      <trkpt lat="43.52665" lon="1.51119">
        <ele>176.8</ele>
        <time>2022-07-03T12:59:11Z</time>
      </trkpt>
      <trkpt lat="43.52667" lon="1.51113">
        <ele>176.8</ele>
        <time>2022-07-03T12:59:12Z</time>
      </trkpt>
      <trkpt lat="43.52668" lon="1.51107">
        <ele>177.2</ele>
        <time>2022-07-03T12:59:13Z</time>
      </trkpt>
      <trkpt lat="43.52669" lon="1.51101">
        <ele>177.4</ele>
        <time>2022-07-03T12:59:14Z</time>
      </trkpt>
      <trkpt lat="43.5267" lon="1.51096">
        <ele>177.6</ele>
        <time>2022-07-03T12:59:15Z</time>
      </trkpt>
      <trkpt lat="43.52672" lon="1.51091">
        <ele>177.8</ele>
        <time>2022-07-03T12:59:16Z</time>
      </trkpt>
      <trkpt lat="43.52673" lon="1.51085">
        <ele>178</ele>
        <time>2022-07-03T12:59:17Z</time>
      </trkpt>
      <trkpt lat="43.52674" lon="1.51079">
        <ele>178.4</ele>
        <time>2022-07-03T12:59:18Z</time>
      </trkpt>
      <trkpt lat="43.52678" lon="1.51064">
        <ele>178.8</ele>
        <time>2022-07-03T12:59:20Z</time>
      </trkpt>
      <trkpt lat="43.5268" lon="1.51057">
        <ele>179.2</ele>
        <time>2022-07-03T12:59:21Z</time>
      </trkpt>
      <trkpt lat="43.52682" lon="1.51051">
        <ele>179.4</ele>
        <time>2022-07-03T12:59:22Z</time>
      </trkpt>
      <trkpt lat="43.52684" lon="1.51045">
        <ele>179.6</ele>
        <time>2022-07-03T12:59:23Z</time>
      </trkpt>
      <trkpt lat="43.52687" lon="1.51039">
        <ele>180</ele>
        <time>2022-07-03T12:59:24Z</time>
      </trkpt>
      <trkpt lat="43.52692" lon="1.51025">
        <ele>180.4</ele>
        <time>2022-07-03T12:59:25Z</time>
      </trkpt>
      <trkpt lat="43.52692" lon="1.51025">
        <ele>180.8</ele>
        <time>2022-07-03T12:59:26Z</time>
      </trkpt>
      <trkpt lat="43.52697" lon="1.51013">
        <ele>180.8</ele>
        <time>2022-07-03T12:59:27Z</time>
      </trkpt>
      <trkpt lat="43.52697" lon="1.51013">
        <ele>181.2</ele>
        <time>2022-07-03T12:59:28Z</time>
      </trkpt>
      <trkpt lat="43.527" lon="1.51005">
        <ele>181.4</ele>
        <time>2022-07-03T12:59:29Z</time>
      </trkpt>
      <trkpt lat="43.52707" lon="1.50992">
        <ele>181.8</ele>
        <time>2022-07-03T12:59:30Z</time>
      </trkpt>
      <trkpt lat="43.5271" lon="1.50985">
        <ele>182</ele>
        <time>2022-07-03T12:59:31Z</time>
      </trkpt>
      <trkpt lat="43.52714" lon="1.50978">
        <ele>182.2</ele>
        <time>2022-07-03T12:59:32Z</time>
      </trkpt>
      <trkpt lat="43.52718" lon="1.50971">
        <ele>182.4</ele>
        <time>2022-07-03T12:59:33Z</time>
      </trkpt>
      <trkpt lat="43.52721" lon="1.50965">
        <ele>182.6</ele>
        <time>2022-07-03T12:59:34Z</time>
      </trkpt>
      <trkpt lat="43.52725" lon="1.50959">
        <ele>183.2</ele>
        <time>2022-07-03T12:59:35Z</time>
      </trkpt>
      <trkpt lat="43.52728" lon="1.50952">
        <ele>183.2</ele>
        <time>2022-07-03T12:59:36Z</time>
      </trkpt>
      <trkpt lat="43.52728" lon="1.50952">
        <ele>183.4</ele>
        <time>2022-07-03T12:59:37Z</time>
      </trkpt>
      <trkpt lat="43.52732" lon="1.50946">
        <ele>183.6</ele>
        <time>2022-07-03T12:59:38Z</time>
      </trkpt>
      <trkpt lat="43.5274" lon="1.50933">
        <ele>183.6</ele>
        <time>2022-07-03T12:59:39Z</time>
      </trkpt>
      <trkpt lat="43.52745" lon="1.50927">
        <ele>183.8</ele>
        <time>2022-07-03T12:59:40Z</time>
      </trkpt>
      <trkpt lat="43.52745" lon="1.50927">
        <ele>183.8</ele>
        <time>2022-07-03T12:59:41Z</time>
      </trkpt>
      <trkpt lat="43.52754" lon="1.50915">
        <ele>183.8</ele>
        <time>2022-07-03T12:59:42Z</time>
      </trkpt>
      <trkpt lat="43.52759" lon="1.50909">
        <ele>183.8</ele>
        <time>2022-07-03T12:59:43Z</time>
      </trkpt>
      <trkpt lat="43.52759" lon="1.50909">
        <ele>183.8</ele>
        <time>2022-07-03T12:59:44Z</time>
      </trkpt>
      <trkpt lat="43.52764" lon="1.50904">
        <ele>183.8</ele>
        <time>2022-07-03T12:59:45Z</time>
      </trkpt>
      <trkpt lat="43.52776" lon="1.50893">
        <ele>183.8</ele>
        <time>2022-07-03T12:59:46Z</time>
      </trkpt>
      <trkpt lat="43.52781" lon="1.50889">
        <ele>183.8</ele>
        <time>2022-07-03T12:59:47Z</time>
      </trkpt>
      <trkpt lat="43.52786" lon="1.50885">
        <ele>183.8</ele>
        <time>2022-07-03T12:59:48Z</time>
      </trkpt>
      <trkpt lat="43.52791" lon="1.50881">
        <ele>183.6</ele>
        <time>2022-07-03T12:59:49Z</time>
      </trkpt>
      <trkpt lat="43.52796" lon="1.50878">
        <ele>183.4</ele>
        <time>2022-07-03T12:59:50Z</time>
      </trkpt>
      <trkpt lat="43.52801" lon="1.50875">
        <ele>183.2</ele>
        <time>2022-07-03T12:59:51Z</time>
      </trkpt>
      <trkpt lat="43.52806" lon="1.50872">
        <ele>183</ele>
        <time>2022-07-03T12:59:52Z</time>
      </trkpt>
      <trkpt lat="43.52806" lon="1.50872">
        <ele>183</ele>
        <time>2022-07-03T12:59:53Z</time>
      </trkpt>
      <trkpt lat="43.52814" lon="1.50868">
        <ele>182.8</ele>
        <time>2022-07-03T12:59:54Z</time>
      </trkpt>
      <trkpt lat="43.52819" lon="1.50866">
        <ele>182.8</ele>
        <time>2022-07-03T12:59:55Z</time>
      </trkpt>
      <trkpt lat="43.52823" lon="1.50864">
        <ele>182.8</ele>
        <time>2022-07-03T12:59:56Z</time>
      </trkpt>
      <trkpt lat="43.52846" lon="1.50851">
        <ele>183</ele>
        <time>2022-07-03T13:00:01Z</time>
      </trkpt>
      <trkpt lat="43.52882" lon="1.50824">
        <ele>184.6</ele>
        <time>2022-07-03T13:00:09Z</time>
      </trkpt>
      <trkpt lat="43.5289" lon="1.50816">
        <ele>184.8</ele>
        <time>2022-07-03T13:00:11Z</time>
      </trkpt>
      <trkpt lat="43.52916" lon="1.50787">
        <ele>185.6</ele>
        <time>2022-07-03T13:00:17Z</time>
      </trkpt>
      <trkpt lat="43.5292" lon="1.50783">
        <ele>186</ele>
        <time>2022-07-03T13:00:18Z</time>
      </trkpt>
      <trkpt lat="43.52932" lon="1.50768">
        <ele>186.4</ele>
        <time>2022-07-03T13:00:21Z</time>
      </trkpt>
      <trkpt lat="43.52936" lon="1.50764">
        <ele>186.4</ele>
        <time>2022-07-03T13:00:22Z</time>
      </trkpt>
      <trkpt lat="43.5294" lon="1.5076">
        <ele>186.4</ele>
        <time>2022-07-03T13:00:23Z</time>
      </trkpt>
      <trkpt lat="43.52945" lon="1.50755">
        <ele>186.6</ele>
        <time>2022-07-03T13:00:24Z</time>
      </trkpt>
      <trkpt lat="43.5295" lon="1.50749">
        <ele>186.8</ele>
        <time>2022-07-03T13:00:25Z</time>
      </trkpt>
      <trkpt lat="43.52955" lon="1.50744">
        <ele>187</ele>
        <time>2022-07-03T13:00:26Z</time>
      </trkpt>
      <trkpt lat="43.52959" lon="1.50739">
        <ele>187</ele>
        <time>2022-07-03T13:00:27Z</time>
      </trkpt>
      <trkpt lat="43.52963" lon="1.50734">
        <ele>187.2</ele>
        <time>2022-07-03T13:00:28Z</time>
      </trkpt>
      <trkpt lat="43.52967" lon="1.50729">
        <ele>187.2</ele>
        <time>2022-07-03T13:00:29Z</time>
      </trkpt>
      <trkpt lat="43.52967" lon="1.50729">
        <ele>187.4</ele>
        <time>2022-07-03T13:00:30Z</time>
      </trkpt>
      <trkpt lat="43.52975" lon="1.5072">
        <ele>187.4</ele>
        <time>2022-07-03T13:00:31Z</time>
      </trkpt>
      <trkpt lat="43.5298" lon="1.50715">
        <ele>187.6</ele>
        <time>2022-07-03T13:00:32Z</time>
      </trkpt>
      <trkpt lat="43.5298" lon="1.50715">
        <ele>187.6</ele>
        <time>2022-07-03T13:00:33Z</time>
      </trkpt>
      <trkpt lat="43.52989" lon="1.50705">
        <ele>187.6</ele>
        <time>2022-07-03T13:00:34Z</time>
      </trkpt>
      <trkpt lat="43.52992" lon="1.507">
        <ele>187.8</ele>
        <time>2022-07-03T13:00:35Z</time>
      </trkpt>
      <trkpt lat="43.52997" lon="1.50696">
        <ele>187.8</ele>
        <time>2022-07-03T13:00:36Z</time>
      </trkpt>
      <trkpt lat="43.53" lon="1.5069">
        <ele>188</ele>
        <time>2022-07-03T13:00:37Z</time>
      </trkpt>
      <trkpt lat="43.53004" lon="1.50685">
        <ele>188.2</ele>
        <time>2022-07-03T13:00:38Z</time>
      </trkpt>
      <trkpt lat="43.53008" lon="1.5068">
        <ele>188.2</ele>
        <time>2022-07-03T13:00:39Z</time>
      </trkpt>
      <trkpt lat="43.53014" lon="1.50674">
        <ele>188.4</ele>
        <time>2022-07-03T13:00:40Z</time>
      </trkpt>
      <trkpt lat="43.53019" lon="1.50669">
        <ele>188.4</ele>
        <time>2022-07-03T13:00:41Z</time>
      </trkpt>
      <trkpt lat="43.53025" lon="1.50664">
        <ele>188.4</ele>
        <time>2022-07-03T13:00:42Z</time>
      </trkpt>
      <trkpt lat="43.53031" lon="1.50659">
        <ele>188.6</ele>
        <time>2022-07-03T13:00:43Z</time>
      </trkpt>
      <trkpt lat="43.53031" lon="1.50659">
        <ele>188.6</ele>
        <time>2022-07-03T13:00:44Z</time>
      </trkpt>
      <trkpt lat="43.53045" lon="1.50649">
        <ele>188.6</ele>
        <time>2022-07-03T13:00:45Z</time>
      </trkpt>
      <trkpt lat="43.53052" lon="1.50645">
        <ele>188.6</ele>
        <time>2022-07-03T13:00:46Z</time>
      </trkpt>
      <trkpt lat="43.53058" lon="1.50642">
        <ele>188.6</ele>
        <time>2022-07-03T13:00:47Z</time>
      </trkpt>
      <trkpt lat="43.53063" lon="1.50639">
        <ele>188.6</ele>
        <time>2022-07-03T13:00:48Z</time>
      </trkpt>
      <trkpt lat="43.53069" lon="1.50635">
        <ele>188.6</ele>
        <time>2022-07-03T13:00:49Z</time>
      </trkpt>
      <trkpt lat="43.53075" lon="1.50631">
        <ele>188.6</ele>
        <time>2022-07-03T13:00:50Z</time>
      </trkpt>
      <trkpt lat="43.53081" lon="1.50628">
        <ele>188.6</ele>
        <time>2022-07-03T13:00:51Z</time>
      </trkpt>
      <trkpt lat="43.5309" lon="1.50624">
        <ele>188.6</ele>
        <time>2022-07-03T13:00:53Z</time>
      </trkpt>
      <trkpt lat="43.53095" lon="1.50621">
        <ele>188.6</ele>
        <time>2022-07-03T13:00:54Z</time>
      </trkpt>
      <trkpt lat="43.53102" lon="1.50618">
        <ele>188.6</ele>
        <time>2022-07-03T13:00:55Z</time>
      </trkpt>
      <trkpt lat="43.53122" lon="1.50604">
        <ele>189</ele>
        <time>2022-07-03T13:00:59Z</time>
      </trkpt>
      <trkpt lat="43.53126" lon="1.506">
        <ele>189</ele>
        <time>2022-07-03T13:01:00Z</time>
      </trkpt>
      <trkpt lat="43.53129" lon="1.50598">
        <ele>189</ele>
        <time>2022-07-03T13:01:01Z</time>
      </trkpt>
      <trkpt lat="43.53133" lon="1.50595">
        <ele>189</ele>
        <time>2022-07-03T13:01:02Z</time>
      </trkpt>
      <trkpt lat="43.53136" lon="1.50594">
        <ele>189</ele>
        <time>2022-07-03T13:01:03Z</time>
      </trkpt>
      <trkpt lat="43.5314" lon="1.50593">
        <ele>189</ele>
        <time>2022-07-03T13:01:04Z</time>
      </trkpt>
      <trkpt lat="43.53144" lon="1.50592">
        <ele>189</ele>
        <time>2022-07-03T13:01:05Z</time>
      </trkpt>
      <trkpt lat="43.53148" lon="1.5059">
        <ele>189</ele>
        <time>2022-07-03T13:01:06Z</time>
      </trkpt>
      <trkpt lat="43.53192" lon="1.50577">
        <ele>189</ele>
        <time>2022-07-03T13:01:15Z</time>
      </trkpt>
      <trkpt lat="43.53203" lon="1.50574">
        <ele>188.8</ele>
        <time>2022-07-03T13:01:17Z</time>
      </trkpt>
      <trkpt lat="43.53229" lon="1.50567">
        <ele>188.8</ele>
        <time>2022-07-03T13:01:22Z</time>
      </trkpt>
      <trkpt lat="43.53234" lon="1.50565">
        <ele>188.8</ele>
        <time>2022-07-03T13:01:23Z</time>
      </trkpt>
      <trkpt lat="43.5326" lon="1.5056">
        <ele>189</ele>
        <time>2022-07-03T13:01:28Z</time>
      </trkpt>
      <trkpt lat="43.53266" lon="1.50558">
        <ele>189</ele>
        <time>2022-07-03T13:01:29Z</time>
      </trkpt>
      <trkpt lat="43.53271" lon="1.50556">
        <ele>189</ele>
        <time>2022-07-03T13:01:30Z</time>
      </trkpt>
      <trkpt lat="43.53298" lon="1.5055">
        <ele>189</ele>
        <time>2022-07-03T13:01:35Z</time>
      </trkpt>
      <trkpt lat="43.53314" lon="1.50548">
        <ele>189</ele>
        <time>2022-07-03T13:01:38Z</time>
      </trkpt>
      <trkpt lat="43.53319" lon="1.50547">
        <ele>189</ele>
        <time>2022-07-03T13:01:39Z</time>
      </trkpt>
      <trkpt lat="43.53334" lon="1.50545">
        <ele>189</ele>
        <time>2022-07-03T13:01:43Z</time>
      </trkpt>
      <trkpt lat="43.53343" lon="1.50543">
        <ele>189</ele>
        <time>2022-07-03T13:01:44Z</time>
      </trkpt>
      <trkpt lat="43.53348" lon="1.50542">
        <ele>189</ele>
        <time>2022-07-03T13:01:45Z</time>
      </trkpt>
      <trkpt lat="43.53353" lon="1.50541">
        <ele>189</ele>
        <time>2022-07-03T13:01:46Z</time>
      </trkpt>
      <trkpt lat="43.53358" lon="1.5054">
        <ele>189</ele>
        <time>2022-07-03T13:01:47Z</time>
      </trkpt>
      <trkpt lat="43.53363" lon="1.50539">
        <ele>189</ele>
        <time>2022-07-03T13:01:48Z</time>
      </trkpt>
      <trkpt lat="43.53373" lon="1.50539">
        <ele>189</ele>
        <time>2022-07-03T13:01:50Z</time>
      </trkpt>
      <trkpt lat="43.53377" lon="1.50538">
        <ele>189</ele>
        <time>2022-07-03T13:01:51Z</time>
      </trkpt>
      <trkpt lat="43.53403" lon="1.50529">
        <ele>188.8</ele>
        <time>2022-07-03T13:01:57Z</time>
      </trkpt>
      <trkpt lat="43.5342" lon="1.50521">
        <ele>188.8</ele>
        <time>2022-07-03T13:02:01Z</time>
      </trkpt>
      <trkpt lat="43.53433" lon="1.50513">
        <ele>188.8</ele>
        <time>2022-07-03T13:02:04Z</time>
      </trkpt>
      <trkpt lat="43.53453" lon="1.50499">
        <ele>189</ele>
        <time>2022-07-03T13:02:08Z</time>
      </trkpt>
      <trkpt lat="43.53458" lon="1.50496">
        <ele>189</ele>
        <time>2022-07-03T13:02:09Z</time>
      </trkpt>
      <trkpt lat="43.53463" lon="1.50492">
        <ele>189</ele>
        <time>2022-07-03T13:02:10Z</time>
      </trkpt>
      <trkpt lat="43.53481" lon="1.50477">
        <ele>189</ele>
        <time>2022-07-03T13:02:14Z</time>
      </trkpt>
      <trkpt lat="43.53485" lon="1.50474">
        <ele>189</ele>
        <time>2022-07-03T13:02:15Z</time>
      </trkpt>
      <trkpt lat="43.5349" lon="1.50471">
        <ele>189</ele>
        <time>2022-07-03T13:02:16Z</time>
      </trkpt>
      <trkpt lat="43.53494" lon="1.50468">
        <ele>189</ele>
        <time>2022-07-03T13:02:17Z</time>
      </trkpt>
      <trkpt lat="43.53499" lon="1.50464">
        <ele>189</ele>
        <time>2022-07-03T13:02:18Z</time>
      </trkpt>
      <trkpt lat="43.53503" lon="1.5046">
        <ele>189</ele>
        <time>2022-07-03T13:02:19Z</time>
      </trkpt>
      <trkpt lat="43.53514" lon="1.50451">
        <ele>189</ele>
        <time>2022-07-03T13:02:21Z</time>
      </trkpt>
      <trkpt lat="43.53525" lon="1.50443">
        <ele>188.8</ele>
        <time>2022-07-03T13:02:23Z</time>
      </trkpt>
      <trkpt lat="43.5353" lon="1.50439">
        <ele>188.8</ele>
        <time>2022-07-03T13:02:24Z</time>
      </trkpt>
      <trkpt lat="43.53534" lon="1.50435">
        <ele>188.8</ele>
        <time>2022-07-03T13:02:25Z</time>
      </trkpt>
      <trkpt lat="43.53538" lon="1.50431">
        <ele>188.6</ele>
        <time>2022-07-03T13:02:26Z</time>
      </trkpt>
      <trkpt lat="43.53538" lon="1.50431">
        <ele>188.6</ele>
        <time>2022-07-03T13:02:27Z</time>
      </trkpt>
      <trkpt lat="43.53564" lon="1.50408">
        <ele>188.6</ele>
        <time>2022-07-03T13:02:31Z</time>
      </trkpt>
      <trkpt lat="43.53587" lon="1.50386">
        <ele>188.4</ele>
        <time>2022-07-03T13:02:36Z</time>
      </trkpt>
      <trkpt lat="43.536" lon="1.50373">
        <ele>188.4</ele>
        <time>2022-07-03T13:02:39Z</time>
      </trkpt>
      <trkpt lat="43.53604" lon="1.50368">
        <ele>188.4</ele>
        <time>2022-07-03T13:02:40Z</time>
      </trkpt>
      <trkpt lat="43.5362" lon="1.5035">
        <ele>188.4</ele>
        <time>2022-07-03T13:02:44Z</time>
      </trkpt>
      <trkpt lat="43.53623" lon="1.50345">
        <ele>188.4</ele>
        <time>2022-07-03T13:02:45Z</time>
      </trkpt>
      <trkpt lat="43.53626" lon="1.50341">
        <ele>188.4</ele>
        <time>2022-07-03T13:02:46Z</time>
      </trkpt>
      <trkpt lat="43.5363" lon="1.50336">
        <ele>188.4</ele>
        <time>2022-07-03T13:02:47Z</time>
      </trkpt>
      <trkpt lat="43.53639" lon="1.50324">
        <ele>188.4</ele>
        <time>2022-07-03T13:02:50Z</time>
      </trkpt>
      <trkpt lat="43.53649" lon="1.5031">
        <ele>188.6</ele>
        <time>2022-07-03T13:02:53Z</time>
      </trkpt>
      <trkpt lat="43.53652" lon="1.50306">
        <ele>188.6</ele>
        <time>2022-07-03T13:02:54Z</time>
      </trkpt>
      <trkpt lat="43.53656" lon="1.50301">
        <ele>188.4</ele>
        <time>2022-07-03T13:02:55Z</time>
      </trkpt>
      <trkpt lat="43.5366" lon="1.50296">
        <ele>188.4</ele>
        <time>2022-07-03T13:02:56Z</time>
      </trkpt>
      <trkpt lat="43.53668" lon="1.50286">
        <ele>188.6</ele>
        <time>2022-07-03T13:02:58Z</time>
      </trkpt>
      <trkpt lat="43.53672" lon="1.50282">
        <ele>188.6</ele>
        <time>2022-07-03T13:02:59Z</time>
      </trkpt>
      <trkpt lat="43.53676" lon="1.50278">
        <ele>188.6</ele>
        <time>2022-07-03T13:03:00Z</time>
      </trkpt>
      <trkpt lat="43.53679" lon="1.50274">
        <ele>188.6</ele>
        <time>2022-07-03T13:03:01Z</time>
      </trkpt>
      <trkpt lat="43.53683" lon="1.5027">
        <ele>188.6</ele>
        <time>2022-07-03T13:03:02Z</time>
      </trkpt>
      <trkpt lat="43.53686" lon="1.50265">
        <ele>188.4</ele>
        <time>2022-07-03T13:03:03Z</time>
      </trkpt>
      <trkpt lat="43.53691" lon="1.5026">
        <ele>188.4</ele>
        <time>2022-07-03T13:03:04Z</time>
      </trkpt>
      <trkpt lat="43.53696" lon="1.50254">
        <ele>188.2</ele>
        <time>2022-07-03T13:03:05Z</time>
      </trkpt>
      <trkpt lat="43.53696" lon="1.50254">
        <ele>188.2</ele>
        <time>2022-07-03T13:03:06Z</time>
      </trkpt>
      <trkpt lat="43.53708" lon="1.5024">
        <ele>188.2</ele>
        <time>2022-07-03T13:03:08Z</time>
      </trkpt>
      <trkpt lat="43.53708" lon="1.5024">
        <ele>188.2</ele>
        <time>2022-07-03T13:03:09Z</time>
      </trkpt>
      <trkpt lat="43.53713" lon="1.50231">
        <ele>188</ele>
        <time>2022-07-03T13:03:10Z</time>
      </trkpt>
      <trkpt lat="43.53716" lon="1.50226">
        <ele>188</ele>
        <time>2022-07-03T13:03:11Z</time>
      </trkpt>
      <trkpt lat="43.5372" lon="1.50221">
        <ele>188</ele>
        <time>2022-07-03T13:03:12Z</time>
      </trkpt>
      <trkpt lat="43.53723" lon="1.50216">
        <ele>188</ele>
        <time>2022-07-03T13:03:13Z</time>
      </trkpt>
      <trkpt lat="43.5373" lon="1.50204">
        <ele>187.8</ele>
        <time>2022-07-03T13:03:15Z</time>
      </trkpt>
      <trkpt lat="43.53745" lon="1.50177">
        <ele>187.4</ele>
        <time>2022-07-03T13:03:19Z</time>
      </trkpt>
      <trkpt lat="43.53748" lon="1.50171">
        <ele>187.4</ele>
        <time>2022-07-03T13:03:20Z</time>
      </trkpt>
      <trkpt lat="43.5375" lon="1.50166">
        <ele>187.2</ele>
        <time>2022-07-03T13:03:21Z</time>
      </trkpt>
      <trkpt lat="43.53752" lon="1.50161">
        <ele>187.2</ele>
        <time>2022-07-03T13:03:22Z</time>
      </trkpt>
      <trkpt lat="43.53754" lon="1.50156">
        <ele>187.2</ele>
        <time>2022-07-03T13:03:23Z</time>
      </trkpt>
      <trkpt lat="43.53756" lon="1.50151">
        <ele>187</ele>
        <time>2022-07-03T13:03:24Z</time>
      </trkpt>
      <trkpt lat="43.53759" lon="1.50139">
        <ele>187</ele>
        <time>2022-07-03T13:03:26Z</time>
      </trkpt>
      <trkpt lat="43.53768" lon="1.50122">
        <ele>187</ele>
        <time>2022-07-03T13:03:29Z</time>
      </trkpt>
      <trkpt lat="43.53771" lon="1.50116">
        <ele>187</ele>
        <time>2022-07-03T13:03:30Z</time>
      </trkpt>
      <trkpt lat="43.53796" lon="1.50069">
        <ele>187.2</ele>
        <time>2022-07-03T13:03:39Z</time>
      </trkpt>
      <trkpt lat="43.53798" lon="1.50065">
        <ele>186.8</ele>
        <time>2022-07-03T13:03:40Z</time>
      </trkpt>
      <trkpt lat="43.538" lon="1.5006">
        <ele>187</ele>
        <time>2022-07-03T13:03:41Z</time>
      </trkpt>
      <trkpt lat="43.53802" lon="1.50056">
        <ele>187</ele>
        <time>2022-07-03T13:03:42Z</time>
      </trkpt>
      <trkpt lat="43.53805" lon="1.50052">
        <ele>187</ele>
        <time>2022-07-03T13:03:43Z</time>
      </trkpt>
      <trkpt lat="43.5381" lon="1.50042">
        <ele>187</ele>
        <time>2022-07-03T13:03:45Z</time>
      </trkpt>
      <trkpt lat="43.53843" lon="1.49991">
        <ele>187</ele>
        <time>2022-07-03T13:03:54Z</time>
      </trkpt>
      <trkpt lat="43.53856" lon="1.49967">
        <ele>187</ele>
        <time>2022-07-03T13:03:58Z</time>
      </trkpt>
      <trkpt lat="43.53861" lon="1.49955">
        <ele>187.2</ele>
        <time>2022-07-03T13:04:00Z</time>
      </trkpt>
      <trkpt lat="43.53865" lon="1.49943">
        <ele>187.2</ele>
        <time>2022-07-03T13:04:02Z</time>
      </trkpt>
      <trkpt lat="43.53867" lon="1.49937">
        <ele>187.2</ele>
        <time>2022-07-03T13:04:03Z</time>
      </trkpt>
      <trkpt lat="43.53872" lon="1.49925">
        <ele>187.4</ele>
        <time>2022-07-03T13:04:05Z</time>
      </trkpt>
      <trkpt lat="43.53874" lon="1.49918">
        <ele>187.4</ele>
        <time>2022-07-03T13:04:06Z</time>
      </trkpt>
      <trkpt lat="43.53876" lon="1.49911">
        <ele>187.4</ele>
        <time>2022-07-03T13:04:07Z</time>
      </trkpt>
      <trkpt lat="43.53878" lon="1.49905">
        <ele>187.6</ele>
        <time>2022-07-03T13:04:08Z</time>
      </trkpt>
      <trkpt lat="43.53881" lon="1.49897">
        <ele>187.6</ele>
        <time>2022-07-03T13:04:09Z</time>
      </trkpt>
      <trkpt lat="43.53883" lon="1.4989">
        <ele>187.6</ele>
        <time>2022-07-03T13:04:10Z</time>
      </trkpt>
      <trkpt lat="43.53892" lon="1.49864">
        <ele>187.6</ele>
        <time>2022-07-03T13:04:14Z</time>
      </trkpt>
      <trkpt lat="43.53893" lon="1.49857">
        <ele>187.6</ele>
        <time>2022-07-03T13:04:15Z</time>
      </trkpt>
      <trkpt lat="43.53894" lon="1.49851">
        <ele>187.6</ele>
        <time>2022-07-03T13:04:16Z</time>
      </trkpt>
      <trkpt lat="43.53896" lon="1.49845">
        <ele>187.8</ele>
        <time>2022-07-03T13:04:17Z</time>
      </trkpt>
      <trkpt lat="43.53897" lon="1.49839">
        <ele>187.8</ele>
        <time>2022-07-03T13:04:18Z</time>
      </trkpt>
      <trkpt lat="43.53899" lon="1.49834">
        <ele>187.8</ele>
        <time>2022-07-03T13:04:19Z</time>
      </trkpt>
      <trkpt lat="43.53899" lon="1.49834">
        <ele>187.8</ele>
        <time>2022-07-03T13:04:20Z</time>
      </trkpt>
      <trkpt lat="43.53901" lon="1.49825">
        <ele>187.8</ele>
        <time>2022-07-03T13:04:21Z</time>
      </trkpt>
      <trkpt lat="43.53902" lon="1.49821">
        <ele>187.8</ele>
        <time>2022-07-03T13:04:22Z</time>
      </trkpt>
      <trkpt lat="43.53903" lon="1.49816">
        <ele>187.8</ele>
        <time>2022-07-03T13:04:23Z</time>
      </trkpt>
      <trkpt lat="43.53905" lon="1.49811">
        <ele>188</ele>
        <time>2022-07-03T13:04:24Z</time>
      </trkpt>
      <trkpt lat="43.53909" lon="1.49786">
        <ele>188</ele>
        <time>2022-07-03T13:04:28Z</time>
      </trkpt>
      <trkpt lat="43.53906" lon="1.49741">
        <ele>187.8</ele>
        <time>2022-07-03T13:04:35Z</time>
      </trkpt>
      <trkpt lat="43.53905" lon="1.49707">
        <ele>187.8</ele>
        <time>2022-07-03T13:04:40Z</time>
      </trkpt>
      <trkpt lat="43.53904" lon="1.49694">
        <ele>187.6</ele>
        <time>2022-07-03T13:04:42Z</time>
      </trkpt>
      <trkpt lat="43.53898" lon="1.4966">
        <ele>187.6</ele>
        <time>2022-07-03T13:04:48Z</time>
      </trkpt>
      <trkpt lat="43.53898" lon="1.49655">
        <ele>187.4</ele>
        <time>2022-07-03T13:04:49Z</time>
      </trkpt>
      <trkpt lat="43.53897" lon="1.49649">
        <ele>187.4</ele>
        <time>2022-07-03T13:04:50Z</time>
      </trkpt>
      <trkpt lat="43.53895" lon="1.49642">
        <ele>187.4</ele>
        <time>2022-07-03T13:04:51Z</time>
      </trkpt>
      <trkpt lat="43.53891" lon="1.49618">
        <ele>187.4</ele>
        <time>2022-07-03T13:04:55Z</time>
      </trkpt>
      <trkpt lat="43.5389" lon="1.49612">
        <ele>187.4</ele>
        <time>2022-07-03T13:04:56Z</time>
      </trkpt>
      <trkpt lat="43.53889" lon="1.49607">
        <ele>187.6</ele>
        <time>2022-07-03T13:04:57Z</time>
      </trkpt>
      <trkpt lat="43.53888" lon="1.49602">
        <ele>187.6</ele>
        <time>2022-07-03T13:04:58Z</time>
      </trkpt>
      <trkpt lat="43.53888" lon="1.49584">
        <ele>187.6</ele>
        <time>2022-07-03T13:05:01Z</time>
      </trkpt>
      <trkpt lat="43.5388" lon="1.49557">
        <ele>187.6</ele>
        <time>2022-07-03T13:05:05Z</time>
      </trkpt>
      <trkpt lat="43.53879" lon="1.49551">
        <ele>187.6</ele>
        <time>2022-07-03T13:05:06Z</time>
      </trkpt>
      <trkpt lat="43.53875" lon="1.49526">
        <ele>187.6</ele>
        <time>2022-07-03T13:05:10Z</time>
      </trkpt>
      <trkpt lat="43.53871" lon="1.49504">
        <ele>187.6</ele>
        <time>2022-07-03T13:05:15Z</time>
      </trkpt>
      <trkpt lat="43.5387" lon="1.49494">
        <ele>187.6</ele>
        <time>2022-07-03T13:05:16Z</time>
      </trkpt>
      <trkpt lat="43.53869" lon="1.49478">
        <ele>187.8</ele>
        <time>2022-07-03T13:05:19Z</time>
      </trkpt>
      <trkpt lat="43.53868" lon="1.49473">
        <ele>187.8</ele>
        <time>2022-07-03T13:05:20Z</time>
      </trkpt>
      <trkpt lat="43.53868" lon="1.49468">
        <ele>187.8</ele>
        <time>2022-07-03T13:05:21Z</time>
      </trkpt>
      <trkpt lat="43.53868" lon="1.49463">
        <ele>187.8</ele>
        <time>2022-07-03T13:05:22Z</time>
      </trkpt>
      <trkpt lat="43.53868" lon="1.49458">
        <ele>187.8</ele>
        <time>2022-07-03T13:05:23Z</time>
      </trkpt>
      <trkpt lat="43.53868" lon="1.49458">
        <ele>187.8</ele>
        <time>2022-07-03T13:05:24Z</time>
      </trkpt>
      <trkpt lat="43.53867" lon="1.49445">
        <ele>187.8</ele>
        <time>2022-07-03T13:05:25Z</time>
      </trkpt>
      <trkpt lat="43.53866" lon="1.49438">
        <ele>187.8</ele>
        <time>2022-07-03T13:05:26Z</time>
      </trkpt>
      <trkpt lat="43.53865" lon="1.49418">
        <ele>188</ele>
        <time>2022-07-03T13:05:29Z</time>
      </trkpt>
      <trkpt lat="43.53864" lon="1.49412">
        <ele>188</ele>
        <time>2022-07-03T13:05:30Z</time>
      </trkpt>
      <trkpt lat="43.53863" lon="1.49405">
        <ele>188</ele>
        <time>2022-07-03T13:05:31Z</time>
      </trkpt>
      <trkpt lat="43.53862" lon="1.49398">
        <ele>188</ele>
        <time>2022-07-03T13:05:32Z</time>
      </trkpt>
      <trkpt lat="43.53858" lon="1.49361">
        <ele>187.8</ele>
        <time>2022-07-03T13:05:37Z</time>
      </trkpt>
      <trkpt lat="43.53858" lon="1.49356">
        <ele>187.8</ele>
        <time>2022-07-03T13:05:38Z</time>
      </trkpt>
      <trkpt lat="43.53859" lon="1.49351">
        <ele>187.8</ele>
        <time>2022-07-03T13:05:39Z</time>
      </trkpt>
      <trkpt lat="43.5386" lon="1.49345">
        <ele>187.8</ele>
        <time>2022-07-03T13:05:40Z</time>
      </trkpt>
      <trkpt lat="43.53864" lon="1.49319">
        <ele>187.6</ele>
        <time>2022-07-03T13:05:44Z</time>
      </trkpt>
      <trkpt lat="43.53867" lon="1.49315">
        <ele>187.6</ele>
        <time>2022-07-03T13:05:45Z</time>
      </trkpt>
      <trkpt lat="43.53871" lon="1.49308">
        <ele>187.6</ele>
        <time>2022-07-03T13:05:46Z</time>
      </trkpt>
      <trkpt lat="43.53876" lon="1.49302">
        <ele>187.6</ele>
        <time>2022-07-03T13:05:47Z</time>
      </trkpt>
      <trkpt lat="43.53879" lon="1.49297">
        <ele>187.6</ele>
        <time>2022-07-03T13:05:48Z</time>
      </trkpt>
      <trkpt lat="43.53883" lon="1.49292">
        <ele>187.6</ele>
        <time>2022-07-03T13:05:49Z</time>
      </trkpt>
      <trkpt lat="43.53899" lon="1.49278">
        <ele>187.2</ele>
        <time>2022-07-03T13:05:53Z</time>
      </trkpt>
      <trkpt lat="43.5391" lon="1.4927">
        <ele>187</ele>
        <time>2022-07-03T13:05:56Z</time>
      </trkpt>
      <trkpt lat="43.53914" lon="1.49268">
        <ele>186.8</ele>
        <time>2022-07-03T13:05:57Z</time>
      </trkpt>
      <trkpt lat="43.53924" lon="1.49264">
        <ele>186.4</ele>
        <time>2022-07-03T13:05:59Z</time>
      </trkpt>
      <trkpt lat="43.5396" lon="1.49256">
        <ele>186</ele>
        <time>2022-07-03T13:06:07Z</time>
      </trkpt>
      <trkpt lat="43.53963" lon="1.49255">
        <ele>186</ele>
        <time>2022-07-03T13:06:08Z</time>
      </trkpt>
      <trkpt lat="43.53967" lon="1.49254">
        <ele>186</ele>
        <time>2022-07-03T13:06:09Z</time>
      </trkpt>
      <trkpt lat="43.53967" lon="1.49254">
        <ele>186</ele>
        <time>2022-07-03T13:06:10Z</time>
      </trkpt>
      <trkpt lat="43.53975" lon="1.49252">
        <ele>186</ele>
        <time>2022-07-03T13:06:11Z</time>
      </trkpt>
      <trkpt lat="43.53984" lon="1.4925">
        <ele>186</ele>
        <time>2022-07-03T13:06:13Z</time>
      </trkpt>
      <trkpt lat="43.54011" lon="1.49242">
        <ele>185.8</ele>
        <time>2022-07-03T13:06:18Z</time>
      </trkpt>
      <trkpt lat="43.54016" lon="1.4924">
        <ele>185.8</ele>
        <time>2022-07-03T13:06:19Z</time>
      </trkpt>
      <trkpt lat="43.5402" lon="1.49238">
        <ele>185.6</ele>
        <time>2022-07-03T13:06:20Z</time>
      </trkpt>
      <trkpt lat="43.54024" lon="1.49237">
        <ele>185.4</ele>
        <time>2022-07-03T13:06:21Z</time>
      </trkpt>
      <trkpt lat="43.54028" lon="1.49235">
        <ele>185.4</ele>
        <time>2022-07-03T13:06:22Z</time>
      </trkpt>
      <trkpt lat="43.54032" lon="1.49234">
        <ele>184.8</ele>
        <time>2022-07-03T13:06:23Z</time>
      </trkpt>
      <trkpt lat="43.54035" lon="1.49233">
        <ele>184.6</ele>
        <time>2022-07-03T13:06:24Z</time>
      </trkpt>
      <trkpt lat="43.54038" lon="1.49232">
        <ele>184.4</ele>
        <time>2022-07-03T13:06:25Z</time>
      </trkpt>
      <trkpt lat="43.54041" lon="1.4923">
        <ele>184.4</ele>
        <time>2022-07-03T13:06:26Z</time>
      </trkpt>
      <trkpt lat="43.54044" lon="1.49229">
        <ele>184.4</ele>
        <time>2022-07-03T13:06:27Z</time>
      </trkpt>
      <trkpt lat="43.54046" lon="1.49228">
        <ele>184.2</ele>
        <time>2022-07-03T13:06:28Z</time>
      </trkpt>
      <trkpt lat="43.5405" lon="1.49227">
        <ele>184.2</ele>
        <time>2022-07-03T13:06:29Z</time>
      </trkpt>
      <trkpt lat="43.54066" lon="1.49215">
        <ele>184.4</ele>
        <time>2022-07-03T13:06:34Z</time>
      </trkpt>
      <trkpt lat="43.54098" lon="1.49193">
        <ele>184.8</ele>
        <time>2022-07-03T13:06:42Z</time>
      </trkpt>
      <trkpt lat="43.54143" lon="1.49166">
        <ele>185.2</ele>
        <time>2022-07-03T13:06:51Z</time>
      </trkpt>
      <trkpt lat="43.54157" lon="1.49158">
        <ele>185.4</ele>
        <time>2022-07-03T13:06:55Z</time>
      </trkpt>
      <trkpt lat="43.5416" lon="1.49156">
        <ele>185.4</ele>
        <time>2022-07-03T13:06:56Z</time>
      </trkpt>
      <trkpt lat="43.54164" lon="1.49153">
        <ele>185.4</ele>
        <time>2022-07-03T13:06:57Z</time>
      </trkpt>
      <trkpt lat="43.5417" lon="1.4915">
        <ele>185.4</ele>
        <time>2022-07-03T13:06:58Z</time>
      </trkpt>
      <trkpt lat="43.54182" lon="1.49143">
        <ele>185.4</ele>
        <time>2022-07-03T13:07:02Z</time>
      </trkpt>
      <trkpt lat="43.54188" lon="1.49139">
        <ele>185.4</ele>
        <time>2022-07-03T13:07:03Z</time>
      </trkpt>
      <trkpt lat="43.54191" lon="1.49137">
        <ele>185.4</ele>
        <time>2022-07-03T13:07:04Z</time>
      </trkpt>
      <trkpt lat="43.54193" lon="1.49135">
        <ele>185.4</ele>
        <time>2022-07-03T13:07:05Z</time>
      </trkpt>
      <trkpt lat="43.54195" lon="1.49132">
        <ele>185.4</ele>
        <time>2022-07-03T13:07:06Z</time>
      </trkpt>
      <trkpt lat="43.54198" lon="1.4913">
        <ele>185.4</ele>
        <time>2022-07-03T13:07:07Z</time>
      </trkpt>
      <trkpt lat="43.54201" lon="1.49128">
        <ele>185.4</ele>
        <time>2022-07-03T13:07:08Z</time>
      </trkpt>
      <trkpt lat="43.54213" lon="1.49121">
        <ele>185.4</ele>
        <time>2022-07-03T13:07:11Z</time>
      </trkpt>
      <trkpt lat="43.54234" lon="1.49109">
        <ele>185.6</ele>
        <time>2022-07-03T13:07:16Z</time>
      </trkpt>
      <trkpt lat="43.54254" lon="1.49101">
        <ele>185.6</ele>
        <time>2022-07-03T13:07:22Z</time>
      </trkpt>
      <trkpt lat="43.54263" lon="1.49097">
        <ele>185.6</ele>
        <time>2022-07-03T13:07:24Z</time>
      </trkpt>
      <trkpt lat="43.54267" lon="1.49095">
        <ele>185.6</ele>
        <time>2022-07-03T13:07:25Z</time>
      </trkpt>
      <trkpt lat="43.54286" lon="1.49087">
        <ele>185.6</ele>
        <time>2022-07-03T13:07:29Z</time>
      </trkpt>
      <trkpt lat="43.54298" lon="1.49081">
        <ele>185.8</ele>
        <time>2022-07-03T13:07:32Z</time>
      </trkpt>
      <trkpt lat="43.54315" lon="1.49072">
        <ele>186</ele>
        <time>2022-07-03T13:07:36Z</time>
      </trkpt>
      <trkpt lat="43.54329" lon="1.49066">
        <ele>186.2</ele>
        <time>2022-07-03T13:07:39Z</time>
      </trkpt>
      <trkpt lat="43.54333" lon="1.49064">
        <ele>186.2</ele>
        <time>2022-07-03T13:07:40Z</time>
      </trkpt>
      <trkpt lat="43.54337" lon="1.49062">
        <ele>186.2</ele>
        <time>2022-07-03T13:07:41Z</time>
      </trkpt>
      <trkpt lat="43.5434" lon="1.49059">
        <ele>186.2</ele>
        <time>2022-07-03T13:07:42Z</time>
      </trkpt>
      <trkpt lat="43.54344" lon="1.49058">
        <ele>186.2</ele>
        <time>2022-07-03T13:07:43Z</time>
      </trkpt>
      <trkpt lat="43.54372" lon="1.49045">
        <ele>186.2</ele>
        <time>2022-07-03T13:07:49Z</time>
      </trkpt>
      <trkpt lat="43.54409" lon="1.4903">
        <ele>186.2</ele>
        <time>2022-07-03T13:07:56Z</time>
      </trkpt>
      <trkpt lat="43.54437" lon="1.49019">
        <ele>186.2</ele>
        <time>2022-07-03T13:08:03Z</time>
      </trkpt>
      <trkpt lat="43.54439" lon="1.49017">
        <ele>186.2</ele>
        <time>2022-07-03T13:08:04Z</time>
      </trkpt>
      <trkpt lat="43.54442" lon="1.49015">
        <ele>186.2</ele>
        <time>2022-07-03T13:08:05Z</time>
      </trkpt>
      <trkpt lat="43.54445" lon="1.49014">
        <ele>186.2</ele>
        <time>2022-07-03T13:08:06Z</time>
      </trkpt>
      <trkpt lat="43.54452" lon="1.49012">
        <ele>186.4</ele>
        <time>2022-07-03T13:08:08Z</time>
      </trkpt>
      <trkpt lat="43.54459" lon="1.49007">
        <ele>186.4</ele>
        <time>2022-07-03T13:08:11Z</time>
      </trkpt>
      <trkpt lat="43.54459" lon="1.49007">
        <ele>186.4</ele>
        <time>2022-07-03T13:08:12Z</time>
      </trkpt>
      <trkpt lat="43.54463" lon="1.49002">
        <ele>186.4</ele>
        <time>2022-07-03T13:08:13Z</time>
      </trkpt>
      <trkpt lat="43.54465" lon="1.48999">
        <ele>186.4</ele>
        <time>2022-07-03T13:08:14Z</time>
      </trkpt>
      <trkpt lat="43.54465" lon="1.48999">
        <ele>186.4</ele>
        <time>2022-07-03T13:08:15Z</time>
      </trkpt>
      <trkpt lat="43.54475" lon="1.48978">
        <ele>186</ele>
        <time>2022-07-03T13:08:19Z</time>
      </trkpt>
      <trkpt lat="43.54477" lon="1.48973">
        <ele>186</ele>
        <time>2022-07-03T13:08:20Z</time>
      </trkpt>
      <trkpt lat="43.54491" lon="1.48948">
        <ele>184.4</ele>
        <time>2022-07-03T13:08:25Z</time>
      </trkpt>
      <trkpt lat="43.54494" lon="1.48943">
        <ele>184.2</ele>
        <time>2022-07-03T13:08:26Z</time>
      </trkpt>
      <trkpt lat="43.54496" lon="1.48938">
        <ele>184</ele>
        <time>2022-07-03T13:08:27Z</time>
      </trkpt>
      <trkpt lat="43.54499" lon="1.48933">
        <ele>183.8</ele>
        <time>2022-07-03T13:08:28Z</time>
      </trkpt>
      <trkpt lat="43.54509" lon="1.48916">
        <ele>183.4</ele>
        <time>2022-07-03T13:08:31Z</time>
      </trkpt>
      <trkpt lat="43.54511" lon="1.4891">
        <ele>183.4</ele>
        <time>2022-07-03T13:08:32Z</time>
      </trkpt>
      <trkpt lat="43.54513" lon="1.48904">
        <ele>183.2</ele>
        <time>2022-07-03T13:08:33Z</time>
      </trkpt>
      <trkpt lat="43.54531" lon="1.48866">
        <ele>182.6</ele>
        <time>2022-07-03T13:08:39Z</time>
      </trkpt>
      <trkpt lat="43.54535" lon="1.48859">
        <ele>182.4</ele>
        <time>2022-07-03T13:08:40Z</time>
      </trkpt>
      <trkpt lat="43.54538" lon="1.48852">
        <ele>182.4</ele>
        <time>2022-07-03T13:08:41Z</time>
      </trkpt>
      <trkpt lat="43.54552" lon="1.4881">
        <ele>181.6</ele>
        <time>2022-07-03T13:08:48Z</time>
      </trkpt>
      <trkpt lat="43.54554" lon="1.48804">
        <ele>181.2</ele>
        <time>2022-07-03T13:08:49Z</time>
      </trkpt>
      <trkpt lat="43.54556" lon="1.48799">
        <ele>181</ele>
        <time>2022-07-03T13:08:50Z</time>
      </trkpt>
      <trkpt lat="43.54558" lon="1.48793">
        <ele>181</ele>
        <time>2022-07-03T13:08:51Z</time>
      </trkpt>
      <trkpt lat="43.54561" lon="1.48787">
        <ele>180.8</ele>
        <time>2022-07-03T13:08:52Z</time>
      </trkpt>
      <trkpt lat="43.54564" lon="1.48781">
        <ele>180.8</ele>
        <time>2022-07-03T13:08:53Z</time>
      </trkpt>
      <trkpt lat="43.54566" lon="1.48774">
        <ele>180.6</ele>
        <time>2022-07-03T13:08:54Z</time>
      </trkpt>
      <trkpt lat="43.54569" lon="1.48768">
        <ele>180.4</ele>
        <time>2022-07-03T13:08:55Z</time>
      </trkpt>
      <trkpt lat="43.54579" lon="1.48737">
        <ele>180</ele>
        <time>2022-07-03T13:09:00Z</time>
      </trkpt>
      <trkpt lat="43.54585" lon="1.48724">
        <ele>179.6</ele>
        <time>2022-07-03T13:09:02Z</time>
      </trkpt>
      <trkpt lat="43.5459" lon="1.48712">
        <ele>179.2</ele>
        <time>2022-07-03T13:09:04Z</time>
      </trkpt>
      <trkpt lat="43.54603" lon="1.4868">
        <ele>178.6</ele>
        <time>2022-07-03T13:09:09Z</time>
      </trkpt>
      <trkpt lat="43.54615" lon="1.48649">
        <ele>178</ele>
        <time>2022-07-03T13:09:14Z</time>
      </trkpt>
      <trkpt lat="43.54627" lon="1.48626">
        <ele>177.8</ele>
        <time>2022-07-03T13:09:18Z</time>
      </trkpt>
      <trkpt lat="43.54631" lon="1.48621">
        <ele>177.8</ele>
        <time>2022-07-03T13:09:19Z</time>
      </trkpt>
      <trkpt lat="43.54661" lon="1.48587">
        <ele>177.8</ele>
        <time>2022-07-03T13:09:27Z</time>
      </trkpt>
      <trkpt lat="43.54703" lon="1.4855">
        <ele>177.2</ele>
        <time>2022-07-03T13:09:37Z</time>
      </trkpt>
      <trkpt lat="43.54707" lon="1.48546">
        <ele>177</ele>
        <time>2022-07-03T13:09:38Z</time>
      </trkpt>
      <trkpt lat="43.54722" lon="1.48535">
        <ele>176.8</ele>
        <time>2022-07-03T13:09:42Z</time>
      </trkpt>
      <trkpt lat="43.54725" lon="1.48532">
        <ele>176.6</ele>
        <time>2022-07-03T13:09:43Z</time>
      </trkpt>
      <trkpt lat="43.54729" lon="1.48529">
        <ele>176.6</ele>
        <time>2022-07-03T13:09:44Z</time>
      </trkpt>
      <trkpt lat="43.54732" lon="1.48527">
        <ele>176.6</ele>
        <time>2022-07-03T13:09:45Z</time>
      </trkpt>
      <trkpt lat="43.54735" lon="1.48525">
        <ele>176.6</ele>
        <time>2022-07-03T13:09:46Z</time>
      </trkpt>
      <trkpt lat="43.54745" lon="1.48517">
        <ele>176.8</ele>
        <time>2022-07-03T13:09:49Z</time>
      </trkpt>
      <trkpt lat="43.54755" lon="1.4851">
        <ele>177.2</ele>
        <time>2022-07-03T13:09:52Z</time>
      </trkpt>
      <trkpt lat="43.54759" lon="1.48508">
        <ele>177.2</ele>
        <time>2022-07-03T13:09:53Z</time>
      </trkpt>
      <trkpt lat="43.54762" lon="1.48506">
        <ele>177.4</ele>
        <time>2022-07-03T13:09:54Z</time>
      </trkpt>
      <trkpt lat="43.54765" lon="1.48504">
        <ele>177.6</ele>
        <time>2022-07-03T13:09:55Z</time>
      </trkpt>
      <trkpt lat="43.54767" lon="1.48502">
        <ele>177.8</ele>
        <time>2022-07-03T13:09:56Z</time>
      </trkpt>
      <trkpt lat="43.54769" lon="1.485">
        <ele>177.8</ele>
        <time>2022-07-03T13:09:57Z</time>
      </trkpt>
      <trkpt lat="43.54771" lon="1.48498">
        <ele>178</ele>
        <time>2022-07-03T13:09:58Z</time>
      </trkpt>
      <trkpt lat="43.54774" lon="1.48496">
        <ele>178</ele>
        <time>2022-07-03T13:09:59Z</time>
      </trkpt>
      <trkpt lat="43.54776" lon="1.48493">
        <ele>178.2</ele>
        <time>2022-07-03T13:10:00Z</time>
      </trkpt>
      <trkpt lat="43.54789" lon="1.48477">
        <ele>179.2</ele>
        <time>2022-07-03T13:10:05Z</time>
      </trkpt>
      <trkpt lat="43.54791" lon="1.48475">
        <ele>179.2</ele>
        <time>2022-07-03T13:10:06Z</time>
      </trkpt>
      <trkpt lat="43.54793" lon="1.48474">
        <ele>179.2</ele>
        <time>2022-07-03T13:10:07Z</time>
      </trkpt>
      <trkpt lat="43.54799" lon="1.48472">
        <ele>179.4</ele>
        <time>2022-07-03T13:10:09Z</time>
      </trkpt>
      <trkpt lat="43.54803" lon="1.48471">
        <ele>179.4</ele>
        <time>2022-07-03T13:10:10Z</time>
      </trkpt>
      <trkpt lat="43.54814" lon="1.48466">
        <ele>179.4</ele>
        <time>2022-07-03T13:10:13Z</time>
      </trkpt>
      <trkpt lat="43.54817" lon="1.48466">
        <ele>179.4</ele>
        <time>2022-07-03T13:10:14Z</time>
      </trkpt>
      <trkpt lat="43.5482" lon="1.48466">
        <ele>179.4</ele>
        <time>2022-07-03T13:10:15Z</time>
      </trkpt>
      <trkpt lat="43.54823" lon="1.48466">
        <ele>179.4</ele>
        <time>2022-07-03T13:10:16Z</time>
      </trkpt>
      <trkpt lat="43.54825" lon="1.48466">
        <ele>179.4</ele>
        <time>2022-07-03T13:10:17Z</time>
      </trkpt>
      <trkpt lat="43.54827" lon="1.48469">
        <ele>179.6</ele>
        <time>2022-07-03T13:10:18Z</time>
      </trkpt>
      <trkpt lat="43.54827" lon="1.48473">
        <ele>179.8</ele>
        <time>2022-07-03T13:10:19Z</time>
      </trkpt>
      <trkpt lat="43.54827" lon="1.4848">
        <ele>180</ele>
        <time>2022-07-03T13:10:21Z</time>
      </trkpt>
      <trkpt lat="43.54821" lon="1.48484">
        <ele>180.2</ele>
        <time>2022-07-03T13:10:24Z</time>
      </trkpt>
      <trkpt lat="43.54819" lon="1.48483">
        <ele>180.4</ele>
        <time>2022-07-03T13:10:25Z</time>
      </trkpt>
      <trkpt lat="43.54818" lon="1.48481">
        <ele>180.6</ele>
        <time>2022-07-03T13:10:26Z</time>
      </trkpt>
      <trkpt lat="43.54818" lon="1.48478">
        <ele>180.6</ele>
        <time>2022-07-03T13:10:27Z</time>
      </trkpt>
      <trkpt lat="43.54817" lon="1.48475">
        <ele>180.8</ele>
        <time>2022-07-03T13:10:28Z</time>
      </trkpt>
      <trkpt lat="43.54817" lon="1.48472">
        <ele>180.8</ele>
        <time>2022-07-03T13:10:29Z</time>
      </trkpt>
      <trkpt lat="43.54818" lon="1.4847">
        <ele>180.8</ele>
        <time>2022-07-03T13:10:30Z</time>
      </trkpt>
      <trkpt lat="43.54819" lon="1.48469">
        <ele>181</ele>
        <time>2022-07-03T13:10:31Z</time>
      </trkpt>
      <trkpt lat="43.5482" lon="1.48468">
        <ele>181</ele>
        <time>2022-07-03T13:10:32Z</time>
      </trkpt>
      <trkpt lat="43.54821" lon="1.48467">
        <ele>181</ele>
        <time>2022-07-03T13:10:33Z</time>
      </trkpt>
      <trkpt lat="43.54823" lon="1.48465">
        <ele>181</ele>
        <time>2022-07-03T13:10:34Z</time>
      </trkpt>
      <trkpt lat="43.54825" lon="1.48464">
        <ele>181.2</ele>
        <time>2022-07-03T13:10:35Z</time>
      </trkpt>
      <trkpt lat="43.54827" lon="1.48462">
        <ele>181.2</ele>
        <time>2022-07-03T13:10:36Z</time>
      </trkpt>
      <trkpt lat="43.54832" lon="1.48457">
        <ele>181.2</ele>
        <time>2022-07-03T13:10:38Z</time>
      </trkpt>
      <trkpt lat="43.54838" lon="1.48453">
        <ele>181.6</ele>
        <time>2022-07-03T13:10:40Z</time>
      </trkpt>
      <trkpt lat="43.54841" lon="1.48451">
        <ele>181.6</ele>
        <time>2022-07-03T13:10:41Z</time>
      </trkpt>
      <trkpt lat="43.54845" lon="1.48447">
        <ele>182.2</ele>
        <time>2022-07-03T13:10:43Z</time>
      </trkpt>
      <trkpt lat="43.54848" lon="1.48445">
        <ele>182.4</ele>
        <time>2022-07-03T13:10:44Z</time>
      </trkpt>
      <trkpt lat="43.54862" lon="1.48432">
        <ele>183.2</ele>
        <time>2022-07-03T13:10:49Z</time>
      </trkpt>
      <trkpt lat="43.54867" lon="1.48428">
        <ele>183.2</ele>
        <time>2022-07-03T13:10:50Z</time>
      </trkpt>
      <trkpt lat="43.5487" lon="1.48425">
        <ele>183.2</ele>
        <time>2022-07-03T13:10:51Z</time>
      </trkpt>
      <trkpt lat="43.54875" lon="1.48422">
        <ele>183.2</ele>
        <time>2022-07-03T13:10:52Z</time>
      </trkpt>
      <trkpt lat="43.54879" lon="1.48419">
        <ele>183.2</ele>
        <time>2022-07-03T13:10:53Z</time>
      </trkpt>
      <trkpt lat="43.54883" lon="1.48415">
        <ele>183.4</ele>
        <time>2022-07-03T13:10:54Z</time>
      </trkpt>
      <trkpt lat="43.54888" lon="1.48411">
        <ele>183.4</ele>
        <time>2022-07-03T13:10:55Z</time>
      </trkpt>
      <trkpt lat="43.54892" lon="1.48408">
        <ele>183.6</ele>
        <time>2022-07-03T13:10:56Z</time>
      </trkpt>
      <trkpt lat="43.54896" lon="1.48405">
        <ele>183.6</ele>
        <time>2022-07-03T13:10:57Z</time>
      </trkpt>
      <trkpt lat="43.54899" lon="1.48402">
        <ele>183.8</ele>
        <time>2022-07-03T13:10:58Z</time>
      </trkpt>
      <trkpt lat="43.54903" lon="1.48399">
        <ele>183.8</ele>
        <time>2022-07-03T13:10:59Z</time>
      </trkpt>
      <trkpt lat="43.54908" lon="1.48396">
        <ele>184</ele>
        <time>2022-07-03T13:11:00Z</time>
      </trkpt>
      <trkpt lat="43.54912" lon="1.48393">
        <ele>184.2</ele>
        <time>2022-07-03T13:11:01Z</time>
      </trkpt>
      <trkpt lat="43.54915" lon="1.48389">
        <ele>184.4</ele>
        <time>2022-07-03T13:11:02Z</time>
      </trkpt>
      <trkpt lat="43.54919" lon="1.48385">
        <ele>184.4</ele>
        <time>2022-07-03T13:11:03Z</time>
      </trkpt>
      <trkpt lat="43.54923" lon="1.48381">
        <ele>184.8</ele>
        <time>2022-07-03T13:11:04Z</time>
      </trkpt>
      <trkpt lat="43.54927" lon="1.48377">
        <ele>184.8</ele>
        <time>2022-07-03T13:11:05Z</time>
      </trkpt>
      <trkpt lat="43.5493" lon="1.48374">
        <ele>185</ele>
        <time>2022-07-03T13:11:06Z</time>
      </trkpt>
      <trkpt lat="43.54934" lon="1.4837">
        <ele>185.2</ele>
        <time>2022-07-03T13:11:07Z</time>
      </trkpt>
      <trkpt lat="43.54937" lon="1.48366">
        <ele>185.4</ele>
        <time>2022-07-03T13:11:08Z</time>
      </trkpt>
      <trkpt lat="43.54941" lon="1.48362">
        <ele>185.4</ele>
        <time>2022-07-03T13:11:09Z</time>
      </trkpt>
      <trkpt lat="43.54945" lon="1.48358">
        <ele>185.6</ele>
        <time>2022-07-03T13:11:10Z</time>
      </trkpt>
      <trkpt lat="43.54949" lon="1.48354">
        <ele>185.6</ele>
        <time>2022-07-03T13:11:11Z</time>
      </trkpt>
      <trkpt lat="43.54953" lon="1.4835">
        <ele>185.8</ele>
        <time>2022-07-03T13:11:12Z</time>
      </trkpt>
      <trkpt lat="43.54957" lon="1.48345">
        <ele>185.8</ele>
        <time>2022-07-03T13:11:13Z</time>
      </trkpt>
      <trkpt lat="43.54961" lon="1.48341">
        <ele>185.8</ele>
        <time>2022-07-03T13:11:14Z</time>
      </trkpt>
      <trkpt lat="43.54965" lon="1.48336">
        <ele>186</ele>
        <time>2022-07-03T13:11:15Z</time>
      </trkpt>
      <trkpt lat="43.54969" lon="1.48332">
        <ele>186</ele>
        <time>2022-07-03T13:11:16Z</time>
      </trkpt>
      <trkpt lat="43.54972" lon="1.48327">
        <ele>186</ele>
        <time>2022-07-03T13:11:17Z</time>
      </trkpt>
      <trkpt lat="43.54976" lon="1.48324">
        <ele>186.2</ele>
        <time>2022-07-03T13:11:18Z</time>
      </trkpt>
      <trkpt lat="43.5498" lon="1.4832">
        <ele>186.4</ele>
        <time>2022-07-03T13:11:19Z</time>
      </trkpt>
      <trkpt lat="43.54983" lon="1.48316">
        <ele>186.4</ele>
        <time>2022-07-03T13:11:20Z</time>
      </trkpt>
      <trkpt lat="43.54987" lon="1.48312">
        <ele>186.6</ele>
        <time>2022-07-03T13:11:21Z</time>
      </trkpt>
      <trkpt lat="43.5499" lon="1.48309">
        <ele>186.6</ele>
        <time>2022-07-03T13:11:22Z</time>
      </trkpt>
      <trkpt lat="43.54993" lon="1.48305">
        <ele>186.8</ele>
        <time>2022-07-03T13:11:23Z</time>
      </trkpt>
      <trkpt lat="43.54996" lon="1.48302">
        <ele>186.8</ele>
        <time>2022-07-03T13:11:24Z</time>
      </trkpt>
      <trkpt lat="43.54999" lon="1.48298">
        <ele>187</ele>
        <time>2022-07-03T13:11:25Z</time>
      </trkpt>
      <trkpt lat="43.55003" lon="1.48295">
        <ele>187</ele>
        <time>2022-07-03T13:11:26Z</time>
      </trkpt>
      <trkpt lat="43.55006" lon="1.48292">
        <ele>187</ele>
        <time>2022-07-03T13:11:27Z</time>
      </trkpt>
      <trkpt lat="43.55009" lon="1.48289">
        <ele>187.2</ele>
        <time>2022-07-03T13:11:28Z</time>
      </trkpt>
      <trkpt lat="43.55012" lon="1.48285">
        <ele>187.2</ele>
        <time>2022-07-03T13:11:29Z</time>
      </trkpt>
      <trkpt lat="43.55016" lon="1.48282">
        <ele>187.2</ele>
        <time>2022-07-03T13:11:30Z</time>
      </trkpt>
      <trkpt lat="43.55019" lon="1.48278">
        <ele>187.4</ele>
        <time>2022-07-03T13:11:31Z</time>
      </trkpt>
      <trkpt lat="43.55034" lon="1.48265">
        <ele>187.4</ele>
        <time>2022-07-03T13:11:35Z</time>
      </trkpt>
      <trkpt lat="43.55038" lon="1.48261">
        <ele>187.6</ele>
        <time>2022-07-03T13:11:36Z</time>
      </trkpt>
      <trkpt lat="43.55056" lon="1.48245">
        <ele>187.6</ele>
        <time>2022-07-03T13:11:41Z</time>
      </trkpt>
      <trkpt lat="43.5506" lon="1.48242">
        <ele>187.6</ele>
        <time>2022-07-03T13:11:42Z</time>
      </trkpt>
      <trkpt lat="43.55069" lon="1.48235">
        <ele>187.6</ele>
        <time>2022-07-03T13:11:44Z</time>
      </trkpt>
      <trkpt lat="43.55078" lon="1.48229">
        <ele>187.8</ele>
        <time>2022-07-03T13:11:46Z</time>
      </trkpt>
      <trkpt lat="43.55081" lon="1.48227">
        <ele>187.8</ele>
        <time>2022-07-03T13:11:47Z</time>
      </trkpt>
      <trkpt lat="43.55084" lon="1.48224">
        <ele>187.8</ele>
        <time>2022-07-03T13:11:48Z</time>
      </trkpt>
      <trkpt lat="43.55088" lon="1.48221">
        <ele>187.8</ele>
        <time>2022-07-03T13:11:49Z</time>
      </trkpt>
      <trkpt lat="43.55088" lon="1.48221">
        <ele>188</ele>
        <time>2022-07-03T13:11:50Z</time>
      </trkpt>
      <trkpt lat="43.55095" lon="1.48216">
        <ele>188</ele>
        <time>2022-07-03T13:11:51Z</time>
      </trkpt>
      <trkpt lat="43.55099" lon="1.48215">
        <ele>188</ele>
        <time>2022-07-03T13:11:52Z</time>
      </trkpt>
      <trkpt lat="43.55113" lon="1.4821">
        <ele>188</ele>
        <time>2022-07-03T13:11:55Z</time>
      </trkpt>
      <trkpt lat="43.55143" lon="1.48201">
        <ele>188.2</ele>
        <time>2022-07-03T13:12:01Z</time>
      </trkpt>
      <trkpt lat="43.55147" lon="1.48199">
        <ele>188.2</ele>
        <time>2022-07-03T13:12:02Z</time>
      </trkpt>
      <trkpt lat="43.55155" lon="1.48196">
        <ele>188.2</ele>
        <time>2022-07-03T13:12:04Z</time>
      </trkpt>
      <trkpt lat="43.55159" lon="1.48195">
        <ele>188.2</ele>
        <time>2022-07-03T13:12:05Z</time>
      </trkpt>
      <trkpt lat="43.55164" lon="1.48194">
        <ele>188.2</ele>
        <time>2022-07-03T13:12:06Z</time>
      </trkpt>
      <trkpt lat="43.55193" lon="1.48182">
        <ele>188.4</ele>
        <time>2022-07-03T13:12:13Z</time>
      </trkpt>
      <trkpt lat="43.55197" lon="1.48181">
        <ele>188.6</ele>
        <time>2022-07-03T13:12:14Z</time>
      </trkpt>
      <trkpt lat="43.55202" lon="1.4818">
        <ele>188.6</ele>
        <time>2022-07-03T13:12:15Z</time>
      </trkpt>
      <trkpt lat="43.55215" lon="1.48175">
        <ele>188.6</ele>
        <time>2022-07-03T13:12:18Z</time>
      </trkpt>
      <trkpt lat="43.5522" lon="1.48174">
        <ele>188.6</ele>
        <time>2022-07-03T13:12:19Z</time>
      </trkpt>
      <trkpt lat="43.55229" lon="1.4817">
        <ele>188.6</ele>
        <time>2022-07-03T13:12:21Z</time>
      </trkpt>
      <trkpt lat="43.55233" lon="1.48168">
        <ele>188.6</ele>
        <time>2022-07-03T13:12:22Z</time>
      </trkpt>
      <trkpt lat="43.55238" lon="1.48166">
        <ele>188.6</ele>
        <time>2022-07-03T13:12:23Z</time>
      </trkpt>
      <trkpt lat="43.55242" lon="1.48165">
        <ele>188.6</ele>
        <time>2022-07-03T13:12:24Z</time>
      </trkpt>
      <trkpt lat="43.55246" lon="1.48163">
        <ele>188.4</ele>
        <time>2022-07-03T13:12:25Z</time>
      </trkpt>
      <trkpt lat="43.5525" lon="1.48161">
        <ele>188.4</ele>
        <time>2022-07-03T13:12:26Z</time>
      </trkpt>
      <trkpt lat="43.55259" lon="1.48159">
        <ele>188.4</ele>
        <time>2022-07-03T13:12:28Z</time>
      </trkpt>
      <trkpt lat="43.55263" lon="1.48158">
        <ele>188.2</ele>
        <time>2022-07-03T13:12:29Z</time>
      </trkpt>
      <trkpt lat="43.55268" lon="1.48158">
        <ele>188.2</ele>
        <time>2022-07-03T13:12:30Z</time>
      </trkpt>
      <trkpt lat="43.55278" lon="1.48156">
        <ele>188.2</ele>
        <time>2022-07-03T13:12:32Z</time>
      </trkpt>
      <trkpt lat="43.55282" lon="1.48154">
        <ele>188.2</ele>
        <time>2022-07-03T13:12:33Z</time>
      </trkpt>
      <trkpt lat="43.55287" lon="1.48153">
        <ele>188.2</ele>
        <time>2022-07-03T13:12:34Z</time>
      </trkpt>
      <trkpt lat="43.55296" lon="1.48149">
        <ele>187.8</ele>
        <time>2022-07-03T13:12:36Z</time>
      </trkpt>
      <trkpt lat="43.55306" lon="1.48146">
        <ele>187.8</ele>
        <time>2022-07-03T13:12:38Z</time>
      </trkpt>
      <trkpt lat="43.55329" lon="1.4814">
        <ele>187.6</ele>
        <time>2022-07-03T13:12:43Z</time>
      </trkpt>
      <trkpt lat="43.55368" lon="1.48133">
        <ele>187.4</ele>
        <time>2022-07-03T13:12:52Z</time>
      </trkpt>
      <trkpt lat="43.55372" lon="1.48132">
        <ele>187.4</ele>
        <time>2022-07-03T13:12:53Z</time>
      </trkpt>
      <trkpt lat="43.55376" lon="1.48131">
        <ele>187.2</ele>
        <time>2022-07-03T13:12:54Z</time>
      </trkpt>
      <trkpt lat="43.55384" lon="1.48128">
        <ele>187.2</ele>
        <time>2022-07-03T13:12:56Z</time>
      </trkpt>
      <trkpt lat="43.55389" lon="1.48127">
        <ele>187.2</ele>
        <time>2022-07-03T13:12:57Z</time>
      </trkpt>
      <trkpt lat="43.55393" lon="1.48126">
        <ele>187</ele>
        <time>2022-07-03T13:12:58Z</time>
      </trkpt>
      <trkpt lat="43.55403" lon="1.48126">
        <ele>187</ele>
        <time>2022-07-03T13:13:00Z</time>
      </trkpt>
      <trkpt lat="43.55422" lon="1.48127">
        <ele>186.6</ele>
        <time>2022-07-03T13:13:04Z</time>
      </trkpt>
      <trkpt lat="43.55427" lon="1.48128">
        <ele>186.4</ele>
        <time>2022-07-03T13:13:05Z</time>
      </trkpt>
      <trkpt lat="43.55431" lon="1.48127">
        <ele>186.4</ele>
        <time>2022-07-03T13:13:06Z</time>
      </trkpt>
      <trkpt lat="43.55435" lon="1.48128">
        <ele>186.2</ele>
        <time>2022-07-03T13:13:07Z</time>
      </trkpt>
      <trkpt lat="43.55449" lon="1.48128">
        <ele>186.2</ele>
        <time>2022-07-03T13:13:10Z</time>
      </trkpt>
      <trkpt lat="43.55454" lon="1.48127">
        <ele>186.2</ele>
        <time>2022-07-03T13:13:11Z</time>
      </trkpt>
      <trkpt lat="43.55459" lon="1.48126">
        <ele>186.2</ele>
        <time>2022-07-03T13:13:12Z</time>
      </trkpt>
      <trkpt lat="43.55464" lon="1.48125">
        <ele>186.2</ele>
        <time>2022-07-03T13:13:13Z</time>
      </trkpt>
      <trkpt lat="43.5547" lon="1.48123">
        <ele>186.2</ele>
        <time>2022-07-03T13:13:14Z</time>
      </trkpt>
      <trkpt lat="43.55475" lon="1.48121">
        <ele>186.2</ele>
        <time>2022-07-03T13:13:15Z</time>
      </trkpt>
      <trkpt lat="43.55496" lon="1.48112">
        <ele>186</ele>
        <time>2022-07-03T13:13:19Z</time>
      </trkpt>
      <trkpt lat="43.55501" lon="1.48109">
        <ele>186</ele>
        <time>2022-07-03T13:13:20Z</time>
      </trkpt>
      <trkpt lat="43.55506" lon="1.48107">
        <ele>185.8</ele>
        <time>2022-07-03T13:13:21Z</time>
      </trkpt>
      <trkpt lat="43.55514" lon="1.48104">
        <ele>185.6</ele>
        <time>2022-07-03T13:13:23Z</time>
      </trkpt>
      <trkpt lat="43.55518" lon="1.48102">
        <ele>185.2</ele>
        <time>2022-07-03T13:13:24Z</time>
      </trkpt>
      <trkpt lat="43.55523" lon="1.481">
        <ele>185</ele>
        <time>2022-07-03T13:13:25Z</time>
      </trkpt>
      <trkpt lat="43.55529" lon="1.48096">
        <ele>184.8</ele>
        <time>2022-07-03T13:13:26Z</time>
      </trkpt>
      <trkpt lat="43.55535" lon="1.48092">
        <ele>184.6</ele>
        <time>2022-07-03T13:13:27Z</time>
      </trkpt>
      <trkpt lat="43.5554" lon="1.48089">
        <ele>184.6</ele>
        <time>2022-07-03T13:13:28Z</time>
      </trkpt>
      <trkpt lat="43.55545" lon="1.48087">
        <ele>184.4</ele>
        <time>2022-07-03T13:13:29Z</time>
      </trkpt>
      <trkpt lat="43.5555" lon="1.48085">
        <ele>184.4</ele>
        <time>2022-07-03T13:13:30Z</time>
      </trkpt>
      <trkpt lat="43.55554" lon="1.48084">
        <ele>184.2</ele>
        <time>2022-07-03T13:13:31Z</time>
      </trkpt>
      <trkpt lat="43.55558" lon="1.48084">
        <ele>184.2</ele>
        <time>2022-07-03T13:13:32Z</time>
      </trkpt>
      <trkpt lat="43.55563" lon="1.48084">
        <ele>184</ele>
        <time>2022-07-03T13:13:33Z</time>
      </trkpt>
      <trkpt lat="43.55566" lon="1.48085">
        <ele>183.8</ele>
        <time>2022-07-03T13:13:34Z</time>
      </trkpt>
      <trkpt lat="43.5557" lon="1.48085">
        <ele>183.8</ele>
        <time>2022-07-03T13:13:35Z</time>
      </trkpt>
      <trkpt lat="43.55574" lon="1.48084">
        <ele>183.6</ele>
        <time>2022-07-03T13:13:36Z</time>
      </trkpt>
      <trkpt lat="43.55578" lon="1.48085">
        <ele>183.4</ele>
        <time>2022-07-03T13:13:37Z</time>
      </trkpt>
      <trkpt lat="43.55582" lon="1.48086">
        <ele>183.4</ele>
        <time>2022-07-03T13:13:38Z</time>
      </trkpt>
      <trkpt lat="43.55585" lon="1.48087">
        <ele>183.2</ele>
        <time>2022-07-03T13:13:39Z</time>
      </trkpt>
      <trkpt lat="43.55588" lon="1.48088">
        <ele>183.2</ele>
        <time>2022-07-03T13:13:40Z</time>
      </trkpt>
      <trkpt lat="43.55589" lon="1.48089">
        <ele>183.2</ele>
        <time>2022-07-03T13:13:41Z</time>
      </trkpt>
      <trkpt lat="43.5559" lon="1.4809">
        <ele>183.2</ele>
        <time>2022-07-03T13:13:42Z</time>
      </trkpt>
      <trkpt lat="43.55591" lon="1.4809">
        <ele>183.2</ele>
        <time>2022-07-03T13:13:43Z</time>
      </trkpt>
      <trkpt lat="43.55591" lon="1.4809">
        <ele>183.2</ele>
        <time>2022-07-03T13:13:44Z</time>
      </trkpt>
      <trkpt lat="43.55591" lon="1.4809">
        <ele>183.2</ele>
        <time>2022-07-03T13:13:45Z</time>
      </trkpt>
    </trkseg>
  </trk>
</gpx>